<?xml version='1.0' encoding='UTF-8'?><gpx version="1.1" creator="JPX - https://github.com/jenetics/jpx" xmlns="http://www.topografix.com/GPX/1/1"><trk><trkseg><trkpt lat="42.15005" lon="14.5854138"><ele>195.33333333333334</ele><time>2026-04-20T07:02:44.424Z</time></trkpt><trkpt lat="42.1500027" lon="14.5853454"><ele>195.66666666666669</ele><time>2026-04-20T07:02:55.98Z</time></trkpt><trkpt lat="42.1499801" lon="14.5852628"><ele>196.0</ele><time>2026-04-20T07:03:02.875Z</time></trkpt><trkpt lat="42.1499077" lon="14.5852851"><ele>196.33333333333334</ele><time>2026-04-20T07:04:42.875Z</time></trkpt><trkpt lat="42.1498279" lon="14.5852415"><ele>196.66666666666669</ele><time>2026-04-20T07:04:45.874Z</time></trkpt><trkpt lat="42.1497562" lon="14.5852138"><ele>197.0</ele><time>2026-04-20T07:04:48.874Z</time></trkpt><trkpt lat="42.1496678" lon="14.5851949"><ele>197.00000000000003</ele><time>2026-04-20T07:04:51.875Z</time></trkpt><trkpt lat="42.1495805" lon="14.5851877"><ele>197.0</ele><time>2026-04-20T07:04:53.875Z</time></trkpt><trkpt lat="42.1494776" lon="14.5851643"><ele>197.0</ele><time>2026-04-20T07:04:55.875Z</time></trkpt><trkpt lat="42.149392" lon="14.5851493"><ele>197.0</ele><time>2026-04-20T07:04:57.875Z</time></trkpt><trkpt lat="42.1493213" lon="14.5851639"><ele>197.00000000000003</ele><time>2026-04-20T07:04:59.874Z</time></trkpt><trkpt lat="42.1492471" lon="14.5851931"><ele>197.0</ele><time>2026-04-20T07:05:01.875Z</time></trkpt><trkpt lat="42.1492075" lon="14.5852628"><ele>196.33333333333334</ele><time>2026-04-20T07:05:04.875Z</time></trkpt><trkpt lat="42.1491967" lon="14.5853563"><ele>195.66666666666669</ele><time>2026-04-20T07:05:07.874Z</time></trkpt><trkpt lat="42.1491854" lon="14.5854632"><ele>195.0</ele><time>2026-04-20T07:05:09.874Z</time></trkpt><trkpt lat="42.1491569" lon="14.5856188"><ele>194.33333333333331</ele><time>2026-04-20T07:05:11.874Z</time></trkpt><trkpt lat="42.1491373" lon="14.5857058"><ele>193.66666666666666</ele><time>2026-04-20T07:05:12.875Z</time></trkpt><trkpt lat="42.1491186" lon="14.5857974"><ele>193.0</ele><time>2026-04-20T07:05:13.875Z</time></trkpt><trkpt lat="42.1490903" lon="14.5858928"><ele>193.00000000000003</ele><time>2026-04-20T07:05:14.874Z</time></trkpt><trkpt lat="42.1490655" lon="14.5859801"><ele>193.0</ele><time>2026-04-20T07:05:15.874Z</time></trkpt><trkpt lat="42.1490446" lon="14.5860635"><ele>193.0</ele><time>2026-04-20T07:05:16.875Z</time></trkpt><trkpt lat="42.1490276" lon="14.5861477"><ele>193.0</ele><time>2026-04-20T07:05:17.875Z</time></trkpt><trkpt lat="42.1490105" lon="14.5862346"><ele>193.0</ele><time>2026-04-20T07:05:18.874Z</time></trkpt><trkpt lat="42.1489908" lon="14.5863235"><ele>193.00000000000003</ele><time>2026-04-20T07:05:19.875Z</time></trkpt><trkpt lat="42.1489745" lon="14.5864243"><ele>193.0</ele><time>2026-04-20T07:05:20.874Z</time></trkpt><trkpt lat="42.1489493" lon="14.5865335"><ele>191.33333333333331</ele><time>2026-04-20T07:05:21.874Z</time></trkpt><trkpt lat="42.148921" lon="14.5866383"><ele>189.66666666666666</ele><time>2026-04-20T07:05:22.875Z</time></trkpt><trkpt lat="42.1489012" lon="14.5867439"><ele>188.0</ele><time>2026-04-20T07:05:23.875Z</time></trkpt><trkpt lat="42.1488849" lon="14.586846"><ele>186.33333333333331</ele><time>2026-04-20T07:05:24.875Z</time></trkpt><trkpt lat="42.1488614" lon="14.5869509"><ele>184.66666666666666</ele><time>2026-04-20T07:05:25.875Z</time></trkpt><trkpt lat="42.1488379" lon="14.5870566"><ele>183.0</ele><time>2026-04-20T07:05:26.875Z</time></trkpt><trkpt lat="42.1488191" lon="14.5871681"><ele>183.0</ele><time>2026-04-20T07:05:27.874Z</time></trkpt><trkpt lat="42.1488008" lon="14.5872749"><ele>183.0</ele><time>2026-04-20T07:05:28.875Z</time></trkpt><trkpt lat="42.148784" lon="14.5873865"><ele>183.0</ele><time>2026-04-20T07:05:29.875Z</time></trkpt><trkpt lat="42.1487731" lon="14.5874995"><ele>183.0</ele><time>2026-04-20T07:05:30.875Z</time></trkpt><trkpt lat="42.148768" lon="14.5876106"><ele>183.0</ele><time>2026-04-20T07:05:31.875Z</time></trkpt><trkpt lat="42.1487656" lon="14.5877186"><ele>183.0</ele><time>2026-04-20T07:05:32.874Z</time></trkpt><trkpt lat="42.1487621" lon="14.5878269"><ele>182.33333333333334</ele><time>2026-04-20T07:05:33.874Z</time></trkpt><trkpt lat="42.1487576" lon="14.5879367"><ele>181.66666666666666</ele><time>2026-04-20T07:05:34.875Z</time></trkpt><trkpt lat="42.1487499" lon="14.5880454"><ele>181.0</ele><time>2026-04-20T07:05:35.875Z</time></trkpt><trkpt lat="42.14874" lon="14.5881537"><ele>180.33333333333331</ele><time>2026-04-20T07:05:36.874Z</time></trkpt><trkpt lat="42.1487283" lon="14.5882606"><ele>179.66666666666666</ele><time>2026-04-20T07:05:37.875Z</time></trkpt><trkpt lat="42.1487136" lon="14.5883683"><ele>179.0</ele><time>2026-04-20T07:05:38.875Z</time></trkpt><trkpt lat="42.1486871" lon="14.5884735"><ele>179.0</ele><time>2026-04-20T07:05:39.875Z</time></trkpt><trkpt lat="42.1486673" lon="14.5885755"><ele>179.0</ele><time>2026-04-20T07:05:40.875Z</time></trkpt><trkpt lat="42.1486532" lon="14.588681"><ele>179.0</ele><time>2026-04-20T07:05:41.875Z</time></trkpt><trkpt lat="42.1486411" lon="14.5887887"><ele>179.0</ele><time>2026-04-20T07:05:42.875Z</time></trkpt><trkpt lat="42.1486262" lon="14.5889081"><ele>179.0</ele><time>2026-04-20T07:05:43.875Z</time></trkpt><trkpt lat="42.1486153" lon="14.5890218"><ele>179.0</ele><time>2026-04-20T07:05:44.875Z</time></trkpt><trkpt lat="42.1486065" lon="14.5891288"><ele>178.66666666666666</ele><time>2026-04-20T07:05:45.874Z</time></trkpt><trkpt lat="42.1486008" lon="14.5892267"><ele>178.33333333333331</ele><time>2026-04-20T07:05:46.875Z</time></trkpt><trkpt lat="42.148598" lon="14.5893188"><ele>178.0</ele><time>2026-04-20T07:05:47.874Z</time></trkpt><trkpt lat="42.1485952" lon="14.5894053"><ele>177.66666666666666</ele><time>2026-04-20T07:05:48.875Z</time></trkpt><trkpt lat="42.1485852" lon="14.5895604"><ele>177.33333333333334</ele><time>2026-04-20T07:05:50.875Z</time></trkpt><trkpt lat="42.1485748" lon="14.5897119"><ele>177.0</ele><time>2026-04-20T07:05:52.875Z</time></trkpt><trkpt lat="42.1485562" lon="14.5898638"><ele>176.39999999999998</ele><time>2026-04-20T07:05:54.875Z</time></trkpt><trkpt lat="42.1485407" lon="14.5900272"><ele>175.79999999999998</ele><time>2026-04-20T07:05:56.875Z</time></trkpt><trkpt lat="42.1485342" lon="14.5902006"><ele>175.2</ele><time>2026-04-20T07:05:58.875Z</time></trkpt><trkpt lat="42.1485292" lon="14.5902856"><ele>174.6</ele><time>2026-04-20T07:05:59.875Z</time></trkpt><trkpt lat="42.1485213" lon="14.5904578"><ele>174.0</ele><time>2026-04-20T07:06:01.875Z</time></trkpt><trkpt lat="42.148524" lon="14.5905455"><ele>173.85714285714286</ele><time>2026-04-20T07:06:02.875Z</time></trkpt><trkpt lat="42.1485265" lon="14.59064"><ele>173.71428571428572</ele><time>2026-04-20T07:06:03.875Z</time></trkpt><trkpt lat="42.1485223" lon="14.5907268"><ele>173.57142857142856</ele><time>2026-04-20T07:06:04.875Z</time></trkpt><trkpt lat="42.1485199" lon="14.5908149"><ele>173.42857142857144</ele><time>2026-04-20T07:06:05.875Z</time></trkpt><trkpt lat="42.1485204" lon="14.5909008"><ele>173.2857142857143</ele><time>2026-04-20T07:06:06.875Z</time></trkpt><trkpt lat="42.1485187" lon="14.5909861"><ele>173.14285714285714</ele><time>2026-04-20T07:06:07.875Z</time></trkpt><trkpt lat="42.1485205" lon="14.5910714"><ele>173.0</ele><time>2026-04-20T07:06:08.875Z</time></trkpt><trkpt lat="42.1485209" lon="14.5911613"><ele>172.7142857142857</ele><time>2026-04-20T07:06:09.875Z</time></trkpt><trkpt lat="42.1485209" lon="14.5912524"><ele>172.42857142857144</ele><time>2026-04-20T07:06:10.874Z</time></trkpt><trkpt lat="42.1485211" lon="14.5913528"><ele>172.14285714285714</ele><time>2026-04-20T07:06:11.874Z</time></trkpt><trkpt lat="42.1485233" lon="14.59145"><ele>171.85714285714283</ele><time>2026-04-20T07:06:12.875Z</time></trkpt><trkpt lat="42.1485267" lon="14.591545"><ele>171.57142857142856</ele><time>2026-04-20T07:06:13.875Z</time></trkpt><trkpt lat="42.1485283" lon="14.59164"><ele>171.28571428571428</ele><time>2026-04-20T07:06:14.876Z</time></trkpt><trkpt lat="42.1485317" lon="14.5917367"><ele>171.0</ele><time>2026-04-20T07:06:15.876Z</time></trkpt><trkpt lat="42.148535" lon="14.5918317"><ele>170.99999999999997</ele><time>2026-04-20T07:06:16.876Z</time></trkpt><trkpt lat="42.1485367" lon="14.5919317"><ele>171.0</ele><time>2026-04-20T07:06:17.876Z</time></trkpt><trkpt lat="42.1485367" lon="14.5920333"><ele>171.0</ele><time>2026-04-20T07:06:18.876Z</time></trkpt><trkpt lat="42.1485333" lon="14.5921317"><ele>171.0</ele><time>2026-04-20T07:06:19.876Z</time></trkpt><trkpt lat="42.1485267" lon="14.592225"><ele>171.0</ele><time>2026-04-20T07:06:20.875Z</time></trkpt><trkpt lat="42.1485317" lon="14.5923233"><ele>170.99999999999997</ele><time>2026-04-20T07:06:21.876Z</time></trkpt><trkpt lat="42.1485367" lon="14.5924167"><ele>171.0</ele><time>2026-04-20T07:06:22.876Z</time></trkpt><trkpt lat="42.1485333" lon="14.5925083"><ele>170.7142857142857</ele><time>2026-04-20T07:06:23.875Z</time></trkpt><trkpt lat="42.14853" lon="14.5926017"><ele>170.42857142857142</ele><time>2026-04-20T07:06:24.876Z</time></trkpt><trkpt lat="42.14853" lon="14.592695"><ele>170.14285714285714</ele><time>2026-04-20T07:06:25.876Z</time></trkpt><trkpt lat="42.1485217" lon="14.5927917"><ele>169.85714285714283</ele><time>2026-04-20T07:06:26.875Z</time></trkpt><trkpt lat="42.148515" lon="14.592885"><ele>169.57142857142856</ele><time>2026-04-20T07:06:27.876Z</time></trkpt><trkpt lat="42.1485083" lon="14.5929783"><ele>169.28571428571428</ele><time>2026-04-20T07:06:28.876Z</time></trkpt><trkpt lat="42.1485033" lon="14.5930717"><ele>169.0</ele><time>2026-04-20T07:06:29.876Z</time></trkpt><trkpt lat="42.1484983" lon="14.593165"><ele>168.57142857142858</ele><time>2026-04-20T07:06:30.876Z</time></trkpt><trkpt lat="42.1484917" lon="14.5932533"><ele>168.14285714285714</ele><time>2026-04-20T07:06:31.876Z</time></trkpt><trkpt lat="42.1484917" lon="14.5933467"><ele>167.71428571428572</ele><time>2026-04-20T07:06:32.876Z</time></trkpt><trkpt lat="42.148495" lon="14.5934417"><ele>167.28571428571428</ele><time>2026-04-20T07:06:33.876Z</time></trkpt><trkpt lat="42.14849" lon="14.5935333"><ele>166.85714285714286</ele><time>2026-04-20T07:06:34.876Z</time></trkpt><trkpt lat="42.1484917" lon="14.5936233"><ele>166.42857142857142</ele><time>2026-04-20T07:06:35.876Z</time></trkpt><trkpt lat="42.148495" lon="14.5937083"><ele>166.0</ele><time>2026-04-20T07:06:36.875Z</time></trkpt><trkpt lat="42.1484933" lon="14.5937983"><ele>165.42857142857142</ele><time>2026-04-20T07:06:37.875Z</time></trkpt><trkpt lat="42.1485" lon="14.5938867"><ele>164.85714285714286</ele><time>2026-04-20T07:06:38.876Z</time></trkpt><trkpt lat="42.14851" lon="14.5939733"><ele>164.28571428571428</ele><time>2026-04-20T07:06:39.875Z</time></trkpt><trkpt lat="42.148525" lon="14.5940583"><ele>163.71428571428572</ele><time>2026-04-20T07:06:40.876Z</time></trkpt><trkpt lat="42.1485383" lon="14.5941417"><ele>163.14285714285714</ele><time>2026-04-20T07:06:41.876Z</time></trkpt><trkpt lat="42.14856" lon="14.5942233"><ele>162.57142857142858</ele><time>2026-04-20T07:06:42.876Z</time></trkpt><trkpt lat="42.14858" lon="14.5943867"><ele>162.0</ele><time>2026-04-20T07:06:44.876Z</time></trkpt><trkpt lat="42.1485733" lon="14.5945533"><ele>161.16666666666666</ele><time>2026-04-20T07:06:46.876Z</time></trkpt><trkpt lat="42.148565" lon="14.59465"><ele>160.33333333333334</ele><time>2026-04-20T07:06:47.876Z</time></trkpt><trkpt lat="42.14855" lon="14.5947483"><ele>159.5</ele><time>2026-04-20T07:06:48.876Z</time></trkpt><trkpt lat="42.1485317" lon="14.5948417"><ele>158.66666666666669</ele><time>2026-04-20T07:06:49.875Z</time></trkpt><trkpt lat="42.1485217" lon="14.594935"><ele>157.83333333333334</ele><time>2026-04-20T07:06:50.875Z</time></trkpt><trkpt lat="42.14852" lon="14.5950367"><ele>157.0</ele><time>2026-04-20T07:06:51.875Z</time></trkpt><trkpt lat="42.148525" lon="14.5952183"><ele>157.0</ele><time>2026-04-20T07:06:53.875Z</time></trkpt><trkpt lat="42.1485383" lon="14.5953083"><ele>157.0</ele><time>2026-04-20T07:06:54.875Z</time></trkpt><trkpt lat="42.14855" lon="14.5954"><ele>157.0</ele><time>2026-04-20T07:06:55.875Z</time></trkpt><trkpt lat="42.14856" lon="14.595495"><ele>157.0</ele><time>2026-04-20T07:06:56.876Z</time></trkpt><trkpt lat="42.1485717" lon="14.5956467"><ele>157.0</ele><time>2026-04-20T07:06:58.875Z</time></trkpt><trkpt lat="42.1485933" lon="14.595805"><ele>157.0</ele><time>2026-04-20T07:07:00.876Z</time></trkpt><trkpt lat="42.1486183" lon="14.595955"><ele>156.4</ele><time>2026-04-20T07:07:02.875Z</time></trkpt><trkpt lat="42.1486383" lon="14.5960983"><ele>155.79999999999998</ele><time>2026-04-20T07:07:04.876Z</time></trkpt><trkpt lat="42.1486483" lon="14.596235"><ele>155.2</ele><time>2026-04-20T07:07:06.875Z</time></trkpt><trkpt lat="42.14866" lon="14.5963767"><ele>154.6</ele><time>2026-04-20T07:07:08.876Z</time></trkpt><trkpt lat="42.1486783" lon="14.5965217"><ele>154.0</ele><time>2026-04-20T07:07:10.875Z</time></trkpt><trkpt lat="42.1486967" lon="14.5966733"><ele>152.75</ele><time>2026-04-20T07:07:12.875Z</time></trkpt><trkpt lat="42.1487083" lon="14.5968333"><ele>151.5</ele><time>2026-04-20T07:07:14.876Z</time></trkpt><trkpt lat="42.14871" lon="14.5969883"><ele>150.25</ele><time>2026-04-20T07:07:16.875Z</time></trkpt><trkpt lat="42.1487017" lon="14.5971517"><ele>149.0</ele><time>2026-04-20T07:07:18.876Z</time></trkpt><trkpt lat="42.1486933" lon="14.5973083"><ele>147.75</ele><time>2026-04-20T07:07:20.876Z</time></trkpt><trkpt lat="42.1486833" lon="14.59747"><ele>146.5</ele><time>2026-04-20T07:07:22.875Z</time></trkpt><trkpt lat="42.1486767" lon="14.59763"><ele>145.25</ele><time>2026-04-20T07:07:24.876Z</time></trkpt><trkpt lat="42.148675" lon="14.597795"><ele>144.0</ele><time>2026-04-20T07:07:26.876Z</time></trkpt><trkpt lat="42.1486683" lon="14.5979567"><ele>144.0</ele><time>2026-04-20T07:07:28.876Z</time></trkpt><trkpt lat="42.148665" lon="14.5980417"><ele>144.0</ele><time>2026-04-20T07:07:29.876Z</time></trkpt><trkpt lat="42.1486683" lon="14.5982033"><ele>144.0</ele><time>2026-04-20T07:07:31.876Z</time></trkpt><trkpt lat="42.1486533" lon="14.5983567"><ele>144.0</ele><time>2026-04-20T07:07:33.876Z</time></trkpt><trkpt lat="42.14864" lon="14.5985067"><ele>144.0</ele><time>2026-04-20T07:07:35.876Z</time></trkpt><trkpt lat="42.1486283" lon="14.5986683"><ele>144.4</ele><time>2026-04-20T07:07:37.875Z</time></trkpt><trkpt lat="42.1486217" lon="14.598755"><ele>144.8</ele><time>2026-04-20T07:07:38.876Z</time></trkpt><trkpt lat="42.1486067" lon="14.598915"><ele>145.2</ele><time>2026-04-20T07:07:40.876Z</time></trkpt><trkpt lat="42.148605" lon="14.5990783"><ele>145.6</ele><time>2026-04-20T07:07:42.876Z</time></trkpt><trkpt lat="42.1485983" lon="14.599255"><ele>146.0</ele><time>2026-04-20T07:07:44.875Z</time></trkpt><trkpt lat="42.1485967" lon="14.59935"><ele>146.0</ele><time>2026-04-20T07:07:45.876Z</time></trkpt><trkpt lat="42.14859" lon="14.5994433"><ele>146.0</ele><time>2026-04-20T07:07:46.876Z</time></trkpt><trkpt lat="42.148575" lon="14.5996133"><ele>146.0</ele><time>2026-04-20T07:07:48.876Z</time></trkpt><trkpt lat="42.1485683" lon="14.5997017"><ele>146.0</ele><time>2026-04-20T07:07:49.875Z</time></trkpt><trkpt lat="42.1485617" lon="14.59979"><ele>146.0</ele><time>2026-04-20T07:07:50.875Z</time></trkpt><trkpt lat="42.1485533" lon="14.599875"><ele>146.0</ele><time>2026-04-20T07:07:51.875Z</time></trkpt><trkpt lat="42.14854" lon="14.60003"><ele>145.83333333333331</ele><time>2026-04-20T07:07:53.875Z</time></trkpt><trkpt lat="42.14854" lon="14.6001883"><ele>145.66666666666666</ele><time>2026-04-20T07:07:55.876Z</time></trkpt><trkpt lat="42.1485467" lon="14.6003467"><ele>145.5</ele><time>2026-04-20T07:07:57.876Z</time></trkpt><trkpt lat="42.1485533" lon="14.6004317"><ele>145.33333333333334</ele><time>2026-04-20T07:07:58.876Z</time></trkpt><trkpt lat="42.1485617" lon="14.6005217"><ele>145.16666666666669</ele><time>2026-04-20T07:07:59.876Z</time></trkpt><trkpt lat="42.1485683" lon="14.60061"><ele>145.0</ele><time>2026-04-20T07:08:00.876Z</time></trkpt><trkpt lat="42.148575" lon="14.6006967"><ele>145.2</ele><time>2026-04-20T07:08:01.875Z</time></trkpt><trkpt lat="42.14858" lon="14.600785"><ele>145.4</ele><time>2026-04-20T07:08:02.875Z</time></trkpt><trkpt lat="42.1485967" lon="14.6009433"><ele>145.6</ele><time>2026-04-20T07:08:04.876Z</time></trkpt><trkpt lat="42.1486117" lon="14.6011"><ele>145.8</ele><time>2026-04-20T07:08:06.876Z</time></trkpt><trkpt lat="42.1486333" lon="14.6012617"><ele>146.0</ele><time>2026-04-20T07:08:08.875Z</time></trkpt><trkpt lat="42.1486483" lon="14.6014183"><ele>146.0</ele><time>2026-04-20T07:08:10.876Z</time></trkpt><trkpt lat="42.14867" lon="14.6015667"><ele>146.0</ele><time>2026-04-20T07:08:12.875Z</time></trkpt><trkpt lat="42.1487217" lon="14.6016917"><ele>146.0</ele><time>2026-04-20T07:08:14.876Z</time></trkpt><trkpt lat="42.148805" lon="14.6017983"><ele>146.0</ele><time>2026-04-20T07:08:16.876Z</time></trkpt><trkpt lat="42.1489083" lon="14.6018767"><ele>146.0</ele><time>2026-04-20T07:08:18.876Z</time></trkpt><trkpt lat="42.1490033" lon="14.6019433"><ele>146.0</ele><time>2026-04-20T07:08:20.876Z</time></trkpt><trkpt lat="42.1491" lon="14.6020283"><ele>146.0</ele><time>2026-04-20T07:08:22.876Z</time></trkpt><trkpt lat="42.14919" lon="14.602135"><ele>146.0</ele><time>2026-04-20T07:08:24.876Z</time></trkpt><trkpt lat="42.1492783" lon="14.602245"><ele>147.2</ele><time>2026-04-20T07:08:26.876Z</time></trkpt><trkpt lat="42.149365" lon="14.6023583"><ele>148.39999999999998</ele><time>2026-04-20T07:08:28.875Z</time></trkpt><trkpt lat="42.1494533" lon="14.6024717"><ele>149.6</ele><time>2026-04-20T07:08:30.876Z</time></trkpt><trkpt lat="42.1495017" lon="14.6025283"><ele>150.79999999999998</ele><time>2026-04-20T07:08:31.875Z</time></trkpt><trkpt lat="42.149595" lon="14.60264"><ele>152.0</ele><time>2026-04-20T07:08:33.876Z</time></trkpt><trkpt lat="42.1496417" lon="14.6027"><ele>152.0</ele><time>2026-04-20T07:08:34.876Z</time></trkpt><trkpt lat="42.1497317" lon="14.60282"><ele>152.0</ele><time>2026-04-20T07:08:36.876Z</time></trkpt><trkpt lat="42.1497833" lon="14.6028733"><ele>152.0</ele><time>2026-04-20T07:08:37.876Z</time></trkpt><trkpt lat="42.1498333" lon="14.60293"><ele>152.0</ele><time>2026-04-20T07:08:38.875Z</time></trkpt><trkpt lat="42.149935" lon="14.6030283"><ele>152.0</ele><time>2026-04-20T07:08:40.875Z</time></trkpt><trkpt lat="42.1500367" lon="14.60311"><ele>151.66666666666666</ele><time>2026-04-20T07:08:42.876Z</time></trkpt><trkpt lat="42.15014" lon="14.6031983"><ele>151.33333333333331</ele><time>2026-04-20T07:08:44.875Z</time></trkpt><trkpt lat="42.150195" lon="14.60324"><ele>151.0</ele><time>2026-04-20T07:08:45.876Z</time></trkpt><trkpt lat="42.15025" lon="14.6032833"><ele>150.66666666666666</ele><time>2026-04-20T07:08:46.875Z</time></trkpt><trkpt lat="42.1503533" lon="14.6033833"><ele>150.33333333333334</ele><time>2026-04-20T07:08:48.875Z</time></trkpt><trkpt lat="42.150405" lon="14.60344"><ele>150.0</ele><time>2026-04-20T07:08:49.876Z</time></trkpt><trkpt lat="42.1504867" lon="14.6035467"><ele>150.0</ele><time>2026-04-20T07:08:51.876Z</time></trkpt><trkpt lat="42.1505283" lon="14.6036117"><ele>150.0</ele><time>2026-04-20T07:08:52.876Z</time></trkpt><trkpt lat="42.1506117" lon="14.60374"><ele>150.0</ele><time>2026-04-20T07:08:54.876Z</time></trkpt><trkpt lat="42.150655" lon="14.6038067"><ele>150.0</ele><time>2026-04-20T07:08:55.876Z</time></trkpt><trkpt lat="42.1506933" lon="14.60388"><ele>150.0</ele><time>2026-04-20T07:08:56.876Z</time></trkpt><trkpt lat="42.1507367" lon="14.6039567"><ele>150.0</ele><time>2026-04-20T07:08:57.876Z</time></trkpt><trkpt lat="42.1507783" lon="14.6040267"><ele>149.7142857142857</ele><time>2026-04-20T07:08:58.876Z</time></trkpt><trkpt lat="42.15082" lon="14.6040983"><ele>149.42857142857142</ele><time>2026-04-20T07:08:59.876Z</time></trkpt><trkpt lat="42.15086" lon="14.604175"><ele>149.14285714285714</ele><time>2026-04-20T07:09:00.875Z</time></trkpt><trkpt lat="42.1509017" lon="14.6042483"><ele>148.85714285714283</ele><time>2026-04-20T07:09:01.875Z</time></trkpt><trkpt lat="42.15094" lon="14.60433"><ele>148.57142857142856</ele><time>2026-04-20T07:09:02.875Z</time></trkpt><trkpt lat="42.15098" lon="14.6044067"><ele>148.28571428571428</ele><time>2026-04-20T07:09:03.875Z</time></trkpt><trkpt lat="42.1510183" lon="14.604485"><ele>148.0</ele><time>2026-04-20T07:09:04.875Z</time></trkpt><trkpt lat="42.15106" lon="14.6045583"><ele>148.0</ele><time>2026-04-20T07:09:05.876Z</time></trkpt><trkpt lat="42.1510983" lon="14.6046317"><ele>148.0</ele><time>2026-04-20T07:09:06.875Z</time></trkpt><trkpt lat="42.1511367" lon="14.6047083"><ele>148.0</ele><time>2026-04-20T07:09:07.875Z</time></trkpt><trkpt lat="42.1511783" lon="14.6047783"><ele>148.0</ele><time>2026-04-20T07:09:08.875Z</time></trkpt><trkpt lat="42.1512183" lon="14.6048567"><ele>148.0</ele><time>2026-04-20T07:09:09.876Z</time></trkpt><trkpt lat="42.1512533" lon="14.60493"><ele>148.0</ele><time>2026-04-20T07:09:10.876Z</time></trkpt><trkpt lat="42.1512883" lon="14.6050033"><ele>148.0</ele><time>2026-04-20T07:09:11.876Z</time></trkpt><trkpt lat="42.1513233" lon="14.6050817"><ele>148.0</ele><time>2026-04-20T07:09:12.876Z</time></trkpt><trkpt lat="42.1513583" lon="14.6051683"><ele>148.0</ele><time>2026-04-20T07:09:13.876Z</time></trkpt><trkpt lat="42.151415" lon="14.60531"><ele>148.0</ele><time>2026-04-20T07:09:15.876Z</time></trkpt><trkpt lat="42.1514483" lon="14.6053933"><ele>148.0</ele><time>2026-04-20T07:09:16.875Z</time></trkpt><trkpt lat="42.1514833" lon="14.6054667"><ele>148.0</ele><time>2026-04-20T07:09:17.876Z</time></trkpt><trkpt lat="42.1515233" lon="14.6055417"><ele>148.0</ele><time>2026-04-20T07:09:18.876Z</time></trkpt><trkpt lat="42.1515683" lon="14.6056133"><ele>147.33333333333334</ele><time>2026-04-20T07:09:19.876Z</time></trkpt><trkpt lat="42.1516683" lon="14.60573"><ele>146.66666666666669</ele><time>2026-04-20T07:09:21.876Z</time></trkpt><trkpt lat="42.151725" lon="14.605785"><ele>146.0</ele><time>2026-04-20T07:09:22.876Z</time></trkpt><trkpt lat="42.151785" lon="14.6058283"><ele>145.33333333333334</ele><time>2026-04-20T07:09:23.875Z</time></trkpt><trkpt lat="42.1518433" lon="14.605875"><ele>144.66666666666666</ele><time>2026-04-20T07:09:24.875Z</time></trkpt><trkpt lat="42.151905" lon="14.6059233"><ele>144.0</ele><time>2026-04-20T07:09:25.876Z</time></trkpt><trkpt lat="42.15196" lon="14.605975"><ele>144.00000000000003</ele><time>2026-04-20T07:09:26.876Z</time></trkpt><trkpt lat="42.15202" lon="14.60602"><ele>144.0</ele><time>2026-04-20T07:09:27.876Z</time></trkpt><trkpt lat="42.1520783" lon="14.6060717"><ele>144.0</ele><time>2026-04-20T07:09:28.876Z</time></trkpt><trkpt lat="42.1521383" lon="14.6061333"><ele>144.0</ele><time>2026-04-20T07:09:29.876Z</time></trkpt><trkpt lat="42.152205" lon="14.6061917"><ele>144.0</ele><time>2026-04-20T07:09:30.876Z</time></trkpt><trkpt lat="42.1522667" lon="14.6062467"><ele>144.00000000000003</ele><time>2026-04-20T07:09:31.876Z</time></trkpt><trkpt lat="42.1523267" lon="14.6063033"><ele>144.0</ele><time>2026-04-20T07:09:32.876Z</time></trkpt><trkpt lat="42.1523833" lon="14.606355"><ele>143.42857142857144</ele><time>2026-04-20T07:09:33.876Z</time></trkpt><trkpt lat="42.1524383" lon="14.6064017"><ele>142.85714285714286</ele><time>2026-04-20T07:09:34.875Z</time></trkpt><trkpt lat="42.1524917" lon="14.6064533"><ele>142.28571428571428</ele><time>2026-04-20T07:09:35.876Z</time></trkpt><trkpt lat="42.15255" lon="14.6065117"><ele>141.71428571428572</ele><time>2026-04-20T07:09:36.876Z</time></trkpt><trkpt lat="42.1526033" lon="14.606565"><ele>141.14285714285714</ele><time>2026-04-20T07:09:37.875Z</time></trkpt><trkpt lat="42.152655" lon="14.60662"><ele>140.57142857142858</ele><time>2026-04-20T07:09:38.876Z</time></trkpt><trkpt lat="42.1526983" lon="14.606685"><ele>140.0</ele><time>2026-04-20T07:09:39.876Z</time></trkpt><trkpt lat="42.1527417" lon="14.6067483"><ele>140.0</ele><time>2026-04-20T07:09:40.875Z</time></trkpt><trkpt lat="42.1527867" lon="14.6068233"><ele>140.0</ele><time>2026-04-20T07:09:41.876Z</time></trkpt><trkpt lat="42.1528317" lon="14.60689"><ele>140.0</ele><time>2026-04-20T07:09:42.876Z</time></trkpt><trkpt lat="42.1528783" lon="14.6069567"><ele>140.0</ele><time>2026-04-20T07:09:43.876Z</time></trkpt><trkpt lat="42.1529217" lon="14.60703"><ele>140.0</ele><time>2026-04-20T07:09:44.875Z</time></trkpt><trkpt lat="42.1529667" lon="14.607095"><ele>140.0</ele><time>2026-04-20T07:09:45.876Z</time></trkpt><trkpt lat="42.153005" lon="14.6071633"><ele>140.0</ele><time>2026-04-20T07:09:46.876Z</time></trkpt><trkpt lat="42.1530467" lon="14.60724"><ele>139.8</ele><time>2026-04-20T07:09:47.875Z</time></trkpt><trkpt lat="42.15309" lon="14.6073133"><ele>139.6</ele><time>2026-04-20T07:09:48.876Z</time></trkpt><trkpt lat="42.1531333" lon="14.607385"><ele>139.4</ele><time>2026-04-20T07:09:49.876Z</time></trkpt><trkpt lat="42.15321" lon="14.607505"><ele>139.2</ele><time>2026-04-20T07:09:51.875Z</time></trkpt><trkpt lat="42.153285" lon="14.6076233"><ele>139.0</ele><time>2026-04-20T07:09:53.876Z</time></trkpt><trkpt lat="42.1533567" lon="14.6077483"><ele>138.25</ele><time>2026-04-20T07:09:55.875Z</time></trkpt><trkpt lat="42.1534167" lon="14.6078767"><ele>137.5</ele><time>2026-04-20T07:09:57.875Z</time></trkpt><trkpt lat="42.1534833" lon="14.6079983"><ele>136.75</ele><time>2026-04-20T07:09:59.876Z</time></trkpt><trkpt lat="42.1535533" lon="14.6081167"><ele>136.0</ele><time>2026-04-20T07:10:01.875Z</time></trkpt><trkpt lat="42.1536317" lon="14.6082317"><ele>136.0</ele><time>2026-04-20T07:10:03.875Z</time></trkpt><trkpt lat="42.1537233" lon="14.608345"><ele>136.0</ele><time>2026-04-20T07:10:05.876Z</time></trkpt><trkpt lat="42.1538067" lon="14.6084333"><ele>136.0</ele><time>2026-04-20T07:10:07.875Z</time></trkpt><trkpt lat="42.1538967" lon="14.6085133"><ele>136.0</ele><time>2026-04-20T07:10:09.876Z</time></trkpt><trkpt lat="42.1539883" lon="14.6085683"><ele>136.0</ele><time>2026-04-20T07:10:11.875Z</time></trkpt><trkpt lat="42.154075" lon="14.6086283"><ele>136.16666666666669</ele><time>2026-04-20T07:10:13.875Z</time></trkpt><trkpt lat="42.154165" lon="14.6086833"><ele>136.33333333333334</ele><time>2026-04-20T07:10:15.876Z</time></trkpt><trkpt lat="42.15425" lon="14.60874"><ele>136.5</ele><time>2026-04-20T07:10:17.876Z</time></trkpt><trkpt lat="42.1543317" lon="14.6087917"><ele>136.66666666666666</ele><time>2026-04-20T07:10:19.875Z</time></trkpt><trkpt lat="42.154405" lon="14.6088467"><ele>136.83333333333331</ele><time>2026-04-20T07:10:22.876Z</time></trkpt><trkpt lat="42.1544767" lon="14.6088917"><ele>137.0</ele><time>2026-04-20T07:10:26.875Z</time></trkpt><trkpt lat="42.1545367" lon="14.60893"><ele>137.0</ele><time>2026-04-20T07:10:28.875Z</time></trkpt><trkpt lat="42.154595" lon="14.60899"><ele>137.0</ele><time>2026-04-20T07:10:30.875Z</time></trkpt><trkpt lat="42.1546433" lon="14.6090733"><ele>137.0</ele><time>2026-04-20T07:10:32.875Z</time></trkpt><trkpt lat="42.1546933" lon="14.609175"><ele>137.0</ele><time>2026-04-20T07:10:34.875Z</time></trkpt><trkpt lat="42.1547567" lon="14.6092867"><ele>137.0</ele><time>2026-04-20T07:10:36.875Z</time></trkpt><trkpt lat="42.1548433" lon="14.60941"><ele>136.5</ele><time>2026-04-20T07:10:38.876Z</time></trkpt><trkpt lat="42.154925" lon="14.6095233"><ele>136.0</ele><time>2026-04-20T07:10:40.876Z</time></trkpt><trkpt lat="42.15501" lon="14.6096267"><ele>135.5</ele><time>2026-04-20T07:10:42.876Z</time></trkpt><trkpt lat="42.1550933" lon="14.60974"><ele>135.0</ele><time>2026-04-20T07:10:44.876Z</time></trkpt><trkpt lat="42.1551717" lon="14.6098517"><ele>135.0</ele><time>2026-04-20T07:10:46.876Z</time></trkpt><trkpt lat="42.155255" lon="14.60996"><ele>135.0</ele><time>2026-04-20T07:10:48.876Z</time></trkpt><trkpt lat="42.1553517" lon="14.6100633"><ele>135.0</ele><time>2026-04-20T07:10:50.875Z</time></trkpt><trkpt lat="42.1554017" lon="14.610115"><ele>135.0</ele><time>2026-04-20T07:10:51.876Z</time></trkpt><trkpt lat="42.1554967" lon="14.6102233"><ele>135.0</ele><time>2026-04-20T07:10:53.876Z</time></trkpt><trkpt lat="42.1555483" lon="14.6102833"><ele>135.0</ele><time>2026-04-20T07:10:54.876Z</time></trkpt><trkpt lat="42.1556" lon="14.6103433"><ele>135.0</ele><time>2026-04-20T07:10:55.876Z</time></trkpt><trkpt lat="42.1556533" lon="14.6103967"><ele>135.0</ele><time>2026-04-20T07:10:56.876Z</time></trkpt><trkpt lat="42.155755" lon="14.6104917"><ele>135.0</ele><time>2026-04-20T07:10:58.876Z</time></trkpt><trkpt lat="42.1558083" lon="14.61054"><ele>135.0</ele><time>2026-04-20T07:10:59.875Z</time></trkpt><trkpt lat="42.15591" lon="14.6106217"><ele>135.0</ele><time>2026-04-20T07:11:01.875Z</time></trkpt><trkpt lat="42.15601" lon="14.610695"><ele>134.8</ele><time>2026-04-20T07:11:03.876Z</time></trkpt><trkpt lat="42.15612" lon="14.6107417"><ele>134.6</ele><time>2026-04-20T07:11:05.875Z</time></trkpt><trkpt lat="42.1562167" lon="14.6107983"><ele>134.4</ele><time>2026-04-20T07:11:07.876Z</time></trkpt><trkpt lat="42.1562933" lon="14.610885"><ele>134.2</ele><time>2026-04-20T07:11:09.875Z</time></trkpt><trkpt lat="42.1563517" lon="14.6109417"><ele>134.0</ele><time>2026-04-20T07:11:11.876Z</time></trkpt><trkpt lat="42.1564383" lon="14.6110167"><ele>134.0</ele><time>2026-04-20T07:11:20.875Z</time></trkpt><trkpt lat="42.1565267" lon="14.61102"><ele>134.0</ele><time>2026-04-20T07:11:23.876Z</time></trkpt><trkpt lat="42.1565867" lon="14.61094"><ele>134.0</ele><time>2026-04-20T07:11:25.876Z</time></trkpt><trkpt lat="42.1566417" lon="14.610855"><ele>134.0</ele><time>2026-04-20T07:11:27.876Z</time></trkpt><trkpt lat="42.1567" lon="14.610765"><ele>134.0</ele><time>2026-04-20T07:11:29.875Z</time></trkpt><trkpt lat="42.1567583" lon="14.6106633"><ele>134.0</ele><time>2026-04-20T07:11:31.876Z</time></trkpt><trkpt lat="42.1568233" lon="14.6105633"><ele>134.0</ele><time>2026-04-20T07:11:33.875Z</time></trkpt><trkpt lat="42.1568883" lon="14.610465"><ele>134.0</ele><time>2026-04-20T07:11:35.876Z</time></trkpt><trkpt lat="42.1569667" lon="14.6104483"><ele>134.0</ele><time>2026-04-20T07:11:37.876Z</time></trkpt><trkpt lat="42.15705" lon="14.61051"><ele>134.0</ele><time>2026-04-20T07:11:39.875Z</time></trkpt><trkpt lat="42.1571183" lon="14.61062"><ele>134.0</ele><time>2026-04-20T07:11:41.876Z</time></trkpt><trkpt lat="42.1571967" lon="14.6107433"><ele>134.0</ele><time>2026-04-20T07:11:43.875Z</time></trkpt><trkpt lat="42.1572533" lon="14.6108817"><ele>134.0</ele><time>2026-04-20T07:11:45.876Z</time></trkpt><trkpt lat="42.1573" lon="14.6110217"><ele>134.0</ele><time>2026-04-20T07:11:47.875Z</time></trkpt><trkpt lat="42.1573583" lon="14.6111483"><ele>134.0</ele><time>2026-04-20T07:11:49.876Z</time></trkpt><trkpt lat="42.1574183" lon="14.61128"><ele>133.6</ele><time>2026-04-20T07:11:51.876Z</time></trkpt><trkpt lat="42.1574783" lon="14.611395"><ele>133.2</ele><time>2026-04-20T07:11:53.876Z</time></trkpt><trkpt lat="42.1575417" lon="14.6114967"><ele>132.79999999999998</ele><time>2026-04-20T07:11:55.876Z</time></trkpt><trkpt lat="42.1576" lon="14.6116217"><ele>132.4</ele><time>2026-04-20T07:11:57.876Z</time></trkpt><trkpt lat="42.1576567" lon="14.611745"><ele>132.0</ele><time>2026-04-20T07:11:59.876Z</time></trkpt><trkpt lat="42.1577267" lon="14.6118617"><ele>132.0</ele><time>2026-04-20T07:12:01.876Z</time></trkpt><trkpt lat="42.1578" lon="14.6119833"><ele>132.0</ele><time>2026-04-20T07:12:03.875Z</time></trkpt><trkpt lat="42.15788" lon="14.6120983"><ele>132.0</ele><time>2026-04-20T07:12:05.876Z</time></trkpt><trkpt lat="42.1579517" lon="14.612215"><ele>132.0</ele><time>2026-04-20T07:12:07.876Z</time></trkpt><trkpt lat="42.15802" lon="14.6123417"><ele>132.33333333333334</ele><time>2026-04-20T07:12:09.875Z</time></trkpt><trkpt lat="42.158075" lon="14.6124667"><ele>132.66666666666666</ele><time>2026-04-20T07:12:11.875Z</time></trkpt><trkpt lat="42.1581233" lon="14.61257"><ele>133.0</ele><time>2026-04-20T07:12:13.876Z</time></trkpt><trkpt lat="42.1581317" lon="14.61267"><ele>133.33333333333331</ele><time>2026-04-20T07:12:15.876Z</time></trkpt><trkpt lat="42.1581183" lon="14.61277"><ele>133.66666666666666</ele><time>2026-04-20T07:12:17.875Z</time></trkpt><trkpt lat="42.15811" lon="14.6128833"><ele>134.0</ele><time>2026-04-20T07:12:19.876Z</time></trkpt><trkpt lat="42.1581083" lon="14.613"><ele>134.0</ele><time>2026-04-20T07:12:21.876Z</time></trkpt><trkpt lat="42.15812" lon="14.6131167"><ele>134.0</ele><time>2026-04-20T07:12:23.875Z</time></trkpt><trkpt lat="42.1581317" lon="14.6132067"><ele>134.0</ele><time>2026-04-20T07:12:25.875Z</time></trkpt><trkpt lat="42.1581567" lon="14.6132967"><ele>134.0</ele><time>2026-04-20T07:12:27.876Z</time></trkpt><trkpt lat="42.1581917" lon="14.6133967"><ele>134.0</ele><time>2026-04-20T07:12:29.876Z</time></trkpt><trkpt lat="42.1582267" lon="14.613495"><ele>134.0</ele><time>2026-04-20T07:12:31.875Z</time></trkpt><trkpt lat="42.1582767" lon="14.6135917"><ele>133.4</ele><time>2026-04-20T07:12:33.876Z</time></trkpt><trkpt lat="42.1583417" lon="14.6136817"><ele>132.8</ele><time>2026-04-20T07:12:35.876Z</time></trkpt><trkpt lat="42.15842" lon="14.613745"><ele>132.2</ele><time>2026-04-20T07:12:37.876Z</time></trkpt><trkpt lat="42.15851" lon="14.613805"><ele>131.6</ele><time>2026-04-20T07:12:39.875Z</time></trkpt><trkpt lat="42.1585883" lon="14.6138733"><ele>131.0</ele><time>2026-04-20T07:12:41.876Z</time></trkpt><trkpt lat="42.1586517" lon="14.6139633"><ele>131.0</ele><time>2026-04-20T07:12:43.876Z</time></trkpt><trkpt lat="42.158695" lon="14.6140783"><ele>131.0</ele><time>2026-04-20T07:12:45.876Z</time></trkpt><trkpt lat="42.15874" lon="14.6141833"><ele>131.0</ele><time>2026-04-20T07:12:47.876Z</time></trkpt><trkpt lat="42.1587533" lon="14.614295"><ele>131.0</ele><time>2026-04-20T07:12:49.876Z</time></trkpt><trkpt lat="42.1588017" lon="14.614395"><ele>131.0</ele><time>2026-04-20T07:12:51.876Z</time></trkpt><trkpt lat="42.1588733" lon="14.61441"><ele>131.0</ele><time>2026-04-20T07:12:53.876Z</time></trkpt><trkpt lat="42.158965" lon="14.6143867"><ele>131.2</ele><time>2026-04-20T07:12:55.876Z</time></trkpt><trkpt lat="42.1590717" lon="14.6143667"><ele>131.39999999999998</ele><time>2026-04-20T07:12:57.876Z</time></trkpt><trkpt lat="42.1591817" lon="14.6143417"><ele>131.6</ele><time>2026-04-20T07:12:59.876Z</time></trkpt><trkpt lat="42.1592883" lon="14.61431"><ele>131.79999999999998</ele><time>2026-04-20T07:13:01.876Z</time></trkpt><trkpt lat="42.1593933" lon="14.6142817"><ele>132.0</ele><time>2026-04-20T07:13:03.875Z</time></trkpt><trkpt lat="42.1594983" lon="14.614255"><ele>132.0</ele><time>2026-04-20T07:13:05.876Z</time></trkpt><trkpt lat="42.159605" lon="14.6142367"><ele>132.0</ele><time>2026-04-20T07:13:07.876Z</time></trkpt><trkpt lat="42.1597017" lon="14.6142167"><ele>132.0</ele><time>2026-04-20T07:13:09.876Z</time></trkpt><trkpt lat="42.1597633" lon="14.6141667"><ele>132.0</ele><time>2026-04-20T07:13:11.876Z</time></trkpt><trkpt lat="42.159765" lon="14.6140483"><ele>132.0</ele><time>2026-04-20T07:13:14.875Z</time></trkpt><trkpt lat="42.15983" lon="14.6139767"><ele>132.0</ele><time>2026-04-20T07:13:18.876Z</time></trkpt><trkpt lat="42.159895" lon="14.613975"><ele>131.79999999999998</ele><time>2026-04-20T07:13:20.876Z</time></trkpt><trkpt lat="42.1599483" lon="14.6140367"><ele>131.6</ele><time>2026-04-20T07:13:22.875Z</time></trkpt><trkpt lat="42.1600267" lon="14.614115"><ele>131.39999999999998</ele><time>2026-04-20T07:13:24.876Z</time></trkpt><trkpt lat="42.1601133" lon="14.6142"><ele>131.2</ele><time>2026-04-20T07:13:26.875Z</time></trkpt><trkpt lat="42.1601967" lon="14.6142883"><ele>131.0</ele><time>2026-04-20T07:13:28.875Z</time></trkpt><trkpt lat="42.160275" lon="14.6143883"><ele>131.0</ele><time>2026-04-20T07:13:30.876Z</time></trkpt><trkpt lat="42.1603533" lon="14.6144833"><ele>131.0</ele><time>2026-04-20T07:13:32.875Z</time></trkpt><trkpt lat="42.1604283" lon="14.6145717"><ele>131.0</ele><time>2026-04-20T07:13:34.876Z</time></trkpt><trkpt lat="42.1605067" lon="14.6146617"><ele>131.0</ele><time>2026-04-20T07:13:36.876Z</time></trkpt><trkpt lat="42.1605867" lon="14.6147567"><ele>131.0</ele><time>2026-04-20T07:13:38.876Z</time></trkpt><trkpt lat="42.16066" lon="14.6148417"><ele>130.33333333333331</ele><time>2026-04-20T07:13:40.875Z</time></trkpt><trkpt lat="42.1607133" lon="14.6149033"><ele>129.66666666666666</ele><time>2026-04-20T07:13:42.876Z</time></trkpt><trkpt lat="42.16077" lon="14.61498"><ele>129.0</ele><time>2026-04-20T07:13:45.876Z</time></trkpt><trkpt lat="42.16083" lon="14.61506"><ele>128.33333333333334</ele><time>2026-04-20T07:13:49.876Z</time></trkpt><trkpt lat="42.16092" lon="14.6150883"><ele>127.66666666666667</ele><time>2026-04-20T07:13:52.875Z</time></trkpt><trkpt lat="42.160995" lon="14.61512"><ele>127.0</ele><time>2026-04-20T07:13:54.875Z</time></trkpt><trkpt lat="42.16108" lon="14.615165"><ele>127.0</ele><time>2026-04-20T07:13:56.875Z</time></trkpt><trkpt lat="42.1611733" lon="14.6152233"><ele>126.99999999999999</ele><time>2026-04-20T07:13:58.876Z</time></trkpt><trkpt lat="42.16127" lon="14.61529"><ele>126.99999999999999</ele><time>2026-04-20T07:14:00.876Z</time></trkpt><trkpt lat="42.16137" lon="14.6153533"><ele>127.0</ele><time>2026-04-20T07:14:02.875Z</time></trkpt><trkpt lat="42.161475" lon="14.615445"><ele>127.0</ele><time>2026-04-20T07:14:04.875Z</time></trkpt><trkpt lat="42.1615833" lon="14.6155167"><ele>126.39999999999999</ele><time>2026-04-20T07:14:06.876Z</time></trkpt><trkpt lat="42.1616933" lon="14.6155867"><ele>125.79999999999998</ele><time>2026-04-20T07:14:08.876Z</time></trkpt><trkpt lat="42.1617517" lon="14.61562"><ele>125.2</ele><time>2026-04-20T07:14:09.875Z</time></trkpt><trkpt lat="42.1618117" lon="14.61565"><ele>124.6</ele><time>2026-04-20T07:14:10.876Z</time></trkpt><trkpt lat="42.1619283" lon="14.615695"><ele>124.0</ele><time>2026-04-20T07:14:12.875Z</time></trkpt><trkpt lat="42.1620467" lon="14.6157233"><ele>124.00000000000001</ele><time>2026-04-20T07:14:14.875Z</time></trkpt><trkpt lat="42.1621117" lon="14.615725"><ele>124.0</ele><time>2026-04-20T07:14:15.875Z</time></trkpt><trkpt lat="42.162235" lon="14.6157533"><ele>124.0</ele><time>2026-04-20T07:14:17.876Z</time></trkpt><trkpt lat="42.1623017" lon="14.6157617"><ele>124.0</ele><time>2026-04-20T07:14:18.876Z</time></trkpt><trkpt lat="42.1623667" lon="14.6157833"><ele>124.00000000000001</ele><time>2026-04-20T07:14:19.875Z</time></trkpt><trkpt lat="42.16243" lon="14.615805"><ele>124.0</ele><time>2026-04-20T07:14:20.875Z</time></trkpt><trkpt lat="42.1625483" lon="14.6158467"><ele>124.0</ele><time>2026-04-20T07:14:22.876Z</time></trkpt><trkpt lat="42.162665" lon="14.6159"><ele>124.0</ele><time>2026-04-20T07:14:24.876Z</time></trkpt><trkpt lat="42.1627683" lon="14.6159783"><ele>124.0</ele><time>2026-04-20T07:14:26.875Z</time></trkpt><trkpt lat="42.162865" lon="14.6160517"><ele>124.0</ele><time>2026-04-20T07:14:28.876Z</time></trkpt><trkpt lat="42.16292" lon="14.6161017"><ele>124.0</ele><time>2026-04-20T07:14:29.876Z</time></trkpt><trkpt lat="42.163025" lon="14.6161833"><ele>123.66666666666667</ele><time>2026-04-20T07:14:31.876Z</time></trkpt><trkpt lat="42.1630833" lon="14.61623"><ele>123.33333333333334</ele><time>2026-04-20T07:14:32.875Z</time></trkpt><trkpt lat="42.163195" lon="14.6163083"><ele>123.0</ele><time>2026-04-20T07:14:34.876Z</time></trkpt><trkpt lat="42.1632983" lon="14.6163867"><ele>122.66666666666666</ele><time>2026-04-20T07:14:36.876Z</time></trkpt><trkpt lat="42.1633517" lon="14.6164317"><ele>122.33333333333333</ele><time>2026-04-20T07:14:37.875Z</time></trkpt><trkpt lat="42.1634067" lon="14.6164733"><ele>122.0</ele><time>2026-04-20T07:14:38.876Z</time></trkpt><trkpt lat="42.16352" lon="14.6165467"><ele>121.83333333333333</ele><time>2026-04-20T07:14:40.876Z</time></trkpt><trkpt lat="42.1635817" lon="14.616585"><ele>121.66666666666666</ele><time>2026-04-20T07:14:41.875Z</time></trkpt><trkpt lat="42.1636367" lon="14.6166267"><ele>121.5</ele><time>2026-04-20T07:14:42.875Z</time></trkpt><trkpt lat="42.1636933" lon="14.6166667"><ele>121.33333333333334</ele><time>2026-04-20T07:14:43.876Z</time></trkpt><trkpt lat="42.1637533" lon="14.6167"><ele>121.16666666666667</ele><time>2026-04-20T07:14:44.876Z</time></trkpt><trkpt lat="42.1638083" lon="14.6167433"><ele>121.0</ele><time>2026-04-20T07:14:45.876Z</time></trkpt><trkpt lat="42.1639217" lon="14.61683"><ele>121.0</ele><time>2026-04-20T07:14:47.876Z</time></trkpt><trkpt lat="42.16398" lon="14.6168767"><ele>120.99999999999999</ele><time>2026-04-20T07:14:48.875Z</time></trkpt><trkpt lat="42.164035" lon="14.6169233"><ele>121.0</ele><time>2026-04-20T07:14:49.876Z</time></trkpt><trkpt lat="42.1640917" lon="14.6169617"><ele>121.0</ele><time>2026-04-20T07:14:50.875Z</time></trkpt><trkpt lat="42.16415" lon="14.617"><ele>120.99999999999999</ele><time>2026-04-20T07:14:51.876Z</time></trkpt><trkpt lat="42.16421" lon="14.617035"><ele>121.0</ele><time>2026-04-20T07:14:52.876Z</time></trkpt><trkpt lat="42.16427" lon="14.61707"><ele>121.0</ele><time>2026-04-20T07:14:53.876Z</time></trkpt><trkpt lat="42.164325" lon="14.617115"><ele>121.00000000000001</ele><time>2026-04-20T07:14:54.876Z</time></trkpt><trkpt lat="42.1643817" lon="14.61716"><ele>121.0</ele><time>2026-04-20T07:14:55.876Z</time></trkpt><trkpt lat="42.1644383" lon="14.6171983"><ele>121.0</ele><time>2026-04-20T07:14:56.876Z</time></trkpt><trkpt lat="42.1644917" lon="14.6172433"><ele>121.0</ele><time>2026-04-20T07:14:57.875Z</time></trkpt><trkpt lat="42.1645483" lon="14.6172817"><ele>121.00000000000001</ele><time>2026-04-20T07:14:58.875Z</time></trkpt><trkpt lat="42.1646633" lon="14.617345"><ele>121.0</ele><time>2026-04-20T07:15:00.876Z</time></trkpt><trkpt lat="42.1647783" lon="14.6173917"><ele>120.66666666666667</ele><time>2026-04-20T07:15:02.876Z</time></trkpt><trkpt lat="42.164905" lon="14.61743"><ele>120.33333333333334</ele><time>2026-04-20T07:15:04.876Z</time></trkpt><trkpt lat="42.1649667" lon="14.6174517"><ele>120.0</ele><time>2026-04-20T07:15:05.876Z</time></trkpt><trkpt lat="42.1650333" lon="14.617475"><ele>119.66666666666666</ele><time>2026-04-20T07:15:06.876Z</time></trkpt><trkpt lat="42.1651017" lon="14.6175"><ele>119.33333333333333</ele><time>2026-04-20T07:15:07.876Z</time></trkpt><trkpt lat="42.1651667" lon="14.6175217"><ele>119.0</ele><time>2026-04-20T07:15:08.875Z</time></trkpt><trkpt lat="42.1652283" lon="14.6175467"><ele>119.0</ele><time>2026-04-20T07:15:09.875Z</time></trkpt><trkpt lat="42.1653367" lon="14.61759"><ele>119.0</ele><time>2026-04-20T07:15:11.876Z</time></trkpt><trkpt lat="42.1654567" lon="14.6176383"><ele>119.0</ele><time>2026-04-20T07:15:13.876Z</time></trkpt><trkpt lat="42.165515" lon="14.6176717"><ele>119.0</ele><time>2026-04-20T07:15:14.876Z</time></trkpt><trkpt lat="42.1655683" lon="14.6177183"><ele>119.0</ele><time>2026-04-20T07:15:15.876Z</time></trkpt><trkpt lat="42.16566" lon="14.617825"><ele>118.57142857142857</ele><time>2026-04-20T07:15:17.876Z</time></trkpt><trkpt lat="42.1657117" lon="14.61788"><ele>118.14285714285714</ele><time>2026-04-20T07:15:18.875Z</time></trkpt><trkpt lat="42.165765" lon="14.6179367"><ele>117.71428571428572</ele><time>2026-04-20T07:15:19.875Z</time></trkpt><trkpt lat="42.1658217" lon="14.6179967"><ele>117.28571428571429</ele><time>2026-04-20T07:15:20.876Z</time></trkpt><trkpt lat="42.16587" lon="14.6180517"><ele>116.85714285714286</ele><time>2026-04-20T07:15:21.875Z</time></trkpt><trkpt lat="42.1659233" lon="14.61811"><ele>116.42857142857144</ele><time>2026-04-20T07:15:22.875Z</time></trkpt><trkpt lat="42.16597" lon="14.6181683"><ele>116.00000000000001</ele><time>2026-04-20T07:15:23.876Z</time></trkpt><trkpt lat="42.1660567" lon="14.6182917"><ele>116.0</ele><time>2026-04-20T07:15:25.876Z</time></trkpt><trkpt lat="42.1661367" lon="14.6184083"><ele>116.0</ele><time>2026-04-20T07:15:27.875Z</time></trkpt><trkpt lat="42.16622" lon="14.618525"><ele>116.0</ele><time>2026-04-20T07:15:29.876Z</time></trkpt><trkpt lat="42.1663133" lon="14.6186517"><ele>116.0</ele><time>2026-04-20T07:15:31.876Z</time></trkpt><trkpt lat="42.1663617" lon="14.6187083"><ele>116.0</ele><time>2026-04-20T07:15:32.875Z</time></trkpt><trkpt lat="42.16641" lon="14.6187933"><ele>115.66666666666666</ele><time>2026-04-20T07:15:33.876Z</time></trkpt><trkpt lat="42.1664617" lon="14.618845"><ele>115.33333333333333</ele><time>2026-04-20T07:15:34.875Z</time></trkpt><trkpt lat="42.16651" lon="14.6189"><ele>115.0</ele><time>2026-04-20T07:15:35.875Z</time></trkpt><trkpt lat="42.1665817" lon="14.6190183"><ele>114.66666666666666</ele><time>2026-04-20T07:15:37.876Z</time></trkpt><trkpt lat="42.1666767" lon="14.6191283"><ele>114.33333333333333</ele><time>2026-04-20T07:15:39.876Z</time></trkpt><trkpt lat="42.1667233" lon="14.6191917"><ele>114.0</ele><time>2026-04-20T07:15:40.876Z</time></trkpt><trkpt lat="42.16681" lon="14.6193183"><ele>114.0</ele><time>2026-04-20T07:15:42.876Z</time></trkpt><trkpt lat="42.1668483" lon="14.6193883"><ele>114.0</ele><time>2026-04-20T07:15:43.876Z</time></trkpt><trkpt lat="42.166885" lon="14.6194583"><ele>114.0</ele><time>2026-04-20T07:15:44.876Z</time></trkpt><trkpt lat="42.1669633" lon="14.61959"><ele>114.0</ele><time>2026-04-20T07:15:46.876Z</time></trkpt><trkpt lat="42.1670417" lon="14.61973"><ele>114.0</ele><time>2026-04-20T07:15:48.875Z</time></trkpt><trkpt lat="42.1670833" lon="14.6198033"><ele>113.83333333333333</ele><time>2026-04-20T07:15:49.875Z</time></trkpt><trkpt lat="42.1671267" lon="14.6198733"><ele>113.66666666666666</ele><time>2026-04-20T07:15:50.876Z</time></trkpt><trkpt lat="42.1671717" lon="14.6199417"><ele>113.5</ele><time>2026-04-20T07:15:51.876Z</time></trkpt><trkpt lat="42.1672167" lon="14.6200133"><ele>113.33333333333333</ele><time>2026-04-20T07:15:52.875Z</time></trkpt><trkpt lat="42.1672583" lon="14.6200817"><ele>113.16666666666666</ele><time>2026-04-20T07:15:53.875Z</time></trkpt><trkpt lat="42.1673367" lon="14.6202133"><ele>113.0</ele><time>2026-04-20T07:15:55.876Z</time></trkpt><trkpt lat="42.1674183" lon="14.620335"><ele>112.49999999999999</ele><time>2026-04-20T07:15:57.876Z</time></trkpt><trkpt lat="42.16751" lon="14.6204583"><ele>112.0</ele><time>2026-04-20T07:15:59.876Z</time></trkpt><trkpt lat="42.16756" lon="14.6205267"><ele>111.5</ele><time>2026-04-20T07:16:00.875Z</time></trkpt><trkpt lat="42.1676083" lon="14.620595"><ele>111.0</ele><time>2026-04-20T07:16:01.876Z</time></trkpt><trkpt lat="42.1676617" lon="14.6206717"><ele>110.49999999999999</ele><time>2026-04-20T07:16:02.876Z</time></trkpt><trkpt lat="42.167715" lon="14.620745"><ele>110.0</ele><time>2026-04-20T07:16:03.875Z</time></trkpt><trkpt lat="42.16777" lon="14.6208133"><ele>109.99999999999999</ele><time>2026-04-20T07:16:04.876Z</time></trkpt><trkpt lat="42.16782" lon="14.6208833"><ele>110.0</ele><time>2026-04-20T07:16:05.876Z</time></trkpt><trkpt lat="42.167865" lon="14.62095"><ele>110.0</ele><time>2026-04-20T07:16:06.875Z</time></trkpt><trkpt lat="42.16791" lon="14.621025"><ele>110.0</ele><time>2026-04-20T07:16:07.876Z</time></trkpt><trkpt lat="42.1679433" lon="14.621105"><ele>110.0</ele><time>2026-04-20T07:16:08.875Z</time></trkpt><trkpt lat="42.16797" lon="14.62119"><ele>109.99999999999999</ele><time>2026-04-20T07:16:09.876Z</time></trkpt><trkpt lat="42.1679983" lon="14.6212767"><ele>110.0</ele><time>2026-04-20T07:16:10.875Z</time></trkpt><trkpt lat="42.1680267" lon="14.6213667"><ele>109.6</ele><time>2026-04-20T07:16:11.876Z</time></trkpt><trkpt lat="42.16806" lon="14.6214567"><ele>109.2</ele><time>2026-04-20T07:16:12.875Z</time></trkpt><trkpt lat="42.1680917" lon="14.621545"><ele>108.80000000000001</ele><time>2026-04-20T07:16:13.876Z</time></trkpt><trkpt lat="42.1681233" lon="14.62162"><ele>108.4</ele><time>2026-04-20T07:16:14.876Z</time></trkpt><trkpt lat="42.1681717" lon="14.6217783"><ele>108.0</ele><time>2026-04-20T07:16:16.876Z</time></trkpt><trkpt lat="42.1682133" lon="14.621935"><ele>107.4</ele><time>2026-04-20T07:16:18.876Z</time></trkpt><trkpt lat="42.1682583" lon="14.62209"><ele>106.80000000000001</ele><time>2026-04-20T07:16:20.875Z</time></trkpt><trkpt lat="42.168285" lon="14.6221683"><ele>106.2</ele><time>2026-04-20T07:16:21.875Z</time></trkpt><trkpt lat="42.1683383" lon="14.6223217"><ele>105.6</ele><time>2026-04-20T07:16:23.876Z</time></trkpt><trkpt lat="42.16837" lon="14.6224033"><ele>105.0</ele><time>2026-04-20T07:16:24.876Z</time></trkpt><trkpt lat="42.16844" lon="14.6225467"><ele>105.0</ele><time>2026-04-20T07:16:26.876Z</time></trkpt><trkpt lat="42.1684767" lon="14.62262"><ele>105.0</ele><time>2026-04-20T07:16:27.875Z</time></trkpt><trkpt lat="42.1685133" lon="14.6226933"><ele>105.0</ele><time>2026-04-20T07:16:28.875Z</time></trkpt><trkpt lat="42.1685583" lon="14.6227667"><ele>105.0</ele><time>2026-04-20T07:16:29.876Z</time></trkpt><trkpt lat="42.168595" lon="14.6228467"><ele>105.0</ele><time>2026-04-20T07:16:30.876Z</time></trkpt><trkpt lat="42.16863" lon="14.6229233"><ele>105.0</ele><time>2026-04-20T07:16:31.876Z</time></trkpt><trkpt lat="42.1686733" lon="14.6229983"><ele>105.0</ele><time>2026-04-20T07:16:32.875Z</time></trkpt><trkpt lat="42.1687167" lon="14.6230717"><ele>104.83333333333333</ele><time>2026-04-20T07:16:33.876Z</time></trkpt><trkpt lat="42.1687617" lon="14.6231417"><ele>104.66666666666666</ele><time>2026-04-20T07:16:34.876Z</time></trkpt><trkpt lat="42.1688083" lon="14.6232133"><ele>104.5</ele><time>2026-04-20T07:16:35.876Z</time></trkpt><trkpt lat="42.1688517" lon="14.6232867"><ele>104.33333333333333</ele><time>2026-04-20T07:16:36.875Z</time></trkpt><trkpt lat="42.1688983" lon="14.62338"><ele>104.16666666666666</ele><time>2026-04-20T07:16:37.876Z</time></trkpt><trkpt lat="42.1689417" lon="14.623445"><ele>104.0</ele><time>2026-04-20T07:16:38.876Z</time></trkpt><trkpt lat="42.1690133" lon="14.623575"><ele>103.99999999999999</ele><time>2026-04-20T07:16:40.875Z</time></trkpt><trkpt lat="42.1690533" lon="14.6236417"><ele>104.0</ele><time>2026-04-20T07:16:41.876Z</time></trkpt><trkpt lat="42.1690967" lon="14.623715"><ele>104.0</ele><time>2026-04-20T07:16:42.876Z</time></trkpt><trkpt lat="42.169135" lon="14.623795"><ele>104.0</ele><time>2026-04-20T07:16:43.875Z</time></trkpt><trkpt lat="42.16918" lon="14.623875"><ele>103.99999999999999</ele><time>2026-04-20T07:16:44.876Z</time></trkpt><trkpt lat="42.16922" lon="14.6239517"><ele>104.0</ele><time>2026-04-20T07:16:45.876Z</time></trkpt><trkpt lat="42.1693067" lon="14.6240683"><ele>103.0</ele><time>2026-04-20T07:16:47.876Z</time></trkpt><trkpt lat="42.1693867" lon="14.6241767"><ele>102.0</ele><time>2026-04-20T07:16:49.876Z</time></trkpt><trkpt lat="42.1694583" lon="14.6242783"><ele>101.0</ele><time>2026-04-20T07:16:51.876Z</time></trkpt><trkpt lat="42.1695167" lon="14.624395"><ele>100.0</ele><time>2026-04-20T07:16:53.875Z</time></trkpt><trkpt lat="42.1695817" lon="14.624545"><ele>99.66666666666667</ele><time>2026-04-20T07:16:55.875Z</time></trkpt><trkpt lat="42.1696183" lon="14.624625"><ele>99.33333333333334</ele><time>2026-04-20T07:16:56.876Z</time></trkpt><trkpt lat="42.1696583" lon="14.6247117"><ele>99.0</ele><time>2026-04-20T07:16:57.876Z</time></trkpt><trkpt lat="42.1697" lon="14.6248017"><ele>98.66666666666666</ele><time>2026-04-20T07:16:58.876Z</time></trkpt><trkpt lat="42.1697417" lon="14.6248917"><ele>98.33333333333333</ele><time>2026-04-20T07:16:59.876Z</time></trkpt><trkpt lat="42.1697867" lon="14.6249783"><ele>98.0</ele><time>2026-04-20T07:17:00.875Z</time></trkpt><trkpt lat="42.1698283" lon="14.6250717"><ele>97.85714285714286</ele><time>2026-04-20T07:17:01.875Z</time></trkpt><trkpt lat="42.16987" lon="14.62516"><ele>97.71428571428572</ele><time>2026-04-20T07:17:02.876Z</time></trkpt><trkpt lat="42.1699083" lon="14.6252467"><ele>97.57142857142857</ele><time>2026-04-20T07:17:03.876Z</time></trkpt><trkpt lat="42.1699517" lon="14.6253233"><ele>97.42857142857143</ele><time>2026-04-20T07:17:04.876Z</time></trkpt><trkpt lat="42.169995" lon="14.6254033"><ele>97.28571428571429</ele><time>2026-04-20T07:17:05.875Z</time></trkpt><trkpt lat="42.1700333" lon="14.625485"><ele>97.14285714285714</ele><time>2026-04-20T07:17:06.876Z</time></trkpt><trkpt lat="42.170065" lon="14.6255717"><ele>97.0</ele><time>2026-04-20T07:17:07.875Z</time></trkpt><trkpt lat="42.1700967" lon="14.62566"><ele>97.0</ele><time>2026-04-20T07:17:08.876Z</time></trkpt><trkpt lat="42.1701233" lon="14.6257483"><ele>97.0</ele><time>2026-04-20T07:17:09.875Z</time></trkpt><trkpt lat="42.170145" lon="14.6258433"><ele>97.0</ele><time>2026-04-20T07:17:10.876Z</time></trkpt><trkpt lat="42.170165" lon="14.6259283"><ele>97.0</ele><time>2026-04-20T07:17:11.875Z</time></trkpt><trkpt lat="42.17019" lon="14.626015"><ele>97.0</ele><time>2026-04-20T07:17:12.876Z</time></trkpt><trkpt lat="42.1702117" lon="14.6261017"><ele>97.0</ele><time>2026-04-20T07:17:13.876Z</time></trkpt><trkpt lat="42.17023" lon="14.6261867"><ele>97.0</ele><time>2026-04-20T07:17:14.876Z</time></trkpt><trkpt lat="42.1702683" lon="14.626355"><ele>96.66666666666667</ele><time>2026-04-20T07:17:16.876Z</time></trkpt><trkpt lat="42.1702883" lon="14.6264383"><ele>96.33333333333334</ele><time>2026-04-20T07:17:17.876Z</time></trkpt><trkpt lat="42.1703083" lon="14.626525"><ele>96.0</ele><time>2026-04-20T07:17:18.876Z</time></trkpt><trkpt lat="42.1703267" lon="14.62661"><ele>95.66666666666667</ele><time>2026-04-20T07:17:19.876Z</time></trkpt><trkpt lat="42.1703417" lon="14.6266967"><ele>95.33333333333334</ele><time>2026-04-20T07:17:20.875Z</time></trkpt><trkpt lat="42.170355" lon="14.6267883"><ele>95.0</ele><time>2026-04-20T07:17:21.875Z</time></trkpt><trkpt lat="42.1704" lon="14.6269467"><ele>94.8</ele><time>2026-04-20T07:17:23.876Z</time></trkpt><trkpt lat="42.1704833" lon="14.627045"><ele>94.6</ele><time>2026-04-20T07:17:25.876Z</time></trkpt><trkpt lat="42.1706017" lon="14.6270717"><ele>94.4</ele><time>2026-04-20T07:17:27.875Z</time></trkpt><trkpt lat="42.170665" lon="14.6270567"><ele>94.2</ele><time>2026-04-20T07:17:28.876Z</time></trkpt><trkpt lat="42.1707817" lon="14.6270067"><ele>94.0</ele><time>2026-04-20T07:17:30.876Z</time></trkpt><trkpt lat="42.170885" lon="14.626965"><ele>94.0</ele><time>2026-04-20T07:17:32.876Z</time></trkpt><trkpt lat="42.1709917" lon="14.626935"><ele>94.0</ele><time>2026-04-20T07:17:34.875Z</time></trkpt><trkpt lat="42.1711033" lon="14.6269283"><ele>94.0</ele><time>2026-04-20T07:17:36.876Z</time></trkpt><trkpt lat="42.1712183" lon="14.6269583"><ele>94.0</ele><time>2026-04-20T07:17:38.876Z</time></trkpt><trkpt lat="42.171325" lon="14.6270217"><ele>94.0</ele><time>2026-04-20T07:17:40.875Z</time></trkpt><trkpt lat="42.17143" lon="14.6270933"><ele>94.0</ele><time>2026-04-20T07:17:42.875Z</time></trkpt><trkpt lat="42.1715383" lon="14.6271567"><ele>94.0</ele><time>2026-04-20T07:17:44.876Z</time></trkpt><trkpt lat="42.1716517" lon="14.6272117"><ele>94.0</ele><time>2026-04-20T07:17:46.876Z</time></trkpt><trkpt lat="42.1717667" lon="14.6272717"><ele>94.0</ele><time>2026-04-20T07:17:48.876Z</time></trkpt><trkpt lat="42.1718767" lon="14.62733"><ele>94.0</ele><time>2026-04-20T07:17:50.876Z</time></trkpt><trkpt lat="42.1719883" lon="14.6273983"><ele>94.0</ele><time>2026-04-20T07:17:52.876Z</time></trkpt><trkpt lat="42.1720483" lon="14.6274333"><ele>94.0</ele><time>2026-04-20T07:17:53.875Z</time></trkpt><trkpt lat="42.1721133" lon="14.6274667"><ele>94.0</ele><time>2026-04-20T07:17:54.876Z</time></trkpt><trkpt lat="42.17223" lon="14.6275233"><ele>94.0</ele><time>2026-04-20T07:17:56.875Z</time></trkpt><trkpt lat="42.1723433" lon="14.62758"><ele>94.0</ele><time>2026-04-20T07:17:58.876Z</time></trkpt><trkpt lat="42.172405" lon="14.6276133"><ele>94.0</ele><time>2026-04-20T07:17:59.875Z</time></trkpt><trkpt lat="42.172465" lon="14.6276467"><ele>94.0</ele><time>2026-04-20T07:18:00.876Z</time></trkpt><trkpt lat="42.172575" lon="14.62773"><ele>94.0</ele><time>2026-04-20T07:18:02.876Z</time></trkpt><trkpt lat="42.1726317" lon="14.6277717"><ele>94.0</ele><time>2026-04-20T07:18:03.876Z</time></trkpt><trkpt lat="42.1726867" lon="14.6278167"><ele>93.5</ele><time>2026-04-20T07:18:04.876Z</time></trkpt><trkpt lat="42.1727433" lon="14.627855"><ele>93.0</ele><time>2026-04-20T07:18:05.876Z</time></trkpt><trkpt lat="42.1728" lon="14.627895"><ele>92.5</ele><time>2026-04-20T07:18:06.875Z</time></trkpt><trkpt lat="42.1729083" lon="14.62798"><ele>92.0</ele><time>2026-04-20T07:18:08.876Z</time></trkpt><trkpt lat="42.1729633" lon="14.6280217"><ele>91.5</ele><time>2026-04-20T07:18:09.876Z</time></trkpt><trkpt lat="42.1730183" lon="14.6280633"><ele>91.0</ele><time>2026-04-20T07:18:10.875Z</time></trkpt><trkpt lat="42.173115" lon="14.6281417"><ele>91.0</ele><time>2026-04-20T07:18:12.875Z</time></trkpt><trkpt lat="42.1732133" lon="14.6282267"><ele>91.0</ele><time>2026-04-20T07:18:14.875Z</time></trkpt><trkpt lat="42.173315" lon="14.628305"><ele>91.0</ele><time>2026-04-20T07:18:16.875Z</time></trkpt><trkpt lat="42.173415" lon="14.6283867"><ele>91.0</ele><time>2026-04-20T07:18:18.875Z</time></trkpt><trkpt lat="42.173515" lon="14.6284667"><ele>91.0</ele><time>2026-04-20T07:18:20.876Z</time></trkpt><trkpt lat="42.17362" lon="14.6285417"><ele>91.0</ele><time>2026-04-20T07:18:22.875Z</time></trkpt><trkpt lat="42.1737267" lon="14.62862"><ele>91.0</ele><time>2026-04-20T07:18:24.875Z</time></trkpt><trkpt lat="42.17383" lon="14.6287"><ele>91.0</ele><time>2026-04-20T07:18:26.875Z</time></trkpt><trkpt lat="42.173935" lon="14.6287867"><ele>90.25</ele><time>2026-04-20T07:18:28.876Z</time></trkpt><trkpt lat="42.174035" lon="14.628865"><ele>89.5</ele><time>2026-04-20T07:18:30.875Z</time></trkpt><trkpt lat="42.174135" lon="14.6289433"><ele>88.75</ele><time>2026-04-20T07:18:32.876Z</time></trkpt><trkpt lat="42.1742333" lon="14.6290317"><ele>88.0</ele><time>2026-04-20T07:18:34.876Z</time></trkpt><trkpt lat="42.174315" lon="14.6291417"><ele>88.0</ele><time>2026-04-20T07:18:36.876Z</time></trkpt><trkpt lat="42.174385" lon="14.6292733"><ele>88.0</ele><time>2026-04-20T07:18:38.876Z</time></trkpt><trkpt lat="42.17446" lon="14.629395"><ele>88.0</ele><time>2026-04-20T07:18:40.876Z</time></trkpt><trkpt lat="42.1745383" lon="14.6295267"><ele>88.0</ele><time>2026-04-20T07:18:42.876Z</time></trkpt><trkpt lat="42.17462" lon="14.629645"><ele>88.0</ele><time>2026-04-20T07:18:44.875Z</time></trkpt><trkpt lat="42.174705" lon="14.6297433"><ele>88.0</ele><time>2026-04-20T07:18:46.876Z</time></trkpt><trkpt lat="42.174755" lon="14.629795"><ele>88.0</ele><time>2026-04-20T07:18:47.875Z</time></trkpt><trkpt lat="42.1748533" lon="14.6298917"><ele>88.0</ele><time>2026-04-20T07:18:49.875Z</time></trkpt><trkpt lat="42.1749567" lon="14.629975"><ele>88.0</ele><time>2026-04-20T07:18:51.876Z</time></trkpt><trkpt lat="42.1750617" lon="14.630065"><ele>88.0</ele><time>2026-04-20T07:18:53.876Z</time></trkpt><trkpt lat="42.17516" lon="14.630155"><ele>88.0</ele><time>2026-04-20T07:18:55.875Z</time></trkpt><trkpt lat="42.1752583" lon="14.6302417"><ele>88.0</ele><time>2026-04-20T07:18:57.876Z</time></trkpt><trkpt lat="42.1753567" lon="14.63032"><ele>88.0</ele><time>2026-04-20T07:18:59.876Z</time></trkpt><trkpt lat="42.1754583" lon="14.630405"><ele>88.0</ele><time>2026-04-20T07:19:01.875Z</time></trkpt><trkpt lat="42.1755583" lon="14.6304917"><ele>88.0</ele><time>2026-04-20T07:19:03.876Z</time></trkpt><trkpt lat="42.1756633" lon="14.6305767"><ele>88.0</ele><time>2026-04-20T07:19:05.876Z</time></trkpt><trkpt lat="42.1757633" lon="14.630665"><ele>88.0</ele><time>2026-04-20T07:19:07.876Z</time></trkpt><trkpt lat="42.1758633" lon="14.6307567"><ele>88.0</ele><time>2026-04-20T07:19:09.876Z</time></trkpt><trkpt lat="42.1759667" lon="14.6308433"><ele>88.0</ele><time>2026-04-20T07:19:11.875Z</time></trkpt><trkpt lat="42.176065" lon="14.6309283"><ele>88.0</ele><time>2026-04-20T07:19:13.876Z</time></trkpt><trkpt lat="42.17617" lon="14.6310233"><ele>88.0</ele><time>2026-04-20T07:19:15.875Z</time></trkpt><trkpt lat="42.1762233" lon="14.6310767"><ele>88.0</ele><time>2026-04-20T07:19:16.876Z</time></trkpt><trkpt lat="42.17628" lon="14.6311283"><ele>87.28571428571429</ele><time>2026-04-20T07:19:17.876Z</time></trkpt><trkpt lat="42.1763367" lon="14.6311767"><ele>86.57142857142857</ele><time>2026-04-20T07:19:18.876Z</time></trkpt><trkpt lat="42.1763983" lon="14.6312217"><ele>85.85714285714286</ele><time>2026-04-20T07:19:19.876Z</time></trkpt><trkpt lat="42.17646" lon="14.6312667"><ele>85.14285714285714</ele><time>2026-04-20T07:19:20.875Z</time></trkpt><trkpt lat="42.176515" lon="14.6313133"><ele>84.42857142857143</ele><time>2026-04-20T07:19:21.876Z</time></trkpt><trkpt lat="42.1765717" lon="14.6313633"><ele>83.71428571428571</ele><time>2026-04-20T07:19:22.876Z</time></trkpt><trkpt lat="42.17664" lon="14.6314117"><ele>83.0</ele><time>2026-04-20T07:19:23.875Z</time></trkpt><trkpt lat="42.17671" lon="14.6314667"><ele>82.5</ele><time>2026-04-20T07:19:24.876Z</time></trkpt><trkpt lat="42.17678" lon="14.6315217"><ele>82.0</ele><time>2026-04-20T07:19:25.875Z</time></trkpt><trkpt lat="42.17685" lon="14.6315733"><ele>81.5</ele><time>2026-04-20T07:19:26.875Z</time></trkpt><trkpt lat="42.1769233" lon="14.63163"><ele>81.0</ele><time>2026-04-20T07:19:27.876Z</time></trkpt><trkpt lat="42.176995" lon="14.6316917"><ele>80.5</ele><time>2026-04-20T07:19:28.876Z</time></trkpt><trkpt lat="42.1770683" lon="14.631745"><ele>80.0</ele><time>2026-04-20T07:19:29.876Z</time></trkpt><trkpt lat="42.1771483" lon="14.631805"><ele>80.0</ele><time>2026-04-20T07:19:30.876Z</time></trkpt><trkpt lat="42.1772267" lon="14.631865"><ele>80.0</ele><time>2026-04-20T07:19:31.875Z</time></trkpt><trkpt lat="42.177305" lon="14.631935"><ele>80.0</ele><time>2026-04-20T07:19:32.876Z</time></trkpt><trkpt lat="42.1773867" lon="14.6319933"><ele>80.0</ele><time>2026-04-20T07:19:33.875Z</time></trkpt><trkpt lat="42.1774667" lon="14.6320517"><ele>80.0</ele><time>2026-04-20T07:19:34.876Z</time></trkpt><trkpt lat="42.1775533" lon="14.632095"><ele>77.4</ele><time>2026-04-20T07:19:35.876Z</time></trkpt><trkpt lat="42.17765" lon="14.6321217"><ele>74.8</ele><time>2026-04-20T07:19:36.875Z</time></trkpt><trkpt lat="42.1777517" lon="14.6321367"><ele>72.2</ele><time>2026-04-20T07:19:37.876Z</time></trkpt><trkpt lat="42.1778533" lon="14.6321433"><ele>69.6</ele><time>2026-04-20T07:19:38.876Z</time></trkpt><trkpt lat="42.17796" lon="14.6321317"><ele>67.0</ele><time>2026-04-20T07:19:39.876Z</time></trkpt><trkpt lat="42.1780717" lon="14.6321067"><ele>67.0</ele><time>2026-04-20T07:19:40.876Z</time></trkpt><trkpt lat="42.1781783" lon="14.6320733"><ele>67.0</ele><time>2026-04-20T07:19:41.876Z</time></trkpt><trkpt lat="42.1782833" lon="14.632045"><ele>67.0</ele><time>2026-04-20T07:19:42.876Z</time></trkpt><trkpt lat="42.1783833" lon="14.632025"><ele>67.0</ele><time>2026-04-20T07:19:43.876Z</time></trkpt><trkpt lat="42.178485" lon="14.6319917"><ele>67.0</ele><time>2026-04-20T07:19:44.876Z</time></trkpt><trkpt lat="42.17859" lon="14.6319583"><ele>66.8</ele><time>2026-04-20T07:19:45.876Z</time></trkpt><trkpt lat="42.178695" lon="14.6319283"><ele>66.6</ele><time>2026-04-20T07:19:46.876Z</time></trkpt><trkpt lat="42.1787933" lon="14.6318967"><ele>66.39999999999999</ele><time>2026-04-20T07:19:47.876Z</time></trkpt><trkpt lat="42.1788883" lon="14.6318717"><ele>66.2</ele><time>2026-04-20T07:19:48.876Z</time></trkpt><trkpt lat="42.178995" lon="14.6318433"><ele>66.0</ele><time>2026-04-20T07:19:49.875Z</time></trkpt><trkpt lat="42.1790967" lon="14.6318167"><ele>66.0</ele><time>2026-04-20T07:19:50.875Z</time></trkpt><trkpt lat="42.179195" lon="14.63179"><ele>66.0</ele><time>2026-04-20T07:19:51.876Z</time></trkpt><trkpt lat="42.179295" lon="14.6317583"><ele>66.0</ele><time>2026-04-20T07:19:52.876Z</time></trkpt><trkpt lat="42.1793933" lon="14.6317267"><ele>66.0</ele><time>2026-04-20T07:19:53.876Z</time></trkpt><trkpt lat="42.1794917" lon="14.6316983"><ele>66.0</ele><time>2026-04-20T07:19:54.875Z</time></trkpt><trkpt lat="42.1795883" lon="14.6316683"><ele>66.0</ele><time>2026-04-20T07:19:55.875Z</time></trkpt><trkpt lat="42.1796867" lon="14.63164"><ele>66.0</ele><time>2026-04-20T07:19:56.876Z</time></trkpt><trkpt lat="42.1797817" lon="14.6316117"><ele>66.0</ele><time>2026-04-20T07:19:57.875Z</time></trkpt><trkpt lat="42.1798833" lon="14.6315833"><ele>66.0</ele><time>2026-04-20T07:19:58.876Z</time></trkpt><trkpt lat="42.1799817" lon="14.6315583"><ele>66.0</ele><time>2026-04-20T07:19:59.876Z</time></trkpt><trkpt lat="42.1800767" lon="14.63153"><ele>64.8</ele><time>2026-04-20T07:20:00.876Z</time></trkpt><trkpt lat="42.1801733" lon="14.6315017"><ele>63.599999999999994</ele><time>2026-04-20T07:20:01.875Z</time></trkpt><trkpt lat="42.1802667" lon="14.63147"><ele>62.4</ele><time>2026-04-20T07:20:02.875Z</time></trkpt><trkpt lat="42.180365" lon="14.6314433"><ele>61.2</ele><time>2026-04-20T07:20:03.875Z</time></trkpt><trkpt lat="42.1804583" lon="14.6314083"><ele>60.0</ele><time>2026-04-20T07:20:04.876Z</time></trkpt><trkpt lat="42.18056" lon="14.631375"><ele>60.0</ele><time>2026-04-20T07:20:05.876Z</time></trkpt><trkpt lat="42.18066" lon="14.6313467"><ele>60.0</ele><time>2026-04-20T07:20:06.876Z</time></trkpt><trkpt lat="42.1807583" lon="14.6313183"><ele>60.0</ele><time>2026-04-20T07:20:07.876Z</time></trkpt><trkpt lat="42.1808567" lon="14.6312933"><ele>60.0</ele><time>2026-04-20T07:20:08.875Z</time></trkpt><trkpt lat="42.18096" lon="14.6312767"><ele>60.0</ele><time>2026-04-20T07:20:09.876Z</time></trkpt><trkpt lat="42.1810683" lon="14.6312767"><ele>59.4</ele><time>2026-04-20T07:20:10.876Z</time></trkpt><trkpt lat="42.1811683" lon="14.6313033"><ele>58.8</ele><time>2026-04-20T07:20:11.875Z</time></trkpt><trkpt lat="42.18126" lon="14.63134"><ele>58.2</ele><time>2026-04-20T07:20:12.876Z</time></trkpt><trkpt lat="42.1813583" lon="14.6313833"><ele>57.6</ele><time>2026-04-20T07:20:13.875Z</time></trkpt><trkpt lat="42.181455" lon="14.6314083"><ele>57.0</ele><time>2026-04-20T07:20:14.875Z</time></trkpt><trkpt lat="42.1815617" lon="14.63143"><ele>55.8</ele><time>2026-04-20T07:20:15.876Z</time></trkpt><trkpt lat="42.18167" lon="14.6314333"><ele>54.6</ele><time>2026-04-20T07:20:16.875Z</time></trkpt><trkpt lat="42.18178" lon="14.631435"><ele>53.4</ele><time>2026-04-20T07:20:17.876Z</time></trkpt><trkpt lat="42.18189" lon="14.631435"><ele>52.199999999999996</ele><time>2026-04-20T07:20:18.876Z</time></trkpt><trkpt lat="42.1820067" lon="14.63144"><ele>51.0</ele><time>2026-04-20T07:20:19.876Z</time></trkpt><trkpt lat="42.18212" lon="14.6314417"><ele>51.0</ele><time>2026-04-20T07:20:20.876Z</time></trkpt><trkpt lat="42.1822383" lon="14.6314367"><ele>51.0</ele><time>2026-04-20T07:20:21.876Z</time></trkpt><trkpt lat="42.1823533" lon="14.6314233"><ele>51.0</ele><time>2026-04-20T07:20:22.876Z</time></trkpt><trkpt lat="42.1824667" lon="14.631405"><ele>51.0</ele><time>2026-04-20T07:20:23.876Z</time></trkpt><trkpt lat="42.18258" lon="14.6313867"><ele>48.75</ele><time>2026-04-20T07:20:24.876Z</time></trkpt><trkpt lat="42.182695" lon="14.631355"><ele>46.5</ele><time>2026-04-20T07:20:25.875Z</time></trkpt><trkpt lat="42.1828083" lon="14.63133"><ele>44.25</ele><time>2026-04-20T07:20:26.876Z</time></trkpt><trkpt lat="42.1829283" lon="14.63132"><ele>42.0</ele><time>2026-04-20T07:20:27.875Z</time></trkpt><trkpt lat="42.18304" lon="14.6313333"><ele>42.0</ele><time>2026-04-20T07:20:28.876Z</time></trkpt><trkpt lat="42.18315" lon="14.6313767"><ele>42.0</ele><time>2026-04-20T07:20:29.876Z</time></trkpt><trkpt lat="42.1832483" lon="14.631455"><ele>42.0</ele><time>2026-04-20T07:20:30.876Z</time></trkpt><trkpt lat="42.1833433" lon="14.63155"><ele>42.0</ele><time>2026-04-20T07:20:31.876Z</time></trkpt><trkpt lat="42.183435" lon="14.6316483"><ele>40.0</ele><time>2026-04-20T07:20:32.876Z</time></trkpt><trkpt lat="42.1835317" lon="14.631755"><ele>38.0</ele><time>2026-04-20T07:20:33.876Z</time></trkpt><trkpt lat="42.18363" lon="14.63186"><ele>36.0</ele><time>2026-04-20T07:20:34.875Z</time></trkpt><trkpt lat="42.1837217" lon="14.63197"><ele>34.0</ele><time>2026-04-20T07:20:35.876Z</time></trkpt><trkpt lat="42.18382" lon="14.6320767"><ele>32.5</ele><time>2026-04-20T07:20:36.875Z</time></trkpt><trkpt lat="42.1839167" lon="14.6321817"><ele>31.0</ele><time>2026-04-20T07:20:37.876Z</time></trkpt><trkpt lat="42.18401" lon="14.6322917"><ele>29.5</ele><time>2026-04-20T07:20:38.875Z</time></trkpt><trkpt lat="42.1841133" lon="14.632395"><ele>28.0</ele><time>2026-04-20T07:20:39.876Z</time></trkpt><trkpt lat="42.1842083" lon="14.6325067"><ele>26.75</ele><time>2026-04-20T07:20:40.876Z</time></trkpt><trkpt lat="42.1843083" lon="14.6326133"><ele>25.5</ele><time>2026-04-20T07:20:41.876Z</time></trkpt><trkpt lat="42.1844083" lon="14.6327217"><ele>24.25</ele><time>2026-04-20T07:20:42.875Z</time></trkpt><trkpt lat="42.1845067" lon="14.63283"><ele>23.0</ele><time>2026-04-20T07:20:43.876Z</time></trkpt><trkpt lat="42.1846067" lon="14.63293"><ele>22.2</ele><time>2026-04-20T07:20:44.875Z</time></trkpt><trkpt lat="42.1847017" lon="14.6330317"><ele>21.4</ele><time>2026-04-20T07:20:45.876Z</time></trkpt><trkpt lat="42.1847883" lon="14.6331367"><ele>20.599999999999998</ele><time>2026-04-20T07:20:46.876Z</time></trkpt><trkpt lat="42.184865" lon="14.6332283"><ele>19.799999999999997</ele><time>2026-04-20T07:20:47.875Z</time></trkpt><trkpt lat="42.1849433" lon="14.633315"><ele>19.0</ele><time>2026-04-20T07:20:48.875Z</time></trkpt><trkpt lat="42.1850133" lon="14.6333983"><ele>18.833333333333332</ele><time>2026-04-20T07:20:49.876Z</time></trkpt><trkpt lat="42.1850817" lon="14.6334783"><ele>18.666666666666664</ele><time>2026-04-20T07:20:50.875Z</time></trkpt><trkpt lat="42.1851517" lon="14.6335467"><ele>18.5</ele><time>2026-04-20T07:20:51.876Z</time></trkpt><trkpt lat="42.1852167" lon="14.633615"><ele>18.333333333333332</ele><time>2026-04-20T07:20:52.875Z</time></trkpt><trkpt lat="42.18528" lon="14.6336783"><ele>18.166666666666668</ele><time>2026-04-20T07:20:53.876Z</time></trkpt><trkpt lat="42.18534" lon="14.633745"><ele>18.0</ele><time>2026-04-20T07:20:54.875Z</time></trkpt><trkpt lat="42.1853933" lon="14.6338083"><ele>17.333333333333332</ele><time>2026-04-20T07:20:55.876Z</time></trkpt><trkpt lat="42.1854467" lon="14.633865"><ele>16.666666666666668</ele><time>2026-04-20T07:20:56.875Z</time></trkpt><trkpt lat="42.1854967" lon="14.63392"><ele>16.0</ele><time>2026-04-20T07:20:57.876Z</time></trkpt><trkpt lat="42.1855483" lon="14.6339717"><ele>15.333333333333334</ele><time>2026-04-20T07:20:58.876Z</time></trkpt><trkpt lat="42.1856633" lon="14.634015"><ele>14.666666666666668</ele><time>2026-04-20T07:21:00.875Z</time></trkpt><trkpt lat="42.1857833" lon="14.633995"><ele>14.0</ele><time>2026-04-20T07:21:02.876Z</time></trkpt><trkpt lat="42.1859" lon="14.6339717"><ele>13.75</ele><time>2026-04-20T07:21:04.876Z</time></trkpt><trkpt lat="42.18602" lon="14.63395"><ele>13.5</ele><time>2026-04-20T07:21:06.875Z</time></trkpt><trkpt lat="42.1861383" lon="14.6339317"><ele>13.25</ele><time>2026-04-20T07:21:08.876Z</time></trkpt><trkpt lat="42.1862483" lon="14.6339183"><ele>13.0</ele><time>2026-04-20T07:21:10.876Z</time></trkpt><trkpt lat="42.1863633" lon="14.6338983"><ele>13.0</ele><time>2026-04-20T07:21:12.875Z</time></trkpt><trkpt lat="42.1864717" lon="14.6338783"><ele>13.0</ele><time>2026-04-20T07:21:14.876Z</time></trkpt><trkpt lat="42.1865883" lon="14.633855"><ele>13.0</ele><time>2026-04-20T07:21:16.876Z</time></trkpt><trkpt lat="42.1866983" lon="14.6338317"><ele>13.0</ele><time>2026-04-20T07:21:18.875Z</time></trkpt><trkpt lat="42.1868133" lon="14.6338083"><ele>12.75</ele><time>2026-04-20T07:21:20.875Z</time></trkpt><trkpt lat="42.18693" lon="14.6337783"><ele>12.5</ele><time>2026-04-20T07:21:22.876Z</time></trkpt><trkpt lat="42.1870483" lon="14.6337567"><ele>12.25</ele><time>2026-04-20T07:21:24.876Z</time></trkpt><trkpt lat="42.187155" lon="14.6337467"><ele>12.0</ele><time>2026-04-20T07:21:26.875Z</time></trkpt><trkpt lat="42.18726" lon="14.63373"><ele>12.0</ele><time>2026-04-20T07:21:28.875Z</time></trkpt><trkpt lat="42.1873617" lon="14.6337017"><ele>12.0</ele><time>2026-04-20T07:21:30.876Z</time></trkpt><trkpt lat="42.1874583" lon="14.633685"><ele>12.0</ele><time>2026-04-20T07:21:32.876Z</time></trkpt><trkpt lat="42.1875533" lon="14.63367"><ele>12.0</ele><time>2026-04-20T07:21:34.877Z</time></trkpt><trkpt lat="42.187645" lon="14.6336533"><ele>12.0</ele><time>2026-04-20T07:21:36.876Z</time></trkpt><trkpt lat="42.1877367" lon="14.6336417"><ele>12.5</ele><time>2026-04-20T07:21:38.877Z</time></trkpt><trkpt lat="42.1878183" lon="14.633635"><ele>13.0</ele><time>2026-04-20T07:21:40.877Z</time></trkpt><trkpt lat="42.1879" lon="14.6336283"><ele>13.5</ele><time>2026-04-20T07:21:42.877Z</time></trkpt><trkpt lat="42.18798" lon="14.63362"><ele>14.0</ele><time>2026-04-20T07:21:44.877Z</time></trkpt><trkpt lat="42.1880567" lon="14.6336083"><ele>14.5</ele><time>2026-04-20T07:21:46.877Z</time></trkpt><trkpt lat="42.1881317" lon="14.6336017"><ele>15.0</ele><time>2026-04-20T07:21:48.877Z</time></trkpt><trkpt lat="42.188205" lon="14.6335867"><ele>15.428571428571429</ele><time>2026-04-20T07:21:50.877Z</time></trkpt><trkpt lat="42.18828" lon="14.6335817"><ele>15.857142857142858</ele><time>2026-04-20T07:21:52.876Z</time></trkpt><trkpt lat="42.1883517" lon="14.63357"><ele>16.285714285714285</ele><time>2026-04-20T07:21:54.877Z</time></trkpt><trkpt lat="42.18842" lon="14.6335567"><ele>16.714285714285715</ele><time>2026-04-20T07:21:56.876Z</time></trkpt><trkpt lat="42.188495" lon="14.633545"><ele>17.142857142857142</ele><time>2026-04-20T07:21:58.877Z</time></trkpt><trkpt lat="42.188565" lon="14.633535"><ele>17.571428571428573</ele><time>2026-04-20T07:22:00.877Z</time></trkpt><trkpt lat="42.1886433" lon="14.633525"><ele>18.0</ele><time>2026-04-20T07:22:02.877Z</time></trkpt><trkpt lat="42.18872" lon="14.6335133"><ele>18.0</ele><time>2026-04-20T07:22:04.877Z</time></trkpt><trkpt lat="42.188795" lon="14.633495"><ele>18.0</ele><time>2026-04-20T07:22:06.877Z</time></trkpt><trkpt lat="42.1888733" lon="14.633475"><ele>18.0</ele><time>2026-04-20T07:22:08.877Z</time></trkpt><trkpt lat="42.188955" lon="14.6334617"><ele>18.0</ele><time>2026-04-20T07:22:10.877Z</time></trkpt><trkpt lat="42.1890383" lon="14.6334467"><ele>18.0</ele><time>2026-04-20T07:22:12.877Z</time></trkpt><trkpt lat="42.1891267" lon="14.633435"><ele>18.0</ele><time>2026-04-20T07:22:14.877Z</time></trkpt><trkpt lat="42.1892183" lon="14.6334267"><ele>18.166666666666668</ele><time>2026-04-20T07:22:16.877Z</time></trkpt><trkpt lat="42.1893017" lon="14.6334133"><ele>18.333333333333332</ele><time>2026-04-20T07:22:18.876Z</time></trkpt><trkpt lat="42.189385" lon="14.633395"><ele>18.5</ele><time>2026-04-20T07:22:20.876Z</time></trkpt><trkpt lat="42.18947" lon="14.6333783"><ele>18.666666666666664</ele><time>2026-04-20T07:22:22.877Z</time></trkpt><trkpt lat="42.189555" lon="14.6333617"><ele>18.833333333333332</ele><time>2026-04-20T07:22:24.877Z</time></trkpt><trkpt lat="42.1896383" lon="14.6333467"><ele>19.0</ele><time>2026-04-20T07:22:26.877Z</time></trkpt><trkpt lat="42.1897233" lon="14.6333267"><ele>19.0</ele><time>2026-04-20T07:22:28.877Z</time></trkpt><trkpt lat="42.1898117" lon="14.633305"><ele>19.0</ele><time>2026-04-20T07:22:30.877Z</time></trkpt><trkpt lat="42.1898867" lon="14.6332817"><ele>19.0</ele><time>2026-04-20T07:22:32.877Z</time></trkpt><trkpt lat="42.1899617" lon="14.63324"><ele>19.0</ele><time>2026-04-20T07:22:34.877Z</time></trkpt><trkpt lat="42.190025" lon="14.6332083"><ele>19.0</ele><time>2026-04-20T07:22:36.877Z</time></trkpt><trkpt lat="42.1901017" lon="14.6331833"><ele>19.0</ele><time>2026-04-20T07:22:39.877Z</time></trkpt><trkpt lat="42.1901967" lon="14.6331983"><ele>19.0</ele><time>2026-04-20T07:22:42.877Z</time></trkpt><trkpt lat="42.1902867" lon="14.633195"><ele>19.0</ele><time>2026-04-20T07:22:44.877Z</time></trkpt><trkpt lat="42.1903767" lon="14.6331983"><ele>19.0</ele><time>2026-04-20T07:22:46.877Z</time></trkpt><trkpt lat="42.1904783" lon="14.6331883"><ele>19.0</ele><time>2026-04-20T07:22:48.877Z</time></trkpt><trkpt lat="42.1905883" lon="14.6331717"><ele>19.0</ele><time>2026-04-20T07:22:50.877Z</time></trkpt><trkpt lat="42.1907017" lon="14.6331583"><ele>18.0</ele><time>2026-04-20T07:22:52.876Z</time></trkpt><trkpt lat="42.19082" lon="14.6331483"><ele>17.0</ele><time>2026-04-20T07:22:54.876Z</time></trkpt><trkpt lat="42.1908833" lon="14.6331433"><ele>15.999999999999998</ele><time>2026-04-20T07:22:55.876Z</time></trkpt><trkpt lat="42.191005" lon="14.6331333"><ele>15.0</ele><time>2026-04-20T07:22:57.876Z</time></trkpt><trkpt lat="42.191125" lon="14.6331183"><ele>14.0</ele><time>2026-04-20T07:22:59.876Z</time></trkpt><trkpt lat="42.191245" lon="14.6331117"><ele>14.0</ele><time>2026-04-20T07:23:01.876Z</time></trkpt><trkpt lat="42.1913583" lon="14.6330967"><ele>13.999999999999998</ele><time>2026-04-20T07:23:03.876Z</time></trkpt><trkpt lat="42.1914567" lon="14.6330883"><ele>13.999999999999998</ele><time>2026-04-20T07:23:05.877Z</time></trkpt><trkpt lat="42.191565" lon="14.6330733"><ele>14.0</ele><time>2026-04-20T07:23:07.877Z</time></trkpt><trkpt lat="42.1916733" lon="14.63305"><ele>14.0</ele><time>2026-04-20T07:23:09.877Z</time></trkpt><trkpt lat="42.19176" lon="14.6330083"><ele>13.500000000000002</ele><time>2026-04-20T07:23:11.876Z</time></trkpt><trkpt lat="42.1918383" lon="14.6329883"><ele>13.0</ele><time>2026-04-20T07:23:13.876Z</time></trkpt><trkpt lat="42.1919033" lon="14.6329967"><ele>12.5</ele><time>2026-04-20T07:23:15.877Z</time></trkpt><trkpt lat="42.1919717" lon="14.6330717"><ele>12.0</ele><time>2026-04-20T07:23:18.877Z</time></trkpt><trkpt lat="42.1919983" lon="14.6331683"><ele>11.5</ele><time>2026-04-20T07:23:20.877Z</time></trkpt><trkpt lat="42.1920033" lon="14.6332967"><ele>11.0</ele><time>2026-04-20T07:23:22.876Z</time></trkpt><trkpt lat="42.1919783" lon="14.6334183"><ele>11.0</ele><time>2026-04-20T07:23:24.877Z</time></trkpt><trkpt lat="42.19195" lon="14.6335583"><ele>11.0</ele><time>2026-04-20T07:23:26.877Z</time></trkpt><trkpt lat="42.1918767" lon="14.633705"><ele>11.0</ele><time>2026-04-20T07:23:28.876Z</time></trkpt><trkpt lat="42.1917683" lon="14.6337983"><ele>11.0</ele><time>2026-04-20T07:23:30.877Z</time></trkpt><trkpt lat="42.19171" lon="14.6338517"><ele>11.0</ele><time>2026-04-20T07:23:31.876Z</time></trkpt><trkpt lat="42.191645" lon="14.6339067"><ele>10.428571428571429</ele><time>2026-04-20T07:23:32.877Z</time></trkpt><trkpt lat="42.191585" lon="14.6339683"><ele>9.857142857142858</ele><time>2026-04-20T07:23:33.877Z</time></trkpt><trkpt lat="42.1915217" lon="14.6340283"><ele>9.285714285714285</ele><time>2026-04-20T07:23:34.876Z</time></trkpt><trkpt lat="42.1914667" lon="14.6340967"><ele>8.714285714285715</ele><time>2026-04-20T07:23:35.877Z</time></trkpt><trkpt lat="42.1914133" lon="14.6341683"><ele>8.142857142857142</ele><time>2026-04-20T07:23:36.876Z</time></trkpt><trkpt lat="42.1913683" lon="14.634245"><ele>7.571428571428571</ele><time>2026-04-20T07:23:37.876Z</time></trkpt><trkpt lat="42.19133" lon="14.6343217"><ele>7.0</ele><time>2026-04-20T07:23:38.877Z</time></trkpt><trkpt lat="42.19128" lon="14.6344833"><ele>6.3999999999999995</ele><time>2026-04-20T07:23:40.877Z</time></trkpt><trkpt lat="42.1912833" lon="14.63457"><ele>5.799999999999999</ele><time>2026-04-20T07:23:41.877Z</time></trkpt><trkpt lat="42.191325" lon="14.6347217"><ele>5.2</ele><time>2026-04-20T07:23:43.876Z</time></trkpt><trkpt lat="42.1913567" lon="14.6347967"><ele>4.6</ele><time>2026-04-20T07:23:44.877Z</time></trkpt><trkpt lat="42.1914183" lon="14.6349333"><ele>4.0</ele><time>2026-04-20T07:23:46.876Z</time></trkpt><trkpt lat="42.1914733" lon="14.635065"><ele>4.0</ele><time>2026-04-20T07:23:48.877Z</time></trkpt><trkpt lat="42.1915267" lon="14.6351983"><ele>4.0</ele><time>2026-04-20T07:23:50.877Z</time></trkpt><trkpt lat="42.1915767" lon="14.6353333"><ele>4.0</ele><time>2026-04-20T07:23:52.876Z</time></trkpt><trkpt lat="42.1916183" lon="14.635485"><ele>4.0</ele><time>2026-04-20T07:23:54.877Z</time></trkpt><trkpt lat="42.1916233" lon="14.6356317"><ele>4.0</ele><time>2026-04-20T07:23:56.876Z</time></trkpt><trkpt lat="42.1915933" lon="14.6357667"><ele>4.0</ele><time>2026-04-20T07:23:58.877Z</time></trkpt><trkpt lat="42.1915533" lon="14.635895"><ele>4.0</ele><time>2026-04-20T07:24:00.877Z</time></trkpt><trkpt lat="42.1915067" lon="14.6360333"><ele>4.0</ele><time>2026-04-20T07:24:02.876Z</time></trkpt><trkpt lat="42.1914667" lon="14.6361667"><ele>4.0</ele><time>2026-04-20T07:24:04.876Z</time></trkpt><trkpt lat="42.1914233" lon="14.6363017"><ele>3.75</ele><time>2026-04-20T07:24:06.876Z</time></trkpt><trkpt lat="42.1913817" lon="14.636445"><ele>3.5</ele><time>2026-04-20T07:24:08.877Z</time></trkpt><trkpt lat="42.1913417" lon="14.6365817"><ele>3.25</ele><time>2026-04-20T07:24:10.877Z</time></trkpt><trkpt lat="42.1913017" lon="14.63672"><ele>3.0</ele><time>2026-04-20T07:24:12.877Z</time></trkpt><trkpt lat="42.19126" lon="14.6368717"><ele>3.0</ele><time>2026-04-20T07:24:14.876Z</time></trkpt><trkpt lat="42.1912267" lon="14.6370067"><ele>3.0</ele><time>2026-04-20T07:24:16.877Z</time></trkpt><trkpt lat="42.1912" lon="14.6371533"><ele>3.0</ele><time>2026-04-20T07:24:18.877Z</time></trkpt><trkpt lat="42.1911617" lon="14.6372883"><ele>3.0</ele><time>2026-04-20T07:24:20.877Z</time></trkpt><trkpt lat="42.191115" lon="14.6374267"><ele>3.0</ele><time>2026-04-20T07:24:22.877Z</time></trkpt><trkpt lat="42.191085" lon="14.6375683"><ele>3.0</ele><time>2026-04-20T07:24:24.877Z</time></trkpt><trkpt lat="42.19105" lon="14.6377017"><ele>3.0</ele><time>2026-04-20T07:24:26.876Z</time></trkpt><trkpt lat="42.19101" lon="14.637835"><ele>3.0</ele><time>2026-04-20T07:24:28.876Z</time></trkpt><trkpt lat="42.19097" lon="14.6379667"><ele>3.0</ele><time>2026-04-20T07:24:30.877Z</time></trkpt><trkpt lat="42.190925" lon="14.6380933"><ele>3.0</ele><time>2026-04-20T07:24:32.876Z</time></trkpt><trkpt lat="42.190885" lon="14.63823"><ele>2.6</ele><time>2026-04-20T07:24:34.877Z</time></trkpt><trkpt lat="42.1908483" lon="14.6383617"><ele>2.1999999999999997</ele><time>2026-04-20T07:24:36.877Z</time></trkpt><trkpt lat="42.19081" lon="14.6385067"><ele>1.8</ele><time>2026-04-20T07:24:38.876Z</time></trkpt><trkpt lat="42.19078" lon="14.6386467"><ele>1.4</ele><time>2026-04-20T07:24:40.877Z</time></trkpt><trkpt lat="42.1907483" lon="14.638785"><ele>1.0</ele><time>2026-04-20T07:24:42.876Z</time></trkpt><trkpt lat="42.1907233" lon="14.638925"><ele>1.0</ele><time>2026-04-20T07:24:44.876Z</time></trkpt><trkpt lat="42.1906867" lon="14.6390567"><ele>1.0</ele><time>2026-04-20T07:24:46.876Z</time></trkpt><trkpt lat="42.1906533" lon="14.6391917"><ele>1.0</ele><time>2026-04-20T07:24:48.877Z</time></trkpt><trkpt lat="42.1906233" lon="14.6393267"><ele>1.0</ele><time>2026-04-20T07:24:50.877Z</time></trkpt><trkpt lat="42.190595" lon="14.6394683"><ele>1.0</ele><time>2026-04-20T07:24:52.877Z</time></trkpt><trkpt lat="42.1905683" lon="14.6396133"><ele>1.0</ele><time>2026-04-20T07:24:54.877Z</time></trkpt><trkpt lat="42.1905367" lon="14.63976"><ele>1.0</ele><time>2026-04-20T07:24:56.877Z</time></trkpt><trkpt lat="42.1905133" lon="14.6398983"><ele>1.0</ele><time>2026-04-20T07:24:58.877Z</time></trkpt><trkpt lat="42.1904883" lon="14.6400467"><ele>1.0</ele><time>2026-04-20T07:25:00.877Z</time></trkpt><trkpt lat="42.1904667" lon="14.6401833"><ele>1.0</ele><time>2026-04-20T07:25:02.877Z</time></trkpt><trkpt lat="42.1904383" lon="14.640305"><ele>0.9999999999999999</ele><time>2026-04-20T07:25:04.876Z</time></trkpt><trkpt lat="42.1904083" lon="14.6404217"><ele>1.0</ele><time>2026-04-20T07:25:06.877Z</time></trkpt><trkpt lat="42.1903833" lon="14.6405383"><ele>1.0</ele><time>2026-04-20T07:25:08.877Z</time></trkpt><trkpt lat="42.1903567" lon="14.6406633"><ele>1.0</ele><time>2026-04-20T07:25:10.876Z</time></trkpt><trkpt lat="42.1903117" lon="14.6407583"><ele>0.9999999999999999</ele><time>2026-04-20T07:25:12.876Z</time></trkpt><trkpt lat="42.1902467" lon="14.6408283"><ele>1.0</ele><time>2026-04-20T07:25:14.877Z</time></trkpt><trkpt lat="42.1901683" lon="14.640855"><ele>0.9999999999999999</ele><time>2026-04-20T07:25:16.877Z</time></trkpt><trkpt lat="42.1901017" lon="14.6408283"><ele>1.0</ele><time>2026-04-20T07:25:18.877Z</time></trkpt><trkpt lat="42.1900233" lon="14.6407817"><ele>1.0</ele><time>2026-04-20T07:25:20.877Z</time></trkpt><trkpt lat="42.1899433" lon="14.64075"><ele>1.0</ele><time>2026-04-20T07:25:22.877Z</time></trkpt><trkpt lat="42.1898533" lon="14.64078"><ele>0.9999999999999999</ele><time>2026-04-20T07:25:24.877Z</time></trkpt><trkpt lat="42.18977" lon="14.6408667"><ele>1.0</ele><time>2026-04-20T07:25:26.877Z</time></trkpt><trkpt lat="42.1897" lon="14.640975"><ele>1.0</ele><time>2026-04-20T07:25:28.876Z</time></trkpt><trkpt lat="42.1896283" lon="14.6410767"><ele>1.0</ele><time>2026-04-20T07:25:30.876Z</time></trkpt><trkpt lat="42.1895533" lon="14.64118"><ele>1.0</ele><time>2026-04-20T07:25:32.877Z</time></trkpt><trkpt lat="42.1894817" lon="14.6412867"><ele>1.0</ele><time>2026-04-20T07:25:34.876Z</time></trkpt><trkpt lat="42.1894167" lon="14.641395"><ele>1.0</ele><time>2026-04-20T07:25:36.876Z</time></trkpt><trkpt lat="42.1893567" lon="14.6415083"><ele>0.8</ele><time>2026-04-20T07:25:38.877Z</time></trkpt><trkpt lat="42.1893" lon="14.6416233"><ele>0.6000000000000001</ele><time>2026-04-20T07:25:40.877Z</time></trkpt><trkpt lat="42.1892667" lon="14.6417533"><ele>0.4</ele><time>2026-04-20T07:25:42.876Z</time></trkpt><trkpt lat="42.1892533" lon="14.6418867"><ele>0.2</ele><time>2026-04-20T07:25:44.876Z</time></trkpt><trkpt lat="42.189235" lon="14.642035"><ele>0.0</ele><time>2026-04-20T07:25:46.877Z</time></trkpt><trkpt lat="42.18923" lon="14.6421767"><ele>0.0</ele><time>2026-04-20T07:25:48.877Z</time></trkpt><trkpt lat="42.1892217" lon="14.6422967"><ele>0.0</ele><time>2026-04-20T07:25:50.876Z</time></trkpt><trkpt lat="42.1892067" lon="14.64243"><ele>0.0</ele><time>2026-04-20T07:25:52.876Z</time></trkpt><trkpt lat="42.189185" lon="14.6425667"><ele>0.0</ele><time>2026-04-20T07:25:54.876Z</time></trkpt><trkpt lat="42.18916" lon="14.6427017"><ele>0.0</ele><time>2026-04-20T07:25:56.877Z</time></trkpt><trkpt lat="42.1891267" lon="14.64284"><ele>0.2</ele><time>2026-04-20T07:25:58.877Z</time></trkpt><trkpt lat="42.189095" lon="14.642985"><ele>0.4</ele><time>2026-04-20T07:26:00.877Z</time></trkpt><trkpt lat="42.1890717" lon="14.64312"><ele>0.6000000000000001</ele><time>2026-04-20T07:26:02.877Z</time></trkpt><trkpt lat="42.189045" lon="14.643255"><ele>0.8</ele><time>2026-04-20T07:26:04.877Z</time></trkpt><trkpt lat="42.18902" lon="14.643395"><ele>1.0</ele><time>2026-04-20T07:26:06.877Z</time></trkpt><trkpt lat="42.189" lon="14.6435283"><ele>1.4</ele><time>2026-04-20T07:26:08.876Z</time></trkpt><trkpt lat="42.1889683" lon="14.643655"><ele>1.8</ele><time>2026-04-20T07:26:10.877Z</time></trkpt><trkpt lat="42.1889367" lon="14.6437917"><ele>2.1999999999999997</ele><time>2026-04-20T07:26:12.876Z</time></trkpt><trkpt lat="42.1889067" lon="14.643925"><ele>2.6</ele><time>2026-04-20T07:26:14.877Z</time></trkpt><trkpt lat="42.188885" lon="14.6440533"><ele>3.0</ele><time>2026-04-20T07:26:16.876Z</time></trkpt><trkpt lat="42.1888567" lon="14.6441633"><ele>3.0</ele><time>2026-04-20T07:26:18.876Z</time></trkpt><trkpt lat="42.1888333" lon="14.6442733"><ele>3.0</ele><time>2026-04-20T07:26:20.876Z</time></trkpt><trkpt lat="42.1888117" lon="14.6443933"><ele>3.0</ele><time>2026-04-20T07:26:22.877Z</time></trkpt><trkpt lat="42.188795" lon="14.644495"><ele>3.0</ele><time>2026-04-20T07:26:24.877Z</time></trkpt><trkpt lat="42.1888067" lon="14.6445817"><ele>3.0</ele><time>2026-04-20T07:26:26.876Z</time></trkpt><trkpt lat="42.1888617" lon="14.64463"><ele>3.0</ele><time>2026-04-20T07:26:28.876Z</time></trkpt><trkpt lat="42.1889433" lon="14.6446517"><ele>2.6</ele><time>2026-04-20T07:26:30.877Z</time></trkpt><trkpt lat="42.18903" lon="14.6446567"><ele>2.1999999999999997</ele><time>2026-04-20T07:26:32.877Z</time></trkpt><trkpt lat="42.1891083" lon="14.6446433"><ele>1.8</ele><time>2026-04-20T07:26:34.877Z</time></trkpt><trkpt lat="42.189215" lon="14.64464"><ele>1.4</ele><time>2026-04-20T07:26:36.876Z</time></trkpt><trkpt lat="42.18932" lon="14.644635"><ele>1.0</ele><time>2026-04-20T07:26:38.876Z</time></trkpt><trkpt lat="42.18942" lon="14.6446167"><ele>0.9999999999999999</ele><time>2026-04-20T07:26:40.876Z</time></trkpt><trkpt lat="42.1895167" lon="14.6445817"><ele>1.0</ele><time>2026-04-20T07:26:42.876Z</time></trkpt><trkpt lat="42.189605" lon="14.6445417"><ele>1.0</ele><time>2026-04-20T07:26:44.877Z</time></trkpt><trkpt lat="42.1896867" lon="14.644525"><ele>1.0</ele><time>2026-04-20T07:26:46.877Z</time></trkpt><trkpt lat="42.18976" lon="14.6445333"><ele>0.9999999999999999</ele><time>2026-04-20T07:26:48.876Z</time></trkpt><trkpt lat="42.189825" lon="14.64454"><ele>1.0</ele><time>2026-04-20T07:26:50.877Z</time></trkpt><trkpt lat="42.1899" lon="14.6445367"><ele>1.3333333333333333</ele><time>2026-04-20T07:26:52.877Z</time></trkpt><trkpt lat="42.1899717" lon="14.6445533"><ele>1.6666666666666665</ele><time>2026-04-20T07:26:54.876Z</time></trkpt><trkpt lat="42.19005" lon="14.6445817"><ele>2.0</ele><time>2026-04-20T07:26:55.876Z</time></trkpt><trkpt lat="42.19013" lon="14.6446133"><ele>2.3333333333333335</ele><time>2026-04-20T07:26:56.877Z</time></trkpt><trkpt lat="42.1902267" lon="14.6446417"><ele>2.6666666666666665</ele><time>2026-04-20T07:26:58.877Z</time></trkpt><trkpt lat="42.1903267" lon="14.6446067"><ele>3.0</ele><time>2026-04-20T07:27:00.877Z</time></trkpt><trkpt lat="42.1904183" lon="14.6445683"><ele>3.0</ele><time>2026-04-20T07:27:02.877Z</time></trkpt><trkpt lat="42.1905083" lon="14.64453"><ele>3.0</ele><time>2026-04-20T07:27:04.877Z</time></trkpt><trkpt lat="42.1906033" lon="14.64449"><ele>3.0</ele><time>2026-04-20T07:27:06.876Z</time></trkpt><trkpt lat="42.1906917" lon="14.6444483"><ele>3.0</ele><time>2026-04-20T07:27:08.877Z</time></trkpt><trkpt lat="42.1907833" lon="14.6444133"><ele>3.0</ele><time>2026-04-20T07:27:10.877Z</time></trkpt><trkpt lat="42.1908783" lon="14.64438"><ele>2.8</ele><time>2026-04-20T07:27:12.877Z</time></trkpt><trkpt lat="42.1909667" lon="14.6443333"><ele>2.5999999999999996</ele><time>2026-04-20T07:27:14.877Z</time></trkpt><trkpt lat="42.1910667" lon="14.6442617"><ele>2.4000000000000004</ele><time>2026-04-20T07:27:16.876Z</time></trkpt><trkpt lat="42.1911383" lon="14.6441633"><ele>2.2</ele><time>2026-04-20T07:27:18.876Z</time></trkpt><trkpt lat="42.191205" lon="14.64406"><ele>2.0</ele><time>2026-04-20T07:27:20.877Z</time></trkpt><trkpt lat="42.191265" lon="14.64395"><ele>2.0</ele><time>2026-04-20T07:27:22.877Z</time></trkpt><trkpt lat="42.1913183" lon="14.643835"><ele>2.0</ele><time>2026-04-20T07:27:24.877Z</time></trkpt><trkpt lat="42.1913767" lon="14.6437217"><ele>2.0</ele><time>2026-04-20T07:27:26.877Z</time></trkpt><trkpt lat="42.1914467" lon="14.6435967"><ele>2.0</ele><time>2026-04-20T07:27:28.877Z</time></trkpt><trkpt lat="42.1915067" lon="14.6434867"><ele>2.0</ele><time>2026-04-20T07:27:30.877Z</time></trkpt><trkpt lat="42.19157" lon="14.6433933"><ele>1.6</ele><time>2026-04-20T07:27:32.877Z</time></trkpt><trkpt lat="42.191645" lon="14.6432917"><ele>1.2000000000000002</ele><time>2026-04-20T07:27:34.877Z</time></trkpt><trkpt lat="42.1917283" lon="14.6432017"><ele>0.8</ele><time>2026-04-20T07:27:36.877Z</time></trkpt><trkpt lat="42.191815" lon="14.64312"><ele>0.4</ele><time>2026-04-20T07:27:38.876Z</time></trkpt><trkpt lat="42.1918917" lon="14.64302"><ele>0.0</ele><time>2026-04-20T07:27:40.877Z</time></trkpt><trkpt lat="42.1919583" lon="14.6429183"><ele>0.0</ele><time>2026-04-20T07:27:42.877Z</time></trkpt><trkpt lat="42.19203" lon="14.6428083"><ele>0.0</ele><time>2026-04-20T07:27:44.877Z</time></trkpt><trkpt lat="42.1920967" lon="14.64271"><ele>0.0</ele><time>2026-04-20T07:27:46.877Z</time></trkpt><trkpt lat="42.19217" lon="14.6426317"><ele>0.0</ele><time>2026-04-20T07:27:48.876Z</time></trkpt><trkpt lat="42.1922533" lon="14.642555"><ele>0.0</ele><time>2026-04-20T07:27:50.876Z</time></trkpt><trkpt lat="42.19233" lon="14.64246"><ele>0.0</ele><time>2026-04-20T07:27:52.876Z</time></trkpt><trkpt lat="42.1923717" lon="14.64237"><ele>0.0</ele><time>2026-04-20T07:27:54.877Z</time></trkpt><trkpt lat="42.1924067" lon="14.642245"><ele>0.0</ele><time>2026-04-20T07:27:56.877Z</time></trkpt><trkpt lat="42.1924417" lon="14.6421233"><ele>0.0</ele><time>2026-04-20T07:27:58.877Z</time></trkpt><trkpt lat="42.1924733" lon="14.642"><ele>0.0</ele><time>2026-04-20T07:28:00.877Z</time></trkpt><trkpt lat="42.1925117" lon="14.6418683"><ele>0.0</ele><time>2026-04-20T07:28:02.877Z</time></trkpt><trkpt lat="42.1925533" lon="14.6417417"><ele>0.0</ele><time>2026-04-20T07:28:04.877Z</time></trkpt><trkpt lat="42.1925933" lon="14.6416083"><ele>0.0</ele><time>2026-04-20T07:28:06.876Z</time></trkpt><trkpt lat="42.1926217" lon="14.64149"><ele>0.0</ele><time>2026-04-20T07:28:08.877Z</time></trkpt><trkpt lat="42.1926467" lon="14.6413783"><ele>0.0</ele><time>2026-04-20T07:28:10.876Z</time></trkpt><trkpt lat="42.1926683" lon="14.6412783"><ele>0.0</ele><time>2026-04-20T07:28:12.877Z</time></trkpt><trkpt lat="42.192695" lon="14.6411667"><ele>0.0</ele><time>2026-04-20T07:28:14.877Z</time></trkpt><trkpt lat="42.1927217" lon="14.64105"><ele>0.0</ele><time>2026-04-20T07:28:16.877Z</time></trkpt><trkpt lat="42.1927583" lon="14.640935"><ele>0.0</ele><time>2026-04-20T07:28:18.877Z</time></trkpt><trkpt lat="42.1927967" lon="14.64081"><ele>0.0</ele><time>2026-04-20T07:28:20.876Z</time></trkpt><trkpt lat="42.1928283" lon="14.6406883"><ele>0.0</ele><time>2026-04-20T07:28:22.876Z</time></trkpt><trkpt lat="42.1928617" lon="14.6405633"><ele>0.0</ele><time>2026-04-20T07:28:24.876Z</time></trkpt><trkpt lat="42.1928967" lon="14.6404367"><ele>0.0</ele><time>2026-04-20T07:28:26.876Z</time></trkpt><trkpt lat="42.1929283" lon="14.6403117"><ele>0.0</ele><time>2026-04-20T07:28:28.877Z</time></trkpt><trkpt lat="42.1929583" lon="14.6401917"><ele>0.0</ele><time>2026-04-20T07:28:30.876Z</time></trkpt><trkpt lat="42.1929883" lon="14.640065"><ele>-0.2</ele><time>2026-04-20T07:28:32.877Z</time></trkpt><trkpt lat="42.1930217" lon="14.63994"><ele>-0.4</ele><time>2026-04-20T07:28:34.876Z</time></trkpt><trkpt lat="42.1930517" lon="14.639805"><ele>-0.6000000000000001</ele><time>2026-04-20T07:28:36.876Z</time></trkpt><trkpt lat="42.1930867" lon="14.6396767"><ele>-0.8</ele><time>2026-04-20T07:28:38.877Z</time></trkpt><trkpt lat="42.1931183" lon="14.6395583"><ele>-1.0</ele><time>2026-04-20T07:28:40.877Z</time></trkpt><trkpt lat="42.19315" lon="14.6394367"><ele>-1.0</ele><time>2026-04-20T07:28:42.876Z</time></trkpt><trkpt lat="42.1931833" lon="14.6393083"><ele>-1.0</ele><time>2026-04-20T07:28:44.877Z</time></trkpt><trkpt lat="42.1932217" lon="14.6391867"><ele>-1.0</ele><time>2026-04-20T07:28:46.877Z</time></trkpt><trkpt lat="42.1932583" lon="14.63907"><ele>-1.0</ele><time>2026-04-20T07:28:48.876Z</time></trkpt><trkpt lat="42.1932933" lon="14.638945"><ele>-1.0</ele><time>2026-04-20T07:28:50.877Z</time></trkpt><trkpt lat="42.1933283" lon="14.63882"><ele>-1.0</ele><time>2026-04-20T07:28:52.877Z</time></trkpt><trkpt lat="42.19336" lon="14.63869"><ele>-1.0</ele><time>2026-04-20T07:28:54.877Z</time></trkpt><trkpt lat="42.1933867" lon="14.6385583"><ele>-1.0</ele><time>2026-04-20T07:28:56.877Z</time></trkpt><trkpt lat="42.1934117" lon="14.63844"><ele>-1.0</ele><time>2026-04-20T07:28:58.877Z</time></trkpt><trkpt lat="42.19343" lon="14.6383167"><ele>-1.0</ele><time>2026-04-20T07:29:00.877Z</time></trkpt><trkpt lat="42.1934617" lon="14.6381983"><ele>-0.6000000000000001</ele><time>2026-04-20T07:29:02.877Z</time></trkpt><trkpt lat="42.19349" lon="14.6380767"><ele>-0.20000000000000007</ele><time>2026-04-20T07:29:04.877Z</time></trkpt><trkpt lat="42.1935217" lon="14.6379567"><ele>0.20000000000000007</ele><time>2026-04-20T07:29:06.876Z</time></trkpt><trkpt lat="42.1935533" lon="14.6378333"><ele>0.6000000000000001</ele><time>2026-04-20T07:29:08.876Z</time></trkpt><trkpt lat="42.1935883" lon="14.63772"><ele>1.0</ele><time>2026-04-20T07:29:10.876Z</time></trkpt><trkpt lat="42.1936233" lon="14.637615"><ele>1.0</ele><time>2026-04-20T07:29:12.877Z</time></trkpt><trkpt lat="42.19366" lon="14.6375"><ele>1.0</ele><time>2026-04-20T07:29:14.877Z</time></trkpt><trkpt lat="42.1936933" lon="14.63738"><ele>1.0</ele><time>2026-04-20T07:29:16.877Z</time></trkpt><trkpt lat="42.1937267" lon="14.6372567"><ele>1.0</ele><time>2026-04-20T07:29:18.877Z</time></trkpt><trkpt lat="42.19376" lon="14.6371333"><ele>1.0</ele><time>2026-04-20T07:29:20.876Z</time></trkpt><trkpt lat="42.193795" lon="14.6370117"><ele>1.2000000000000002</ele><time>2026-04-20T07:29:22.876Z</time></trkpt><trkpt lat="42.1938267" lon="14.636895"><ele>1.4000000000000001</ele><time>2026-04-20T07:29:24.877Z</time></trkpt><trkpt lat="42.193865" lon="14.6367667"><ele>1.6</ele><time>2026-04-20T07:29:26.877Z</time></trkpt><trkpt lat="42.193905" lon="14.6366417"><ele>1.8</ele><time>2026-04-20T07:29:28.876Z</time></trkpt><trkpt lat="42.19394" lon="14.6365233"><ele>2.0</ele><time>2026-04-20T07:29:30.877Z</time></trkpt><trkpt lat="42.1939667" lon="14.636405"><ele>2.0</ele><time>2026-04-20T07:29:32.877Z</time></trkpt><trkpt lat="42.1940017" lon="14.6362833"><ele>2.0</ele><time>2026-04-20T07:29:34.876Z</time></trkpt><trkpt lat="42.1940367" lon="14.6361617"><ele>2.0</ele><time>2026-04-20T07:29:36.877Z</time></trkpt><trkpt lat="42.1940783" lon="14.6360367"><ele>2.0</ele><time>2026-04-20T07:29:38.877Z</time></trkpt><trkpt lat="42.1941133" lon="14.6359117"><ele>2.0</ele><time>2026-04-20T07:29:40.877Z</time></trkpt><trkpt lat="42.1941467" lon="14.6357867"><ele>2.0</ele><time>2026-04-20T07:29:42.876Z</time></trkpt><trkpt lat="42.19417" lon="14.63566"><ele>2.0</ele><time>2026-04-20T07:29:44.877Z</time></trkpt><trkpt lat="42.19421" lon="14.6355333"><ele>2.0</ele><time>2026-04-20T07:29:46.877Z</time></trkpt><trkpt lat="42.1942517" lon="14.6354117"><ele>2.0</ele><time>2026-04-20T07:29:48.876Z</time></trkpt><trkpt lat="42.194285" lon="14.635285"><ele>2.0</ele><time>2026-04-20T07:29:50.877Z</time></trkpt><trkpt lat="42.19432" lon="14.6351667"><ele>2.0</ele><time>2026-04-20T07:29:52.876Z</time></trkpt><trkpt lat="42.1943633" lon="14.6350483"><ele>2.0</ele><time>2026-04-20T07:29:54.877Z</time></trkpt><trkpt lat="42.1944033" lon="14.6349317"><ele>2.0</ele><time>2026-04-20T07:29:56.877Z</time></trkpt><trkpt lat="42.1944267" lon="14.6348217"><ele>2.0</ele><time>2026-04-20T07:29:58.877Z</time></trkpt><trkpt lat="42.1944567" lon="14.6347167"><ele>2.0</ele><time>2026-04-20T07:30:00.877Z</time></trkpt><trkpt lat="42.1944867" lon="14.6346017"><ele>2.0</ele><time>2026-04-20T07:30:02.877Z</time></trkpt><trkpt lat="42.194525" lon="14.6344767"><ele>2.0</ele><time>2026-04-20T07:30:04.877Z</time></trkpt><trkpt lat="42.1945633" lon="14.6343517"><ele>2.0</ele><time>2026-04-20T07:30:06.877Z</time></trkpt><trkpt lat="42.1946083" lon="14.634235"><ele>2.0</ele><time>2026-04-20T07:30:08.877Z</time></trkpt><trkpt lat="42.1946517" lon="14.6341183"><ele>2.0</ele><time>2026-04-20T07:30:10.877Z</time></trkpt><trkpt lat="42.1946783" lon="14.63401"><ele>2.4000000000000004</ele><time>2026-04-20T07:30:12.877Z</time></trkpt><trkpt lat="42.1947083" lon="14.6339017"><ele>2.8000000000000003</ele><time>2026-04-20T07:30:14.876Z</time></trkpt><trkpt lat="42.1947433" lon="14.6337767"><ele>3.2</ele><time>2026-04-20T07:30:16.877Z</time></trkpt><trkpt lat="42.194775" lon="14.6336533"><ele>3.6</ele><time>2026-04-20T07:30:18.877Z</time></trkpt><trkpt lat="42.1948" lon="14.6335433"><ele>4.0</ele><time>2026-04-20T07:30:20.876Z</time></trkpt><trkpt lat="42.1948333" lon="14.633435"><ele>4.2</ele><time>2026-04-20T07:30:22.877Z</time></trkpt><trkpt lat="42.19487" lon="14.633305"><ele>4.4</ele><time>2026-04-20T07:30:24.876Z</time></trkpt><trkpt lat="42.1948983" lon="14.6331833"><ele>4.6</ele><time>2026-04-20T07:30:26.876Z</time></trkpt><trkpt lat="42.1949333" lon="14.6330567"><ele>4.8</ele><time>2026-04-20T07:30:28.876Z</time></trkpt><trkpt lat="42.19497" lon="14.63293"><ele>5.0</ele><time>2026-04-20T07:30:30.876Z</time></trkpt><trkpt lat="42.1950033" lon="14.632805"><ele>5.0</ele><time>2026-04-20T07:30:32.877Z</time></trkpt><trkpt lat="42.1950383" lon="14.6326783"><ele>5.0</ele><time>2026-04-20T07:30:34.877Z</time></trkpt><trkpt lat="42.1950783" lon="14.632555"><ele>5.0</ele><time>2026-04-20T07:30:36.877Z</time></trkpt><trkpt lat="42.1951133" lon="14.6324317"><ele>5.0</ele><time>2026-04-20T07:30:38.877Z</time></trkpt><trkpt lat="42.1951483" lon="14.6323117"><ele>5.0</ele><time>2026-04-20T07:30:40.877Z</time></trkpt><trkpt lat="42.195185" lon="14.6322017"><ele>5.0</ele><time>2026-04-20T07:30:42.877Z</time></trkpt><trkpt lat="42.195225" lon="14.6320783"><ele>5.0</ele><time>2026-04-20T07:30:44.877Z</time></trkpt><trkpt lat="42.1952533" lon="14.6319533"><ele>5.0</ele><time>2026-04-20T07:30:46.877Z</time></trkpt><trkpt lat="42.1952883" lon="14.63183"><ele>5.0</ele><time>2026-04-20T07:30:48.876Z</time></trkpt><trkpt lat="42.195325" lon="14.6317133"><ele>5.0</ele><time>2026-04-20T07:30:50.877Z</time></trkpt><trkpt lat="42.1953567" lon="14.6316033"><ele>4.8</ele><time>2026-04-20T07:30:52.876Z</time></trkpt><trkpt lat="42.195385" lon="14.6314917"><ele>4.6</ele><time>2026-04-20T07:30:54.876Z</time></trkpt><trkpt lat="42.195415" lon="14.6313683"><ele>4.4</ele><time>2026-04-20T07:30:56.877Z</time></trkpt><trkpt lat="42.1954467" lon="14.63125"><ele>4.2</ele><time>2026-04-20T07:30:58.877Z</time></trkpt><trkpt lat="42.1954833" lon="14.6311233"><ele>4.0</ele><time>2026-04-20T07:31:00.877Z</time></trkpt><trkpt lat="42.1955133" lon="14.6310017"><ele>4.0</ele><time>2026-04-20T07:31:02.877Z</time></trkpt><trkpt lat="42.1955483" lon="14.6308717"><ele>4.0</ele><time>2026-04-20T07:31:04.877Z</time></trkpt><trkpt lat="42.1955817" lon="14.6307433"><ele>4.0</ele><time>2026-04-20T07:31:06.876Z</time></trkpt><trkpt lat="42.19562" lon="14.63062"><ele>4.0</ele><time>2026-04-20T07:31:08.877Z</time></trkpt><trkpt lat="42.1956533" lon="14.6305"><ele>4.0</ele><time>2026-04-20T07:31:10.877Z</time></trkpt><trkpt lat="42.1956867" lon="14.6303733"><ele>3.8000000000000003</ele><time>2026-04-20T07:31:12.876Z</time></trkpt><trkpt lat="42.1957267" lon="14.630245"><ele>3.6000000000000005</ele><time>2026-04-20T07:31:14.876Z</time></trkpt><trkpt lat="42.1957617" lon="14.6301183"><ele>3.4</ele><time>2026-04-20T07:31:16.877Z</time></trkpt><trkpt lat="42.1958" lon="14.6299917"><ele>3.2</ele><time>2026-04-20T07:31:18.876Z</time></trkpt><trkpt lat="42.1958333" lon="14.629875"><ele>3.0</ele><time>2026-04-20T07:31:20.877Z</time></trkpt><trkpt lat="42.195865" lon="14.629765"><ele>3.0</ele><time>2026-04-20T07:31:22.877Z</time></trkpt><trkpt lat="42.1958967" lon="14.6296417"><ele>3.0</ele><time>2026-04-20T07:31:24.877Z</time></trkpt><trkpt lat="42.19593" lon="14.62953"><ele>3.0</ele><time>2026-04-20T07:31:26.876Z</time></trkpt><trkpt lat="42.195975" lon="14.6294217"><ele>3.0</ele><time>2026-04-20T07:31:28.877Z</time></trkpt><trkpt lat="42.1960317" lon="14.629315"><ele>3.0</ele><time>2026-04-20T07:31:30.876Z</time></trkpt><trkpt lat="42.196065" lon="14.6292017"><ele>3.2</ele><time>2026-04-20T07:31:32.877Z</time></trkpt><trkpt lat="42.19608" lon="14.6290567"><ele>3.4</ele><time>2026-04-20T07:31:34.877Z</time></trkpt><trkpt lat="42.196085" lon="14.6289183"><ele>3.6000000000000005</ele><time>2026-04-20T07:31:36.876Z</time></trkpt><trkpt lat="42.1960967" lon="14.6287983"><ele>3.8000000000000003</ele><time>2026-04-20T07:31:38.877Z</time></trkpt><trkpt lat="42.196115" lon="14.6286833"><ele>4.0</ele><time>2026-04-20T07:31:40.877Z</time></trkpt><trkpt lat="42.1961367" lon="14.62857"><ele>4.0</ele><time>2026-04-20T07:31:42.877Z</time></trkpt><trkpt lat="42.1961683" lon="14.6284567"><ele>4.0</ele><time>2026-04-20T07:31:44.877Z</time></trkpt><trkpt lat="42.1962133" lon="14.62834"><ele>4.0</ele><time>2026-04-20T07:31:46.877Z</time></trkpt><trkpt lat="42.1962633" lon="14.628225"><ele>4.0</ele><time>2026-04-20T07:31:48.877Z</time></trkpt><trkpt lat="42.1963067" lon="14.628095"><ele>4.0</ele><time>2026-04-20T07:31:50.877Z</time></trkpt><trkpt lat="42.1963533" lon="14.627965"><ele>4.0</ele><time>2026-04-20T07:31:52.877Z</time></trkpt><trkpt lat="42.1963967" lon="14.6278333"><ele>4.0</ele><time>2026-04-20T07:31:54.876Z</time></trkpt><trkpt lat="42.1964383" lon="14.6277033"><ele>4.0</ele><time>2026-04-20T07:31:56.877Z</time></trkpt><trkpt lat="42.1964817" lon="14.6275783"><ele>4.0</ele><time>2026-04-20T07:31:58.877Z</time></trkpt><trkpt lat="42.1965283" lon="14.6274483"><ele>4.0</ele><time>2026-04-20T07:32:00.876Z</time></trkpt><trkpt lat="42.1965783" lon="14.6273233"><ele>3.6</ele><time>2026-04-20T07:32:02.876Z</time></trkpt><trkpt lat="42.1966217" lon="14.62719"><ele>3.2</ele><time>2026-04-20T07:32:04.877Z</time></trkpt><trkpt lat="42.19666" lon="14.6270667"><ele>2.8000000000000003</ele><time>2026-04-20T07:32:06.877Z</time></trkpt><trkpt lat="42.1967117" lon="14.62694"><ele>2.4000000000000004</ele><time>2026-04-20T07:32:08.877Z</time></trkpt><trkpt lat="42.196755" lon="14.6268167"><ele>2.0</ele><time>2026-04-20T07:32:10.876Z</time></trkpt><trkpt lat="42.1967983" lon="14.6267033"><ele>1.6</ele><time>2026-04-20T07:32:12.877Z</time></trkpt><trkpt lat="42.1968383" lon="14.62658"><ele>1.2000000000000002</ele><time>2026-04-20T07:32:14.877Z</time></trkpt><trkpt lat="42.196885" lon="14.6264567"><ele>0.8</ele><time>2026-04-20T07:32:16.876Z</time></trkpt><trkpt lat="42.19693" lon="14.62634"><ele>0.4</ele><time>2026-04-20T07:32:18.876Z</time></trkpt><trkpt lat="42.196975" lon="14.6262183"><ele>0.0</ele><time>2026-04-20T07:32:20.877Z</time></trkpt><trkpt lat="42.1970133" lon="14.626095"><ele>1.4</ele><time>2026-04-20T07:32:22.876Z</time></trkpt><trkpt lat="42.197055" lon="14.6259817"><ele>2.8</ele><time>2026-04-20T07:32:24.876Z</time></trkpt><trkpt lat="42.1970933" lon="14.625865"><ele>4.199999999999999</ele><time>2026-04-20T07:32:26.877Z</time></trkpt><trkpt lat="42.1971317" lon="14.6257417"><ele>5.6</ele><time>2026-04-20T07:32:28.877Z</time></trkpt><trkpt lat="42.1971767" lon="14.6256167"><ele>7.0</ele><time>2026-04-20T07:32:30.877Z</time></trkpt><trkpt lat="42.19722" lon="14.6254933"><ele>7.0</ele><time>2026-04-20T07:32:32.876Z</time></trkpt><trkpt lat="42.197265" lon="14.62537"><ele>6.999999999999999</ele><time>2026-04-20T07:32:34.877Z</time></trkpt><trkpt lat="42.1973083" lon="14.6252483"><ele>6.999999999999999</ele><time>2026-04-20T07:32:36.877Z</time></trkpt><trkpt lat="42.197355" lon="14.6251317"><ele>7.0</ele><time>2026-04-20T07:32:38.876Z</time></trkpt><trkpt lat="42.197395" lon="14.625005"><ele>7.0</ele><time>2026-04-20T07:32:40.876Z</time></trkpt><trkpt lat="42.19744" lon="14.624885"><ele>6.6</ele><time>2026-04-20T07:32:42.876Z</time></trkpt><trkpt lat="42.1974783" lon="14.6247667"><ele>6.199999999999999</ele><time>2026-04-20T07:32:44.877Z</time></trkpt><trkpt lat="42.1975183" lon="14.6246467"><ele>5.8</ele><time>2026-04-20T07:32:46.877Z</time></trkpt><trkpt lat="42.197555" lon="14.6245267"><ele>5.4</ele><time>2026-04-20T07:32:48.877Z</time></trkpt><trkpt lat="42.1976" lon="14.6244083"><ele>5.0</ele><time>2026-04-20T07:32:50.877Z</time></trkpt><trkpt lat="42.1976417" lon="14.6242883"><ele>5.8</ele><time>2026-04-20T07:32:52.877Z</time></trkpt><trkpt lat="42.1976783" lon="14.6241583"><ele>6.6</ele><time>2026-04-20T07:32:54.876Z</time></trkpt><trkpt lat="42.19772" lon="14.62403"><ele>7.4</ele><time>2026-04-20T07:32:56.876Z</time></trkpt><trkpt lat="42.1977583" lon="14.6238983"><ele>8.2</ele><time>2026-04-20T07:32:58.876Z</time></trkpt><trkpt lat="42.197795" lon="14.62377"><ele>9.0</ele><time>2026-04-20T07:33:00.877Z</time></trkpt><trkpt lat="42.197825" lon="14.62365"><ele>9.4</ele><time>2026-04-20T07:33:02.876Z</time></trkpt><trkpt lat="42.1978583" lon="14.6235317"><ele>9.8</ele><time>2026-04-20T07:33:04.877Z</time></trkpt><trkpt lat="42.197885" lon="14.6233983"><ele>10.200000000000001</ele><time>2026-04-20T07:33:06.877Z</time></trkpt><trkpt lat="42.19791" lon="14.6232683"><ele>10.600000000000001</ele><time>2026-04-20T07:33:08.876Z</time></trkpt><trkpt lat="42.197935" lon="14.62314"><ele>11.0</ele><time>2026-04-20T07:33:10.877Z</time></trkpt><trkpt lat="42.1979817" lon="14.6230283"><ele>11.0</ele><time>2026-04-20T07:33:12.877Z</time></trkpt><trkpt lat="42.1980383" lon="14.6229033"><ele>11.0</ele><time>2026-04-20T07:33:14.877Z</time></trkpt><trkpt lat="42.1980733" lon="14.62278"><ele>11.0</ele><time>2026-04-20T07:33:16.877Z</time></trkpt><trkpt lat="42.1981133" lon="14.6226617"><ele>11.0</ele><time>2026-04-20T07:33:18.877Z</time></trkpt><trkpt lat="42.198145" lon="14.6225467"><ele>11.0</ele><time>2026-04-20T07:33:20.877Z</time></trkpt><trkpt lat="42.1981883" lon="14.6224267"><ele>10.4</ele><time>2026-04-20T07:33:22.877Z</time></trkpt><trkpt lat="42.1982283" lon="14.6222983"><ele>9.8</ele><time>2026-04-20T07:33:24.877Z</time></trkpt><trkpt lat="42.198265" lon="14.6221717"><ele>9.200000000000001</ele><time>2026-04-20T07:33:26.876Z</time></trkpt><trkpt lat="42.1982983" lon="14.6220433"><ele>8.600000000000001</ele><time>2026-04-20T07:33:28.877Z</time></trkpt><trkpt lat="42.1983367" lon="14.6219117"><ele>8.0</ele><time>2026-04-20T07:33:30.876Z</time></trkpt><trkpt lat="42.1983767" lon="14.62179"><ele>8.0</ele><time>2026-04-20T07:33:32.877Z</time></trkpt><trkpt lat="42.1984133" lon="14.6216633"><ele>8.0</ele><time>2026-04-20T07:33:34.877Z</time></trkpt><trkpt lat="42.1984467" lon="14.62154"><ele>8.0</ele><time>2026-04-20T07:33:36.876Z</time></trkpt><trkpt lat="42.1984767" lon="14.6214183"><ele>8.0</ele><time>2026-04-20T07:33:38.876Z</time></trkpt><trkpt lat="42.1985167" lon="14.6212933"><ele>8.0</ele><time>2026-04-20T07:33:40.876Z</time></trkpt><trkpt lat="42.1985567" lon="14.6211583"><ele>8.200000000000001</ele><time>2026-04-20T07:33:42.877Z</time></trkpt><trkpt lat="42.198595" lon="14.6210233"><ele>8.4</ele><time>2026-04-20T07:33:44.877Z</time></trkpt><trkpt lat="42.1986333" lon="14.6208917"><ele>8.600000000000001</ele><time>2026-04-20T07:33:46.876Z</time></trkpt><trkpt lat="42.19867" lon="14.6207617"><ele>8.8</ele><time>2026-04-20T07:33:48.877Z</time></trkpt><trkpt lat="42.1987083" lon="14.620635"><ele>9.0</ele><time>2026-04-20T07:33:50.877Z</time></trkpt><trkpt lat="42.1987433" lon="14.6205217"><ele>9.0</ele><time>2026-04-20T07:33:52.877Z</time></trkpt><trkpt lat="42.19878" lon="14.6204067"><ele>9.0</ele><time>2026-04-20T07:33:54.876Z</time></trkpt><trkpt lat="42.19881" lon="14.6202883"><ele>9.0</ele><time>2026-04-20T07:33:56.876Z</time></trkpt><trkpt lat="42.1988517" lon="14.620165"><ele>9.0</ele><time>2026-04-20T07:33:58.877Z</time></trkpt><trkpt lat="42.19889" lon="14.6200383"><ele>9.0</ele><time>2026-04-20T07:34:00.877Z</time></trkpt><trkpt lat="42.1989217" lon="14.61992"><ele>9.0</ele><time>2026-04-20T07:34:02.876Z</time></trkpt><trkpt lat="42.1989517" lon="14.6197983"><ele>9.0</ele><time>2026-04-20T07:34:04.876Z</time></trkpt><trkpt lat="42.198985" lon="14.619675"><ele>9.0</ele><time>2026-04-20T07:34:06.876Z</time></trkpt><trkpt lat="42.199015" lon="14.6195533"><ele>9.0</ele><time>2026-04-20T07:34:08.877Z</time></trkpt><trkpt lat="42.19904" lon="14.619435"><ele>9.0</ele><time>2026-04-20T07:34:10.877Z</time></trkpt><trkpt lat="42.1990833" lon="14.619315"><ele>7.6000000000000005</ele><time>2026-04-20T07:34:12.877Z</time></trkpt><trkpt lat="42.1991133" lon="14.6192017"><ele>6.2</ele><time>2026-04-20T07:34:14.877Z</time></trkpt><trkpt lat="42.1991533" lon="14.6190783"><ele>4.800000000000001</ele><time>2026-04-20T07:34:16.877Z</time></trkpt><trkpt lat="42.1991867" lon="14.618955"><ele>3.4000000000000004</ele><time>2026-04-20T07:34:18.877Z</time></trkpt><trkpt lat="42.1992233" lon="14.6188267"><ele>2.0</ele><time>2026-04-20T07:34:20.877Z</time></trkpt><trkpt lat="42.1992567" lon="14.6187133"><ele>2.2</ele><time>2026-04-20T07:34:22.877Z</time></trkpt><trkpt lat="42.1993167" lon="14.618605"><ele>2.4000000000000004</ele><time>2026-04-20T07:34:24.877Z</time></trkpt><trkpt lat="42.199375" lon="14.6184783"><ele>2.5999999999999996</ele><time>2026-04-20T07:34:26.877Z</time></trkpt><trkpt lat="42.19942" lon="14.6183383"><ele>2.8</ele><time>2026-04-20T07:34:28.876Z</time></trkpt><trkpt lat="42.1994517" lon="14.618205"><ele>3.0</ele><time>2026-04-20T07:34:30.876Z</time></trkpt><trkpt lat="42.199505" lon="14.6180717"><ele>3.0</ele><time>2026-04-20T07:34:32.877Z</time></trkpt><trkpt lat="42.1995483" lon="14.6179417"><ele>3.0</ele><time>2026-04-20T07:34:34.876Z</time></trkpt><trkpt lat="42.1995817" lon="14.61782"><ele>3.0</ele><time>2026-04-20T07:34:36.876Z</time></trkpt><trkpt lat="42.1996133" lon="14.61771"><ele>3.0</ele><time>2026-04-20T07:34:38.877Z</time></trkpt><trkpt lat="42.199655" lon="14.617615"><ele>3.0</ele><time>2026-04-20T07:34:40.877Z</time></trkpt><trkpt lat="42.1996983" lon="14.617495"><ele>2.6</ele><time>2026-04-20T07:34:42.876Z</time></trkpt><trkpt lat="42.1997367" lon="14.617395"><ele>2.1999999999999997</ele><time>2026-04-20T07:34:44.877Z</time></trkpt><trkpt lat="42.19977" lon="14.6172883"><ele>1.8</ele><time>2026-04-20T07:34:46.877Z</time></trkpt><trkpt lat="42.1998133" lon="14.6171783"><ele>1.4</ele><time>2026-04-20T07:34:48.877Z</time></trkpt><trkpt lat="42.199855" lon="14.617065"><ele>1.0</ele><time>2026-04-20T07:34:50.876Z</time></trkpt><trkpt lat="42.1998967" lon="14.6169467"><ele>1.0</ele><time>2026-04-20T07:34:52.877Z</time></trkpt><trkpt lat="42.1999333" lon="14.6168283"><ele>1.0</ele><time>2026-04-20T07:34:54.876Z</time></trkpt><trkpt lat="42.1999717" lon="14.616715"><ele>1.0</ele><time>2026-04-20T07:34:56.877Z</time></trkpt><trkpt lat="42.2000117" lon="14.6166117"><ele>1.0</ele><time>2026-04-20T07:34:58.876Z</time></trkpt><trkpt lat="42.2000483" lon="14.616495"><ele>1.0</ele><time>2026-04-20T07:35:00.876Z</time></trkpt><trkpt lat="42.200085" lon="14.6163867"><ele>1.0</ele><time>2026-04-20T07:35:02.877Z</time></trkpt><trkpt lat="42.2001267" lon="14.6162617"><ele>1.0</ele><time>2026-04-20T07:35:04.877Z</time></trkpt><trkpt lat="42.2001717" lon="14.6161367"><ele>1.0</ele><time>2026-04-20T07:35:06.876Z</time></trkpt><trkpt lat="42.20021" lon="14.6160217"><ele>1.0</ele><time>2026-04-20T07:35:08.876Z</time></trkpt><trkpt lat="42.2002383" lon="14.61592"><ele>1.0</ele><time>2026-04-20T07:35:10.876Z</time></trkpt><trkpt lat="42.2002767" lon="14.6158067"><ele>1.6</ele><time>2026-04-20T07:35:12.877Z</time></trkpt><trkpt lat="42.200325" lon="14.6156933"><ele>2.2</ele><time>2026-04-20T07:35:14.876Z</time></trkpt><trkpt lat="42.2003717" lon="14.6155867"><ele>2.8000000000000003</ele><time>2026-04-20T07:35:16.877Z</time></trkpt><trkpt lat="42.200425" lon="14.6154833"><ele>3.4000000000000004</ele><time>2026-04-20T07:35:18.876Z</time></trkpt><trkpt lat="42.2004767" lon="14.615375"><ele>4.0</ele><time>2026-04-20T07:35:20.877Z</time></trkpt><trkpt lat="42.2005333" lon="14.6152933"><ele>3.8000000000000003</ele><time>2026-04-20T07:35:22.876Z</time></trkpt><trkpt lat="42.2005883" lon="14.61519"><ele>3.6000000000000005</ele><time>2026-04-20T07:35:24.876Z</time></trkpt><trkpt lat="42.200645" lon="14.6150633"><ele>3.4</ele><time>2026-04-20T07:35:26.877Z</time></trkpt><trkpt lat="42.20067" lon="14.6149833"><ele>3.2</ele><time>2026-04-20T07:35:27.877Z</time></trkpt><trkpt lat="42.2006917" lon="14.61483"><ele>3.0</ele><time>2026-04-20T07:35:29.876Z</time></trkpt><trkpt lat="42.200675" lon="14.6147033"><ele>3.0</ele><time>2026-04-20T07:35:31.877Z</time></trkpt><trkpt lat="42.2006767" lon="14.6145933"><ele>3.0</ele><time>2026-04-20T07:35:33.877Z</time></trkpt><trkpt lat="42.2007" lon="14.6144917"><ele>3.0</ele><time>2026-04-20T07:35:35.876Z</time></trkpt><trkpt lat="42.20073" lon="14.61438"><ele>3.0</ele><time>2026-04-20T07:35:37.876Z</time></trkpt><trkpt lat="42.2007583" lon="14.61428"><ele>3.0</ele><time>2026-04-20T07:35:39.876Z</time></trkpt><trkpt lat="42.2007917" lon="14.61417"><ele>3.0</ele><time>2026-04-20T07:35:41.876Z</time></trkpt><trkpt lat="42.200825" lon="14.61406"><ele>3.4</ele><time>2026-04-20T07:35:43.876Z</time></trkpt><trkpt lat="42.2008517" lon="14.61394"><ele>3.8</ele><time>2026-04-20T07:35:45.877Z</time></trkpt><trkpt lat="42.200885" lon="14.6138167"><ele>4.2</ele><time>2026-04-20T07:35:47.877Z</time></trkpt><trkpt lat="42.20093" lon="14.6137017"><ele>4.6</ele><time>2026-04-20T07:35:49.877Z</time></trkpt><trkpt lat="42.2009783" lon="14.6135733"><ele>5.0</ele><time>2026-04-20T07:35:51.877Z</time></trkpt><trkpt lat="42.2010233" lon="14.613445"><ele>5.2</ele><time>2026-04-20T07:35:53.877Z</time></trkpt><trkpt lat="42.20107" lon="14.6133167"><ele>5.4</ele><time>2026-04-20T07:35:55.877Z</time></trkpt><trkpt lat="42.20111" lon="14.613185"><ele>5.6</ele><time>2026-04-20T07:35:57.876Z</time></trkpt><trkpt lat="42.2011467" lon="14.61305"><ele>5.8</ele><time>2026-04-20T07:35:59.876Z</time></trkpt><trkpt lat="42.201185" lon="14.61291"><ele>6.0</ele><time>2026-04-20T07:36:01.876Z</time></trkpt><trkpt lat="42.2012283" lon="14.61277"><ele>6.0</ele><time>2026-04-20T07:36:03.877Z</time></trkpt><trkpt lat="42.2012667" lon="14.61262"><ele>6.0</ele><time>2026-04-20T07:36:05.876Z</time></trkpt><trkpt lat="42.2013067" lon="14.61247"><ele>6.0</ele><time>2026-04-20T07:36:07.877Z</time></trkpt><trkpt lat="42.2013533" lon="14.6123267"><ele>6.0</ele><time>2026-04-20T07:36:09.877Z</time></trkpt><trkpt lat="42.20139" lon="14.61219"><ele>6.0</ele><time>2026-04-20T07:36:11.877Z</time></trkpt><trkpt lat="42.2014317" lon="14.6120483"><ele>6.0</ele><time>2026-04-20T07:36:13.877Z</time></trkpt><trkpt lat="42.2014633" lon="14.611915"><ele>6.0</ele><time>2026-04-20T07:36:15.877Z</time></trkpt><trkpt lat="42.201505" lon="14.6117867"><ele>6.0</ele><time>2026-04-20T07:36:17.876Z</time></trkpt><trkpt lat="42.2015533" lon="14.6116583"><ele>6.0</ele><time>2026-04-20T07:36:19.877Z</time></trkpt><trkpt lat="42.2015883" lon="14.6115333"><ele>5.8</ele><time>2026-04-20T07:36:21.877Z</time></trkpt><trkpt lat="42.2016233" lon="14.6114083"><ele>5.6</ele><time>2026-04-20T07:36:23.877Z</time></trkpt><trkpt lat="42.2016683" lon="14.6112933"><ele>5.4</ele><time>2026-04-20T07:36:25.876Z</time></trkpt><trkpt lat="42.2017167" lon="14.61118"><ele>5.2</ele><time>2026-04-20T07:36:27.877Z</time></trkpt><trkpt lat="42.2017567" lon="14.6110683"><ele>5.0</ele><time>2026-04-20T07:36:29.877Z</time></trkpt><trkpt lat="42.2017917" lon="14.6109467"><ele>5.0</ele><time>2026-04-20T07:36:31.877Z</time></trkpt><trkpt lat="42.2018267" lon="14.6108333"><ele>5.0</ele><time>2026-04-20T07:36:33.877Z</time></trkpt><trkpt lat="42.2018533" lon="14.6107283"><ele>5.0</ele><time>2026-04-20T07:36:35.876Z</time></trkpt><trkpt lat="42.2018867" lon="14.6106267"><ele>5.0</ele><time>2026-04-20T07:36:37.877Z</time></trkpt><trkpt lat="42.2019217" lon="14.610495"><ele>5.0</ele><time>2026-04-20T07:36:39.876Z</time></trkpt><trkpt lat="42.20194" lon="14.6103567"><ele>4.666666666666667</ele><time>2026-04-20T07:36:41.877Z</time></trkpt><trkpt lat="42.2019433" lon="14.6102483"><ele>4.333333333333334</ele><time>2026-04-20T07:36:43.877Z</time></trkpt><trkpt lat="42.2019483" lon="14.6101533"><ele>4.0</ele><time>2026-04-20T07:36:45.877Z</time></trkpt><trkpt lat="42.2019617" lon="14.6100383"><ele>3.666666666666667</ele><time>2026-04-20T07:36:48.877Z</time></trkpt><trkpt lat="42.20197" lon="14.6099367"><ele>3.3333333333333335</ele><time>2026-04-20T07:36:51.877Z</time></trkpt><trkpt lat="42.2019883" lon="14.60984"><ele>3.0</ele><time>2026-04-20T07:36:54.876Z</time></trkpt><trkpt lat="42.2020233" lon="14.6097417"><ele>3.0</ele><time>2026-04-20T07:36:57.876Z</time></trkpt><trkpt lat="42.2020617" lon="14.6096733"><ele>3.0</ele><time>2026-04-20T07:36:59.877Z</time></trkpt><trkpt lat="42.2020983" lon="14.6095917"><ele>3.0</ele><time>2026-04-20T07:37:01.876Z</time></trkpt><trkpt lat="42.2021333" lon="14.6094933"><ele>3.0</ele><time>2026-04-20T07:37:03.877Z</time></trkpt><trkpt lat="42.2021683" lon="14.6093917"><ele>3.0</ele><time>2026-04-20T07:37:05.877Z</time></trkpt><trkpt lat="42.2022083" lon="14.6092883"><ele>3.0</ele><time>2026-04-20T07:37:07.877Z</time></trkpt><trkpt lat="42.2022533" lon="14.6091783"><ele>3.0</ele><time>2026-04-20T07:37:09.877Z</time></trkpt><trkpt lat="42.2022967" lon="14.6090717"><ele>3.0</ele><time>2026-04-20T07:37:11.877Z</time></trkpt><trkpt lat="42.2023433" lon="14.608965"><ele>3.0</ele><time>2026-04-20T07:37:13.877Z</time></trkpt><trkpt lat="42.202385" lon="14.608855"><ele>3.0</ele><time>2026-04-20T07:37:15.877Z</time></trkpt><trkpt lat="42.20243" lon="14.6087417"><ele>3.0</ele><time>2026-04-20T07:37:17.876Z</time></trkpt><trkpt lat="42.202475" lon="14.608625"><ele>3.2</ele><time>2026-04-20T07:37:19.877Z</time></trkpt><trkpt lat="42.2025167" lon="14.6085117"><ele>3.4</ele><time>2026-04-20T07:37:21.877Z</time></trkpt><trkpt lat="42.202565" lon="14.608405"><ele>3.6000000000000005</ele><time>2026-04-20T07:37:23.877Z</time></trkpt><trkpt lat="42.2026067" lon="14.608295"><ele>3.8000000000000003</ele><time>2026-04-20T07:37:25.876Z</time></trkpt><trkpt lat="42.20265" lon="14.6081867"><ele>4.0</ele><time>2026-04-20T07:37:27.876Z</time></trkpt><trkpt lat="42.2027" lon="14.6080667"><ele>4.0</ele><time>2026-04-20T07:37:29.876Z</time></trkpt><trkpt lat="42.20275" lon="14.6079417"><ele>4.0</ele><time>2026-04-20T07:37:31.877Z</time></trkpt><trkpt lat="42.2028017" lon="14.607825"><ele>4.0</ele><time>2026-04-20T07:37:33.877Z</time></trkpt><trkpt lat="42.2028517" lon="14.6077183"><ele>4.0</ele><time>2026-04-20T07:37:35.876Z</time></trkpt><trkpt lat="42.202895" lon="14.607615"><ele>4.0</ele><time>2026-04-20T07:37:37.877Z</time></trkpt><trkpt lat="42.2029433" lon="14.6075"><ele>3.8000000000000003</ele><time>2026-04-20T07:37:39.876Z</time></trkpt><trkpt lat="42.2029933" lon="14.6073767"><ele>3.6000000000000005</ele><time>2026-04-20T07:37:41.877Z</time></trkpt><trkpt lat="42.2030433" lon="14.60726"><ele>3.4</ele><time>2026-04-20T07:37:43.876Z</time></trkpt><trkpt lat="42.2030933" lon="14.6071367"><ele>3.2</ele><time>2026-04-20T07:37:45.876Z</time></trkpt><trkpt lat="42.2031483" lon="14.6070233"><ele>3.0</ele><time>2026-04-20T07:37:47.877Z</time></trkpt><trkpt lat="42.2032017" lon="14.6069167"><ele>2.6</ele><time>2026-04-20T07:37:49.877Z</time></trkpt><trkpt lat="42.2032533" lon="14.6068"><ele>2.1999999999999997</ele><time>2026-04-20T07:37:51.877Z</time></trkpt><trkpt lat="42.2033033" lon="14.60668"><ele>1.8</ele><time>2026-04-20T07:37:53.876Z</time></trkpt><trkpt lat="42.20335" lon="14.60657"><ele>1.4</ele><time>2026-04-20T07:37:55.876Z</time></trkpt><trkpt lat="42.2034017" lon="14.60646"><ele>1.0</ele><time>2026-04-20T07:37:57.877Z</time></trkpt><trkpt lat="42.20345" lon="14.6063433"><ele>1.0</ele><time>2026-04-20T07:37:59.877Z</time></trkpt><trkpt lat="42.203505" lon="14.6062267"><ele>1.0</ele><time>2026-04-20T07:38:01.876Z</time></trkpt><trkpt lat="42.20355" lon="14.6061183"><ele>1.0</ele><time>2026-04-20T07:38:03.877Z</time></trkpt><trkpt lat="42.20359" lon="14.6060117"><ele>1.0</ele><time>2026-04-20T07:38:05.876Z</time></trkpt><trkpt lat="42.2036417" lon="14.6058967"><ele>1.0</ele><time>2026-04-20T07:38:07.877Z</time></trkpt><trkpt lat="42.2036883" lon="14.60579"><ele>1.0</ele><time>2026-04-20T07:38:09.877Z</time></trkpt><trkpt lat="42.2037417" lon="14.605685"><ele>1.0</ele><time>2026-04-20T07:38:11.877Z</time></trkpt><trkpt lat="42.2037917" lon="14.60557"><ele>1.0</ele><time>2026-04-20T07:38:13.876Z</time></trkpt><trkpt lat="42.203845" lon="14.6054533"><ele>1.0</ele><time>2026-04-20T07:38:15.877Z</time></trkpt><trkpt lat="42.203895" lon="14.605345"><ele>1.0</ele><time>2026-04-20T07:38:17.876Z</time></trkpt><trkpt lat="42.2039467" lon="14.6052267"><ele>1.0</ele><time>2026-04-20T07:38:19.877Z</time></trkpt><trkpt lat="42.2039933" lon="14.6051233"><ele>1.0</ele><time>2026-04-20T07:38:21.877Z</time></trkpt><trkpt lat="42.2040383" lon="14.6050067"><ele>1.0</ele><time>2026-04-20T07:38:23.876Z</time></trkpt><trkpt lat="42.20409" lon="14.6048917"><ele>1.0</ele><time>2026-04-20T07:38:25.876Z</time></trkpt><trkpt lat="42.2041417" lon="14.6047767"><ele>1.0</ele><time>2026-04-20T07:38:27.877Z</time></trkpt><trkpt lat="42.2041967" lon="14.60465"><ele>1.0</ele><time>2026-04-20T07:38:29.877Z</time></trkpt><trkpt lat="42.2042467" lon="14.6045283"><ele>1.0</ele><time>2026-04-20T07:38:31.876Z</time></trkpt><trkpt lat="42.2042983" lon="14.604405"><ele>1.0</ele><time>2026-04-20T07:38:33.877Z</time></trkpt><trkpt lat="42.2043467" lon="14.6042917"><ele>1.0</ele><time>2026-04-20T07:38:35.877Z</time></trkpt><trkpt lat="42.2043917" lon="14.6041833"><ele>1.0</ele><time>2026-04-20T07:38:37.877Z</time></trkpt><trkpt lat="42.2044467" lon="14.60405"><ele>1.0</ele><time>2026-04-20T07:38:39.877Z</time></trkpt><trkpt lat="42.204495" lon="14.6039417"><ele>1.0</ele><time>2026-04-20T07:38:41.877Z</time></trkpt><trkpt lat="42.204545" lon="14.6038283"><ele>1.0</ele><time>2026-04-20T07:38:43.877Z</time></trkpt><trkpt lat="42.2046017" lon="14.60372"><ele>1.0</ele><time>2026-04-20T07:38:45.877Z</time></trkpt><trkpt lat="42.2046717" lon="14.6036183"><ele>1.0</ele><time>2026-04-20T07:38:47.876Z</time></trkpt><trkpt lat="42.2047383" lon="14.6035133"><ele>1.0</ele><time>2026-04-20T07:38:49.877Z</time></trkpt><trkpt lat="42.2047867" lon="14.6034017"><ele>1.0</ele><time>2026-04-20T07:38:51.877Z</time></trkpt><trkpt lat="42.2048333" lon="14.6032933"><ele>1.0</ele><time>2026-04-20T07:38:53.877Z</time></trkpt><trkpt lat="42.204885" lon="14.6031833"><ele>1.0</ele><time>2026-04-20T07:38:55.877Z</time></trkpt><trkpt lat="42.20492" lon="14.60307"><ele>1.0</ele><time>2026-04-20T07:38:57.877Z</time></trkpt><trkpt lat="42.2049717" lon="14.6029517"><ele>2.2</ele><time>2026-04-20T07:38:59.877Z</time></trkpt><trkpt lat="42.2050267" lon="14.60283"><ele>3.4</ele><time>2026-04-20T07:39:01.877Z</time></trkpt><trkpt lat="42.2050883" lon="14.6027167"><ele>4.6</ele><time>2026-04-20T07:39:03.876Z</time></trkpt><trkpt lat="42.2051367" lon="14.6025867"><ele>5.8</ele><time>2026-04-20T07:39:05.877Z</time></trkpt><trkpt lat="42.2051933" lon="14.6024683"><ele>7.0</ele><time>2026-04-20T07:39:07.876Z</time></trkpt><trkpt lat="42.2052433" lon="14.6023533"><ele>7.0</ele><time>2026-04-20T07:39:09.877Z</time></trkpt><trkpt lat="42.2052917" lon="14.60224"><ele>6.999999999999999</ele><time>2026-04-20T07:39:11.876Z</time></trkpt><trkpt lat="42.2053367" lon="14.60213"><ele>6.999999999999999</ele><time>2026-04-20T07:39:13.876Z</time></trkpt><trkpt lat="42.2053833" lon="14.602025"><ele>7.0</ele><time>2026-04-20T07:39:15.877Z</time></trkpt><trkpt lat="42.2054367" lon="14.6019033"><ele>7.0</ele><time>2026-04-20T07:39:17.876Z</time></trkpt><trkpt lat="42.2054883" lon="14.60179"><ele>7.8</ele><time>2026-04-20T07:39:19.877Z</time></trkpt><trkpt lat="42.20554" lon="14.6016683"><ele>8.6</ele><time>2026-04-20T07:39:21.876Z</time></trkpt><trkpt lat="42.2055967" lon="14.6015467"><ele>9.4</ele><time>2026-04-20T07:39:23.876Z</time></trkpt><trkpt lat="42.2056483" lon="14.6014217"><ele>10.200000000000001</ele><time>2026-04-20T07:39:25.876Z</time></trkpt><trkpt lat="42.2057083" lon="14.601315"><ele>11.0</ele><time>2026-04-20T07:39:27.877Z</time></trkpt><trkpt lat="42.2057517" lon="14.6011917"><ele>10.4</ele><time>2026-04-20T07:39:29.877Z</time></trkpt><trkpt lat="42.2058033" lon="14.6010767"><ele>9.8</ele><time>2026-04-20T07:39:31.877Z</time></trkpt><trkpt lat="42.2058583" lon="14.6009583"><ele>9.200000000000001</ele><time>2026-04-20T07:39:33.876Z</time></trkpt><trkpt lat="42.205915" lon="14.600835"><ele>8.600000000000001</ele><time>2026-04-20T07:39:35.877Z</time></trkpt><trkpt lat="42.20596" lon="14.60072"><ele>8.0</ele><time>2026-04-20T07:39:37.877Z</time></trkpt><trkpt lat="42.2060183" lon="14.6005967"><ele>8.0</ele><time>2026-04-20T07:39:39.877Z</time></trkpt><trkpt lat="42.206065" lon="14.600475"><ele>8.0</ele><time>2026-04-20T07:39:41.877Z</time></trkpt><trkpt lat="42.2061133" lon="14.6003567"><ele>8.0</ele><time>2026-04-20T07:39:43.877Z</time></trkpt><trkpt lat="42.2061567" lon="14.600235"><ele>8.0</ele><time>2026-04-20T07:39:45.877Z</time></trkpt><trkpt lat="42.2062033" lon="14.6001183"><ele>8.0</ele><time>2026-04-20T07:39:47.876Z</time></trkpt><trkpt lat="42.2062633" lon="14.5999983"><ele>8.0</ele><time>2026-04-20T07:39:49.877Z</time></trkpt><trkpt lat="42.20632" lon="14.59989"><ele>8.0</ele><time>2026-04-20T07:39:51.877Z</time></trkpt><trkpt lat="42.20637" lon="14.5997733"><ele>8.0</ele><time>2026-04-20T07:39:53.877Z</time></trkpt><trkpt lat="42.206415" lon="14.5996567"><ele>8.0</ele><time>2026-04-20T07:39:55.877Z</time></trkpt><trkpt lat="42.2064683" lon="14.5995433"><ele>8.0</ele><time>2026-04-20T07:39:57.876Z</time></trkpt><trkpt lat="42.2065183" lon="14.5994217"><ele>8.0</ele><time>2026-04-20T07:39:59.876Z</time></trkpt><trkpt lat="42.2065733" lon="14.5993017"><ele>8.0</ele><time>2026-04-20T07:40:01.876Z</time></trkpt><trkpt lat="42.2066267" lon="14.5991767"><ele>8.0</ele><time>2026-04-20T07:40:03.876Z</time></trkpt><trkpt lat="42.206665" lon="14.5990617"><ele>8.0</ele><time>2026-04-20T07:40:05.877Z</time></trkpt><trkpt lat="42.2067217" lon="14.59895"><ele>8.0</ele><time>2026-04-20T07:40:07.877Z</time></trkpt><trkpt lat="42.2067783" lon="14.5988217"><ele>8.0</ele><time>2026-04-20T07:40:09.876Z</time></trkpt><trkpt lat="42.2068333" lon="14.5986917"><ele>8.0</ele><time>2026-04-20T07:40:11.876Z</time></trkpt><trkpt lat="42.2068867" lon="14.5985783"><ele>8.0</ele><time>2026-04-20T07:40:13.877Z</time></trkpt><trkpt lat="42.2069383" lon="14.5984617"><ele>8.0</ele><time>2026-04-20T07:40:15.877Z</time></trkpt><trkpt lat="42.206985" lon="14.5983433"><ele>8.0</ele><time>2026-04-20T07:40:17.877Z</time></trkpt><trkpt lat="42.20704" lon="14.5982417"><ele>9.4</ele><time>2026-04-20T07:40:19.877Z</time></trkpt><trkpt lat="42.2071" lon="14.598135"><ele>10.8</ele><time>2026-04-20T07:40:21.877Z</time></trkpt><trkpt lat="42.20715" lon="14.59803"><ele>12.2</ele><time>2026-04-20T07:40:23.876Z</time></trkpt><trkpt lat="42.2071983" lon="14.5979167"><ele>13.6</ele><time>2026-04-20T07:40:25.876Z</time></trkpt><trkpt lat="42.2072467" lon="14.597795"><ele>15.0</ele><time>2026-04-20T07:40:27.876Z</time></trkpt><trkpt lat="42.207295" lon="14.5976717"><ele>13.4</ele><time>2026-04-20T07:40:29.876Z</time></trkpt><trkpt lat="42.2073567" lon="14.5975517"><ele>11.8</ele><time>2026-04-20T07:40:31.876Z</time></trkpt><trkpt lat="42.2074133" lon="14.5974317"><ele>10.2</ele><time>2026-04-20T07:40:33.877Z</time></trkpt><trkpt lat="42.207465" lon="14.5973033"><ele>8.6</ele><time>2026-04-20T07:40:35.876Z</time></trkpt><trkpt lat="42.20752" lon="14.5971883"><ele>7.0</ele><time>2026-04-20T07:40:37.877Z</time></trkpt><trkpt lat="42.2075767" lon="14.59707"><ele>8.399999999999999</ele><time>2026-04-20T07:40:39.876Z</time></trkpt><trkpt lat="42.2076067" lon="14.5969517"><ele>9.799999999999999</ele><time>2026-04-20T07:40:41.877Z</time></trkpt><trkpt lat="42.20764" lon="14.5968267"><ele>11.2</ele><time>2026-04-20T07:40:43.877Z</time></trkpt><trkpt lat="42.20769" lon="14.5966933"><ele>12.6</ele><time>2026-04-20T07:40:45.876Z</time></trkpt><trkpt lat="42.2077483" lon="14.5965733"><ele>14.0</ele><time>2026-04-20T07:40:47.877Z</time></trkpt><trkpt lat="42.2078083" lon="14.596455"><ele>14.0</ele><time>2026-04-20T07:40:49.876Z</time></trkpt><trkpt lat="42.2078583" lon="14.5963433"><ele>13.999999999999998</ele><time>2026-04-20T07:40:51.876Z</time></trkpt><trkpt lat="42.207915" lon="14.5962317"><ele>13.999999999999998</ele><time>2026-04-20T07:40:53.877Z</time></trkpt><trkpt lat="42.2079683" lon="14.5961133"><ele>14.0</ele><time>2026-04-20T07:40:55.877Z</time></trkpt><trkpt lat="42.2080133" lon="14.595995"><ele>14.0</ele><time>2026-04-20T07:40:57.877Z</time></trkpt><trkpt lat="42.208065" lon="14.595875"><ele>14.0</ele><time>2026-04-20T07:40:59.876Z</time></trkpt><trkpt lat="42.2081233" lon="14.595765"><ele>13.999999999999998</ele><time>2026-04-20T07:41:01.876Z</time></trkpt><trkpt lat="42.2081717" lon="14.5956533"><ele>13.999999999999998</ele><time>2026-04-20T07:41:03.877Z</time></trkpt><trkpt lat="42.208225" lon="14.5955533"><ele>14.0</ele><time>2026-04-20T07:41:05.876Z</time></trkpt><trkpt lat="42.2082867" lon="14.5954433"><ele>14.0</ele><time>2026-04-20T07:41:07.877Z</time></trkpt><trkpt lat="42.20834" lon="14.5953317"><ele>14.0</ele><time>2026-04-20T07:41:09.877Z</time></trkpt><trkpt lat="42.2084" lon="14.59522"><ele>13.999999999999998</ele><time>2026-04-20T07:41:11.877Z</time></trkpt><trkpt lat="42.20846" lon="14.5951167"><ele>13.999999999999998</ele><time>2026-04-20T07:41:13.876Z</time></trkpt><trkpt lat="42.2085183" lon="14.5950083"><ele>14.0</ele><time>2026-04-20T07:41:15.877Z</time></trkpt><trkpt lat="42.2085767" lon="14.5948983"><ele>14.0</ele><time>2026-04-20T07:41:17.876Z</time></trkpt><trkpt lat="42.20864" lon="14.59479"><ele>14.0</ele><time>2026-04-20T07:41:19.876Z</time></trkpt><trkpt lat="42.2087" lon="14.5946883"><ele>13.999999999999998</ele><time>2026-04-20T07:41:21.877Z</time></trkpt><trkpt lat="42.208765" lon="14.5945817"><ele>13.999999999999998</ele><time>2026-04-20T07:41:23.876Z</time></trkpt><trkpt lat="42.2088267" lon="14.59447"><ele>14.0</ele><time>2026-04-20T07:41:25.877Z</time></trkpt><trkpt lat="42.2088917" lon="14.59436"><ele>14.0</ele><time>2026-04-20T07:41:27.876Z</time></trkpt><trkpt lat="42.2089533" lon="14.594255"><ele>12.399999999999999</ele><time>2026-04-20T07:41:29.876Z</time></trkpt><trkpt lat="42.2090133" lon="14.594155"><ele>10.799999999999999</ele><time>2026-04-20T07:41:31.877Z</time></trkpt><trkpt lat="42.209075" lon="14.5940617"><ele>9.2</ele><time>2026-04-20T07:41:33.877Z</time></trkpt><trkpt lat="42.2091367" lon="14.593955"><ele>7.6</ele><time>2026-04-20T07:41:35.876Z</time></trkpt><trkpt lat="42.2092067" lon="14.5938483"><ele>6.0</ele><time>2026-04-20T07:41:37.877Z</time></trkpt><trkpt lat="42.2092667" lon="14.5937467"><ele>7.4</ele><time>2026-04-20T07:41:39.876Z</time></trkpt><trkpt lat="42.209335" lon="14.5936383"><ele>8.8</ele><time>2026-04-20T07:41:41.877Z</time></trkpt><trkpt lat="42.2093967" lon="14.5935317"><ele>10.200000000000001</ele><time>2026-04-20T07:41:43.876Z</time></trkpt><trkpt lat="42.2094567" lon="14.5934217"><ele>11.6</ele><time>2026-04-20T07:41:45.876Z</time></trkpt><trkpt lat="42.209505" lon="14.59333"><ele>13.0</ele><time>2026-04-20T07:41:47.876Z</time></trkpt><trkpt lat="42.2095533" lon="14.59324"><ele>13.0</ele><time>2026-04-20T07:41:49.876Z</time></trkpt><trkpt lat="42.2096083" lon="14.5931317"><ele>13.0</ele><time>2026-04-20T07:41:51.877Z</time></trkpt><trkpt lat="42.2096717" lon="14.5930267"><ele>13.0</ele><time>2026-04-20T07:41:53.877Z</time></trkpt><trkpt lat="42.2097333" lon="14.5929167"><ele>13.0</ele><time>2026-04-20T07:41:55.877Z</time></trkpt><trkpt lat="42.2097983" lon="14.5928067"><ele>13.0</ele><time>2026-04-20T07:41:57.876Z</time></trkpt><trkpt lat="42.2098533" lon="14.5927067"><ele>11.8</ele><time>2026-04-20T07:41:59.876Z</time></trkpt><trkpt lat="42.2099133" lon="14.592595"><ele>10.600000000000001</ele><time>2026-04-20T07:42:01.877Z</time></trkpt><trkpt lat="42.20998" lon="14.5924883"><ele>9.399999999999999</ele><time>2026-04-20T07:42:03.877Z</time></trkpt><trkpt lat="42.2100433" lon="14.5923817"><ele>8.2</ele><time>2026-04-20T07:42:05.877Z</time></trkpt><trkpt lat="42.2100933" lon="14.5922767"><ele>7.0</ele><time>2026-04-20T07:42:07.877Z</time></trkpt><trkpt lat="42.210145" lon="14.5921617"><ele>7.0</ele><time>2026-04-20T07:42:09.877Z</time></trkpt><trkpt lat="42.2101983" lon="14.592045"><ele>6.999999999999999</ele><time>2026-04-20T07:42:11.877Z</time></trkpt><trkpt lat="42.2102533" lon="14.5919317"><ele>6.999999999999999</ele><time>2026-04-20T07:42:13.876Z</time></trkpt><trkpt lat="42.2103033" lon="14.591815"><ele>7.0</ele><time>2026-04-20T07:42:15.876Z</time></trkpt><trkpt lat="42.210355" lon="14.5917"><ele>7.0</ele><time>2026-04-20T07:42:17.876Z</time></trkpt><trkpt lat="42.210405" lon="14.5915967"><ele>8.6</ele><time>2026-04-20T07:42:19.877Z</time></trkpt><trkpt lat="42.2104533" lon="14.5914883"><ele>10.2</ele><time>2026-04-20T07:42:21.877Z</time></trkpt><trkpt lat="42.2104967" lon="14.5913733"><ele>11.8</ele><time>2026-04-20T07:42:23.877Z</time></trkpt><trkpt lat="42.21054" lon="14.591255"><ele>13.4</ele><time>2026-04-20T07:42:25.876Z</time></trkpt><trkpt lat="42.2105883" lon="14.5911333"><ele>15.0</ele><time>2026-04-20T07:42:27.877Z</time></trkpt><trkpt lat="42.210635" lon="14.59101"><ele>13.0</ele><time>2026-04-20T07:42:29.876Z</time></trkpt><trkpt lat="42.2106833" lon="14.5908883"><ele>11.0</ele><time>2026-04-20T07:42:31.877Z</time></trkpt><trkpt lat="42.2107317" lon="14.5907733"><ele>9.0</ele><time>2026-04-20T07:42:33.877Z</time></trkpt><trkpt lat="42.2107783" lon="14.5906533"><ele>7.0</ele><time>2026-04-20T07:42:35.877Z</time></trkpt><trkpt lat="42.2108217" lon="14.590535"><ele>5.0</ele><time>2026-04-20T07:42:37.877Z</time></trkpt><trkpt lat="42.210865" lon="14.590415"><ele>6.8</ele><time>2026-04-20T07:42:39.877Z</time></trkpt><trkpt lat="42.21091" lon="14.5903"><ele>8.6</ele><time>2026-04-20T07:42:41.877Z</time></trkpt><trkpt lat="42.2109633" lon="14.5901917"><ele>10.399999999999999</ele><time>2026-04-20T07:42:43.877Z</time></trkpt><trkpt lat="42.2109983" lon="14.5900733"><ele>12.2</ele><time>2026-04-20T07:42:45.876Z</time></trkpt><trkpt lat="42.2110433" lon="14.58997"><ele>14.0</ele><time>2026-04-20T07:42:47.876Z</time></trkpt><trkpt lat="42.211085" lon="14.5898633"><ele>14.0</ele><time>2026-04-20T07:42:49.876Z</time></trkpt><trkpt lat="42.21113" lon="14.5897617"><ele>13.999999999999998</ele><time>2026-04-20T07:42:51.876Z</time></trkpt><trkpt lat="42.21118" lon="14.589655"><ele>13.999999999999998</ele><time>2026-04-20T07:42:53.876Z</time></trkpt><trkpt lat="42.2112167" lon="14.5895517"><ele>14.0</ele><time>2026-04-20T07:42:55.876Z</time></trkpt><trkpt lat="42.2112533" lon="14.589475"><ele>14.0</ele><time>2026-04-20T07:42:58.876Z</time></trkpt><trkpt lat="42.2113317" lon="14.58931"><ele>13.0</ele><time>2026-04-20T07:43:13.876Z</time></trkpt><trkpt lat="42.21135" lon="14.5891867"><ele>12.0</ele><time>2026-04-20T07:43:20.876Z</time></trkpt><trkpt lat="42.2113917" lon="14.589105"><ele>11.0</ele><time>2026-04-20T07:43:27.876Z</time></trkpt><trkpt lat="42.2114367" lon="14.5890333"><ele>10.0</ele><time>2026-04-20T07:43:32.876Z</time></trkpt><trkpt lat="42.2114783" lon="14.5889567"><ele>9.0</ele><time>2026-04-20T07:43:37.875Z</time></trkpt><trkpt lat="42.2115133" lon="14.58888"><ele>8.0</ele><time>2026-04-20T07:43:43.876Z</time></trkpt><trkpt lat="42.21155" lon="14.588795"><ele>7.0</ele><time>2026-04-20T07:43:48.876Z</time></trkpt><trkpt lat="42.211585" lon="14.58872"><ele>8.142857142857142</ele><time>2026-04-20T07:43:53.876Z</time></trkpt><trkpt lat="42.2116183" lon="14.5886367"><ele>9.285714285714285</ele><time>2026-04-20T07:43:58.876Z</time></trkpt><trkpt lat="42.211655" lon="14.58856"><ele>10.428571428571429</ele><time>2026-04-20T07:44:02.876Z</time></trkpt><trkpt lat="42.2116883" lon="14.5884833"><ele>11.571428571428571</ele><time>2026-04-20T07:44:06.875Z</time></trkpt><trkpt lat="42.2117417" lon="14.588415"><ele>12.714285714285714</ele><time>2026-04-20T07:44:11.875Z</time></trkpt><trkpt lat="42.211775" lon="14.5883383"><ele>13.857142857142858</ele><time>2026-04-20T07:44:16.876Z</time></trkpt><trkpt lat="42.2118083" lon="14.588255"><ele>15.0</ele><time>2026-04-20T07:44:21.876Z</time></trkpt><trkpt lat="42.2118383" lon="14.588175"><ele>15.0</ele><time>2026-04-20T07:44:26.876Z</time></trkpt><trkpt lat="42.211875" lon="14.58809"><ele>15.0</ele><time>2026-04-20T07:44:31.876Z</time></trkpt><trkpt lat="42.2119217" lon="14.5880033"><ele>15.0</ele><time>2026-04-20T07:44:36.876Z</time></trkpt><trkpt lat="42.2119633" lon="14.58792"><ele>15.0</ele><time>2026-04-20T07:44:42.875Z</time></trkpt><trkpt lat="42.2120033" lon="14.587835"><ele>15.0</ele><time>2026-04-20T07:44:47.876Z</time></trkpt><trkpt lat="42.2120483" lon="14.5877517"><ele>15.0</ele><time>2026-04-20T07:44:52.875Z</time></trkpt><trkpt lat="42.2120817" lon="14.5876783"><ele>15.0</ele><time>2026-04-20T07:44:56.876Z</time></trkpt><trkpt lat="42.2121233" lon="14.5875933"><ele>15.714285714285715</ele><time>2026-04-20T07:45:01.876Z</time></trkpt><trkpt lat="42.2121633" lon="14.5875017"><ele>16.428571428571427</ele><time>2026-04-20T07:45:06.876Z</time></trkpt><trkpt lat="42.2121867" lon="14.5874217"><ele>17.142857142857142</ele><time>2026-04-20T07:45:10.875Z</time></trkpt><trkpt lat="42.21222" lon="14.5873367"><ele>17.857142857142858</ele><time>2026-04-20T07:45:15.876Z</time></trkpt><trkpt lat="42.2122617" lon="14.587265"><ele>18.571428571428573</ele><time>2026-04-20T07:45:20.875Z</time></trkpt><trkpt lat="42.2123" lon="14.5871883"><ele>19.285714285714285</ele><time>2026-04-20T07:45:25.875Z</time></trkpt><trkpt lat="42.2123517" lon="14.5871183"><ele>20.0</ele><time>2026-04-20T07:45:31.875Z</time></trkpt><trkpt lat="42.2123917" lon="14.587045"><ele>18.428571428571427</ele><time>2026-04-20T07:45:36.876Z</time></trkpt><trkpt lat="42.212425" lon="14.5869633"><ele>16.857142857142858</ele><time>2026-04-20T07:45:41.876Z</time></trkpt><trkpt lat="42.21246" lon="14.586885"><ele>15.285714285714286</ele><time>2026-04-20T07:45:45.875Z</time></trkpt><trkpt lat="42.2124983" lon="14.5867933"><ele>13.714285714285715</ele><time>2026-04-20T07:45:51.876Z</time></trkpt><trkpt lat="42.2125367" lon="14.58671"><ele>12.142857142857142</ele><time>2026-04-20T07:45:56.876Z</time></trkpt><trkpt lat="42.2125833" lon="14.5866233"><ele>10.571428571428573</ele><time>2026-04-20T07:46:01.876Z</time></trkpt><trkpt lat="42.212625" lon="14.58653"><ele>9.0</ele><time>2026-04-20T07:46:05.875Z</time></trkpt><trkpt lat="42.2126617" lon="14.58646"><ele>9.000000000000002</ele><time>2026-04-20T07:46:09.876Z</time></trkpt><trkpt lat="42.2127" lon="14.5863733"><ele>9.0</ele><time>2026-04-20T07:46:14.875Z</time></trkpt><trkpt lat="42.21274" lon="14.586295"><ele>9.0</ele><time>2026-04-20T07:46:19.876Z</time></trkpt><trkpt lat="42.2127717" lon="14.5862083"><ele>9.0</ele><time>2026-04-20T07:46:24.876Z</time></trkpt><trkpt lat="42.212815" lon="14.586135"><ele>9.0</ele><time>2026-04-20T07:46:29.876Z</time></trkpt><trkpt lat="42.2128633" lon="14.5860633"><ele>9.000000000000002</ele><time>2026-04-20T07:46:35.875Z</time></trkpt><trkpt lat="42.2129083" lon="14.585995"><ele>9.0</ele><time>2026-04-20T07:46:40.876Z</time></trkpt><trkpt lat="42.2129383" lon="14.58592"><ele>8.571428571428573</ele><time>2026-04-20T07:46:44.876Z</time></trkpt><trkpt lat="42.2129733" lon="14.5858367"><ele>8.142857142857142</ele><time>2026-04-20T07:46:49.876Z</time></trkpt><trkpt lat="42.2130133" lon="14.5857567"><ele>7.714285714285714</ele><time>2026-04-20T07:46:54.876Z</time></trkpt><trkpt lat="42.21305" lon="14.5856867"><ele>7.2857142857142865</ele><time>2026-04-20T07:46:58.876Z</time></trkpt><trkpt lat="42.2130867" lon="14.5856167"><ele>6.857142857142858</ele><time>2026-04-20T07:47:02.875Z</time></trkpt><trkpt lat="42.2131167" lon="14.5855417"><ele>6.428571428571428</ele><time>2026-04-20T07:47:06.875Z</time></trkpt><trkpt lat="42.213155" lon="14.585465"><ele>6.0</ele><time>2026-04-20T07:47:11.875Z</time></trkpt><trkpt lat="42.213205" lon="14.5853817"><ele>6.857142857142857</ele><time>2026-04-20T07:47:16.876Z</time></trkpt><trkpt lat="42.21324" lon="14.5853017"><ele>7.7142857142857135</ele><time>2026-04-20T07:47:21.876Z</time></trkpt><trkpt lat="42.2132817" lon="14.5852267"><ele>8.571428571428571</ele><time>2026-04-20T07:47:25.875Z</time></trkpt><trkpt lat="42.21333" lon="14.5851433"><ele>9.428571428571427</ele><time>2026-04-20T07:47:30.876Z</time></trkpt><trkpt lat="42.213365" lon="14.58507"><ele>10.285714285714285</ele><time>2026-04-20T07:47:35.876Z</time></trkpt><trkpt lat="42.2134" lon="14.5849983"><ele>11.142857142857142</ele><time>2026-04-20T07:47:39.875Z</time></trkpt><trkpt lat="42.2134467" lon="14.5849233"><ele>12.0</ele><time>2026-04-20T07:47:44.876Z</time></trkpt><trkpt lat="42.2134917" lon="14.58485"><ele>11.999999999999998</ele><time>2026-04-20T07:47:49.876Z</time></trkpt><trkpt lat="42.2135433" lon="14.584775"><ele>12.0</ele><time>2026-04-20T07:47:55.875Z</time></trkpt><trkpt lat="42.21358" lon="14.584705"><ele>12.0</ele><time>2026-04-20T07:47:59.876Z</time></trkpt><trkpt lat="42.2136183" lon="14.58463"><ele>12.0</ele><time>2026-04-20T07:48:04.876Z</time></trkpt><trkpt lat="42.21367" lon="14.58455"><ele>12.0</ele><time>2026-04-20T07:48:09.876Z</time></trkpt><trkpt lat="42.2137117" lon="14.584485"><ele>11.999999999999998</ele><time>2026-04-20T07:48:14.876Z</time></trkpt><trkpt lat="42.2137567" lon="14.5844133"><ele>12.0</ele><time>2026-04-20T07:48:19.876Z</time></trkpt><trkpt lat="42.213805" lon="14.58434"><ele>11.285714285714285</ele><time>2026-04-20T07:48:24.876Z</time></trkpt><trkpt lat="42.213845" lon="14.584255"><ele>10.571428571428571</ele><time>2026-04-20T07:48:29.876Z</time></trkpt><trkpt lat="42.2138917" lon="14.5841667"><ele>9.857142857142858</ele><time>2026-04-20T07:48:34.875Z</time></trkpt><trkpt lat="42.2139317" lon="14.5841"><ele>9.142857142857142</ele><time>2026-04-20T07:48:38.875Z</time></trkpt><trkpt lat="42.2139783" lon="14.5840333"><ele>8.428571428571429</ele><time>2026-04-20T07:48:43.875Z</time></trkpt><trkpt lat="42.21403" lon="14.5839667"><ele>7.714285714285714</ele><time>2026-04-20T07:48:48.876Z</time></trkpt><trkpt lat="42.214085" lon="14.5839067"><ele>7.0</ele><time>2026-04-20T07:48:54.876Z</time></trkpt><trkpt lat="42.2141333" lon="14.5838333"><ele>7.0</ele><time>2026-04-20T07:49:00.875Z</time></trkpt><trkpt lat="42.2141783" lon="14.5837667"><ele>7.0</ele><time>2026-04-20T07:49:05.876Z</time></trkpt><trkpt lat="42.21422" lon="14.5837"><ele>7.0</ele><time>2026-04-20T07:49:09.875Z</time></trkpt><trkpt lat="42.21427" lon="14.5836333"><ele>7.0</ele><time>2026-04-20T07:49:14.875Z</time></trkpt><trkpt lat="42.2143167" lon="14.583545"><ele>7.0</ele><time>2026-04-20T07:49:19.876Z</time></trkpt><trkpt lat="42.2143583" lon="14.58348"><ele>7.0</ele><time>2026-04-20T07:49:23.876Z</time></trkpt><trkpt lat="42.2143967" lon="14.5834017"><ele>7.0</ele><time>2026-04-20T07:49:28.875Z</time></trkpt><trkpt lat="42.21444" lon="14.5833267"><ele>8.142857142857142</ele><time>2026-04-20T07:49:33.875Z</time></trkpt><trkpt lat="42.2144933" lon="14.583245"><ele>9.285714285714285</ele><time>2026-04-20T07:49:38.876Z</time></trkpt><trkpt lat="42.21453" lon="14.58316"><ele>10.428571428571429</ele><time>2026-04-20T07:49:43.876Z</time></trkpt><trkpt lat="42.2145733" lon="14.5830883"><ele>11.571428571428571</ele><time>2026-04-20T07:49:48.876Z</time></trkpt><trkpt lat="42.2146167" lon="14.5829983"><ele>12.714285714285714</ele><time>2026-04-20T07:49:53.876Z</time></trkpt><trkpt lat="42.2146567" lon="14.5829167"><ele>13.857142857142858</ele><time>2026-04-20T07:49:58.875Z</time></trkpt><trkpt lat="42.2146983" lon="14.5828367"><ele>15.0</ele><time>2026-04-20T07:50:03.876Z</time></trkpt><trkpt lat="42.21474" lon="14.582765"><ele>15.571428571428573</ele><time>2026-04-20T07:50:08.875Z</time></trkpt><trkpt lat="42.2147733" lon="14.582685"><ele>16.142857142857142</ele><time>2026-04-20T07:50:13.875Z</time></trkpt><trkpt lat="42.2148233" lon="14.5826067"><ele>16.714285714285715</ele><time>2026-04-20T07:50:19.876Z</time></trkpt><trkpt lat="42.21487" lon="14.58254"><ele>17.285714285714285</ele><time>2026-04-20T07:50:24.875Z</time></trkpt><trkpt lat="42.21491" lon="14.5824517"><ele>17.857142857142858</ele><time>2026-04-20T07:50:28.876Z</time></trkpt><trkpt lat="42.2148517" lon="14.5824967"><ele>18.428571428571427</ele><time>2026-04-20T07:50:35.876Z</time></trkpt><trkpt lat="42.2148067" lon="14.5825583"><ele>19.0</ele><time>2026-04-20T07:50:40.876Z</time></trkpt><trkpt lat="42.2147467" lon="14.58262"><ele>19.0</ele><time>2026-04-20T07:50:46.875Z</time></trkpt><trkpt lat="42.2147067" lon="14.58271"><ele>19.0</ele><time>2026-04-20T07:50:51.875Z</time></trkpt><trkpt lat="42.21468" lon="14.582795"><ele>19.0</ele><time>2026-04-20T07:50:55.875Z</time></trkpt><trkpt lat="42.214645" lon="14.5828667"><ele>19.0</ele><time>2026-04-20T07:50:59.876Z</time></trkpt><trkpt lat="42.2145983" lon="14.5829433"><ele>19.0</ele><time>2026-04-20T07:51:04.876Z</time></trkpt><trkpt lat="42.21455" lon="14.58302"><ele>19.0</ele><time>2026-04-20T07:51:09.875Z</time></trkpt><trkpt lat="42.2145167" lon="14.5831"><ele>19.0</ele><time>2026-04-20T07:51:13.876Z</time></trkpt><trkpt lat="42.2144767" lon="14.5831817"><ele>18.428571428571427</ele><time>2026-04-20T07:51:18.876Z</time></trkpt><trkpt lat="42.2144383" lon="14.58326"><ele>17.857142857142858</ele><time>2026-04-20T07:51:23.875Z</time></trkpt><trkpt lat="42.2143883" lon="14.5833267"><ele>17.285714285714285</ele><time>2026-04-20T07:51:28.876Z</time></trkpt><trkpt lat="42.2143517" lon="14.5834017"><ele>16.714285714285715</ele><time>2026-04-20T07:51:32.875Z</time></trkpt><trkpt lat="42.2143133" lon="14.5834717"><ele>16.142857142857142</ele><time>2026-04-20T07:51:36.876Z</time></trkpt><trkpt lat="42.2142617" lon="14.583545"><ele>15.571428571428573</ele><time>2026-04-20T07:51:41.876Z</time></trkpt><trkpt lat="42.21421" lon="14.58361"><ele>15.0</ele><time>2026-04-20T07:51:46.875Z</time></trkpt><trkpt lat="42.2141683" lon="14.5836767"><ele>16.0</ele><time>2026-04-20T07:51:51.876Z</time></trkpt><trkpt lat="42.21413" lon="14.5837633"><ele>17.0</ele><time>2026-04-20T07:51:57.876Z</time></trkpt><trkpt lat="42.2140817" lon="14.5838317"><ele>18.0</ele><time>2026-04-20T07:52:01.876Z</time></trkpt><trkpt lat="42.214035" lon="14.5839"><ele>19.0</ele><time>2026-04-20T07:52:05.876Z</time></trkpt><trkpt lat="42.21399" lon="14.58396"><ele>20.0</ele><time>2026-04-20T07:52:09.876Z</time></trkpt><trkpt lat="42.2139517" lon="14.5840383"><ele>21.0</ele><time>2026-04-20T07:52:13.876Z</time></trkpt><trkpt lat="42.2139117" lon="14.5841083"><ele>22.0</ele><time>2026-04-20T07:52:17.875Z</time></trkpt><trkpt lat="42.21387" lon="14.5841767"><ele>22.0</ele><time>2026-04-20T07:52:21.875Z</time></trkpt><trkpt lat="42.2138133" lon="14.58424"><ele>22.0</ele><time>2026-04-20T07:52:25.876Z</time></trkpt><trkpt lat="42.2137667" lon="14.5843133"><ele>22.0</ele><time>2026-04-20T07:52:30.875Z</time></trkpt><trkpt lat="42.213725" lon="14.58439"><ele>22.0</ele><time>2026-04-20T07:52:35.876Z</time></trkpt><trkpt lat="42.213695" lon="14.5844667"><ele>22.0</ele><time>2026-04-20T07:52:40.875Z</time></trkpt><trkpt lat="42.2136517" lon="14.584535"><ele>22.0</ele><time>2026-04-20T07:52:44.876Z</time></trkpt><trkpt lat="42.21361" lon="14.584605"><ele>22.0</ele><time>2026-04-20T07:52:49.876Z</time></trkpt><trkpt lat="42.213575" lon="14.5846883"><ele>20.571428571428573</ele><time>2026-04-20T07:52:54.875Z</time></trkpt><trkpt lat="42.2135283" lon="14.584765"><ele>19.142857142857142</ele><time>2026-04-20T07:52:59.875Z</time></trkpt><trkpt lat="42.2134817" lon="14.58483"><ele>17.714285714285715</ele><time>2026-04-20T07:53:04.876Z</time></trkpt><trkpt lat="42.2134267" lon="14.584915"><ele>16.285714285714285</ele><time>2026-04-20T07:53:09.875Z</time></trkpt><trkpt lat="42.2133983" lon="14.5849933"><ele>14.857142857142858</ele><time>2026-04-20T07:53:13.876Z</time></trkpt><trkpt lat="42.21336" lon="14.5850633"><ele>13.428571428571427</ele><time>2026-04-20T07:53:18.876Z</time></trkpt><trkpt lat="42.2133167" lon="14.585125"><ele>12.0</ele><time>2026-04-20T07:53:22.876Z</time></trkpt><trkpt lat="42.21327" lon="14.5852"><ele>11.999999999999998</ele><time>2026-04-20T07:53:27.876Z</time></trkpt><trkpt lat="42.2132283" lon="14.5852767"><ele>12.0</ele><time>2026-04-20T07:53:32.876Z</time></trkpt><trkpt lat="42.213185" lon="14.5853633"><ele>12.0</ele><time>2026-04-20T07:53:37.876Z</time></trkpt><trkpt lat="42.2131517" lon="14.5854367"><ele>12.0</ele><time>2026-04-20T07:53:41.875Z</time></trkpt><trkpt lat="42.2131167" lon="14.5855133"><ele>12.0</ele><time>2026-04-20T07:53:46.875Z</time></trkpt><trkpt lat="42.2130783" lon="14.5856017"><ele>11.999999999999998</ele><time>2026-04-20T07:53:51.876Z</time></trkpt><trkpt lat="42.213035" lon="14.5856667"><ele>12.0</ele><time>2026-04-20T07:53:55.876Z</time></trkpt><trkpt lat="42.2130017" lon="14.5857417"><ele>11.571428571428571</ele><time>2026-04-20T07:53:59.876Z</time></trkpt><trkpt lat="42.2129633" lon="14.58582"><ele>11.142857142857142</ele><time>2026-04-20T07:54:04.876Z</time></trkpt><trkpt lat="42.21293" lon="14.5858967"><ele>10.714285714285715</ele><time>2026-04-20T07:54:08.876Z</time></trkpt><trkpt lat="42.2128883" lon="14.5859767"><ele>10.285714285714285</ele><time>2026-04-20T07:54:13.876Z</time></trkpt><trkpt lat="42.2128433" lon="14.586045"><ele>9.857142857142858</ele><time>2026-04-20T07:54:18.876Z</time></trkpt><trkpt lat="42.2128083" lon="14.5861183"><ele>9.428571428571429</ele><time>2026-04-20T07:54:23.876Z</time></trkpt><trkpt lat="42.2127733" lon="14.5861917"><ele>9.0</ele><time>2026-04-20T07:54:27.874Z</time></trkpt><trkpt lat="42.2127383" lon="14.5862717"><ele>9.000000000000002</ele><time>2026-04-20T07:54:31.874Z</time></trkpt><trkpt lat="42.2127033" lon="14.5863517"><ele>9.0</ele><time>2026-04-20T07:54:36.875Z</time></trkpt><trkpt lat="42.2126717" lon="14.5864283"><ele>9.0</ele><time>2026-04-20T07:54:40.875Z</time></trkpt><trkpt lat="42.2126283" lon="14.5865117"><ele>9.0</ele><time>2026-04-20T07:54:45.874Z</time></trkpt><trkpt lat="42.2125867" lon="14.5866017"><ele>9.0</ele><time>2026-04-20T07:54:50.875Z</time></trkpt><trkpt lat="42.2125483" lon="14.5866867"><ele>9.000000000000002</ele><time>2026-04-20T07:54:55.875Z</time></trkpt><trkpt lat="42.2125083" lon="14.5867617"><ele>9.0</ele><time>2026-04-20T07:55:00.875Z</time></trkpt><trkpt lat="42.212465" lon="14.5868433"><ele>9.000000000000002</ele><time>2026-04-20T07:55:05.875Z</time></trkpt><trkpt lat="42.2124333" lon="14.5869367"><ele>9.0</ele><time>2026-04-20T07:55:10.874Z</time></trkpt><trkpt lat="42.2123867" lon="14.5870117"><ele>9.0</ele><time>2026-04-20T07:55:15.875Z</time></trkpt><trkpt lat="42.2123383" lon="14.58708"><ele>9.0</ele><time>2026-04-20T07:55:20.875Z</time></trkpt><trkpt lat="42.2123" lon="14.5871567"><ele>9.0</ele><time>2026-04-20T07:55:25.875Z</time></trkpt><trkpt lat="42.2122633" lon="14.58724"><ele>9.000000000000002</ele><time>2026-04-20T07:55:30.874Z</time></trkpt><trkpt lat="42.2122317" lon="14.58732"><ele>9.0</ele><time>2026-04-20T07:55:35.874Z</time></trkpt><trkpt lat="42.2121933" lon="14.58741"><ele>9.857142857142858</ele><time>2026-04-20T07:55:40.874Z</time></trkpt><trkpt lat="42.2121583" lon="14.5874867"><ele>10.714285714285715</ele><time>2026-04-20T07:55:45.875Z</time></trkpt><trkpt lat="42.2121167" lon="14.5875533"><ele>11.571428571428573</ele><time>2026-04-20T07:55:49.875Z</time></trkpt><trkpt lat="42.2120717" lon="14.58763"><ele>12.428571428571429</ele><time>2026-04-20T07:55:54.875Z</time></trkpt><trkpt lat="42.2120283" lon="14.5876933"><ele>13.285714285714285</ele><time>2026-04-20T07:55:58.875Z</time></trkpt><trkpt lat="42.2119867" lon="14.5877783"><ele>14.142857142857144</ele><time>2026-04-20T07:56:03.875Z</time></trkpt><trkpt lat="42.211955" lon="14.5878583"><ele>15.0</ele><time>2026-04-20T07:56:07.875Z</time></trkpt><trkpt lat="42.211925" lon="14.5879467"><ele>15.0</ele><time>2026-04-20T07:56:12.875Z</time></trkpt><trkpt lat="42.211885" lon="14.5880267"><ele>15.0</ele><time>2026-04-20T07:56:18.874Z</time></trkpt><trkpt lat="42.2118483" lon="14.58811"><ele>15.0</ele><time>2026-04-20T07:56:23.874Z</time></trkpt><trkpt lat="42.2118" lon="14.588185"><ele>15.0</ele><time>2026-04-20T07:56:28.875Z</time></trkpt><trkpt lat="42.2117583" lon="14.5882667"><ele>15.0</ele><time>2026-04-20T07:56:33.874Z</time></trkpt><trkpt lat="42.211715" lon="14.58835"><ele>15.0</ele><time>2026-04-20T07:56:38.875Z</time></trkpt><trkpt lat="42.2116783" lon="14.58842"><ele>15.0</ele><time>2026-04-20T07:56:42.875Z</time></trkpt><trkpt lat="42.2116317" lon="14.58854"><ele>15.0</ele><time>2026-04-20T07:56:49.875Z</time></trkpt><trkpt lat="42.2115917" lon="14.5886383"><ele>15.0</ele><time>2026-04-20T07:56:53.875Z</time></trkpt><trkpt lat="42.211555" lon="14.5887167"><ele>15.0</ele><time>2026-04-20T07:56:57.875Z</time></trkpt><trkpt lat="42.211505" lon="14.5887967"><ele>15.0</ele><time>2026-04-20T07:57:02.875Z</time></trkpt><trkpt lat="42.21147" lon="14.58888"><ele>15.0</ele><time>2026-04-20T07:57:06.874Z</time></trkpt><trkpt lat="42.2114267" lon="14.5889667"><ele>15.0</ele><time>2026-04-20T07:57:10.875Z</time></trkpt><trkpt lat="42.2113983" lon="14.5890583"><ele>14.857142857142858</ele><time>2026-04-20T07:57:14.874Z</time></trkpt><trkpt lat="42.2113467" lon="14.58916"><ele>14.714285714285714</ele><time>2026-04-20T07:57:29.875Z</time></trkpt><trkpt lat="42.21131" lon="14.5892317"><ele>14.571428571428571</ele><time>2026-04-20T07:57:33.875Z</time></trkpt><trkpt lat="42.2112817" lon="14.58931"><ele>14.428571428571429</ele><time>2026-04-20T07:57:38.875Z</time></trkpt><trkpt lat="42.2112533" lon="14.5894033"><ele>14.285714285714285</ele><time>2026-04-20T07:57:43.875Z</time></trkpt><trkpt lat="42.2112133" lon="14.5894817"><ele>14.142857142857142</ele><time>2026-04-20T07:57:48.875Z</time></trkpt><trkpt lat="42.2111833" lon="14.5895617"><ele>14.0</ele><time>2026-04-20T07:57:52.875Z</time></trkpt><trkpt lat="42.211145" lon="14.5896517"><ele>14.0</ele><time>2026-04-20T07:57:57.875Z</time></trkpt><trkpt lat="42.21111" lon="14.5897317"><ele>14.0</ele><time>2026-04-20T07:58:01.874Z</time></trkpt><trkpt lat="42.2110883" lon="14.58983"><ele>14.0</ele><time>2026-04-20T07:58:05.875Z</time></trkpt><trkpt lat="42.2110633" lon="14.5899233"><ele>14.0</ele><time>2026-04-20T07:58:09.874Z</time></trkpt><trkpt lat="42.2110317" lon="14.5899983"><ele>14.0</ele><time>2026-04-20T07:58:13.875Z</time></trkpt><trkpt lat="42.211" lon="14.5900733"><ele>14.0</ele><time>2026-04-20T07:58:17.875Z</time></trkpt><trkpt lat="42.210965" lon="14.5901617"><ele>14.0</ele><time>2026-04-20T07:58:22.874Z</time></trkpt><trkpt lat="42.21093" lon="14.5902467"><ele>14.0</ele><time>2026-04-20T07:58:27.874Z</time></trkpt><trkpt lat="42.2108933" lon="14.5903383"><ele>14.0</ele><time>2026-04-20T07:58:32.875Z</time></trkpt><trkpt lat="42.2108617" lon="14.5904267"><ele>14.0</ele><time>2026-04-20T07:58:37.875Z</time></trkpt><trkpt lat="42.2108333" lon="14.5905233"><ele>14.0</ele><time>2026-04-20T07:58:42.875Z</time></trkpt><trkpt lat="42.2108067" lon="14.590605"><ele>14.0</ele><time>2026-04-20T07:58:46.875Z</time></trkpt><trkpt lat="42.21078" lon="14.59069"><ele>14.0</ele><time>2026-04-20T07:58:50.875Z</time></trkpt><trkpt lat="42.2107467" lon="14.59077"><ele>14.0</ele><time>2026-04-20T07:58:55.874Z</time></trkpt><trkpt lat="42.2107083" lon="14.5908533"><ele>14.142857142857142</ele><time>2026-04-20T07:58:59.874Z</time></trkpt><trkpt lat="42.21067" lon="14.5909233"><ele>14.285714285714285</ele><time>2026-04-20T07:59:03.875Z</time></trkpt><trkpt lat="42.210635" lon="14.591005"><ele>14.428571428571429</ele><time>2026-04-20T07:59:08.874Z</time></trkpt><trkpt lat="42.2106" lon="14.59109"><ele>14.571428571428571</ele><time>2026-04-20T07:59:13.875Z</time></trkpt><trkpt lat="42.2105683" lon="14.591175"><ele>14.714285714285714</ele><time>2026-04-20T07:59:18.875Z</time></trkpt><trkpt lat="42.2105333" lon="14.5912633"><ele>14.857142857142858</ele><time>2026-04-20T07:59:23.875Z</time></trkpt><trkpt lat="42.210495" lon="14.591335"><ele>15.0</ele><time>2026-04-20T07:59:27.875Z</time></trkpt><trkpt lat="42.21046" lon="14.5914267"><ele>15.0</ele><time>2026-04-20T07:59:32.875Z</time></trkpt><trkpt lat="42.2104217" lon="14.5915133"><ele>15.0</ele><time>2026-04-20T07:59:37.875Z</time></trkpt><trkpt lat="42.2104" lon="14.5915933"><ele>15.0</ele><time>2026-04-20T07:59:41.875Z</time></trkpt><trkpt lat="42.2103683" lon="14.59168"><ele>15.0</ele><time>2026-04-20T07:59:46.875Z</time></trkpt><trkpt lat="42.2103267" lon="14.5917617"><ele>15.0</ele><time>2026-04-20T07:59:51.875Z</time></trkpt><trkpt lat="42.2102917" lon="14.59184"><ele>15.0</ele><time>2026-04-20T07:59:55.875Z</time></trkpt><trkpt lat="42.21025" lon="14.5919133"><ele>15.0</ele><time>2026-04-20T08:00:00.875Z</time></trkpt><trkpt lat="42.2102017" lon="14.5919867"><ele>13.857142857142858</ele><time>2026-04-20T08:00:05.875Z</time></trkpt><trkpt lat="42.2101667" lon="14.592065"><ele>12.714285714285714</ele><time>2026-04-20T08:00:10.875Z</time></trkpt><trkpt lat="42.21013" lon="14.5921433"><ele>11.571428571428571</ele><time>2026-04-20T08:00:14.874Z</time></trkpt><trkpt lat="42.2100883" lon="14.59222"><ele>10.428571428571429</ele><time>2026-04-20T08:00:19.874Z</time></trkpt><trkpt lat="42.2100517" lon="14.5923017"><ele>9.285714285714285</ele><time>2026-04-20T08:00:23.875Z</time></trkpt><trkpt lat="42.2100217" lon="14.5923783"><ele>8.142857142857142</ele><time>2026-04-20T08:00:27.874Z</time></trkpt><trkpt lat="42.2099917" lon="14.592455"><ele>7.0</ele><time>2026-04-20T08:00:31.875Z</time></trkpt><trkpt lat="42.2099533" lon="14.59253"><ele>7.0</ele><time>2026-04-20T08:00:35.874Z</time></trkpt><trkpt lat="42.2099083" lon="14.5926067"><ele>7.0</ele><time>2026-04-20T08:00:40.875Z</time></trkpt><trkpt lat="42.20986" lon="14.5926683"><ele>7.0</ele><time>2026-04-20T08:00:44.874Z</time></trkpt><trkpt lat="42.209815" lon="14.5927483"><ele>7.0</ele><time>2026-04-20T08:00:49.875Z</time></trkpt><trkpt lat="42.2097733" lon="14.592825"><ele>7.0</ele><time>2026-04-20T08:00:54.875Z</time></trkpt><trkpt lat="42.2097283" lon="14.59289"><ele>7.0</ele><time>2026-04-20T08:00:59.874Z</time></trkpt><trkpt lat="42.20968" lon="14.5929667"><ele>7.0</ele><time>2026-04-20T08:01:04.875Z</time></trkpt><trkpt lat="42.2096467" lon="14.593045"><ele>7.857142857142858</ele><time>2026-04-20T08:01:09.875Z</time></trkpt><trkpt lat="42.2095933" lon="14.5930983"><ele>8.714285714285715</ele><time>2026-04-20T08:01:14.875Z</time></trkpt><trkpt lat="42.2095517" lon="14.59319"><ele>9.571428571428571</ele><time>2026-04-20T08:01:18.875Z</time></trkpt><trkpt lat="42.209505" lon="14.5932633"><ele>10.428571428571429</ele><time>2026-04-20T08:01:23.875Z</time></trkpt><trkpt lat="42.20945" lon="14.593315"><ele>11.285714285714286</ele><time>2026-04-20T08:01:29.875Z</time></trkpt><trkpt lat="42.2094217" lon="14.5933917"><ele>12.142857142857142</ele><time>2026-04-20T08:01:33.875Z</time></trkpt><trkpt lat="42.209395" lon="14.59348"><ele>13.0</ele><time>2026-04-20T08:01:37.875Z</time></trkpt><trkpt lat="42.2093483" lon="14.5935667"><ele>13.0</ele><time>2026-04-20T08:01:41.875Z</time></trkpt><trkpt lat="42.2093083" lon="14.5936467"><ele>13.0</ele><time>2026-04-20T08:01:45.875Z</time></trkpt><trkpt lat="42.2092683" lon="14.59372"><ele>13.0</ele><time>2026-04-20T08:01:49.874Z</time></trkpt><trkpt lat="42.2092217" lon="14.593795"><ele>13.0</ele><time>2026-04-20T08:01:53.875Z</time></trkpt><trkpt lat="42.209175" lon="14.5938667"><ele>13.0</ele><time>2026-04-20T08:01:57.874Z</time></trkpt><trkpt lat="42.2091217" lon="14.59394"><ele>13.0</ele><time>2026-04-20T08:02:02.875Z</time></trkpt><trkpt lat="42.2090833" lon="14.5940117"><ele>13.0</ele><time>2026-04-20T08:02:06.875Z</time></trkpt><trkpt lat="42.20905" lon="14.5940933"><ele>13.142857142857142</ele><time>2026-04-20T08:02:10.875Z</time></trkpt><trkpt lat="42.2090067" lon="14.5941683"><ele>13.285714285714286</ele><time>2026-04-20T08:02:15.875Z</time></trkpt><trkpt lat="42.2089583" lon="14.59425"><ele>13.428571428571429</ele><time>2026-04-20T08:02:20.874Z</time></trkpt><trkpt lat="42.20891" lon="14.5943083"><ele>13.571428571428571</ele><time>2026-04-20T08:02:24.875Z</time></trkpt><trkpt lat="42.2088567" lon="14.5943733"><ele>13.714285714285715</ele><time>2026-04-20T08:02:28.875Z</time></trkpt><trkpt lat="42.2088133" lon="14.59446"><ele>13.857142857142858</ele><time>2026-04-20T08:02:33.875Z</time></trkpt><trkpt lat="42.208775" lon="14.5945417"><ele>14.0</ele><time>2026-04-20T08:02:38.875Z</time></trkpt><trkpt lat="42.20873" lon="14.5946217"><ele>14.0</ele><time>2026-04-20T08:02:43.875Z</time></trkpt><trkpt lat="42.2086783" lon="14.5947017"><ele>14.0</ele><time>2026-04-20T08:02:48.875Z</time></trkpt><trkpt lat="42.2086367" lon="14.5947733"><ele>14.0</ele><time>2026-04-20T08:02:52.874Z</time></trkpt><trkpt lat="42.20859" lon="14.5948517"><ele>14.0</ele><time>2026-04-20T08:02:57.875Z</time></trkpt><trkpt lat="42.2085567" lon="14.59493"><ele>14.0</ele><time>2026-04-20T08:03:01.875Z</time></trkpt><trkpt lat="42.2085133" lon="14.5949933"><ele>14.0</ele><time>2026-04-20T08:03:05.875Z</time></trkpt><trkpt lat="42.2084683" lon="14.5950567"><ele>14.0</ele><time>2026-04-20T08:03:09.875Z</time></trkpt><trkpt lat="42.2084233" lon="14.5951333"><ele>14.0</ele><time>2026-04-20T08:03:14.874Z</time></trkpt><trkpt lat="42.20838" lon="14.5952083"><ele>14.0</ele><time>2026-04-20T08:03:19.874Z</time></trkpt><trkpt lat="42.2083433" lon="14.59529"><ele>14.0</ele><time>2026-04-20T08:03:24.875Z</time></trkpt><trkpt lat="42.208295" lon="14.5953667"><ele>14.0</ele><time>2026-04-20T08:03:29.874Z</time></trkpt><trkpt lat="42.208255" lon="14.5954417"><ele>14.0</ele><time>2026-04-20T08:03:34.875Z</time></trkpt><trkpt lat="42.2082133" lon="14.5955317"><ele>14.0</ele><time>2026-04-20T08:03:39.875Z</time></trkpt><trkpt lat="42.20817" lon="14.59561"><ele>14.0</ele><time>2026-04-20T08:03:44.875Z</time></trkpt><trkpt lat="42.2081317" lon="14.5956833"><ele>14.0</ele><time>2026-04-20T08:03:48.875Z</time></trkpt><trkpt lat="42.2080933" lon="14.59576"><ele>14.0</ele><time>2026-04-20T08:03:52.874Z</time></trkpt><trkpt lat="42.208055" lon="14.595845"><ele>14.0</ele><time>2026-04-20T08:03:58.874Z</time></trkpt><trkpt lat="42.208015" lon="14.5959183"><ele>14.0</ele><time>2026-04-20T08:04:02.874Z</time></trkpt><trkpt lat="42.20797" lon="14.596"><ele>14.0</ele><time>2026-04-20T08:04:06.875Z</time></trkpt><trkpt lat="42.2079367" lon="14.5960867"><ele>14.0</ele><time>2026-04-20T08:04:11.875Z</time></trkpt><trkpt lat="42.20791" lon="14.5961783"><ele>14.0</ele><time>2026-04-20T08:04:16.874Z</time></trkpt><trkpt lat="42.20787" lon="14.59627"><ele>14.0</ele><time>2026-04-20T08:04:21.875Z</time></trkpt><trkpt lat="42.2078267" lon="14.596355"><ele>14.0</ele><time>2026-04-20T08:04:26.875Z</time></trkpt><trkpt lat="42.2077967" lon="14.5964367"><ele>14.0</ele><time>2026-04-20T08:04:31.875Z</time></trkpt><trkpt lat="42.2077567" lon="14.59651"><ele>14.0</ele><time>2026-04-20T08:04:35.875Z</time></trkpt><trkpt lat="42.2077233" lon="14.59659"><ele>14.0</ele><time>2026-04-20T08:04:40.875Z</time></trkpt><trkpt lat="42.2076817" lon="14.59667"><ele>14.0</ele><time>2026-04-20T08:04:44.874Z</time></trkpt><trkpt lat="42.2076517" lon="14.5967483"><ele>14.0</ele><time>2026-04-20T08:04:48.875Z</time></trkpt><trkpt lat="42.2076267" lon="14.5968467"><ele>14.0</ele><time>2026-04-20T08:04:54.875Z</time></trkpt><trkpt lat="42.207595" lon="14.5969233"><ele>14.0</ele><time>2026-04-20T08:04:58.875Z</time></trkpt><trkpt lat="42.207565" lon="14.5970167"><ele>14.0</ele><time>2026-04-20T08:05:03.875Z</time></trkpt><trkpt lat="42.2075333" lon="14.5971133"><ele>14.0</ele><time>2026-04-20T08:05:08.874Z</time></trkpt><trkpt lat="42.2074983" lon="14.5972017"><ele>14.0</ele><time>2026-04-20T08:05:13.875Z</time></trkpt><trkpt lat="42.2074667" lon="14.59728"><ele>14.0</ele><time>2026-04-20T08:05:18.875Z</time></trkpt><trkpt lat="42.2074233" lon="14.5973667"><ele>14.0</ele><time>2026-04-20T08:05:24.874Z</time></trkpt><trkpt lat="42.2073917" lon="14.5974433"><ele>14.142857142857142</ele><time>2026-04-20T08:05:28.875Z</time></trkpt><trkpt lat="42.2073683" lon="14.59754"><ele>14.285714285714285</ele><time>2026-04-20T08:05:32.875Z</time></trkpt><trkpt lat="42.207335" lon="14.5976133"><ele>14.428571428571429</ele><time>2026-04-20T08:05:37.875Z</time></trkpt><trkpt lat="42.2072933" lon="14.5976917"><ele>14.571428571428571</ele><time>2026-04-20T08:05:42.874Z</time></trkpt><trkpt lat="42.2072533" lon="14.5977633"><ele>14.714285714285714</ele><time>2026-04-20T08:05:47.874Z</time></trkpt><trkpt lat="42.2072083" lon="14.5978283"><ele>14.857142857142858</ele><time>2026-04-20T08:05:53.874Z</time></trkpt><trkpt lat="42.2071633" lon="14.597905"><ele>15.0</ele><time>2026-04-20T08:05:58.875Z</time></trkpt><trkpt lat="42.20713" lon="14.5979967"><ele>15.0</ele><time>2026-04-20T08:06:03.875Z</time></trkpt><trkpt lat="42.207105" lon="14.5980833"><ele>15.0</ele><time>2026-04-20T08:06:07.874Z</time></trkpt><trkpt lat="42.2070567" lon="14.5981583"><ele>15.0</ele><time>2026-04-20T08:06:12.874Z</time></trkpt><trkpt lat="42.2070167" lon="14.59824"><ele>15.0</ele><time>2026-04-20T08:06:17.874Z</time></trkpt><trkpt lat="42.2069767" lon="14.598315"><ele>15.0</ele><time>2026-04-20T08:06:23.874Z</time></trkpt><trkpt lat="42.2069467" lon="14.598405"><ele>15.0</ele><time>2026-04-20T08:06:27.875Z</time></trkpt><trkpt lat="42.206915" lon="14.5984917"><ele>15.0</ele><time>2026-04-20T08:06:31.875Z</time></trkpt><trkpt lat="42.2068817" lon="14.5985683"><ele>14.0</ele><time>2026-04-20T08:06:35.875Z</time></trkpt><trkpt lat="42.2068583" lon="14.5986733"><ele>13.0</ele><time>2026-04-20T08:06:39.874Z</time></trkpt><trkpt lat="42.2068317" lon="14.5987567"><ele>12.0</ele><time>2026-04-20T08:06:43.874Z</time></trkpt><trkpt lat="42.2067883" lon="14.5988183"><ele>11.0</ele><time>2026-04-20T08:06:48.874Z</time></trkpt><trkpt lat="42.2067517" lon="14.5988917"><ele>10.0</ele><time>2026-04-20T08:06:53.875Z</time></trkpt><trkpt lat="42.2067117" lon="14.59896"><ele>9.0</ele><time>2026-04-20T08:06:57.875Z</time></trkpt><trkpt lat="42.2066733" lon="14.599035"><ele>8.0</ele><time>2026-04-20T08:07:02.874Z</time></trkpt><trkpt lat="42.20665" lon="14.5991167"><ele>8.0</ele><time>2026-04-20T08:07:06.875Z</time></trkpt><trkpt lat="42.20662" lon="14.5991917"><ele>7.999999999999999</ele><time>2026-04-20T08:07:10.874Z</time></trkpt><trkpt lat="42.2065883" lon="14.59927"><ele>8.0</ele><time>2026-04-20T08:07:14.875Z</time></trkpt><trkpt lat="42.20656" lon="14.5993517"><ele>8.0</ele><time>2026-04-20T08:07:18.875Z</time></trkpt><trkpt lat="42.2065267" lon="14.5994267"><ele>7.999999999999999</ele><time>2026-04-20T08:07:22.874Z</time></trkpt><trkpt lat="42.2064917" lon="14.5995133"><ele>8.0</ele><time>2026-04-20T08:07:27.874Z</time></trkpt><trkpt lat="42.2064633" lon="14.5995967"><ele>8.0</ele><time>2026-04-20T08:07:32.875Z</time></trkpt><trkpt lat="42.2064333" lon="14.5996733"><ele>8.428571428571429</ele><time>2026-04-20T08:07:36.875Z</time></trkpt><trkpt lat="42.206395" lon="14.599765"><ele>8.857142857142856</ele><time>2026-04-20T08:07:41.875Z</time></trkpt><trkpt lat="42.2063583" lon="14.5998517"><ele>9.285714285714285</ele><time>2026-04-20T08:07:46.875Z</time></trkpt><trkpt lat="42.2063217" lon="14.599945"><ele>9.714285714285714</ele><time>2026-04-20T08:07:51.875Z</time></trkpt><trkpt lat="42.2062717" lon="14.6000117"><ele>10.142857142857142</ele><time>2026-04-20T08:07:56.875Z</time></trkpt><trkpt lat="42.206225" lon="14.6000883"><ele>10.571428571428571</ele><time>2026-04-20T08:08:01.875Z</time></trkpt><trkpt lat="42.2061783" lon="14.60016"><ele>11.0</ele><time>2026-04-20T08:08:06.875Z</time></trkpt><trkpt lat="42.2061433" lon="14.60024"><ele>11.0</ele><time>2026-04-20T08:08:11.874Z</time></trkpt><trkpt lat="42.2061167" lon="14.60033"><ele>11.0</ele><time>2026-04-20T08:08:15.875Z</time></trkpt><trkpt lat="42.2060867" lon="14.6004183"><ele>11.0</ele><time>2026-04-20T08:08:20.874Z</time></trkpt><trkpt lat="42.2060467" lon="14.6004867"><ele>11.0</ele><time>2026-04-20T08:08:25.874Z</time></trkpt><trkpt lat="42.2060033" lon="14.6005733"><ele>11.0</ele><time>2026-04-20T08:08:30.875Z</time></trkpt><trkpt lat="42.2059717" lon="14.6006483"><ele>11.0</ele><time>2026-04-20T08:08:34.874Z</time></trkpt><trkpt lat="42.2059383" lon="14.6007367"><ele>11.0</ele><time>2026-04-20T08:08:39.875Z</time></trkpt><trkpt lat="42.205905" lon="14.600815"><ele>10.571428571428571</ele><time>2026-04-20T08:08:43.874Z</time></trkpt><trkpt lat="42.20588" lon="14.6009017"><ele>10.142857142857142</ele><time>2026-04-20T08:08:47.874Z</time></trkpt><trkpt lat="42.2058517" lon="14.6009833"><ele>9.714285714285714</ele><time>2026-04-20T08:08:51.874Z</time></trkpt><trkpt lat="42.20581" lon="14.601075"><ele>9.285714285714285</ele><time>2026-04-20T08:08:55.874Z</time></trkpt><trkpt lat="42.2057667" lon="14.6011583"><ele>8.857142857142856</ele><time>2026-04-20T08:09:00.875Z</time></trkpt><trkpt lat="42.205735" lon="14.601235"><ele>8.428571428571429</ele><time>2026-04-20T08:09:04.875Z</time></trkpt><trkpt lat="42.2057033" lon="14.6013167"><ele>8.0</ele><time>2026-04-20T08:09:09.875Z</time></trkpt><trkpt lat="42.2056633" lon="14.6014017"><ele>8.428571428571429</ele><time>2026-04-20T08:09:15.875Z</time></trkpt><trkpt lat="42.2056167" lon="14.6014817"><ele>8.857142857142856</ele><time>2026-04-20T08:09:20.875Z</time></trkpt><trkpt lat="42.2055683" lon="14.6015583"><ele>9.285714285714285</ele><time>2026-04-20T08:09:25.874Z</time></trkpt><trkpt lat="42.2055367" lon="14.601645"><ele>9.714285714285714</ele><time>2026-04-20T08:09:29.875Z</time></trkpt><trkpt lat="42.2055083" lon="14.6017333"><ele>10.142857142857142</ele><time>2026-04-20T08:09:34.875Z</time></trkpt><trkpt lat="42.205475" lon="14.6018117"><ele>10.571428571428571</ele><time>2026-04-20T08:09:38.875Z</time></trkpt><trkpt lat="42.2054383" lon="14.60189"><ele>11.0</ele><time>2026-04-20T08:09:43.875Z</time></trkpt><trkpt lat="42.2054017" lon="14.6019767"><ele>10.428571428571429</ele><time>2026-04-20T08:09:48.875Z</time></trkpt><trkpt lat="42.2053667" lon="14.6020583"><ele>9.857142857142858</ele><time>2026-04-20T08:09:53.875Z</time></trkpt><trkpt lat="42.205315" lon="14.602135"><ele>9.285714285714285</ele><time>2026-04-20T08:09:58.874Z</time></trkpt><trkpt lat="42.20528" lon="14.602215"><ele>8.714285714285715</ele><time>2026-04-20T08:10:03.875Z</time></trkpt><trkpt lat="42.205245" lon="14.6023"><ele>8.142857142857142</ele><time>2026-04-20T08:10:08.875Z</time></trkpt><trkpt lat="42.2052033" lon="14.602395"><ele>7.571428571428571</ele><time>2026-04-20T08:10:13.875Z</time></trkpt><trkpt lat="42.2051667" lon="14.60248"><ele>7.0</ele><time>2026-04-20T08:10:18.875Z</time></trkpt><trkpt lat="42.20513" lon="14.6025767"><ele>7.0</ele><time>2026-04-20T08:10:23.875Z</time></trkpt><trkpt lat="42.2051017" lon="14.602655"><ele>7.0</ele><time>2026-04-20T08:10:27.875Z</time></trkpt><trkpt lat="42.20506" lon="14.6027467"><ele>7.0</ele><time>2026-04-20T08:10:32.874Z</time></trkpt><trkpt lat="42.2050283" lon="14.6028433"><ele>7.0</ele><time>2026-04-20T08:10:37.874Z</time></trkpt><trkpt lat="42.2049867" lon="14.6029233"><ele>7.0</ele><time>2026-04-20T08:10:42.874Z</time></trkpt><trkpt lat="42.2049617" lon="14.6030067"><ele>7.0</ele><time>2026-04-20T08:10:46.874Z</time></trkpt><trkpt lat="42.20492" lon="14.6030917"><ele>7.0</ele><time>2026-04-20T08:10:51.874Z</time></trkpt><trkpt lat="42.2048933" lon="14.6031817"><ele>6.571428571428571</ele><time>2026-04-20T08:10:56.874Z</time></trkpt><trkpt lat="42.2048617" lon="14.6032617"><ele>6.142857142857142</ele><time>2026-04-20T08:11:01.874Z</time></trkpt><trkpt lat="42.2048233" lon="14.6033517"><ele>5.714285714285714</ele><time>2026-04-20T08:11:06.875Z</time></trkpt><trkpt lat="42.204775" lon="14.6034083"><ele>5.285714285714286</ele><time>2026-04-20T08:11:10.874Z</time></trkpt><trkpt lat="42.2047267" lon="14.6034733"><ele>4.857142857142857</ele><time>2026-04-20T08:11:15.873Z</time></trkpt><trkpt lat="42.2046817" lon="14.603545"><ele>4.428571428571429</ele><time>2026-04-20T08:11:20.873Z</time></trkpt><trkpt lat="42.2046483" lon="14.6036183"><ele>4.0</ele><time>2026-04-20T08:11:24.873Z</time></trkpt><trkpt lat="42.2046067" lon="14.60371"><ele>3.4285714285714284</ele><time>2026-04-20T08:11:29.874Z</time></trkpt><trkpt lat="42.2045733" lon="14.6037833"><ele>2.8571428571428568</ele><time>2026-04-20T08:11:33.873Z</time></trkpt><trkpt lat="42.20454" lon="14.6038633"><ele>2.2857142857142856</ele><time>2026-04-20T08:11:37.874Z</time></trkpt><trkpt lat="42.20451" lon="14.6039467"><ele>1.7142857142857142</ele><time>2026-04-20T08:11:41.873Z</time></trkpt><trkpt lat="42.2044833" lon="14.6040417"><ele>1.1428571428571428</ele><time>2026-04-20T08:11:46.874Z</time></trkpt><trkpt lat="42.204435" lon="14.6041183"><ele>0.5714285714285714</ele><time>2026-04-20T08:11:51.874Z</time></trkpt><trkpt lat="42.2043933" lon="14.6041967"><ele>0.0</ele><time>2026-04-20T08:11:56.874Z</time></trkpt><trkpt lat="42.2043567" lon="14.604275"><ele>0.0</ele><time>2026-04-20T08:12:01.874Z</time></trkpt><trkpt lat="42.204315" lon="14.6043567"><ele>0.0</ele><time>2026-04-20T08:12:06.874Z</time></trkpt><trkpt lat="42.2042767" lon="14.604455"><ele>0.0</ele><time>2026-04-20T08:12:11.874Z</time></trkpt><trkpt lat="42.2042433" lon="14.60453"><ele>0.0</ele><time>2026-04-20T08:12:15.874Z</time></trkpt><trkpt lat="42.2042017" lon="14.6046167"><ele>0.0</ele><time>2026-04-20T08:12:20.874Z</time></trkpt><trkpt lat="42.2041733" lon="14.6046967"><ele>0.0</ele><time>2026-04-20T08:12:24.874Z</time></trkpt><trkpt lat="42.2041433" lon="14.604785"><ele>0.0</ele><time>2026-04-20T08:12:29.874Z</time></trkpt><trkpt lat="42.20411" lon="14.6048667"><ele>0.0</ele><time>2026-04-20T08:12:34.873Z</time></trkpt><trkpt lat="42.2040633" lon="14.60495"><ele>0.0</ele><time>2026-04-20T08:12:39.874Z</time></trkpt><trkpt lat="42.204025" lon="14.6050383"><ele>0.0</ele><time>2026-04-20T08:12:44.874Z</time></trkpt><trkpt lat="42.2039833" lon="14.6051217"><ele>0.0</ele><time>2026-04-20T08:12:49.874Z</time></trkpt><trkpt lat="42.2039517" lon="14.6051983"><ele>0.0</ele><time>2026-04-20T08:12:53.874Z</time></trkpt><trkpt lat="42.203915" lon="14.6052833"><ele>0.0</ele><time>2026-04-20T08:12:58.874Z</time></trkpt><trkpt lat="42.2038817" lon="14.6053617"><ele>0.0</ele><time>2026-04-20T08:13:03.874Z</time></trkpt><trkpt lat="42.2038467" lon="14.6054433"><ele>0.0</ele><time>2026-04-20T08:13:07.874Z</time></trkpt><trkpt lat="42.2038083" lon="14.60553"><ele>0.0</ele><time>2026-04-20T08:13:12.873Z</time></trkpt><trkpt lat="42.203775" lon="14.60562"><ele>0.0</ele><time>2026-04-20T08:13:17.874Z</time></trkpt><trkpt lat="42.203735" lon="14.605705"><ele>0.0</ele><time>2026-04-20T08:13:22.874Z</time></trkpt><trkpt lat="42.2037" lon="14.6057867"><ele>0.0</ele><time>2026-04-20T08:13:27.874Z</time></trkpt><trkpt lat="42.2036633" lon="14.6058583"><ele>0.0</ele><time>2026-04-20T08:13:31.874Z</time></trkpt><trkpt lat="42.2036233" lon="14.6059483"><ele>0.0</ele><time>2026-04-20T08:13:36.873Z</time></trkpt><trkpt lat="42.2035883" lon="14.606035"><ele>0.0</ele><time>2026-04-20T08:13:41.873Z</time></trkpt><trkpt lat="42.2035467" lon="14.60612"><ele>0.0</ele><time>2026-04-20T08:13:46.873Z</time></trkpt><trkpt lat="42.2035133" lon="14.6061933"><ele>0.0</ele><time>2026-04-20T08:13:51.874Z</time></trkpt><trkpt lat="42.2034833" lon="14.6062833"><ele>0.0</ele><time>2026-04-20T08:13:56.874Z</time></trkpt><trkpt lat="42.203455" lon="14.606365"><ele>0.0</ele><time>2026-04-20T08:14:00.874Z</time></trkpt><trkpt lat="42.2034167" lon="14.6064333"><ele>0.0</ele><time>2026-04-20T08:14:04.873Z</time></trkpt><trkpt lat="42.2033917" lon="14.6065167"><ele>0.0</ele><time>2026-04-20T08:14:08.874Z</time></trkpt><trkpt lat="42.20335" lon="14.6065867"><ele>0.14285714285714285</ele><time>2026-04-20T08:14:13.873Z</time></trkpt><trkpt lat="42.2033117" lon="14.6066567"><ele>0.2857142857142857</ele><time>2026-04-20T08:14:18.874Z</time></trkpt><trkpt lat="42.203275" lon="14.606745"><ele>0.42857142857142855</ele><time>2026-04-20T08:14:23.873Z</time></trkpt><trkpt lat="42.2032383" lon="14.6068283"><ele>0.5714285714285714</ele><time>2026-04-20T08:14:28.873Z</time></trkpt><trkpt lat="42.2032017" lon="14.60692"><ele>0.7142857142857142</ele><time>2026-04-20T08:14:33.874Z</time></trkpt><trkpt lat="42.2031633" lon="14.6070067"><ele>0.8571428571428571</ele><time>2026-04-20T08:14:38.874Z</time></trkpt><trkpt lat="42.2031333" lon="14.6070933"><ele>1.0</ele><time>2026-04-20T08:14:43.874Z</time></trkpt><trkpt lat="42.2031017" lon="14.60717"><ele>1.2857142857142856</ele><time>2026-04-20T08:14:47.874Z</time></trkpt><trkpt lat="42.20306" lon="14.6072617"><ele>1.5714285714285712</ele><time>2026-04-20T08:14:52.874Z</time></trkpt><trkpt lat="42.2030183" lon="14.607345"><ele>1.857142857142857</ele><time>2026-04-20T08:14:57.873Z</time></trkpt><trkpt lat="42.202985" lon="14.6074267"><ele>2.142857142857143</ele><time>2026-04-20T08:15:02.874Z</time></trkpt><trkpt lat="42.2029483" lon="14.6075"><ele>2.4285714285714284</ele><time>2026-04-20T08:15:07.873Z</time></trkpt><trkpt lat="42.20291" lon="14.6075833"><ele>2.714285714285714</ele><time>2026-04-20T08:15:12.874Z</time></trkpt><trkpt lat="42.20288" lon="14.60766"><ele>3.0</ele><time>2026-04-20T08:15:16.874Z</time></trkpt><trkpt lat="42.2028483" lon="14.6077367"><ele>2.9999999999999996</ele><time>2026-04-20T08:15:21.874Z</time></trkpt><trkpt lat="42.202805" lon="14.6078233"><ele>3.0</ele><time>2026-04-20T08:15:26.874Z</time></trkpt><trkpt lat="42.202765" lon="14.607915"><ele>3.0</ele><time>2026-04-20T08:15:31.874Z</time></trkpt><trkpt lat="42.2027267" lon="14.608"><ele>3.0</ele><time>2026-04-20T08:15:36.873Z</time></trkpt><trkpt lat="42.2026917" lon="14.6080767"><ele>3.0</ele><time>2026-04-20T08:15:40.874Z</time></trkpt><trkpt lat="42.2026483" lon="14.60816"><ele>2.9999999999999996</ele><time>2026-04-20T08:15:45.873Z</time></trkpt><trkpt lat="42.20262" lon="14.6082367"><ele>3.0</ele><time>2026-04-20T08:15:49.874Z</time></trkpt><trkpt lat="42.2025883" lon="14.60833"><ele>3.1428571428571423</ele><time>2026-04-20T08:15:54.874Z</time></trkpt><trkpt lat="42.20256" lon="14.6084083"><ele>3.2857142857142856</ele><time>2026-04-20T08:15:58.873Z</time></trkpt><trkpt lat="42.20252" lon="14.60849"><ele>3.4285714285714284</ele><time>2026-04-20T08:16:03.874Z</time></trkpt><trkpt lat="42.2024817" lon="14.608575"><ele>3.571428571428571</ele><time>2026-04-20T08:16:08.874Z</time></trkpt><trkpt lat="42.202455" lon="14.6086617"><ele>3.714285714285714</ele><time>2026-04-20T08:16:13.874Z</time></trkpt><trkpt lat="42.2024183" lon="14.6087367"><ele>3.8571428571428568</ele><time>2026-04-20T08:16:17.874Z</time></trkpt><trkpt lat="42.20238" lon="14.6088267"><ele>4.0</ele><time>2026-04-20T08:16:22.874Z</time></trkpt><trkpt lat="42.2023483" lon="14.6089233"><ele>3.8571428571428568</ele><time>2026-04-20T08:16:27.873Z</time></trkpt><trkpt lat="42.2023167" lon="14.6090067"><ele>3.714285714285714</ele><time>2026-04-20T08:16:32.874Z</time></trkpt><trkpt lat="42.20228" lon="14.6090933"><ele>3.571428571428571</ele><time>2026-04-20T08:16:37.873Z</time></trkpt><trkpt lat="42.2022433" lon="14.6091717"><ele>3.4285714285714284</ele><time>2026-04-20T08:16:42.874Z</time></trkpt><trkpt lat="42.2022083" lon="14.6092633"><ele>3.2857142857142856</ele><time>2026-04-20T08:16:47.874Z</time></trkpt><trkpt lat="42.2021717" lon="14.60935"><ele>3.1428571428571423</ele><time>2026-04-20T08:16:52.874Z</time></trkpt><trkpt lat="42.202135" lon="14.6094367"><ele>3.0</ele><time>2026-04-20T08:16:57.874Z</time></trkpt><trkpt lat="42.2021033" lon="14.60952"><ele>2.9999999999999996</ele><time>2026-04-20T08:17:02.874Z</time></trkpt><trkpt lat="42.2020733" lon="14.6096083"><ele>3.0</ele><time>2026-04-20T08:17:07.873Z</time></trkpt><trkpt lat="42.20204" lon="14.6096867"><ele>3.0</ele><time>2026-04-20T08:17:11.874Z</time></trkpt><trkpt lat="42.2020017" lon="14.6097633"><ele>3.0</ele><time>2026-04-20T08:17:16.874Z</time></trkpt><trkpt lat="42.2019817" lon="14.60985"><ele>3.0</ele><time>2026-04-20T08:17:21.874Z</time></trkpt><trkpt lat="42.2019583" lon="14.6099417"><ele>2.9999999999999996</ele><time>2026-04-20T08:17:25.873Z</time></trkpt><trkpt lat="42.2019517" lon="14.61004"><ele>3.0</ele><time>2026-04-20T08:17:30.873Z</time></trkpt><trkpt lat="42.2019467" lon="14.610125"><ele>2.9999999999999996</ele><time>2026-04-20T08:17:34.874Z</time></trkpt><trkpt lat="42.201945" lon="14.6102233"><ele>3.0</ele><time>2026-04-20T08:17:39.873Z</time></trkpt><trkpt lat="42.2019483" lon="14.61031"><ele>3.0</ele><time>2026-04-20T08:17:43.874Z</time></trkpt><trkpt lat="42.20195" lon="14.610395"><ele>3.0</ele><time>2026-04-20T08:17:47.874Z</time></trkpt><trkpt lat="42.2019533" lon="14.61048"><ele>3.0</ele><time>2026-04-20T08:17:51.874Z</time></trkpt><trkpt lat="42.2019367" lon="14.610565"><ele>2.9999999999999996</ele><time>2026-04-20T08:17:55.874Z</time></trkpt><trkpt lat="42.2018933" lon="14.6106483"><ele>3.0</ele><time>2026-04-20T08:18:01.874Z</time></trkpt><trkpt lat="42.2018517" lon="14.610725"><ele>3.2857142857142856</ele><time>2026-04-20T08:18:07.874Z</time></trkpt><trkpt lat="42.2018283" lon="14.6108133"><ele>3.571428571428571</ele><time>2026-04-20T08:18:11.873Z</time></trkpt><trkpt lat="42.20181" lon="14.6109117"><ele>3.8571428571428568</ele><time>2026-04-20T08:18:15.874Z</time></trkpt><trkpt lat="42.2017767" lon="14.6109867"><ele>4.142857142857142</ele><time>2026-04-20T08:18:20.874Z</time></trkpt><trkpt lat="42.20174" lon="14.6110717"><ele>4.428571428571429</ele><time>2026-04-20T08:18:25.873Z</time></trkpt><trkpt lat="42.201715" lon="14.6111517"><ele>4.714285714285714</ele><time>2026-04-20T08:18:29.874Z</time></trkpt><trkpt lat="42.2016867" lon="14.6112367"><ele>5.0</ele><time>2026-04-20T08:18:33.873Z</time></trkpt><trkpt lat="42.20165" lon="14.6113217"><ele>5.0</ele><time>2026-04-20T08:18:38.874Z</time></trkpt><trkpt lat="42.20162" lon="14.6114083"><ele>5.0</ele><time>2026-04-20T08:18:43.874Z</time></trkpt><trkpt lat="42.201595" lon="14.6114933"><ele>5.0</ele><time>2026-04-20T08:18:48.874Z</time></trkpt><trkpt lat="42.201565" lon="14.61157"><ele>5.0</ele><time>2026-04-20T08:18:53.874Z</time></trkpt><trkpt lat="42.201525" lon="14.611655"><ele>5.0</ele><time>2026-04-20T08:18:58.873Z</time></trkpt><trkpt lat="42.2015" lon="14.6117533"><ele>5.0</ele><time>2026-04-20T08:19:03.873Z</time></trkpt><trkpt lat="42.20148" lon="14.61184"><ele>5.0</ele><time>2026-04-20T08:19:08.874Z</time></trkpt><trkpt lat="42.2014567" lon="14.6119283"><ele>5.142857142857142</ele><time>2026-04-20T08:19:13.873Z</time></trkpt><trkpt lat="42.2014467" lon="14.6120217"><ele>5.285714285714286</ele><time>2026-04-20T08:19:17.874Z</time></trkpt><trkpt lat="42.201415" lon="14.6121133"><ele>5.428571428571429</ele><time>2026-04-20T08:19:22.874Z</time></trkpt><trkpt lat="42.2013833" lon="14.6121933"><ele>5.571428571428571</ele><time>2026-04-20T08:19:27.874Z</time></trkpt><trkpt lat="42.201355" lon="14.6122867"><ele>5.714285714285714</ele><time>2026-04-20T08:19:32.874Z</time></trkpt><trkpt lat="42.2013217" lon="14.612375"><ele>5.857142857142857</ele><time>2026-04-20T08:19:37.873Z</time></trkpt><trkpt lat="42.2012983" lon="14.6124617"><ele>6.0</ele><time>2026-04-20T08:19:42.874Z</time></trkpt><trkpt lat="42.201275" lon="14.6125517"><ele>5.999999999999999</ele><time>2026-04-20T08:19:47.874Z</time></trkpt><trkpt lat="42.2012567" lon="14.6126433"><ele>6.0</ele><time>2026-04-20T08:19:52.874Z</time></trkpt><trkpt lat="42.201225" lon="14.6127183"><ele>6.0</ele><time>2026-04-20T08:19:57.874Z</time></trkpt><trkpt lat="42.201205" lon="14.6128117"><ele>6.0</ele><time>2026-04-20T08:20:02.873Z</time></trkpt><trkpt lat="42.201185" lon="14.6129017"><ele>6.0</ele><time>2026-04-20T08:20:06.874Z</time></trkpt><trkpt lat="42.201175" lon="14.6129917"><ele>5.999999999999999</ele><time>2026-04-20T08:20:11.874Z</time></trkpt><trkpt lat="42.2011367" lon="14.6130617"><ele>6.0</ele><time>2026-04-20T08:20:15.873Z</time></trkpt><trkpt lat="42.201105" lon="14.6131383"><ele>6.142857142857142</ele><time>2026-04-20T08:20:19.873Z</time></trkpt><trkpt lat="42.2010767" lon="14.61322"><ele>6.285714285714286</ele><time>2026-04-20T08:20:24.873Z</time></trkpt><trkpt lat="42.2010467" lon="14.6133117"><ele>6.428571428571429</ele><time>2026-04-20T08:20:29.873Z</time></trkpt><trkpt lat="42.2010167" lon="14.613405"><ele>6.571428571428571</ele><time>2026-04-20T08:20:34.873Z</time></trkpt><trkpt lat="42.2009967" lon="14.6135"><ele>6.714285714285714</ele><time>2026-04-20T08:20:39.874Z</time></trkpt><trkpt lat="42.2009617" lon="14.6135933"><ele>6.857142857142857</ele><time>2026-04-20T08:20:45.874Z</time></trkpt><trkpt lat="42.20093" lon="14.6136783"><ele>7.0</ele><time>2026-04-20T08:20:50.874Z</time></trkpt><trkpt lat="42.200895" lon="14.6137633"><ele>6.714285714285714</ele><time>2026-04-20T08:20:55.874Z</time></trkpt><trkpt lat="42.2008667" lon="14.6138567"><ele>6.428571428571429</ele><time>2026-04-20T08:21:00.874Z</time></trkpt><trkpt lat="42.2008467" lon="14.6139517"><ele>6.142857142857142</ele><time>2026-04-20T08:21:05.874Z</time></trkpt><trkpt lat="42.200835" lon="14.614045"><ele>5.857142857142858</ele><time>2026-04-20T08:21:10.874Z</time></trkpt><trkpt lat="42.2008117" lon="14.61414"><ele>5.571428571428571</ele><time>2026-04-20T08:21:15.874Z</time></trkpt><trkpt lat="42.2007783" lon="14.614235"><ele>5.285714285714286</ele><time>2026-04-20T08:21:20.873Z</time></trkpt><trkpt lat="42.20076" lon="14.6143317"><ele>5.0</ele><time>2026-04-20T08:21:25.874Z</time></trkpt><trkpt lat="42.20073" lon="14.61443"><ele>4.714285714285714</ele><time>2026-04-20T08:21:30.873Z</time></trkpt><trkpt lat="42.2006967" lon="14.614515"><ele>4.428571428571429</ele><time>2026-04-20T08:21:35.873Z</time></trkpt><trkpt lat="42.2006767" lon="14.6145983"><ele>4.142857142857142</ele><time>2026-04-20T08:21:40.874Z</time></trkpt><trkpt lat="42.2006683" lon="14.6146933"><ele>3.8571428571428568</ele><time>2026-04-20T08:21:44.874Z</time></trkpt><trkpt lat="42.2006733" lon="14.614795"><ele>3.571428571428571</ele><time>2026-04-20T08:21:50.874Z</time></trkpt><trkpt lat="42.2006767" lon="14.61488"><ele>3.2857142857142856</ele><time>2026-04-20T08:21:54.873Z</time></trkpt><trkpt lat="42.2006433" lon="14.615"><ele>3.0</ele><time>2026-04-20T08:22:01.874Z</time></trkpt><trkpt lat="42.2006183" lon="14.61508"><ele>3.1666666666666665</ele><time>2026-04-20T08:22:05.874Z</time></trkpt><trkpt lat="42.2005867" lon="14.6151567"><ele>3.333333333333333</ele><time>2026-04-20T08:22:09.874Z</time></trkpt><trkpt lat="42.2005433" lon="14.6152283"><ele>3.5</ele><time>2026-04-20T08:22:15.874Z</time></trkpt><trkpt lat="42.2004833" lon="14.6152817"><ele>3.6666666666666665</ele><time>2026-04-20T08:22:21.874Z</time></trkpt><trkpt lat="42.2004383" lon="14.6153567"><ele>3.833333333333333</ele><time>2026-04-20T08:22:27.874Z</time></trkpt><trkpt lat="42.2003867" lon="14.615285"><ele>4.0</ele><time>2026-04-20T08:23:33.376Z</time></trkpt><trkpt lat="42.2003433" lon="14.6154083"><ele>3.9999999999999996</ele><time>2026-04-20T08:23:34.376Z</time></trkpt><trkpt lat="42.2003233" lon="14.6155183"><ele>4.0</ele><time>2026-04-20T08:46:33.878Z</time></trkpt><trkpt lat="42.2002883" lon="14.615625"><ele>4.0</ele><time>2026-04-20T08:46:36.879Z</time></trkpt><trkpt lat="42.200255" lon="14.6157283"><ele>4.0</ele><time>2026-04-20T08:46:39.879Z</time></trkpt><trkpt lat="42.200215" lon="14.6158383"><ele>3.9999999999999996</ele><time>2026-04-20T08:46:42.879Z</time></trkpt><trkpt lat="42.2001767" lon="14.61596"><ele>4.0</ele><time>2026-04-20T08:46:45.878Z</time></trkpt><trkpt lat="42.2001467" lon="14.6160467"><ele>4.0</ele><time>2026-04-20T08:46:47.878Z</time></trkpt><trkpt lat="42.2001167" lon="14.6161417"><ele>4.0</ele><time>2026-04-20T08:46:49.879Z</time></trkpt><trkpt lat="42.2000783" lon="14.616245"><ele>4.0</ele><time>2026-04-20T08:46:51.879Z</time></trkpt><trkpt lat="42.2000417" lon="14.6163633"><ele>4.0</ele><time>2026-04-20T08:46:53.879Z</time></trkpt><trkpt lat="42.2000033" lon="14.6164917"><ele>4.0</ele><time>2026-04-20T08:46:55.879Z</time></trkpt><trkpt lat="42.199965" lon="14.6166033"><ele>4.4</ele><time>2026-04-20T08:46:57.878Z</time></trkpt><trkpt lat="42.1999267" lon="14.6167167"><ele>4.800000000000001</ele><time>2026-04-20T08:46:59.879Z</time></trkpt><trkpt lat="42.1998967" lon="14.6168367"><ele>5.199999999999999</ele><time>2026-04-20T08:47:01.878Z</time></trkpt><trkpt lat="42.199865" lon="14.6169483"><ele>5.6</ele><time>2026-04-20T08:47:03.878Z</time></trkpt><trkpt lat="42.199815" lon="14.6170617"><ele>6.0</ele><time>2026-04-20T08:47:05.878Z</time></trkpt><trkpt lat="42.199775" lon="14.61718"><ele>6.0</ele><time>2026-04-20T08:47:07.879Z</time></trkpt><trkpt lat="42.19974" lon="14.6172917"><ele>6.0</ele><time>2026-04-20T08:47:09.879Z</time></trkpt><trkpt lat="42.1997067" lon="14.6174033"><ele>6.0</ele><time>2026-04-20T08:47:11.879Z</time></trkpt><trkpt lat="42.1996683" lon="14.6175083"><ele>6.0</ele><time>2026-04-20T08:47:13.879Z</time></trkpt><trkpt lat="42.1996317" lon="14.6176117"><ele>6.0</ele><time>2026-04-20T08:47:15.878Z</time></trkpt><trkpt lat="42.199595" lon="14.617725"><ele>6.0</ele><time>2026-04-20T08:47:17.878Z</time></trkpt><trkpt lat="42.1995567" lon="14.6178367"><ele>5.5</ele><time>2026-04-20T08:47:19.879Z</time></trkpt><trkpt lat="42.1995217" lon="14.6179517"><ele>5.0</ele><time>2026-04-20T08:47:21.879Z</time></trkpt><trkpt lat="42.1994867" lon="14.618065"><ele>4.5</ele><time>2026-04-20T08:47:23.879Z</time></trkpt><trkpt lat="42.1994467" lon="14.6181783"><ele>4.0</ele><time>2026-04-20T08:47:25.879Z</time></trkpt><trkpt lat="42.19941" lon="14.61828"><ele>3.5</ele><time>2026-04-20T08:47:27.879Z</time></trkpt><trkpt lat="42.19937" lon="14.618385"><ele>3.0</ele><time>2026-04-20T08:47:29.879Z</time></trkpt><trkpt lat="42.1993333" lon="14.6184883"><ele>3.0</ele><time>2026-04-20T08:47:31.878Z</time></trkpt><trkpt lat="42.199295" lon="14.6185933"><ele>3.0</ele><time>2026-04-20T08:47:33.878Z</time></trkpt><trkpt lat="42.1992533" lon="14.6186967"><ele>3.0</ele><time>2026-04-20T08:47:35.879Z</time></trkpt><trkpt lat="42.1992183" lon="14.6188033"><ele>3.0</ele><time>2026-04-20T08:47:37.879Z</time></trkpt><trkpt lat="42.1991833" lon="14.6189133"><ele>3.0</ele><time>2026-04-20T08:47:39.878Z</time></trkpt><trkpt lat="42.19915" lon="14.6190233"><ele>3.0</ele><time>2026-04-20T08:47:41.879Z</time></trkpt><trkpt lat="42.1991217" lon="14.6191367"><ele>2.8333333333333335</ele><time>2026-04-20T08:47:43.879Z</time></trkpt><trkpt lat="42.1990867" lon="14.619245"><ele>2.6666666666666665</ele><time>2026-04-20T08:47:45.879Z</time></trkpt><trkpt lat="42.1990467" lon="14.6193583"><ele>2.5</ele><time>2026-04-20T08:47:47.879Z</time></trkpt><trkpt lat="42.1990083" lon="14.6194683"><ele>2.333333333333333</ele><time>2026-04-20T08:47:49.879Z</time></trkpt><trkpt lat="42.1989717" lon="14.6195767"><ele>2.1666666666666665</ele><time>2026-04-20T08:47:51.878Z</time></trkpt><trkpt lat="42.19893" lon="14.6196817"><ele>2.0</ele><time>2026-04-20T08:47:53.878Z</time></trkpt><trkpt lat="42.1988917" lon="14.6197933"><ele>3.4000000000000004</ele><time>2026-04-20T08:47:55.879Z</time></trkpt><trkpt lat="42.1988583" lon="14.6199133"><ele>4.800000000000001</ele><time>2026-04-20T08:47:57.879Z</time></trkpt><trkpt lat="42.1988233" lon="14.62003"><ele>6.2</ele><time>2026-04-20T08:47:59.879Z</time></trkpt><trkpt lat="42.1987883" lon="14.6201467"><ele>7.6000000000000005</ele><time>2026-04-20T08:48:01.879Z</time></trkpt><trkpt lat="42.198745" lon="14.620265"><ele>9.0</ele><time>2026-04-20T08:48:03.879Z</time></trkpt><trkpt lat="42.1987133" lon="14.62038"><ele>9.0</ele><time>2026-04-20T08:48:05.879Z</time></trkpt><trkpt lat="42.1986833" lon="14.620495"><ele>9.0</ele><time>2026-04-20T08:48:07.878Z</time></trkpt><trkpt lat="42.1986483" lon="14.6206133"><ele>9.0</ele><time>2026-04-20T08:48:09.879Z</time></trkpt><trkpt lat="42.198615" lon="14.6207317"><ele>9.0</ele><time>2026-04-20T08:48:11.879Z</time></trkpt><trkpt lat="42.1985883" lon="14.6208583"><ele>9.0</ele><time>2026-04-20T08:48:13.879Z</time></trkpt><trkpt lat="42.19856" lon="14.6209833"><ele>9.0</ele><time>2026-04-20T08:48:15.879Z</time></trkpt><trkpt lat="42.1985233" lon="14.6211"><ele>9.0</ele><time>2026-04-20T08:48:17.878Z</time></trkpt><trkpt lat="42.1984933" lon="14.6212167"><ele>9.0</ele><time>2026-04-20T08:48:19.879Z</time></trkpt><trkpt lat="42.1984617" lon="14.6213317"><ele>9.0</ele><time>2026-04-20T08:48:21.879Z</time></trkpt><trkpt lat="42.1984267" lon="14.621445"><ele>9.0</ele><time>2026-04-20T08:48:23.878Z</time></trkpt><trkpt lat="42.1983917" lon="14.6215633"><ele>8.8</ele><time>2026-04-20T08:48:25.878Z</time></trkpt><trkpt lat="42.1983583" lon="14.6216867"><ele>8.600000000000001</ele><time>2026-04-20T08:48:27.879Z</time></trkpt><trkpt lat="42.1983233" lon="14.621795"><ele>8.4</ele><time>2026-04-20T08:48:29.879Z</time></trkpt><trkpt lat="42.1982933" lon="14.6219083"><ele>8.200000000000001</ele><time>2026-04-20T08:48:31.879Z</time></trkpt><trkpt lat="42.198265" lon="14.6220217"><ele>8.0</ele><time>2026-04-20T08:48:33.879Z</time></trkpt><trkpt lat="42.198235" lon="14.622135"><ele>7.2</ele><time>2026-04-20T08:48:35.879Z</time></trkpt><trkpt lat="42.198205" lon="14.622255"><ele>6.4</ele><time>2026-04-20T08:48:37.878Z</time></trkpt><trkpt lat="42.1981717" lon="14.6223733"><ele>5.6000000000000005</ele><time>2026-04-20T08:48:39.879Z</time></trkpt><trkpt lat="42.1981367" lon="14.62249"><ele>4.800000000000001</ele><time>2026-04-20T08:48:41.878Z</time></trkpt><trkpt lat="42.1981017" lon="14.6226067"><ele>4.0</ele><time>2026-04-20T08:48:43.879Z</time></trkpt><trkpt lat="42.1980667" lon="14.6227267"><ele>5.4</ele><time>2026-04-20T08:48:45.879Z</time></trkpt><trkpt lat="42.1980333" lon="14.6228467"><ele>6.800000000000001</ele><time>2026-04-20T08:48:47.878Z</time></trkpt><trkpt lat="42.1979917" lon="14.6229633"><ele>8.200000000000001</ele><time>2026-04-20T08:48:49.879Z</time></trkpt><trkpt lat="42.197955" lon="14.62308"><ele>9.600000000000001</ele><time>2026-04-20T08:48:51.879Z</time></trkpt><trkpt lat="42.1979233" lon="14.6232"><ele>11.0</ele><time>2026-04-20T08:48:53.878Z</time></trkpt><trkpt lat="42.1978967" lon="14.6233183"><ele>11.0</ele><time>2026-04-20T08:48:55.879Z</time></trkpt><trkpt lat="42.197865" lon="14.623435"><ele>11.0</ele><time>2026-04-20T08:48:57.879Z</time></trkpt><trkpt lat="42.1978317" lon="14.6235517"><ele>11.0</ele><time>2026-04-20T08:48:59.879Z</time></trkpt><trkpt lat="42.1977967" lon="14.6236717"><ele>11.0</ele><time>2026-04-20T08:49:01.879Z</time></trkpt><trkpt lat="42.1977583" lon="14.6237883"><ele>11.0</ele><time>2026-04-20T08:49:03.878Z</time></trkpt><trkpt lat="42.197725" lon="14.62391"><ele>10.600000000000001</ele><time>2026-04-20T08:49:05.879Z</time></trkpt><trkpt lat="42.1976917" lon="14.624035"><ele>10.200000000000001</ele><time>2026-04-20T08:49:07.879Z</time></trkpt><trkpt lat="42.1976567" lon="14.6241567"><ele>9.8</ele><time>2026-04-20T08:49:09.878Z</time></trkpt><trkpt lat="42.1976217" lon="14.6242767"><ele>9.4</ele><time>2026-04-20T08:49:11.878Z</time></trkpt><trkpt lat="42.1975783" lon="14.624395"><ele>9.0</ele><time>2026-04-20T08:49:13.878Z</time></trkpt><trkpt lat="42.1975367" lon="14.62451"><ele>8.2</ele><time>2026-04-20T08:49:15.879Z</time></trkpt><trkpt lat="42.1975" lon="14.6246233"><ele>7.4</ele><time>2026-04-20T08:49:17.879Z</time></trkpt><trkpt lat="42.1974617" lon="14.6247367"><ele>6.6</ele><time>2026-04-20T08:49:19.879Z</time></trkpt><trkpt lat="42.1974217" lon="14.6248533"><ele>5.8</ele><time>2026-04-20T08:49:21.879Z</time></trkpt><trkpt lat="42.1973783" lon="14.6249683"><ele>5.0</ele><time>2026-04-20T08:49:23.879Z</time></trkpt><trkpt lat="42.197335" lon="14.62508"><ele>5.4</ele><time>2026-04-20T08:49:25.879Z</time></trkpt><trkpt lat="42.1972967" lon="14.6251967"><ele>5.8</ele><time>2026-04-20T08:49:27.878Z</time></trkpt><trkpt lat="42.1972567" lon="14.6253133"><ele>6.199999999999999</ele><time>2026-04-20T08:49:29.879Z</time></trkpt><trkpt lat="42.1972117" lon="14.6254283"><ele>6.6</ele><time>2026-04-20T08:49:31.879Z</time></trkpt><trkpt lat="42.1971683" lon="14.6255483"><ele>7.0</ele><time>2026-04-20T08:49:33.878Z</time></trkpt><trkpt lat="42.1971283" lon="14.6256633"><ele>7.0</ele><time>2026-04-20T08:49:35.879Z</time></trkpt><trkpt lat="42.1970833" lon="14.625775"><ele>6.999999999999999</ele><time>2026-04-20T08:49:37.878Z</time></trkpt><trkpt lat="42.19704" lon="14.6258867"><ele>6.999999999999999</ele><time>2026-04-20T08:49:39.878Z</time></trkpt><trkpt lat="42.197" lon="14.6259983"><ele>7.0</ele><time>2026-04-20T08:49:41.879Z</time></trkpt><trkpt lat="42.1969583" lon="14.6261133"><ele>7.0</ele><time>2026-04-20T08:49:43.879Z</time></trkpt><trkpt lat="42.1969183" lon="14.6262267"><ele>5.6</ele><time>2026-04-20T08:49:45.878Z</time></trkpt><trkpt lat="42.19688" lon="14.62634"><ele>4.199999999999999</ele><time>2026-04-20T08:49:47.879Z</time></trkpt><trkpt lat="42.1968367" lon="14.6264583"><ele>2.8</ele><time>2026-04-20T08:49:49.878Z</time></trkpt><trkpt lat="42.1967967" lon="14.6265717"><ele>1.4</ele><time>2026-04-20T08:49:51.878Z</time></trkpt><trkpt lat="42.196755" lon="14.6266883"><ele>0.0</ele><time>2026-04-20T08:49:53.879Z</time></trkpt><trkpt lat="42.1967133" lon="14.6268067"><ele>0.0</ele><time>2026-04-20T08:49:55.879Z</time></trkpt><trkpt lat="42.1966733" lon="14.6269267"><ele>0.0</ele><time>2026-04-20T08:49:57.879Z</time></trkpt><trkpt lat="42.1966317" lon="14.62704"><ele>0.0</ele><time>2026-04-20T08:49:59.879Z</time></trkpt><trkpt lat="42.1965883" lon="14.62715"><ele>0.0</ele><time>2026-04-20T08:50:01.878Z</time></trkpt><trkpt lat="42.1965517" lon="14.6272583"><ele>0.0</ele><time>2026-04-20T08:50:03.879Z</time></trkpt><trkpt lat="42.1965133" lon="14.6273683"><ele>0.8</ele><time>2026-04-20T08:50:05.879Z</time></trkpt><trkpt lat="42.1964683" lon="14.6274883"><ele>1.6</ele><time>2026-04-20T08:50:07.879Z</time></trkpt><trkpt lat="42.19643" lon="14.6275967"><ele>2.4000000000000004</ele><time>2026-04-20T08:50:09.878Z</time></trkpt><trkpt lat="42.1963933" lon="14.6277083"><ele>3.2</ele><time>2026-04-20T08:50:11.879Z</time></trkpt><trkpt lat="42.1963533" lon="14.6278183"><ele>4.0</ele><time>2026-04-20T08:50:13.879Z</time></trkpt><trkpt lat="42.1963167" lon="14.6279267"><ele>3.9999999999999996</ele><time>2026-04-20T08:50:15.879Z</time></trkpt><trkpt lat="42.1962817" lon="14.6280283"><ele>4.0</ele><time>2026-04-20T08:50:17.878Z</time></trkpt><trkpt lat="42.1962433" lon="14.628125"><ele>4.0</ele><time>2026-04-20T08:50:19.879Z</time></trkpt><trkpt lat="42.1962083" lon="14.6282167"><ele>4.0</ele><time>2026-04-20T08:50:21.878Z</time></trkpt><trkpt lat="42.1961733" lon="14.6283083"><ele>3.9999999999999996</ele><time>2026-04-20T08:50:23.879Z</time></trkpt><trkpt lat="42.1961483" lon="14.6284033"><ele>4.0</ele><time>2026-04-20T08:50:25.879Z</time></trkpt><trkpt lat="42.1961283" lon="14.6285083"><ele>3.9999999999999996</ele><time>2026-04-20T08:50:27.879Z</time></trkpt><trkpt lat="42.1961117" lon="14.6286083"><ele>4.0</ele><time>2026-04-20T08:50:29.879Z</time></trkpt><trkpt lat="42.196085" lon="14.6287033"><ele>4.0</ele><time>2026-04-20T08:50:31.879Z</time></trkpt><trkpt lat="42.196065" lon="14.628815"><ele>4.0</ele><time>2026-04-20T08:50:33.879Z</time></trkpt><trkpt lat="42.1960517" lon="14.62892"><ele>3.9999999999999996</ele><time>2026-04-20T08:50:35.878Z</time></trkpt><trkpt lat="42.1960567" lon="14.62903"><ele>4.0</ele><time>2026-04-20T08:50:37.879Z</time></trkpt><trkpt lat="42.1960517" lon="14.629145"><ele>3.9999999999999996</ele><time>2026-04-20T08:50:39.879Z</time></trkpt><trkpt lat="42.1960233" lon="14.6292583"><ele>4.0</ele><time>2026-04-20T08:50:41.879Z</time></trkpt><trkpt lat="42.195985" lon="14.6293633"><ele>4.0</ele><time>2026-04-20T08:50:43.879Z</time></trkpt><trkpt lat="42.19594" lon="14.6294733"><ele>4.0</ele><time>2026-04-20T08:50:45.878Z</time></trkpt><trkpt lat="42.1959033" lon="14.6295767"><ele>3.9999999999999996</ele><time>2026-04-20T08:50:47.879Z</time></trkpt><trkpt lat="42.1958783" lon="14.6296883"><ele>4.0</ele><time>2026-04-20T08:50:49.879Z</time></trkpt><trkpt lat="42.1958533" lon="14.629795"><ele>3.9999999999999996</ele><time>2026-04-20T08:50:51.879Z</time></trkpt><trkpt lat="42.195825" lon="14.6299067"><ele>4.0</ele><time>2026-04-20T08:50:53.878Z</time></trkpt><trkpt lat="42.1957917" lon="14.6300133"><ele>4.0</ele><time>2026-04-20T08:50:55.879Z</time></trkpt><trkpt lat="42.195755" lon="14.6301233"><ele>4.0</ele><time>2026-04-20T08:50:57.879Z</time></trkpt><trkpt lat="42.19572" lon="14.6302417"><ele>3.9999999999999996</ele><time>2026-04-20T08:50:59.879Z</time></trkpt><trkpt lat="42.1956867" lon="14.63035"><ele>4.0</ele><time>2026-04-20T08:51:01.878Z</time></trkpt><trkpt lat="42.19565" lon="14.6304617"><ele>3.9999999999999996</ele><time>2026-04-20T08:51:03.878Z</time></trkpt><trkpt lat="42.195615" lon="14.6305683"><ele>4.0</ele><time>2026-04-20T08:51:05.879Z</time></trkpt><trkpt lat="42.19558" lon="14.63068"><ele>4.0</ele><time>2026-04-20T08:51:07.878Z</time></trkpt><trkpt lat="42.1955467" lon="14.6307567"><ele>4.0</ele><time>2026-04-20T08:51:08.878Z</time></trkpt><trkpt lat="42.195525" lon="14.6308683"><ele>3.9999999999999996</ele><time>2026-04-20T08:51:10.878Z</time></trkpt><trkpt lat="42.1954967" lon="14.6309717"><ele>4.0</ele><time>2026-04-20T08:51:12.878Z</time></trkpt><trkpt lat="42.19547" lon="14.6310783"><ele>4.0</ele><time>2026-04-20T08:51:14.879Z</time></trkpt><trkpt lat="42.1954483" lon="14.6311983"><ele>4.0</ele><time>2026-04-20T08:51:16.879Z</time></trkpt><trkpt lat="42.1954183" lon="14.631305"><ele>4.0</ele><time>2026-04-20T08:51:18.879Z</time></trkpt><trkpt lat="42.195385" lon="14.6314217"><ele>4.0</ele><time>2026-04-20T08:51:20.879Z</time></trkpt><trkpt lat="42.1953467" lon="14.63154"><ele>4.0</ele><time>2026-04-20T08:51:22.879Z</time></trkpt><trkpt lat="42.195315" lon="14.6316583"><ele>3.9999999999999996</ele><time>2026-04-20T08:51:24.878Z</time></trkpt><trkpt lat="42.1952767" lon="14.6317683"><ele>4.0</ele><time>2026-04-20T08:51:26.878Z</time></trkpt><trkpt lat="42.195245" lon="14.6318817"><ele>4.0</ele><time>2026-04-20T08:51:28.878Z</time></trkpt><trkpt lat="42.195215" lon="14.63199"><ele>4.0</ele><time>2026-04-20T08:51:30.879Z</time></trkpt><trkpt lat="42.1951867" lon="14.6321067"><ele>3.9999999999999996</ele><time>2026-04-20T08:51:32.878Z</time></trkpt><trkpt lat="42.1951567" lon="14.63222"><ele>4.0</ele><time>2026-04-20T08:51:34.878Z</time></trkpt><trkpt lat="42.1951267" lon="14.6323267"><ele>4.166666666666666</ele><time>2026-04-20T08:51:36.879Z</time></trkpt><trkpt lat="42.1950983" lon="14.6324367"><ele>4.333333333333333</ele><time>2026-04-20T08:51:38.878Z</time></trkpt><trkpt lat="42.1950667" lon="14.6325433"><ele>4.5</ele><time>2026-04-20T08:51:40.878Z</time></trkpt><trkpt lat="42.1950383" lon="14.632655"><ele>4.666666666666667</ele><time>2026-04-20T08:51:42.878Z</time></trkpt><trkpt lat="42.194995" lon="14.632765"><ele>4.833333333333334</ele><time>2026-04-20T08:51:44.879Z</time></trkpt><trkpt lat="42.1949567" lon="14.632885"><ele>5.0</ele><time>2026-04-20T08:51:46.879Z</time></trkpt><trkpt lat="42.1949283" lon="14.6330017"><ele>5.2</ele><time>2026-04-20T08:51:48.879Z</time></trkpt><trkpt lat="42.1948983" lon="14.6331167"><ele>5.4</ele><time>2026-04-20T08:51:50.879Z</time></trkpt><trkpt lat="42.1948717" lon="14.6332283"><ele>5.6</ele><time>2026-04-20T08:51:52.878Z</time></trkpt><trkpt lat="42.1948417" lon="14.6333433"><ele>5.8</ele><time>2026-04-20T08:51:54.879Z</time></trkpt><trkpt lat="42.1948117" lon="14.63346"><ele>6.0</ele><time>2026-04-20T08:51:56.878Z</time></trkpt><trkpt lat="42.1947717" lon="14.6335717"><ele>5.666666666666667</ele><time>2026-04-20T08:51:58.879Z</time></trkpt><trkpt lat="42.19473" lon="14.6336883"><ele>5.333333333333333</ele><time>2026-04-20T08:52:00.879Z</time></trkpt><trkpt lat="42.1947" lon="14.6338017"><ele>5.0</ele><time>2026-04-20T08:52:02.878Z</time></trkpt><trkpt lat="42.1946767" lon="14.6339083"><ele>4.666666666666666</ele><time>2026-04-20T08:52:04.879Z</time></trkpt><trkpt lat="42.1946433" lon="14.6340067"><ele>4.333333333333333</ele><time>2026-04-20T08:52:06.878Z</time></trkpt><trkpt lat="42.1946033" lon="14.63411"><ele>4.0</ele><time>2026-04-20T08:52:08.879Z</time></trkpt><trkpt lat="42.194565" lon="14.6342117"><ele>3.9999999999999996</ele><time>2026-04-20T08:52:10.878Z</time></trkpt><trkpt lat="42.1945267" lon="14.6343267"><ele>4.0</ele><time>2026-04-20T08:52:12.879Z</time></trkpt><trkpt lat="42.1944967" lon="14.63443"><ele>4.0</ele><time>2026-04-20T08:52:14.878Z</time></trkpt><trkpt lat="42.1944717" lon="14.6345433"><ele>4.0</ele><time>2026-04-20T08:52:16.879Z</time></trkpt><trkpt lat="42.19444" lon="14.6346633"><ele>3.9999999999999996</ele><time>2026-04-20T08:52:18.878Z</time></trkpt><trkpt lat="42.1944133" lon="14.6347683"><ele>4.0</ele><time>2026-04-20T08:52:20.879Z</time></trkpt><trkpt lat="42.19438" lon="14.6348867"><ele>3.6666666666666665</ele><time>2026-04-20T08:52:22.879Z</time></trkpt><trkpt lat="42.1943517" lon="14.635"><ele>3.333333333333333</ele><time>2026-04-20T08:52:24.878Z</time></trkpt><trkpt lat="42.19433" lon="14.635105"><ele>3.0</ele><time>2026-04-20T08:52:26.879Z</time></trkpt><trkpt lat="42.1942967" lon="14.6352233"><ele>2.6666666666666665</ele><time>2026-04-20T08:52:28.879Z</time></trkpt><trkpt lat="42.194265" lon="14.6353433"><ele>2.333333333333333</ele><time>2026-04-20T08:52:30.879Z</time></trkpt><trkpt lat="42.1942317" lon="14.6354417"><ele>2.0</ele><time>2026-04-20T08:52:32.878Z</time></trkpt><trkpt lat="42.1942" lon="14.6355467"><ele>1.8333333333333333</ele><time>2026-04-20T08:52:34.879Z</time></trkpt><trkpt lat="42.1941733" lon="14.6356517"><ele>1.6666666666666665</ele><time>2026-04-20T08:52:36.879Z</time></trkpt><trkpt lat="42.1941367" lon="14.6357533"><ele>1.5</ele><time>2026-04-20T08:52:38.879Z</time></trkpt><trkpt lat="42.1941033" lon="14.6358633"><ele>1.3333333333333333</ele><time>2026-04-20T08:52:40.878Z</time></trkpt><trkpt lat="42.19407" lon="14.6359767"><ele>1.1666666666666665</ele><time>2026-04-20T08:52:42.878Z</time></trkpt><trkpt lat="42.1940383" lon="14.6360917"><ele>1.0</ele><time>2026-04-20T08:52:44.879Z</time></trkpt><trkpt lat="42.1940083" lon="14.636205"><ele>1.2000000000000002</ele><time>2026-04-20T08:52:46.879Z</time></trkpt><trkpt lat="42.1939767" lon="14.6363167"><ele>1.4000000000000001</ele><time>2026-04-20T08:52:48.879Z</time></trkpt><trkpt lat="42.193945" lon="14.63643"><ele>1.6</ele><time>2026-04-20T08:52:50.878Z</time></trkpt><trkpt lat="42.1939183" lon="14.6365483"><ele>1.8</ele><time>2026-04-20T08:52:52.879Z</time></trkpt><trkpt lat="42.1938883" lon="14.6366683"><ele>2.0</ele><time>2026-04-20T08:52:54.879Z</time></trkpt><trkpt lat="42.1938567" lon="14.63678"><ele>1.9999999999999998</ele><time>2026-04-20T08:52:56.878Z</time></trkpt><trkpt lat="42.193825" lon="14.6368917"><ele>2.0</ele><time>2026-04-20T08:52:58.878Z</time></trkpt><trkpt lat="42.1937883" lon="14.6369967"><ele>2.0</ele><time>2026-04-20T08:53:00.879Z</time></trkpt><trkpt lat="42.1937583" lon="14.6371067"><ele>2.0</ele><time>2026-04-20T08:53:02.879Z</time></trkpt><trkpt lat="42.1937233" lon="14.63722"><ele>1.9999999999999998</ele><time>2026-04-20T08:53:04.878Z</time></trkpt><trkpt lat="42.19369" lon="14.6373417"><ele>2.0</ele><time>2026-04-20T08:53:06.879Z</time></trkpt><trkpt lat="42.1936583" lon="14.6374583"><ele>1.8333333333333333</ele><time>2026-04-20T08:53:08.879Z</time></trkpt><trkpt lat="42.19363" lon="14.6375667"><ele>1.6666666666666665</ele><time>2026-04-20T08:53:10.879Z</time></trkpt><trkpt lat="42.1935983" lon="14.6376733"><ele>1.5</ele><time>2026-04-20T08:53:12.879Z</time></trkpt><trkpt lat="42.19356" lon="14.63777"><ele>1.3333333333333333</ele><time>2026-04-20T08:53:14.878Z</time></trkpt><trkpt lat="42.19353" lon="14.6378633"><ele>1.1666666666666665</ele><time>2026-04-20T08:53:16.878Z</time></trkpt><trkpt lat="42.19349" lon="14.637955"><ele>1.0</ele><time>2026-04-20T08:53:18.878Z</time></trkpt><trkpt lat="42.1934683" lon="14.6380383"><ele>0.9999999999999999</ele><time>2026-04-20T08:53:20.879Z</time></trkpt><trkpt lat="42.1934283" lon="14.6381583"><ele>1.0</ele><time>2026-04-20T08:53:23.879Z</time></trkpt><trkpt lat="42.1933983" lon="14.6382533"><ele>1.0</ele><time>2026-04-20T08:53:25.879Z</time></trkpt><trkpt lat="42.1933717" lon="14.638355"><ele>1.0</ele><time>2026-04-20T08:53:27.878Z</time></trkpt><trkpt lat="42.1933417" lon="14.6384617"><ele>0.9999999999999999</ele><time>2026-04-20T08:53:29.879Z</time></trkpt><trkpt lat="42.19331" lon="14.6385683"><ele>1.0</ele><time>2026-04-20T08:53:31.879Z</time></trkpt><trkpt lat="42.1932767" lon="14.638675"><ele>0.9999999999999999</ele><time>2026-04-20T08:53:33.879Z</time></trkpt><trkpt lat="42.1932367" lon="14.638775"><ele>1.0</ele><time>2026-04-20T08:53:35.879Z</time></trkpt><trkpt lat="42.1931967" lon="14.6388767"><ele>1.0</ele><time>2026-04-20T08:53:37.878Z</time></trkpt><trkpt lat="42.193155" lon="14.6389617"><ele>1.0</ele><time>2026-04-20T08:53:39.879Z</time></trkpt><trkpt lat="42.1931117" lon="14.6390533"><ele>0.9999999999999999</ele><time>2026-04-20T08:53:41.878Z</time></trkpt><trkpt lat="42.1930683" lon="14.63915"><ele>1.0</ele><time>2026-04-20T08:53:43.878Z</time></trkpt><trkpt lat="42.1930217" lon="14.63925"><ele>0.9999999999999999</ele><time>2026-04-20T08:53:45.879Z</time></trkpt><trkpt lat="42.1929833" lon="14.63936"><ele>1.0</ele><time>2026-04-20T08:53:47.878Z</time></trkpt><trkpt lat="42.1929483" lon="14.6394683"><ele>1.0</ele><time>2026-04-20T08:53:49.879Z</time></trkpt><trkpt lat="42.1929167" lon="14.6395767"><ele>1.0</ele><time>2026-04-20T08:53:51.879Z</time></trkpt><trkpt lat="42.1928917" lon="14.6396867"><ele>0.9999999999999999</ele><time>2026-04-20T08:53:53.878Z</time></trkpt><trkpt lat="42.192865" lon="14.6397983"><ele>1.0</ele><time>2026-04-20T08:53:55.878Z</time></trkpt><trkpt lat="42.192835" lon="14.6399083"><ele>0.8</ele><time>2026-04-20T08:53:57.879Z</time></trkpt><trkpt lat="42.1928067" lon="14.6400183"><ele>0.6000000000000001</ele><time>2026-04-20T08:53:59.878Z</time></trkpt><trkpt lat="42.192775" lon="14.640135"><ele>0.4</ele><time>2026-04-20T08:54:01.879Z</time></trkpt><trkpt lat="42.1927433" lon="14.6402533"><ele>0.2</ele><time>2026-04-20T08:54:03.878Z</time></trkpt><trkpt lat="42.1927167" lon="14.64037"><ele>0.0</ele><time>2026-04-20T08:54:05.879Z</time></trkpt><trkpt lat="42.19269" lon="14.6405017"><ele>0.0</ele><time>2026-04-20T08:54:07.879Z</time></trkpt><trkpt lat="42.1926617" lon="14.6406117"><ele>0.0</ele><time>2026-04-20T08:54:09.878Z</time></trkpt><trkpt lat="42.1926317" lon="14.6407217"><ele>0.0</ele><time>2026-04-20T08:54:11.878Z</time></trkpt><trkpt lat="42.1926033" lon="14.64083"><ele>0.0</ele><time>2026-04-20T08:54:13.879Z</time></trkpt><trkpt lat="42.1925683" lon="14.6409333"><ele>0.0</ele><time>2026-04-20T08:54:15.879Z</time></trkpt><trkpt lat="42.1925317" lon="14.6410317"><ele>0.0</ele><time>2026-04-20T08:54:17.878Z</time></trkpt><trkpt lat="42.192525" lon="14.6411333"><ele>0.0</ele><time>2026-04-20T08:54:19.879Z</time></trkpt><trkpt lat="42.1925633" lon="14.641205"><ele>0.0</ele><time>2026-04-20T08:54:21.879Z</time></trkpt><trkpt lat="42.19262" lon="14.641265"><ele>0.0</ele><time>2026-04-20T08:54:46.879Z</time></trkpt><trkpt lat="42.1925867" lon="14.641375"><ele>0.0</ele><time>2026-04-20T08:54:49.879Z</time></trkpt><trkpt lat="42.19256" lon="14.6415017"><ele>0.0</ele><time>2026-04-20T08:54:52.879Z</time></trkpt><trkpt lat="42.19253" lon="14.6415983"><ele>0.0</ele><time>2026-04-20T08:54:54.879Z</time></trkpt><trkpt lat="42.1925033" lon="14.6417017"><ele>0.0</ele><time>2026-04-20T08:54:56.878Z</time></trkpt><trkpt lat="42.1924783" lon="14.6417983"><ele>0.0</ele><time>2026-04-20T08:54:58.879Z</time></trkpt><trkpt lat="42.1924533" lon="14.6419083"><ele>0.0</ele><time>2026-04-20T08:55:00.878Z</time></trkpt><trkpt lat="42.19243" lon="14.6420183"><ele>0.0</ele><time>2026-04-20T08:55:02.878Z</time></trkpt><trkpt lat="42.1924067" lon="14.642125"><ele>0.0</ele><time>2026-04-20T08:55:04.878Z</time></trkpt><trkpt lat="42.1923767" lon="14.642235"><ele>0.0</ele><time>2026-04-20T08:55:06.878Z</time></trkpt><trkpt lat="42.1923467" lon="14.642345"><ele>0.0</ele><time>2026-04-20T08:55:08.878Z</time></trkpt><trkpt lat="42.19231" lon="14.6424483"><ele>0.0</ele><time>2026-04-20T08:55:10.878Z</time></trkpt><trkpt lat="42.1922583" lon="14.64254"><ele>0.0</ele><time>2026-04-20T08:55:12.878Z</time></trkpt><trkpt lat="42.192195" lon="14.642615"><ele>0.0</ele><time>2026-04-20T08:55:14.879Z</time></trkpt><trkpt lat="42.1921317" lon="14.64269"><ele>0.0</ele><time>2026-04-20T08:55:16.879Z</time></trkpt><trkpt lat="42.1920683" lon="14.6427733"><ele>0.0</ele><time>2026-04-20T08:55:18.879Z</time></trkpt><trkpt lat="42.1920067" lon="14.64286"><ele>0.0</ele><time>2026-04-20T08:55:20.879Z</time></trkpt><trkpt lat="42.191945" lon="14.6429433"><ele>0.0</ele><time>2026-04-20T08:55:22.879Z</time></trkpt><trkpt lat="42.1918817" lon="14.64303"><ele>0.0</ele><time>2026-04-20T08:55:24.879Z</time></trkpt><trkpt lat="42.1918167" lon="14.6431167"><ele>0.0</ele><time>2026-04-20T08:55:26.878Z</time></trkpt><trkpt lat="42.1917467" lon="14.643185"><ele>0.0</ele><time>2026-04-20T08:55:28.879Z</time></trkpt><trkpt lat="42.1916783" lon="14.643255"><ele>0.0</ele><time>2026-04-20T08:55:30.879Z</time></trkpt><trkpt lat="42.1916117" lon="14.6433267"><ele>0.0</ele><time>2026-04-20T08:55:32.879Z</time></trkpt><trkpt lat="42.1915433" lon="14.6434167"><ele>0.0</ele><time>2026-04-20T08:55:34.878Z</time></trkpt><trkpt lat="42.1914883" lon="14.6435"><ele>0.0</ele><time>2026-04-20T08:55:36.879Z</time></trkpt><trkpt lat="42.1914317" lon="14.6435933"><ele>0.0</ele><time>2026-04-20T08:55:38.879Z</time></trkpt><trkpt lat="42.1913767" lon="14.64369"><ele>0.0</ele><time>2026-04-20T08:55:40.878Z</time></trkpt><trkpt lat="42.1913217" lon="14.6437933"><ele>0.4</ele><time>2026-04-20T08:55:42.879Z</time></trkpt><trkpt lat="42.191265" lon="14.6439067"><ele>0.8</ele><time>2026-04-20T08:55:44.878Z</time></trkpt><trkpt lat="42.1912183" lon="14.6440117"><ele>1.2000000000000002</ele><time>2026-04-20T08:55:46.879Z</time></trkpt><trkpt lat="42.19117" lon="14.6441"><ele>1.6</ele><time>2026-04-20T08:55:48.878Z</time></trkpt><trkpt lat="42.1911133" lon="14.6441917"><ele>2.0</ele><time>2026-04-20T08:55:50.878Z</time></trkpt><trkpt lat="42.1910417" lon="14.6442617"><ele>1.9999999999999998</ele><time>2026-04-20T08:55:52.879Z</time></trkpt><trkpt lat="42.190975" lon="14.6443233"><ele>2.0</ele><time>2026-04-20T08:55:54.879Z</time></trkpt><trkpt lat="42.1909033" lon="14.6443717"><ele>2.0</ele><time>2026-04-20T08:55:56.878Z</time></trkpt><trkpt lat="42.19083" lon="14.6444183"><ele>2.0</ele><time>2026-04-20T08:55:58.879Z</time></trkpt><trkpt lat="42.1907467" lon="14.64445"><ele>1.9999999999999998</ele><time>2026-04-20T08:56:00.878Z</time></trkpt><trkpt lat="42.190665" lon="14.644475"><ele>2.0</ele><time>2026-04-20T08:56:02.878Z</time></trkpt><trkpt lat="42.190585" lon="14.6444967"><ele>2.1666666666666665</ele><time>2026-04-20T08:56:04.879Z</time></trkpt><trkpt lat="42.1905017" lon="14.6445267"><ele>2.333333333333333</ele><time>2026-04-20T08:56:06.879Z</time></trkpt><trkpt lat="42.1904133" lon="14.64455"><ele>2.5</ele><time>2026-04-20T08:56:08.878Z</time></trkpt><trkpt lat="42.1903317" lon="14.6445783"><ele>2.6666666666666665</ele><time>2026-04-20T08:56:10.879Z</time></trkpt><trkpt lat="42.19025" lon="14.6446017"><ele>2.8333333333333335</ele><time>2026-04-20T08:56:12.878Z</time></trkpt><trkpt lat="42.1901567" lon="14.6446167"><ele>3.0</ele><time>2026-04-20T08:56:14.878Z</time></trkpt><trkpt lat="42.1900617" lon="14.64462"><ele>3.0</ele><time>2026-04-20T08:56:16.878Z</time></trkpt><trkpt lat="42.189985" lon="14.6445983"><ele>3.0</ele><time>2026-04-20T08:56:18.879Z</time></trkpt><trkpt lat="42.1899117" lon="14.644575"><ele>3.0</ele><time>2026-04-20T08:56:20.878Z</time></trkpt><trkpt lat="42.1898017" lon="14.644435"><ele>3.0</ele><time>2026-04-20T08:56:24.879Z</time></trkpt><trkpt lat="42.1897367" lon="14.644465"><ele>3.0</ele><time>2026-04-20T08:56:25.879Z</time></trkpt><trkpt lat="42.1896667" lon="14.6445133"><ele>2.6666666666666665</ele><time>2026-04-20T08:56:26.879Z</time></trkpt><trkpt lat="42.1896033" lon="14.6445417"><ele>2.3333333333333335</ele><time>2026-04-20T08:56:27.879Z</time></trkpt><trkpt lat="42.1895417" lon="14.6445683"><ele>2.0</ele><time>2026-04-20T08:56:28.879Z</time></trkpt><trkpt lat="42.1894367" lon="14.64461"><ele>1.6666666666666665</ele><time>2026-04-20T08:56:30.879Z</time></trkpt><trkpt lat="42.18935" lon="14.6446367"><ele>1.3333333333333333</ele><time>2026-04-20T08:56:32.879Z</time></trkpt><trkpt lat="42.1892567" lon="14.6446483"><ele>1.0</ele><time>2026-04-20T08:56:34.879Z</time></trkpt><trkpt lat="42.1891617" lon="14.6446533"><ele>1.0</ele><time>2026-04-20T08:56:36.878Z</time></trkpt><trkpt lat="42.18906" lon="14.6446633"><ele>1.0</ele><time>2026-04-20T08:56:38.879Z</time></trkpt><trkpt lat="42.1889567" lon="14.6446667"><ele>1.0</ele><time>2026-04-20T08:56:40.879Z</time></trkpt><trkpt lat="42.1888533" lon="14.64467"><ele>1.0</ele><time>2026-04-20T08:56:42.878Z</time></trkpt><trkpt lat="42.188765" lon="14.644675"><ele>1.0</ele><time>2026-04-20T08:56:44.879Z</time></trkpt><trkpt lat="42.1886717" lon="14.6446767"><ele>1.2000000000000002</ele><time>2026-04-20T08:56:46.879Z</time></trkpt><trkpt lat="42.1885833" lon="14.6446733"><ele>1.4000000000000001</ele><time>2026-04-20T08:56:48.879Z</time></trkpt><trkpt lat="42.1884817" lon="14.64468"><ele>1.6</ele><time>2026-04-20T08:56:50.879Z</time></trkpt><trkpt lat="42.18839" lon="14.64468"><ele>1.8</ele><time>2026-04-20T08:56:52.879Z</time></trkpt><trkpt lat="42.188295" lon="14.6446867"><ele>2.0</ele><time>2026-04-20T08:56:54.878Z</time></trkpt><trkpt lat="42.1882033" lon="14.6446967"><ele>2.2</ele><time>2026-04-20T08:56:56.879Z</time></trkpt><trkpt lat="42.188105" lon="14.6447083"><ele>2.4000000000000004</ele><time>2026-04-20T08:56:58.879Z</time></trkpt><trkpt lat="42.1880067" lon="14.6447117"><ele>2.5999999999999996</ele><time>2026-04-20T08:57:00.878Z</time></trkpt><trkpt lat="42.187905" lon="14.644715"><ele>2.8</ele><time>2026-04-20T08:57:02.879Z</time></trkpt><trkpt lat="42.1877983" lon="14.6447083"><ele>3.0</ele><time>2026-04-20T08:57:04.878Z</time></trkpt><trkpt lat="42.18769" lon="14.644695"><ele>3.0</ele><time>2026-04-20T08:57:06.879Z</time></trkpt><trkpt lat="42.1875817" lon="14.644675"><ele>3.0</ele><time>2026-04-20T08:57:08.878Z</time></trkpt><trkpt lat="42.187485" lon="14.6446283"><ele>3.0</ele><time>2026-04-20T08:57:10.879Z</time></trkpt><trkpt lat="42.1874017" lon="14.64453"><ele>3.0</ele><time>2026-04-20T08:57:12.879Z</time></trkpt><trkpt lat="42.18732" lon="14.64442"><ele>3.0</ele><time>2026-04-20T08:57:14.879Z</time></trkpt><trkpt lat="42.18725" lon="14.6443117"><ele>2.6</ele><time>2026-04-20T08:57:16.879Z</time></trkpt><trkpt lat="42.1871867" lon="14.6442067"><ele>2.1999999999999997</ele><time>2026-04-20T08:57:18.879Z</time></trkpt><trkpt lat="42.18711" lon="14.6441"><ele>1.8</ele><time>2026-04-20T08:57:20.878Z</time></trkpt><trkpt lat="42.1870367" lon="14.6440017"><ele>1.4</ele><time>2026-04-20T08:57:22.878Z</time></trkpt><trkpt lat="42.1869583" lon="14.64391"><ele>1.0</ele><time>2026-04-20T08:57:24.879Z</time></trkpt><trkpt lat="42.1868733" lon="14.6438267"><ele>1.0</ele><time>2026-04-20T08:57:26.878Z</time></trkpt><trkpt lat="42.18678" lon="14.643765"><ele>1.0</ele><time>2026-04-20T08:57:28.879Z</time></trkpt><trkpt lat="42.1866867" lon="14.6437167"><ele>1.0</ele><time>2026-04-20T08:57:30.878Z</time></trkpt><trkpt lat="42.18659" lon="14.6436733"><ele>1.0</ele><time>2026-04-20T08:57:32.879Z</time></trkpt><trkpt lat="42.18648" lon="14.6436267"><ele>1.0</ele><time>2026-04-20T08:57:34.878Z</time></trkpt><trkpt lat="42.18639" lon="14.6435833"><ele>1.4</ele><time>2026-04-20T08:57:36.879Z</time></trkpt><trkpt lat="42.1862967" lon="14.6435317"><ele>1.8</ele><time>2026-04-20T08:57:38.878Z</time></trkpt><trkpt lat="42.18619" lon="14.6434833"><ele>2.1999999999999997</ele><time>2026-04-20T08:57:40.879Z</time></trkpt><trkpt lat="42.1860817" lon="14.6434517"><ele>2.6</ele><time>2026-04-20T08:57:42.879Z</time></trkpt><trkpt lat="42.1859783" lon="14.643425"><ele>3.0</ele><time>2026-04-20T08:57:44.879Z</time></trkpt><trkpt lat="42.1858783" lon="14.643405"><ele>3.0</ele><time>2026-04-20T08:57:46.879Z</time></trkpt><trkpt lat="42.1857783" lon="14.6434033"><ele>3.0</ele><time>2026-04-20T08:57:48.879Z</time></trkpt><trkpt lat="42.185675" lon="14.6434233"><ele>3.0</ele><time>2026-04-20T08:57:50.878Z</time></trkpt><trkpt lat="42.18558" lon="14.64346"><ele>3.0</ele><time>2026-04-20T08:57:52.879Z</time></trkpt><trkpt lat="42.1854767" lon="14.6435067"><ele>3.0</ele><time>2026-04-20T08:57:54.879Z</time></trkpt><trkpt lat="42.1853833" lon="14.6435533"><ele>3.0</ele><time>2026-04-20T08:57:56.879Z</time></trkpt><trkpt lat="42.1852867" lon="14.6436083"><ele>3.0</ele><time>2026-04-20T08:57:58.878Z</time></trkpt><trkpt lat="42.1851867" lon="14.6436567"><ele>3.0</ele><time>2026-04-20T08:58:00.879Z</time></trkpt><trkpt lat="42.18509" lon="14.6437067"><ele>3.0</ele><time>2026-04-20T08:58:02.878Z</time></trkpt><trkpt lat="42.1849917" lon="14.6437583"><ele>3.0</ele><time>2026-04-20T08:58:04.879Z</time></trkpt><trkpt lat="42.1848933" lon="14.6438017"><ele>3.2</ele><time>2026-04-20T08:58:06.878Z</time></trkpt><trkpt lat="42.1848033" lon="14.6438467"><ele>3.4</ele><time>2026-04-20T08:58:08.879Z</time></trkpt><trkpt lat="42.1847067" lon="14.6438983"><ele>3.6000000000000005</ele><time>2026-04-20T08:58:10.879Z</time></trkpt><trkpt lat="42.1846183" lon="14.6439633"><ele>3.8000000000000003</ele><time>2026-04-20T08:58:12.879Z</time></trkpt><trkpt lat="42.1845417" lon="14.64404"><ele>4.0</ele><time>2026-04-20T08:58:14.878Z</time></trkpt><trkpt lat="42.1844683" lon="14.64413"><ele>4.0</ele><time>2026-04-20T08:58:16.878Z</time></trkpt><trkpt lat="42.1844" lon="14.6442317"><ele>4.0</ele><time>2026-04-20T08:58:18.879Z</time></trkpt><trkpt lat="42.18433" lon="14.644325"><ele>4.0</ele><time>2026-04-20T08:58:20.878Z</time></trkpt><trkpt lat="42.1842567" lon="14.6444217"><ele>4.0</ele><time>2026-04-20T08:58:22.879Z</time></trkpt><trkpt lat="42.1841733" lon="14.644495"><ele>4.0</ele><time>2026-04-20T08:58:24.878Z</time></trkpt><trkpt lat="42.1840767" lon="14.6445467"><ele>4.0</ele><time>2026-04-20T08:58:26.879Z</time></trkpt><trkpt lat="42.1839783" lon="14.6445733"><ele>4.0</ele><time>2026-04-20T08:58:28.879Z</time></trkpt><trkpt lat="42.1838783" lon="14.6445867"><ele>4.0</ele><time>2026-04-20T08:58:30.878Z</time></trkpt><trkpt lat="42.1837767" lon="14.6445917"><ele>4.0</ele><time>2026-04-20T08:58:32.878Z</time></trkpt><trkpt lat="42.1836833" lon="14.64459"><ele>4.0</ele><time>2026-04-20T08:58:34.878Z</time></trkpt><trkpt lat="42.1835867" lon="14.64459"><ele>4.0</ele><time>2026-04-20T08:58:36.878Z</time></trkpt><trkpt lat="42.1834867" lon="14.64459"><ele>4.0</ele><time>2026-04-20T08:58:38.879Z</time></trkpt><trkpt lat="42.18339" lon="14.6445917"><ele>4.0</ele><time>2026-04-20T08:58:40.878Z</time></trkpt><trkpt lat="42.1832883" lon="14.6446"><ele>4.0</ele><time>2026-04-20T08:58:42.878Z</time></trkpt><trkpt lat="42.1831817" lon="14.6446067"><ele>4.0</ele><time>2026-04-20T08:58:44.878Z</time></trkpt><trkpt lat="42.1830833" lon="14.64461"><ele>4.4</ele><time>2026-04-20T08:58:46.878Z</time></trkpt><trkpt lat="42.1829867" lon="14.6446133"><ele>4.800000000000001</ele><time>2026-04-20T08:58:48.879Z</time></trkpt><trkpt lat="42.182885" lon="14.64462"><ele>5.199999999999999</ele><time>2026-04-20T08:58:50.878Z</time></trkpt><trkpt lat="42.1827833" lon="14.6446317"><ele>5.6</ele><time>2026-04-20T08:58:52.879Z</time></trkpt><trkpt lat="42.1826767" lon="14.64464"><ele>6.0</ele><time>2026-04-20T08:58:54.879Z</time></trkpt><trkpt lat="42.1825717" lon="14.6446417"><ele>6.0</ele><time>2026-04-20T08:58:56.879Z</time></trkpt><trkpt lat="42.1824733" lon="14.6446433"><ele>6.0</ele><time>2026-04-20T08:58:58.879Z</time></trkpt><trkpt lat="42.1823733" lon="14.6446433"><ele>6.0</ele><time>2026-04-20T08:59:00.879Z</time></trkpt><trkpt lat="42.1822683" lon="14.64465"><ele>6.0</ele><time>2026-04-20T08:59:02.879Z</time></trkpt><trkpt lat="42.18217" lon="14.6446517"><ele>6.0</ele><time>2026-04-20T08:59:04.879Z</time></trkpt><trkpt lat="42.1820783" lon="14.64465"><ele>6.199999999999999</ele><time>2026-04-20T08:59:06.878Z</time></trkpt><trkpt lat="42.18199" lon="14.6446267"><ele>6.3999999999999995</ele><time>2026-04-20T08:59:08.878Z</time></trkpt><trkpt lat="42.1818967" lon="14.6446033"><ele>6.6</ele><time>2026-04-20T08:59:10.879Z</time></trkpt><trkpt lat="42.181805" lon="14.6445767"><ele>6.8</ele><time>2026-04-20T08:59:12.878Z</time></trkpt><trkpt lat="42.181715" lon="14.6445533"><ele>7.0</ele><time>2026-04-20T08:59:14.879Z</time></trkpt><trkpt lat="42.1816217" lon="14.6445167"><ele>7.0</ele><time>2026-04-20T08:59:16.878Z</time></trkpt><trkpt lat="42.1815167" lon="14.6444833"><ele>6.999999999999999</ele><time>2026-04-20T08:59:18.879Z</time></trkpt><trkpt lat="42.1814167" lon="14.6444467"><ele>6.999999999999999</ele><time>2026-04-20T08:59:20.878Z</time></trkpt><trkpt lat="42.1813133" lon="14.6444117"><ele>7.0</ele><time>2026-04-20T08:59:22.879Z</time></trkpt><trkpt lat="42.181215" lon="14.644375"><ele>7.0</ele><time>2026-04-20T08:59:24.879Z</time></trkpt><trkpt lat="42.181115" lon="14.6443333"><ele>7.0</ele><time>2026-04-20T08:59:26.879Z</time></trkpt><trkpt lat="42.1810267" lon="14.6442933"><ele>6.999999999999999</ele><time>2026-04-20T08:59:28.879Z</time></trkpt><trkpt lat="42.18093" lon="14.6442483"><ele>6.999999999999999</ele><time>2026-04-20T08:59:30.879Z</time></trkpt><trkpt lat="42.180835" lon="14.644205"><ele>7.0</ele><time>2026-04-20T08:59:32.878Z</time></trkpt><trkpt lat="42.1807433" lon="14.644165"><ele>7.0</ele><time>2026-04-20T08:59:34.878Z</time></trkpt><trkpt lat="42.1806433" lon="14.644125"><ele>7.0</ele><time>2026-04-20T08:59:36.878Z</time></trkpt><trkpt lat="42.1805417" lon="14.64409"><ele>6.999999999999999</ele><time>2026-04-20T08:59:38.878Z</time></trkpt><trkpt lat="42.1804517" lon="14.6440517"><ele>6.999999999999999</ele><time>2026-04-20T08:59:40.878Z</time></trkpt><trkpt lat="42.1803633" lon="14.6440017"><ele>7.0</ele><time>2026-04-20T08:59:42.878Z</time></trkpt><trkpt lat="42.180285" lon="14.643925"><ele>7.0</ele><time>2026-04-20T08:59:44.879Z</time></trkpt><trkpt lat="42.180225" lon="14.6438367"><ele>7.0</ele><time>2026-04-20T08:59:46.878Z</time></trkpt><trkpt lat="42.1802133" lon="14.64371"><ele>6.999999999999999</ele><time>2026-04-20T08:59:48.878Z</time></trkpt><trkpt lat="42.1802183" lon="14.6435617"><ele>6.999999999999999</ele><time>2026-04-20T08:59:50.878Z</time></trkpt><trkpt lat="42.1802167" lon="14.64341"><ele>7.0</ele><time>2026-04-20T08:59:52.878Z</time></trkpt><trkpt lat="42.1802133" lon="14.6432617"><ele>7.0</ele><time>2026-04-20T08:59:54.878Z</time></trkpt><trkpt lat="42.1802083" lon="14.643115"><ele>7.0</ele><time>2026-04-20T08:59:56.878Z</time></trkpt><trkpt lat="42.1802033" lon="14.6429683"><ele>6.999999999999999</ele><time>2026-04-20T08:59:58.879Z</time></trkpt><trkpt lat="42.1802" lon="14.64281"><ele>6.999999999999999</ele><time>2026-04-20T09:00:00.879Z</time></trkpt><trkpt lat="42.1801867" lon="14.6426683"><ele>7.0</ele><time>2026-04-20T09:00:02.878Z</time></trkpt><trkpt lat="42.18016" lon="14.642525"><ele>7.0</ele><time>2026-04-20T09:00:04.879Z</time></trkpt><trkpt lat="42.18012" lon="14.6423833"><ele>7.199999999999999</ele><time>2026-04-20T09:00:06.878Z</time></trkpt><trkpt lat="42.1800717" lon="14.6422483"><ele>7.3999999999999995</ele><time>2026-04-20T09:00:08.878Z</time></trkpt><trkpt lat="42.1800133" lon="14.642115"><ele>7.6000000000000005</ele><time>2026-04-20T09:00:10.879Z</time></trkpt><trkpt lat="42.17995" lon="14.64198"><ele>7.800000000000001</ele><time>2026-04-20T09:00:12.879Z</time></trkpt><trkpt lat="42.179885" lon="14.6418683"><ele>8.0</ele><time>2026-04-20T09:00:14.878Z</time></trkpt><trkpt lat="42.17982" lon="14.6417583"><ele>8.0</ele><time>2026-04-20T09:00:16.878Z</time></trkpt><trkpt lat="42.1797467" lon="14.64166"><ele>8.0</ele><time>2026-04-20T09:00:18.878Z</time></trkpt><trkpt lat="42.1796683" lon="14.6415717"><ele>8.0</ele><time>2026-04-20T09:00:20.878Z</time></trkpt><trkpt lat="42.1795817" lon="14.641495"><ele>8.0</ele><time>2026-04-20T09:00:22.879Z</time></trkpt><trkpt lat="42.17949" lon="14.641435"><ele>8.0</ele><time>2026-04-20T09:00:24.879Z</time></trkpt><trkpt lat="42.17939" lon="14.641365"><ele>8.0</ele><time>2026-04-20T09:00:26.879Z</time></trkpt><trkpt lat="42.179285" lon="14.6413017"><ele>8.0</ele><time>2026-04-20T09:00:28.878Z</time></trkpt><trkpt lat="42.1791783" lon="14.6412383"><ele>8.0</ele><time>2026-04-20T09:00:30.879Z</time></trkpt><trkpt lat="42.17908" lon="14.6411933"><ele>8.0</ele><time>2026-04-20T09:00:32.878Z</time></trkpt><trkpt lat="42.17898" lon="14.641175"><ele>8.0</ele><time>2026-04-20T09:00:34.879Z</time></trkpt><trkpt lat="42.178875" lon="14.6411617"><ele>8.200000000000001</ele><time>2026-04-20T09:00:36.878Z</time></trkpt><trkpt lat="42.17877" lon="14.6411583"><ele>8.4</ele><time>2026-04-20T09:00:38.879Z</time></trkpt><trkpt lat="42.1786617" lon="14.6411667"><ele>8.600000000000001</ele><time>2026-04-20T09:00:40.878Z</time></trkpt><trkpt lat="42.1785567" lon="14.6411833"><ele>8.8</ele><time>2026-04-20T09:00:42.878Z</time></trkpt><trkpt lat="42.1784467" lon="14.6411983"><ele>9.0</ele><time>2026-04-20T09:00:44.878Z</time></trkpt><trkpt lat="42.1783383" lon="14.64122"><ele>9.0</ele><time>2026-04-20T09:00:46.879Z</time></trkpt><trkpt lat="42.178235" lon="14.6412383"><ele>9.0</ele><time>2026-04-20T09:00:48.879Z</time></trkpt><trkpt lat="42.1781317" lon="14.6412583"><ele>9.0</ele><time>2026-04-20T09:00:50.879Z</time></trkpt><trkpt lat="42.1780233" lon="14.641245"><ele>9.0</ele><time>2026-04-20T09:00:52.879Z</time></trkpt><trkpt lat="42.1779383" lon="14.6411683"><ele>9.0</ele><time>2026-04-20T09:00:54.879Z</time></trkpt><trkpt lat="42.177875" lon="14.64105"><ele>9.4</ele><time>2026-04-20T09:00:56.879Z</time></trkpt><trkpt lat="42.1778417" lon="14.640905"><ele>9.8</ele><time>2026-04-20T09:00:58.878Z</time></trkpt><trkpt lat="42.1778083" lon="14.6407617"><ele>10.200000000000001</ele><time>2026-04-20T09:01:00.878Z</time></trkpt><trkpt lat="42.1777783" lon="14.6406233"><ele>10.600000000000001</ele><time>2026-04-20T09:01:02.879Z</time></trkpt><trkpt lat="42.177755" lon="14.6404833"><ele>11.0</ele><time>2026-04-20T09:01:04.879Z</time></trkpt><trkpt lat="42.1777283" lon="14.64034"><ele>11.0</ele><time>2026-04-20T09:01:06.878Z</time></trkpt><trkpt lat="42.1776967" lon="14.6402"><ele>11.0</ele><time>2026-04-20T09:01:08.879Z</time></trkpt><trkpt lat="42.177665" lon="14.640065"><ele>11.0</ele><time>2026-04-20T09:01:10.878Z</time></trkpt><trkpt lat="42.1776233" lon="14.6399467"><ele>11.0</ele><time>2026-04-20T09:01:12.879Z</time></trkpt><trkpt lat="42.1775733" lon="14.6398367"><ele>11.0</ele><time>2026-04-20T09:01:14.878Z</time></trkpt><trkpt lat="42.1775233" lon="14.6397367"><ele>11.0</ele><time>2026-04-20T09:01:16.878Z</time></trkpt><trkpt lat="42.1774617" lon="14.6396383"><ele>11.0</ele><time>2026-04-20T09:01:18.879Z</time></trkpt><trkpt lat="42.1773917" lon="14.6395483"><ele>11.0</ele><time>2026-04-20T09:01:20.878Z</time></trkpt><trkpt lat="42.1773033" lon="14.6394667"><ele>11.0</ele><time>2026-04-20T09:01:22.878Z</time></trkpt><trkpt lat="42.1772267" lon="14.6393833"><ele>11.0</ele><time>2026-04-20T09:01:24.879Z</time></trkpt><trkpt lat="42.1771483" lon="14.6392983"><ele>11.0</ele><time>2026-04-20T09:01:26.879Z</time></trkpt><trkpt lat="42.17708" lon="14.6392133"><ele>11.0</ele><time>2026-04-20T09:01:28.878Z</time></trkpt><trkpt lat="42.1770183" lon="14.6391183"><ele>11.0</ele><time>2026-04-20T09:01:30.879Z</time></trkpt><trkpt lat="42.1769567" lon="14.6390167"><ele>11.0</ele><time>2026-04-20T09:01:32.879Z</time></trkpt><trkpt lat="42.1768967" lon="14.638925"><ele>11.0</ele><time>2026-04-20T09:01:34.879Z</time></trkpt><trkpt lat="42.176835" lon="14.6388483"><ele>11.0</ele><time>2026-04-20T09:01:36.878Z</time></trkpt><trkpt lat="42.176775" lon="14.6387833"><ele>11.0</ele><time>2026-04-20T09:01:38.878Z</time></trkpt><trkpt lat="42.1767267" lon="14.63872"><ele>11.0</ele><time>2026-04-20T09:01:40.878Z</time></trkpt><trkpt lat="42.176665" lon="14.63864"><ele>11.0</ele><time>2026-04-20T09:01:43.879Z</time></trkpt><trkpt lat="42.1765917" lon="14.638565"><ele>11.0</ele><time>2026-04-20T09:01:59.879Z</time></trkpt><trkpt lat="42.1765233" lon="14.63854"><ele>11.0</ele><time>2026-04-20T09:02:02.879Z</time></trkpt><trkpt lat="42.176455" lon="14.638545"><ele>12.200000000000001</ele><time>2026-04-20T09:02:04.878Z</time></trkpt><trkpt lat="42.1763717" lon="14.6385533"><ele>13.4</ele><time>2026-04-20T09:02:06.879Z</time></trkpt><trkpt lat="42.1762817" lon="14.6385617"><ele>14.6</ele><time>2026-04-20T09:02:08.879Z</time></trkpt><trkpt lat="42.1761883" lon="14.638575"><ele>15.8</ele><time>2026-04-20T09:02:10.879Z</time></trkpt><trkpt lat="42.17609" lon="14.6385917"><ele>17.0</ele><time>2026-04-20T09:02:12.878Z</time></trkpt><trkpt lat="42.175995" lon="14.6386067"><ele>17.0</ele><time>2026-04-20T09:02:14.878Z</time></trkpt><trkpt lat="42.1758983" lon="14.638625"><ele>17.0</ele><time>2026-04-20T09:02:16.878Z</time></trkpt><trkpt lat="42.1757983" lon="14.6386433"><ele>17.0</ele><time>2026-04-20T09:02:18.878Z</time></trkpt><trkpt lat="42.1757083" lon="14.6386583"><ele>17.0</ele><time>2026-04-20T09:02:20.879Z</time></trkpt><trkpt lat="42.1756117" lon="14.6386783"><ele>17.0</ele><time>2026-04-20T09:02:22.879Z</time></trkpt><trkpt lat="42.1755233" lon="14.6386933"><ele>16.6</ele><time>2026-04-20T09:02:24.878Z</time></trkpt><trkpt lat="42.1754217" lon="14.6387083"><ele>16.2</ele><time>2026-04-20T09:02:26.879Z</time></trkpt><trkpt lat="42.1753167" lon="14.638725"><ele>15.8</ele><time>2026-04-20T09:02:28.879Z</time></trkpt><trkpt lat="42.17522" lon="14.638735"><ele>15.4</ele><time>2026-04-20T09:02:30.879Z</time></trkpt><trkpt lat="42.1751233" lon="14.6387467"><ele>15.0</ele><time>2026-04-20T09:02:32.879Z</time></trkpt><trkpt lat="42.1750217" lon="14.63876"><ele>15.0</ele><time>2026-04-20T09:02:34.878Z</time></trkpt><trkpt lat="42.1749133" lon="14.6387783"><ele>15.0</ele><time>2026-04-20T09:02:36.879Z</time></trkpt><trkpt lat="42.1747967" lon="14.638795"><ele>15.0</ele><time>2026-04-20T09:02:38.878Z</time></trkpt><trkpt lat="42.174685" lon="14.6388117"><ele>15.0</ele><time>2026-04-20T09:02:40.878Z</time></trkpt><trkpt lat="42.1745767" lon="14.6388283"><ele>15.0</ele><time>2026-04-20T09:02:42.879Z</time></trkpt><trkpt lat="42.1744667" lon="14.63885"><ele>14.8</ele><time>2026-04-20T09:02:44.879Z</time></trkpt><trkpt lat="42.1743633" lon="14.6388667"><ele>14.6</ele><time>2026-04-20T09:02:46.879Z</time></trkpt><trkpt lat="42.17427" lon="14.6388833"><ele>14.399999999999999</ele><time>2026-04-20T09:02:48.879Z</time></trkpt><trkpt lat="42.174175" lon="14.6389033"><ele>14.2</ele><time>2026-04-20T09:02:50.879Z</time></trkpt><trkpt lat="42.1740717" lon="14.6389183"><ele>14.0</ele><time>2026-04-20T09:02:52.879Z</time></trkpt><trkpt lat="42.1739617" lon="14.6389317"><ele>13.799999999999999</ele><time>2026-04-20T09:02:54.879Z</time></trkpt><trkpt lat="42.17385" lon="14.6389483"><ele>13.599999999999998</ele><time>2026-04-20T09:02:56.878Z</time></trkpt><trkpt lat="42.1737433" lon="14.63897"><ele>13.4</ele><time>2026-04-20T09:02:58.879Z</time></trkpt><trkpt lat="42.1736383" lon="14.638985"><ele>13.2</ele><time>2026-04-20T09:03:00.878Z</time></trkpt><trkpt lat="42.1735217" lon="14.639005"><ele>13.0</ele><time>2026-04-20T09:03:02.879Z</time></trkpt><trkpt lat="42.173415" lon="14.63902"><ele>13.0</ele><time>2026-04-20T09:03:04.879Z</time></trkpt><trkpt lat="42.1733133" lon="14.6390417"><ele>13.0</ele><time>2026-04-20T09:03:06.879Z</time></trkpt><trkpt lat="42.1732083" lon="14.6390633"><ele>13.0</ele><time>2026-04-20T09:03:08.879Z</time></trkpt><trkpt lat="42.1731017" lon="14.6390783"><ele>13.0</ele><time>2026-04-20T09:03:10.879Z</time></trkpt><trkpt lat="42.173" lon="14.6390967"><ele>13.0</ele><time>2026-04-20T09:03:12.879Z</time></trkpt><trkpt lat="42.1728967" lon="14.6391117"><ele>13.2</ele><time>2026-04-20T09:03:14.878Z</time></trkpt><trkpt lat="42.172795" lon="14.6391333"><ele>13.4</ele><time>2026-04-20T09:03:16.879Z</time></trkpt><trkpt lat="42.1726967" lon="14.6391517"><ele>13.599999999999998</ele><time>2026-04-20T09:03:18.878Z</time></trkpt><trkpt lat="42.1725933" lon="14.639165"><ele>13.799999999999999</ele><time>2026-04-20T09:03:20.878Z</time></trkpt><trkpt lat="42.1724933" lon="14.6391833"><ele>14.0</ele><time>2026-04-20T09:03:22.878Z</time></trkpt><trkpt lat="42.1723933" lon="14.6391983"><ele>14.2</ele><time>2026-04-20T09:03:24.878Z</time></trkpt><trkpt lat="42.1722867" lon="14.6392067"><ele>14.399999999999999</ele><time>2026-04-20T09:03:26.879Z</time></trkpt><trkpt lat="42.1721867" lon="14.6392217"><ele>14.6</ele><time>2026-04-20T09:03:28.879Z</time></trkpt><trkpt lat="42.1720833" lon="14.6392383"><ele>14.8</ele><time>2026-04-20T09:03:30.879Z</time></trkpt><trkpt lat="42.17198" lon="14.639255"><ele>15.0</ele><time>2026-04-20T09:03:32.878Z</time></trkpt><trkpt lat="42.1718733" lon="14.6392733"><ele>15.0</ele><time>2026-04-20T09:03:34.878Z</time></trkpt><trkpt lat="42.1717617" lon="14.6392967"><ele>15.0</ele><time>2026-04-20T09:03:36.879Z</time></trkpt><trkpt lat="42.17166" lon="14.6393133"><ele>15.0</ele><time>2026-04-20T09:03:38.879Z</time></trkpt><trkpt lat="42.1715517" lon="14.6393333"><ele>15.0</ele><time>2026-04-20T09:03:40.879Z</time></trkpt><trkpt lat="42.17145" lon="14.6393483"><ele>15.0</ele><time>2026-04-20T09:03:42.878Z</time></trkpt><trkpt lat="42.1713433" lon="14.6393583"><ele>15.2</ele><time>2026-04-20T09:03:44.879Z</time></trkpt><trkpt lat="42.1712367" lon="14.6393717"><ele>15.4</ele><time>2026-04-20T09:03:46.879Z</time></trkpt><trkpt lat="42.1711283" lon="14.6393883"><ele>15.600000000000001</ele><time>2026-04-20T09:03:48.878Z</time></trkpt><trkpt lat="42.17102" lon="14.6394083"><ele>15.8</ele><time>2026-04-20T09:03:50.879Z</time></trkpt><trkpt lat="42.170915" lon="14.639425"><ele>16.0</ele><time>2026-04-20T09:03:52.878Z</time></trkpt><trkpt lat="42.1708083" lon="14.6394433"><ele>16.0</ele><time>2026-04-20T09:03:54.879Z</time></trkpt><trkpt lat="42.170715" lon="14.63946"><ele>16.0</ele><time>2026-04-20T09:03:56.879Z</time></trkpt><trkpt lat="42.1706133" lon="14.6394783"><ele>16.0</ele><time>2026-04-20T09:03:58.878Z</time></trkpt><trkpt lat="42.1705183" lon="14.6395033"><ele>16.0</ele><time>2026-04-20T09:04:00.879Z</time></trkpt><trkpt lat="42.170415" lon="14.6395183"><ele>16.0</ele><time>2026-04-20T09:04:02.879Z</time></trkpt><trkpt lat="42.1703133" lon="14.639535"><ele>16.0</ele><time>2026-04-20T09:04:04.879Z</time></trkpt><trkpt lat="42.17021" lon="14.6395567"><ele>16.0</ele><time>2026-04-20T09:04:06.879Z</time></trkpt><trkpt lat="42.1701083" lon="14.6395733"><ele>16.0</ele><time>2026-04-20T09:04:08.878Z</time></trkpt><trkpt lat="42.1700033" lon="14.63959"><ele>16.0</ele><time>2026-04-20T09:04:10.879Z</time></trkpt><trkpt lat="42.1698967" lon="14.639605"><ele>16.0</ele><time>2026-04-20T09:04:12.878Z</time></trkpt><trkpt lat="42.1697967" lon="14.639615"><ele>16.400000000000002</ele><time>2026-04-20T09:04:14.878Z</time></trkpt><trkpt lat="42.16969" lon="14.6396333"><ele>16.8</ele><time>2026-04-20T09:04:16.879Z</time></trkpt><trkpt lat="42.1695833" lon="14.639655"><ele>17.200000000000003</ele><time>2026-04-20T09:04:18.879Z</time></trkpt><trkpt lat="42.169485" lon="14.6396683"><ele>17.6</ele><time>2026-04-20T09:04:20.878Z</time></trkpt><trkpt lat="42.1693833" lon="14.6396867"><ele>18.0</ele><time>2026-04-20T09:04:22.879Z</time></trkpt><trkpt lat="42.1692817" lon="14.6397017"><ele>18.0</ele><time>2026-04-20T09:04:24.879Z</time></trkpt><trkpt lat="42.16918" lon="14.63972"><ele>18.0</ele><time>2026-04-20T09:04:26.878Z</time></trkpt><trkpt lat="42.1690783" lon="14.6397383"><ele>18.0</ele><time>2026-04-20T09:04:28.878Z</time></trkpt><trkpt lat="42.1689733" lon="14.639755"><ele>18.0</ele><time>2026-04-20T09:04:30.879Z</time></trkpt><trkpt lat="42.1688683" lon="14.6397683"><ele>18.0</ele><time>2026-04-20T09:04:32.878Z</time></trkpt><trkpt lat="42.1687633" lon="14.6397883"><ele>18.0</ele><time>2026-04-20T09:04:34.878Z</time></trkpt><trkpt lat="42.16866" lon="14.6398033"><ele>18.0</ele><time>2026-04-20T09:04:36.879Z</time></trkpt><trkpt lat="42.1685583" lon="14.6398167"><ele>18.0</ele><time>2026-04-20T09:04:38.878Z</time></trkpt><trkpt lat="42.168455" lon="14.6398333"><ele>18.0</ele><time>2026-04-20T09:04:40.878Z</time></trkpt><trkpt lat="42.16835" lon="14.6398533"><ele>18.0</ele><time>2026-04-20T09:04:42.879Z</time></trkpt><trkpt lat="42.1682467" lon="14.6398733"><ele>17.8</ele><time>2026-04-20T09:04:44.879Z</time></trkpt><trkpt lat="42.1681333" lon="14.6398933"><ele>17.6</ele><time>2026-04-20T09:04:46.878Z</time></trkpt><trkpt lat="42.1680317" lon="14.639905"><ele>17.4</ele><time>2026-04-20T09:04:48.878Z</time></trkpt><trkpt lat="42.16793" lon="14.6399233"><ele>17.2</ele><time>2026-04-20T09:04:50.879Z</time></trkpt><trkpt lat="42.1678267" lon="14.63994"><ele>17.0</ele><time>2026-04-20T09:04:52.879Z</time></trkpt><trkpt lat="42.1677233" lon="14.639955"><ele>17.0</ele><time>2026-04-20T09:04:54.879Z</time></trkpt><trkpt lat="42.16761" lon="14.6399717"><ele>17.0</ele><time>2026-04-20T09:04:56.879Z</time></trkpt><trkpt lat="42.167505" lon="14.6399883"><ele>17.0</ele><time>2026-04-20T09:04:58.878Z</time></trkpt><trkpt lat="42.1673983" lon="14.6400067"><ele>17.0</ele><time>2026-04-20T09:05:00.879Z</time></trkpt><trkpt lat="42.167295" lon="14.6400233"><ele>17.0</ele><time>2026-04-20T09:05:02.878Z</time></trkpt><trkpt lat="42.1671917" lon="14.64004"><ele>17.0</ele><time>2026-04-20T09:05:04.879Z</time></trkpt><trkpt lat="42.16708" lon="14.6400583"><ele>17.0</ele><time>2026-04-20T09:05:06.879Z</time></trkpt><trkpt lat="42.16698" lon="14.640075"><ele>17.0</ele><time>2026-04-20T09:05:08.878Z</time></trkpt><trkpt lat="42.1668783" lon="14.6400933"><ele>17.0</ele><time>2026-04-20T09:05:10.879Z</time></trkpt><trkpt lat="42.16678" lon="14.64011"><ele>17.0</ele><time>2026-04-20T09:05:12.879Z</time></trkpt><trkpt lat="42.166675" lon="14.6401317"><ele>17.0</ele><time>2026-04-20T09:05:14.878Z</time></trkpt><trkpt lat="42.166575" lon="14.640145"><ele>17.0</ele><time>2026-04-20T09:05:16.879Z</time></trkpt><trkpt lat="42.16647" lon="14.6401617"><ele>17.0</ele><time>2026-04-20T09:05:18.879Z</time></trkpt><trkpt lat="42.16637" lon="14.6401767"><ele>17.0</ele><time>2026-04-20T09:05:20.879Z</time></trkpt><trkpt lat="42.16627" lon="14.6401917"><ele>17.0</ele><time>2026-04-20T09:05:22.879Z</time></trkpt><trkpt lat="42.1661667" lon="14.640205"><ele>17.2</ele><time>2026-04-20T09:05:24.878Z</time></trkpt><trkpt lat="42.1660617" lon="14.640225"><ele>17.4</ele><time>2026-04-20T09:05:26.879Z</time></trkpt><trkpt lat="42.1659517" lon="14.6402433"><ele>17.6</ele><time>2026-04-20T09:05:28.879Z</time></trkpt><trkpt lat="42.1658583" lon="14.640255"><ele>17.8</ele><time>2026-04-20T09:05:30.878Z</time></trkpt><trkpt lat="42.1657617" lon="14.6402683"><ele>18.0</ele><time>2026-04-20T09:05:32.879Z</time></trkpt><trkpt lat="42.1656567" lon="14.64029"><ele>18.2</ele><time>2026-04-20T09:05:34.879Z</time></trkpt><trkpt lat="42.1655517" lon="14.6403067"><ele>18.4</ele><time>2026-04-20T09:05:36.879Z</time></trkpt><trkpt lat="42.165445" lon="14.640325"><ele>18.599999999999998</ele><time>2026-04-20T09:05:38.878Z</time></trkpt><trkpt lat="42.16534" lon="14.6403433"><ele>18.8</ele><time>2026-04-20T09:05:40.878Z</time></trkpt><trkpt lat="42.165235" lon="14.640365"><ele>19.0</ele><time>2026-04-20T09:05:42.878Z</time></trkpt><trkpt lat="42.1651317" lon="14.6403833"><ele>19.0</ele><time>2026-04-20T09:05:44.878Z</time></trkpt><trkpt lat="42.1650333" lon="14.640405"><ele>19.0</ele><time>2026-04-20T09:05:46.878Z</time></trkpt><trkpt lat="42.1649317" lon="14.640435"><ele>19.0</ele><time>2026-04-20T09:05:48.879Z</time></trkpt><trkpt lat="42.1648367" lon="14.6404733"><ele>19.0</ele><time>2026-04-20T09:05:50.879Z</time></trkpt><trkpt lat="42.164745" lon="14.64052"><ele>19.0</ele><time>2026-04-20T09:05:52.879Z</time></trkpt><trkpt lat="42.1646533" lon="14.6405483"><ele>19.2</ele><time>2026-04-20T09:05:54.878Z</time></trkpt><trkpt lat="42.1645533" lon="14.640575"><ele>19.4</ele><time>2026-04-20T09:05:56.878Z</time></trkpt><trkpt lat="42.1644467" lon="14.640605"><ele>19.6</ele><time>2026-04-20T09:05:58.879Z</time></trkpt><trkpt lat="42.164335" lon="14.640635"><ele>19.8</ele><time>2026-04-20T09:06:00.879Z</time></trkpt><trkpt lat="42.1642267" lon="14.6406367"><ele>20.0</ele><time>2026-04-20T09:06:02.879Z</time></trkpt><trkpt lat="42.16413" lon="14.64059"><ele>19.6</ele><time>2026-04-20T09:06:04.879Z</time></trkpt><trkpt lat="42.164025" lon="14.64058"><ele>19.2</ele><time>2026-04-20T09:06:06.879Z</time></trkpt><trkpt lat="42.1639217" lon="14.6406017"><ele>18.8</ele><time>2026-04-20T09:06:08.879Z</time></trkpt><trkpt lat="42.163815" lon="14.6406017"><ele>18.4</ele><time>2026-04-20T09:06:10.878Z</time></trkpt><trkpt lat="42.1637233" lon="14.6405467"><ele>18.0</ele><time>2026-04-20T09:06:12.879Z</time></trkpt><trkpt lat="42.1636567" lon="14.640445"><ele>18.0</ele><time>2026-04-20T09:06:14.879Z</time></trkpt><trkpt lat="42.1636033" lon="14.64033"><ele>18.0</ele><time>2026-04-20T09:06:16.879Z</time></trkpt><trkpt lat="42.163535" lon="14.6402217"><ele>18.0</ele><time>2026-04-20T09:06:18.879Z</time></trkpt><trkpt lat="42.1634467" lon="14.64016"><ele>18.0</ele><time>2026-04-20T09:06:20.879Z</time></trkpt><trkpt lat="42.1633383" lon="14.6401583"><ele>18.0</ele><time>2026-04-20T09:06:22.879Z</time></trkpt><trkpt lat="42.163235" lon="14.6401833"><ele>18.6</ele><time>2026-04-20T09:06:24.878Z</time></trkpt><trkpt lat="42.163125" lon="14.64019"><ele>19.200000000000003</ele><time>2026-04-20T09:06:26.879Z</time></trkpt><trkpt lat="42.1630133" lon="14.6401667"><ele>19.8</ele><time>2026-04-20T09:06:28.879Z</time></trkpt><trkpt lat="42.162915" lon="14.6401267"><ele>20.400000000000002</ele><time>2026-04-20T09:06:30.878Z</time></trkpt><trkpt lat="42.1628183" lon="14.6400717"><ele>21.0</ele><time>2026-04-20T09:06:32.879Z</time></trkpt><trkpt lat="42.1627283" lon="14.6400183"><ele>21.0</ele><time>2026-04-20T09:06:34.878Z</time></trkpt><trkpt lat="42.1626467" lon="14.63997"><ele>21.0</ele><time>2026-04-20T09:06:36.879Z</time></trkpt><trkpt lat="42.162555" lon="14.6399167"><ele>21.0</ele><time>2026-04-20T09:06:38.879Z</time></trkpt><trkpt lat="42.1624633" lon="14.63987"><ele>21.0</ele><time>2026-04-20T09:06:40.878Z</time></trkpt><trkpt lat="42.1623767" lon="14.6398283"><ele>21.0</ele><time>2026-04-20T09:06:42.878Z</time></trkpt><trkpt lat="42.162295" lon="14.6397883"><ele>21.200000000000003</ele><time>2026-04-20T09:06:44.879Z</time></trkpt><trkpt lat="42.1622067" lon="14.6397417"><ele>21.400000000000002</ele><time>2026-04-20T09:06:46.879Z</time></trkpt><trkpt lat="42.16214" lon="14.6397183"><ele>21.6</ele><time>2026-04-20T09:06:47.879Z</time></trkpt><trkpt lat="42.1620333" lon="14.6396683"><ele>21.8</ele><time>2026-04-20T09:06:49.879Z</time></trkpt><trkpt lat="42.161935" lon="14.6396267"><ele>22.0</ele><time>2026-04-20T09:06:51.879Z</time></trkpt><trkpt lat="42.1618383" lon="14.6395883"><ele>22.0</ele><time>2026-04-20T09:06:53.879Z</time></trkpt><trkpt lat="42.16175" lon="14.6395483"><ele>22.0</ele><time>2026-04-20T09:06:55.878Z</time></trkpt><trkpt lat="42.161665" lon="14.6395067"><ele>22.0</ele><time>2026-04-20T09:06:57.878Z</time></trkpt><trkpt lat="42.161585" lon="14.639465"><ele>22.0</ele><time>2026-04-20T09:06:59.879Z</time></trkpt><trkpt lat="42.1615017" lon="14.6394233"><ele>22.0</ele><time>2026-04-20T09:07:01.879Z</time></trkpt><trkpt lat="42.1614233" lon="14.63938"><ele>22.0</ele><time>2026-04-20T09:07:03.879Z</time></trkpt><trkpt lat="42.1613367" lon="14.6393483"><ele>23.200000000000003</ele><time>2026-04-20T09:07:05.878Z</time></trkpt><trkpt lat="42.1612517" lon="14.6393017"><ele>24.4</ele><time>2026-04-20T09:07:07.879Z</time></trkpt><trkpt lat="42.161165" lon="14.63926"><ele>25.599999999999998</ele><time>2026-04-20T09:07:09.879Z</time></trkpt><trkpt lat="42.1610783" lon="14.6392133"><ele>26.799999999999997</ele><time>2026-04-20T09:07:11.879Z</time></trkpt><trkpt lat="42.1609917" lon="14.6391733"><ele>28.0</ele><time>2026-04-20T09:07:13.879Z</time></trkpt><trkpt lat="42.160905" lon="14.6391367"><ele>28.0</ele><time>2026-04-20T09:07:15.879Z</time></trkpt><trkpt lat="42.1608217" lon="14.6391"><ele>27.999999999999996</ele><time>2026-04-20T09:07:17.878Z</time></trkpt><trkpt lat="42.1607333" lon="14.6390617"><ele>27.999999999999996</ele><time>2026-04-20T09:07:19.878Z</time></trkpt><trkpt lat="42.1606433" lon="14.639025"><ele>28.0</ele><time>2026-04-20T09:07:21.879Z</time></trkpt><trkpt lat="42.16055" lon="14.6389917"><ele>28.0</ele><time>2026-04-20T09:07:23.879Z</time></trkpt><trkpt lat="42.1604667" lon="14.6389483"><ele>28.333333333333336</ele><time>2026-04-20T09:07:25.878Z</time></trkpt><trkpt lat="42.1603833" lon="14.6389117"><ele>28.666666666666668</ele><time>2026-04-20T09:07:27.879Z</time></trkpt><trkpt lat="42.1603033" lon="14.638865"><ele>29.0</ele><time>2026-04-20T09:07:29.879Z</time></trkpt><trkpt lat="42.160225" lon="14.6388283"><ele>29.333333333333336</ele><time>2026-04-20T09:07:31.879Z</time></trkpt><trkpt lat="42.1601583" lon="14.638805"><ele>29.666666666666668</ele><time>2026-04-20T09:07:33.879Z</time></trkpt><trkpt lat="42.1600883" lon="14.6387833"><ele>30.0</ele><time>2026-04-20T09:07:35.879Z</time></trkpt><trkpt lat="42.16002" lon="14.638765"><ele>30.0</ele><time>2026-04-20T09:07:37.878Z</time></trkpt><trkpt lat="42.1599367" lon="14.638735"><ele>30.0</ele><time>2026-04-20T09:07:40.879Z</time></trkpt><trkpt lat="42.1598083" lon="14.63871"><ele>30.0</ele><time>2026-04-20T09:07:44.878Z</time></trkpt><trkpt lat="42.1597367" lon="14.63868"><ele>30.0</ele><time>2026-04-20T09:07:45.879Z</time></trkpt><trkpt lat="42.1596167" lon="14.6386417"><ele>30.0</ele><time>2026-04-20T09:07:47.879Z</time></trkpt><trkpt lat="42.1595033" lon="14.6386017"><ele>29.6</ele><time>2026-04-20T09:07:49.878Z</time></trkpt><trkpt lat="42.1594117" lon="14.6385283"><ele>29.2</ele><time>2026-04-20T09:07:51.879Z</time></trkpt><trkpt lat="42.1593333" lon="14.638435"><ele>28.799999999999997</ele><time>2026-04-20T09:07:53.879Z</time></trkpt><trkpt lat="42.1592483" lon="14.6383633"><ele>28.4</ele><time>2026-04-20T09:07:55.878Z</time></trkpt><trkpt lat="42.159155" lon="14.6382967"><ele>28.0</ele><time>2026-04-20T09:07:57.879Z</time></trkpt><trkpt lat="42.1590633" lon="14.6382367"><ele>27.599999999999998</ele><time>2026-04-20T09:07:59.879Z</time></trkpt><trkpt lat="42.1589733" lon="14.6381633"><ele>27.199999999999996</ele><time>2026-04-20T09:08:01.879Z</time></trkpt><trkpt lat="42.158875" lon="14.638105"><ele>26.8</ele><time>2026-04-20T09:08:03.879Z</time></trkpt><trkpt lat="42.1587833" lon="14.6380483"><ele>26.4</ele><time>2026-04-20T09:08:05.878Z</time></trkpt><trkpt lat="42.1586917" lon="14.6380133"><ele>26.0</ele><time>2026-04-20T09:08:07.878Z</time></trkpt><trkpt lat="42.1586133" lon="14.6379767"><ele>25.999999999999996</ele><time>2026-04-20T09:08:09.879Z</time></trkpt><trkpt lat="42.1585267" lon="14.6379317"><ele>26.0</ele><time>2026-04-20T09:08:11.878Z</time></trkpt><trkpt lat="42.1584383" lon="14.6379067"><ele>26.0</ele><time>2026-04-20T09:08:13.878Z</time></trkpt><trkpt lat="42.1583583" lon="14.6378833"><ele>26.0</ele><time>2026-04-20T09:08:15.878Z</time></trkpt><trkpt lat="42.1582717" lon="14.63786"><ele>25.999999999999996</ele><time>2026-04-20T09:08:17.879Z</time></trkpt><trkpt lat="42.1581783" lon="14.637845"><ele>26.0</ele><time>2026-04-20T09:08:19.878Z</time></trkpt><trkpt lat="42.15809" lon="14.637825"><ele>26.0</ele><time>2026-04-20T09:08:21.878Z</time></trkpt><trkpt lat="42.158" lon="14.6378233"><ele>26.0</ele><time>2026-04-20T09:08:23.879Z</time></trkpt><trkpt lat="42.1579217" lon="14.63782"><ele>26.0</ele><time>2026-04-20T09:08:25.879Z</time></trkpt><trkpt lat="42.1578333" lon="14.6378183"><ele>26.0</ele><time>2026-04-20T09:08:27.879Z</time></trkpt><trkpt lat="42.157735" lon="14.6378267"><ele>26.0</ele><time>2026-04-20T09:08:29.879Z</time></trkpt><trkpt lat="42.1576333" lon="14.6378283"><ele>26.0</ele><time>2026-04-20T09:08:31.878Z</time></trkpt><trkpt lat="42.1575383" lon="14.637835"><ele>26.0</ele><time>2026-04-20T09:08:33.879Z</time></trkpt><trkpt lat="42.15745" lon="14.637845"><ele>26.0</ele><time>2026-04-20T09:08:35.878Z</time></trkpt><trkpt lat="42.1573633" lon="14.63786"><ele>26.0</ele><time>2026-04-20T09:08:37.878Z</time></trkpt><trkpt lat="42.157255" lon="14.63787"><ele>26.0</ele><time>2026-04-20T09:08:39.878Z</time></trkpt><trkpt lat="42.1571517" lon="14.63789"><ele>26.4</ele><time>2026-04-20T09:08:41.878Z</time></trkpt><trkpt lat="42.157045" lon="14.637915"><ele>26.8</ele><time>2026-04-20T09:08:43.879Z</time></trkpt><trkpt lat="42.1569467" lon="14.6379383"><ele>27.199999999999996</ele><time>2026-04-20T09:08:45.879Z</time></trkpt><trkpt lat="42.15685" lon="14.63797"><ele>27.599999999999998</ele><time>2026-04-20T09:08:47.879Z</time></trkpt><trkpt lat="42.1567583" lon="14.638"><ele>28.0</ele><time>2026-04-20T09:08:49.878Z</time></trkpt><trkpt lat="42.1566717" lon="14.6380267"><ele>28.0</ele><time>2026-04-20T09:08:51.879Z</time></trkpt><trkpt lat="42.1565767" lon="14.6380533"><ele>27.999999999999996</ele><time>2026-04-20T09:08:53.878Z</time></trkpt><trkpt lat="42.156485" lon="14.63809"><ele>27.999999999999996</ele><time>2026-04-20T09:08:55.879Z</time></trkpt><trkpt lat="42.156385" lon="14.6381317"><ele>28.0</ele><time>2026-04-20T09:08:57.878Z</time></trkpt><trkpt lat="42.156285" lon="14.6381767"><ele>28.0</ele><time>2026-04-20T09:08:59.879Z</time></trkpt><trkpt lat="42.1561883" lon="14.6382167"><ele>29.2</ele><time>2026-04-20T09:09:01.879Z</time></trkpt><trkpt lat="42.1560967" lon="14.6382567"><ele>30.4</ele><time>2026-04-20T09:09:03.878Z</time></trkpt><trkpt lat="42.1559917" lon="14.6382933"><ele>31.599999999999998</ele><time>2026-04-20T09:09:05.878Z</time></trkpt><trkpt lat="42.155905" lon="14.6383433"><ele>32.8</ele><time>2026-04-20T09:09:07.878Z</time></trkpt><trkpt lat="42.1558133" lon="14.638385"><ele>34.0</ele><time>2026-04-20T09:09:09.879Z</time></trkpt><trkpt lat="42.155725" lon="14.63842"><ele>34.16666666666667</ele><time>2026-04-20T09:09:11.879Z</time></trkpt><trkpt lat="42.1556383" lon="14.6384533"><ele>34.333333333333336</ele><time>2026-04-20T09:09:13.878Z</time></trkpt><trkpt lat="42.1555533" lon="14.6384917"><ele>34.5</ele><time>2026-04-20T09:09:15.878Z</time></trkpt><trkpt lat="42.1554667" lon="14.6385317"><ele>34.666666666666664</ele><time>2026-04-20T09:09:17.879Z</time></trkpt><trkpt lat="42.1553817" lon="14.638565"><ele>34.83333333333333</ele><time>2026-04-20T09:09:19.879Z</time></trkpt><trkpt lat="42.1552967" lon="14.6386"><ele>35.0</ele><time>2026-04-20T09:09:21.879Z</time></trkpt><trkpt lat="42.15521" lon="14.6386433"><ele>34.6</ele><time>2026-04-20T09:09:23.879Z</time></trkpt><trkpt lat="42.1551167" lon="14.6386867"><ele>34.2</ele><time>2026-04-20T09:09:25.879Z</time></trkpt><trkpt lat="42.15503" lon="14.638725"><ele>33.8</ele><time>2026-04-20T09:09:27.878Z</time></trkpt><trkpt lat="42.1549433" lon="14.6387583"><ele>33.4</ele><time>2026-04-20T09:09:29.879Z</time></trkpt><trkpt lat="42.15485" lon="14.6387967"><ele>33.0</ele><time>2026-04-20T09:09:31.879Z</time></trkpt><trkpt lat="42.1547617" lon="14.6388483"><ele>33.0</ele><time>2026-04-20T09:09:33.879Z</time></trkpt><trkpt lat="42.15468" lon="14.6388783"><ele>33.0</ele><time>2026-04-20T09:09:35.879Z</time></trkpt><trkpt lat="42.154585" lon="14.6389117"><ele>33.0</ele><time>2026-04-20T09:09:37.878Z</time></trkpt><trkpt lat="42.154505" lon="14.6389467"><ele>33.0</ele><time>2026-04-20T09:09:39.879Z</time></trkpt><trkpt lat="42.1544167" lon="14.6389867"><ele>33.0</ele><time>2026-04-20T09:09:41.879Z</time></trkpt><trkpt lat="42.15433" lon="14.63902"><ele>33.0</ele><time>2026-04-20T09:09:43.878Z</time></trkpt><trkpt lat="42.1542467" lon="14.6390567"><ele>33.0</ele><time>2026-04-20T09:09:45.879Z</time></trkpt><trkpt lat="42.1541633" lon="14.63909"><ele>33.0</ele><time>2026-04-20T09:09:47.879Z</time></trkpt><trkpt lat="42.1540717" lon="14.639125"><ele>33.0</ele><time>2026-04-20T09:09:49.879Z</time></trkpt><trkpt lat="42.1539767" lon="14.6391583"><ele>33.0</ele><time>2026-04-20T09:09:51.878Z</time></trkpt><trkpt lat="42.1538767" lon="14.6391983"><ele>32.6</ele><time>2026-04-20T09:09:53.879Z</time></trkpt><trkpt lat="42.15378" lon="14.6392317"><ele>32.199999999999996</ele><time>2026-04-20T09:09:55.879Z</time></trkpt><trkpt lat="42.153685" lon="14.6392583"><ele>31.8</ele><time>2026-04-20T09:09:57.878Z</time></trkpt><trkpt lat="42.1535917" lon="14.6392917"><ele>31.4</ele><time>2026-04-20T09:09:59.879Z</time></trkpt><trkpt lat="42.1534967" lon="14.639315"><ele>31.0</ele><time>2026-04-20T09:10:01.879Z</time></trkpt><trkpt lat="42.1534083" lon="14.6393333"><ele>31.0</ele><time>2026-04-20T09:10:03.879Z</time></trkpt><trkpt lat="42.1533167" lon="14.6393433"><ele>31.0</ele><time>2026-04-20T09:10:05.878Z</time></trkpt><trkpt lat="42.153225" lon="14.63936"><ele>31.0</ele><time>2026-04-20T09:10:07.879Z</time></trkpt><trkpt lat="42.153135" lon="14.6393767"><ele>31.0</ele><time>2026-04-20T09:10:09.879Z</time></trkpt><trkpt lat="42.15304" lon="14.6393883"><ele>31.0</ele><time>2026-04-20T09:10:11.879Z</time></trkpt><trkpt lat="42.1529467" lon="14.6393983"><ele>31.200000000000003</ele><time>2026-04-20T09:10:13.878Z</time></trkpt><trkpt lat="42.1528467" lon="14.6394133"><ele>31.400000000000002</ele><time>2026-04-20T09:10:15.878Z</time></trkpt><trkpt lat="42.1527383" lon="14.6394267"><ele>31.6</ele><time>2026-04-20T09:10:17.879Z</time></trkpt><trkpt lat="42.152645" lon="14.6394383"><ele>31.8</ele><time>2026-04-20T09:10:19.879Z</time></trkpt><trkpt lat="42.1525517" lon="14.63945"><ele>32.0</ele><time>2026-04-20T09:10:21.878Z</time></trkpt><trkpt lat="42.1524583" lon="14.63946"><ele>31.6</ele><time>2026-04-20T09:10:23.878Z</time></trkpt><trkpt lat="42.152365" lon="14.6394717"><ele>31.200000000000003</ele><time>2026-04-20T09:10:25.878Z</time></trkpt><trkpt lat="42.152265" lon="14.6394783"><ele>30.8</ele><time>2026-04-20T09:10:27.879Z</time></trkpt><trkpt lat="42.152165" lon="14.6394833"><ele>30.4</ele><time>2026-04-20T09:10:29.878Z</time></trkpt><trkpt lat="42.152065" lon="14.6394883"><ele>30.0</ele><time>2026-04-20T09:10:31.879Z</time></trkpt><trkpt lat="42.1519683" lon="14.639495"><ele>30.0</ele><time>2026-04-20T09:10:33.879Z</time></trkpt><trkpt lat="42.1518667" lon="14.639505"><ele>30.0</ele><time>2026-04-20T09:10:35.879Z</time></trkpt><trkpt lat="42.1517683" lon="14.639515"><ele>30.0</ele><time>2026-04-20T09:10:37.878Z</time></trkpt><trkpt lat="42.15167" lon="14.6395217"><ele>30.0</ele><time>2026-04-20T09:10:39.879Z</time></trkpt><trkpt lat="42.1515717" lon="14.639525"><ele>30.0</ele><time>2026-04-20T09:10:41.878Z</time></trkpt><trkpt lat="42.1514733" lon="14.6395317"><ele>29.8</ele><time>2026-04-20T09:10:43.879Z</time></trkpt><trkpt lat="42.1513767" lon="14.6395383"><ele>29.6</ele><time>2026-04-20T09:10:45.879Z</time></trkpt><trkpt lat="42.1512783" lon="14.6395467"><ele>29.4</ele><time>2026-04-20T09:10:47.878Z</time></trkpt><trkpt lat="42.1511783" lon="14.639555"><ele>29.2</ele><time>2026-04-20T09:10:49.878Z</time></trkpt><trkpt lat="42.1510817" lon="14.6395633"><ele>29.0</ele><time>2026-04-20T09:10:51.879Z</time></trkpt><trkpt lat="42.1509833" lon="14.6395667"><ele>29.0</ele><time>2026-04-20T09:10:53.878Z</time></trkpt><trkpt lat="42.150885" lon="14.6395717"><ele>29.0</ele><time>2026-04-20T09:10:55.879Z</time></trkpt><trkpt lat="42.1507817" lon="14.6395783"><ele>29.0</ele><time>2026-04-20T09:10:57.879Z</time></trkpt><trkpt lat="42.15067" lon="14.63959"><ele>29.0</ele><time>2026-04-20T09:10:59.879Z</time></trkpt><trkpt lat="42.15057" lon="14.6396"><ele>29.0</ele><time>2026-04-20T09:11:01.879Z</time></trkpt><trkpt lat="42.1504783" lon="14.6396083"><ele>29.4</ele><time>2026-04-20T09:11:03.879Z</time></trkpt><trkpt lat="42.1503867" lon="14.639615"><ele>29.799999999999997</ele><time>2026-04-20T09:11:05.878Z</time></trkpt><trkpt lat="42.1502967" lon="14.6396167"><ele>30.200000000000003</ele><time>2026-04-20T09:11:07.879Z</time></trkpt><trkpt lat="42.1502067" lon="14.6396283"><ele>30.6</ele><time>2026-04-20T09:11:09.878Z</time></trkpt><trkpt lat="42.150115" lon="14.6396383"><ele>31.0</ele><time>2026-04-20T09:11:11.879Z</time></trkpt><trkpt lat="42.1500283" lon="14.6396467"><ele>31.000000000000004</ele><time>2026-04-20T09:11:13.878Z</time></trkpt><trkpt lat="42.1499383" lon="14.639645"><ele>31.0</ele><time>2026-04-20T09:11:15.879Z</time></trkpt><trkpt lat="42.14985" lon="14.6396667"><ele>31.0</ele><time>2026-04-20T09:11:17.878Z</time></trkpt><trkpt lat="42.1497617" lon="14.639685"><ele>31.0</ele><time>2026-04-20T09:11:19.879Z</time></trkpt><trkpt lat="42.149675" lon="14.639705"><ele>31.000000000000004</ele><time>2026-04-20T09:11:21.879Z</time></trkpt><trkpt lat="42.1495867" lon="14.6397183"><ele>31.0</ele><time>2026-04-20T09:11:23.879Z</time></trkpt><trkpt lat="42.1494967" lon="14.6397467"><ele>32.0</ele><time>2026-04-20T09:11:25.878Z</time></trkpt><trkpt lat="42.1494017" lon="14.63977"><ele>33.0</ele><time>2026-04-20T09:11:27.879Z</time></trkpt><trkpt lat="42.1493017" lon="14.639805"><ele>34.0</ele><time>2026-04-20T09:11:29.878Z</time></trkpt><trkpt lat="42.14922" lon="14.63981"><ele>35.0</ele><time>2026-04-20T09:11:31.879Z</time></trkpt><trkpt lat="42.1491383" lon="14.639825"><ele>36.0</ele><time>2026-04-20T09:11:33.879Z</time></trkpt><trkpt lat="42.14905" lon="14.6398483"><ele>36.166666666666664</ele><time>2026-04-20T09:11:35.879Z</time></trkpt><trkpt lat="42.14897" lon="14.6398683"><ele>36.333333333333336</ele><time>2026-04-20T09:11:37.879Z</time></trkpt><trkpt lat="42.1488933" lon="14.63989"><ele>36.5</ele><time>2026-04-20T09:11:39.879Z</time></trkpt><trkpt lat="42.1488067" lon="14.6399167"><ele>36.66666666666667</ele><time>2026-04-20T09:11:41.879Z</time></trkpt><trkpt lat="42.148725" lon="14.6399383"><ele>36.833333333333336</ele><time>2026-04-20T09:11:43.878Z</time></trkpt><trkpt lat="42.1486333" lon="14.63996"><ele>37.0</ele><time>2026-04-20T09:11:45.878Z</time></trkpt><trkpt lat="42.148555" lon="14.6399917"><ele>37.0</ele><time>2026-04-20T09:11:47.879Z</time></trkpt><trkpt lat="42.14847" lon="14.640025"><ele>37.0</ele><time>2026-04-20T09:11:49.879Z</time></trkpt><trkpt lat="42.1483833" lon="14.6400533"><ele>37.0</ele><time>2026-04-20T09:11:51.879Z</time></trkpt><trkpt lat="42.1482933" lon="14.640065"><ele>37.0</ele><time>2026-04-20T09:11:53.879Z</time></trkpt><trkpt lat="42.1482" lon="14.640095"><ele>37.0</ele><time>2026-04-20T09:11:55.878Z</time></trkpt><trkpt lat="42.148105" lon="14.6401233"><ele>37.4</ele><time>2026-04-20T09:11:57.878Z</time></trkpt><trkpt lat="42.1480067" lon="14.6401433"><ele>37.800000000000004</ele><time>2026-04-20T09:11:59.879Z</time></trkpt><trkpt lat="42.1479117" lon="14.6401617"><ele>38.2</ele><time>2026-04-20T09:12:01.878Z</time></trkpt><trkpt lat="42.147815" lon="14.64019"><ele>38.6</ele><time>2026-04-20T09:12:03.879Z</time></trkpt><trkpt lat="42.147725" lon="14.6402033"><ele>39.0</ele><time>2026-04-20T09:12:05.879Z</time></trkpt><trkpt lat="42.1476317" lon="14.6402283"><ele>39.0</ele><time>2026-04-20T09:12:07.879Z</time></trkpt><trkpt lat="42.1475383" lon="14.6402517"><ele>39.0</ele><time>2026-04-20T09:12:09.878Z</time></trkpt><trkpt lat="42.147445" lon="14.6402683"><ele>39.0</ele><time>2026-04-20T09:12:11.879Z</time></trkpt><trkpt lat="42.1473517" lon="14.6402917"><ele>39.0</ele><time>2026-04-20T09:12:13.878Z</time></trkpt><trkpt lat="42.1472617" lon="14.6403033"><ele>39.0</ele><time>2026-04-20T09:12:15.878Z</time></trkpt><trkpt lat="42.1471667" lon="14.6403183"><ele>37.8</ele><time>2026-04-20T09:12:17.879Z</time></trkpt><trkpt lat="42.147075" lon="14.64033"><ele>36.599999999999994</ele><time>2026-04-20T09:12:19.879Z</time></trkpt><trkpt lat="42.1469833" lon="14.6403417"><ele>35.4</ele><time>2026-04-20T09:12:21.879Z</time></trkpt><trkpt lat="42.1468833" lon="14.640355"><ele>34.199999999999996</ele><time>2026-04-20T09:12:23.878Z</time></trkpt><trkpt lat="42.1467833" lon="14.6403733"><ele>33.0</ele><time>2026-04-20T09:12:25.878Z</time></trkpt><trkpt lat="42.1466933" lon="14.6403867"><ele>33.0</ele><time>2026-04-20T09:12:27.878Z</time></trkpt><trkpt lat="42.1465933" lon="14.6404017"><ele>33.0</ele><time>2026-04-20T09:12:29.879Z</time></trkpt><trkpt lat="42.1465017" lon="14.64041"><ele>33.0</ele><time>2026-04-20T09:12:31.879Z</time></trkpt><trkpt lat="42.1464033" lon="14.640425"><ele>33.0</ele><time>2026-04-20T09:12:33.879Z</time></trkpt><trkpt lat="42.146315" lon="14.64043"><ele>33.0</ele><time>2026-04-20T09:12:35.879Z</time></trkpt><trkpt lat="42.14622" lon="14.64044"><ele>33.4</ele><time>2026-04-20T09:12:37.878Z</time></trkpt><trkpt lat="42.14613" lon="14.64045"><ele>33.8</ele><time>2026-04-20T09:12:39.879Z</time></trkpt><trkpt lat="42.1460367" lon="14.6404533"><ele>34.2</ele><time>2026-04-20T09:12:41.879Z</time></trkpt><trkpt lat="42.1459467" lon="14.640465"><ele>34.6</ele><time>2026-04-20T09:12:43.879Z</time></trkpt><trkpt lat="42.1458433" lon="14.64048"><ele>35.0</ele><time>2026-04-20T09:12:45.879Z</time></trkpt><trkpt lat="42.1457417" lon="14.6404933"><ele>35.6</ele><time>2026-04-20T09:12:47.879Z</time></trkpt><trkpt lat="42.1456417" lon="14.6405017"><ele>36.2</ele><time>2026-04-20T09:12:49.878Z</time></trkpt><trkpt lat="42.14555" lon="14.6405067"><ele>36.8</ele><time>2026-04-20T09:12:51.879Z</time></trkpt><trkpt lat="42.1454617" lon="14.64052"><ele>37.4</ele><time>2026-04-20T09:12:53.879Z</time></trkpt><trkpt lat="42.1453767" lon="14.6405183"><ele>38.0</ele><time>2026-04-20T09:12:55.879Z</time></trkpt><trkpt lat="42.1452783" lon="14.6405267"><ele>38.0</ele><time>2026-04-20T09:12:57.878Z</time></trkpt><trkpt lat="42.1451883" lon="14.6405283"><ele>38.0</ele><time>2026-04-20T09:12:59.879Z</time></trkpt><trkpt lat="42.1451017" lon="14.64053"><ele>38.0</ele><time>2026-04-20T09:13:01.879Z</time></trkpt><trkpt lat="42.14502" lon="14.6405333"><ele>38.0</ele><time>2026-04-20T09:13:03.879Z</time></trkpt><trkpt lat="42.14494" lon="14.6405383"><ele>38.0</ele><time>2026-04-20T09:13:05.879Z</time></trkpt><trkpt lat="42.14486" lon="14.640545"><ele>38.0</ele><time>2026-04-20T09:13:07.879Z</time></trkpt><trkpt lat="42.1447717" lon="14.640545"><ele>38.666666666666664</ele><time>2026-04-20T09:13:09.879Z</time></trkpt><trkpt lat="42.1446883" lon="14.6405533"><ele>39.33333333333333</ele><time>2026-04-20T09:13:11.879Z</time></trkpt><trkpt lat="42.1446017" lon="14.64056"><ele>40.0</ele><time>2026-04-20T09:13:13.879Z</time></trkpt><trkpt lat="42.1445133" lon="14.6405833"><ele>40.666666666666664</ele><time>2026-04-20T09:13:15.879Z</time></trkpt><trkpt lat="42.1444217" lon="14.6406017"><ele>41.333333333333336</ele><time>2026-04-20T09:13:17.879Z</time></trkpt><trkpt lat="42.1443267" lon="14.6406167"><ele>42.0</ele><time>2026-04-20T09:13:19.879Z</time></trkpt><trkpt lat="42.144235" lon="14.6406217"><ele>42.0</ele><time>2026-04-20T09:13:21.879Z</time></trkpt><trkpt lat="42.1441583" lon="14.6406283"><ele>42.0</ele><time>2026-04-20T09:13:23.879Z</time></trkpt><trkpt lat="42.1440783" lon="14.6406283"><ele>42.0</ele><time>2026-04-20T09:13:25.878Z</time></trkpt><trkpt lat="42.1439917" lon="14.64063"><ele>42.0</ele><time>2026-04-20T09:13:27.879Z</time></trkpt><trkpt lat="42.1439017" lon="14.6406283"><ele>42.0</ele><time>2026-04-20T09:13:29.878Z</time></trkpt><trkpt lat="42.1438033" lon="14.640635"><ele>42.0</ele><time>2026-04-20T09:13:31.878Z</time></trkpt><trkpt lat="42.1437117" lon="14.6406417"><ele>42.400000000000006</ele><time>2026-04-20T09:13:33.879Z</time></trkpt><trkpt lat="42.1436183" lon="14.640645"><ele>42.800000000000004</ele><time>2026-04-20T09:13:35.879Z</time></trkpt><trkpt lat="42.1435317" lon="14.6406517"><ele>43.2</ele><time>2026-04-20T09:13:37.879Z</time></trkpt><trkpt lat="42.1434433" lon="14.640655"><ele>43.6</ele><time>2026-04-20T09:13:39.879Z</time></trkpt><trkpt lat="42.1433533" lon="14.6406617"><ele>44.0</ele><time>2026-04-20T09:13:41.878Z</time></trkpt><trkpt lat="42.1432583" lon="14.6406683"><ele>43.666666666666664</ele><time>2026-04-20T09:13:43.879Z</time></trkpt><trkpt lat="42.1431683" lon="14.6406783"><ele>43.33333333333333</ele><time>2026-04-20T09:13:45.878Z</time></trkpt><trkpt lat="42.1430767" lon="14.64069"><ele>43.0</ele><time>2026-04-20T09:13:47.879Z</time></trkpt><trkpt lat="42.1429817" lon="14.6406967"><ele>42.666666666666664</ele><time>2026-04-20T09:13:49.878Z</time></trkpt><trkpt lat="42.142895" lon="14.6407117"><ele>42.333333333333336</ele><time>2026-04-20T09:13:51.879Z</time></trkpt><trkpt lat="42.1428133" lon="14.6407133"><ele>42.0</ele><time>2026-04-20T09:13:53.878Z</time></trkpt><trkpt lat="42.1427167" lon="14.6407217"><ele>42.0</ele><time>2026-04-20T09:13:55.878Z</time></trkpt><trkpt lat="42.142615" lon="14.6407267"><ele>42.0</ele><time>2026-04-20T09:13:57.879Z</time></trkpt><trkpt lat="42.1425117" lon="14.64073"><ele>42.0</ele><time>2026-04-20T09:13:59.879Z</time></trkpt><trkpt lat="42.1424133" lon="14.64073"><ele>42.0</ele><time>2026-04-20T09:14:01.878Z</time></trkpt><trkpt lat="42.1423217" lon="14.6407517"><ele>42.0</ele><time>2026-04-20T09:14:03.878Z</time></trkpt><trkpt lat="42.1422367" lon="14.64076"><ele>42.333333333333336</ele><time>2026-04-20T09:14:05.878Z</time></trkpt><trkpt lat="42.14216" lon="14.6407633"><ele>42.666666666666664</ele><time>2026-04-20T09:14:07.878Z</time></trkpt><trkpt lat="42.1420767" lon="14.6407783"><ele>43.0</ele><time>2026-04-20T09:14:09.879Z</time></trkpt><trkpt lat="42.1419883" lon="14.6407917"><ele>43.33333333333333</ele><time>2026-04-20T09:14:11.878Z</time></trkpt><trkpt lat="42.1419" lon="14.6408183"><ele>43.666666666666664</ele><time>2026-04-20T09:14:13.879Z</time></trkpt><trkpt lat="42.141805" lon="14.6408417"><ele>44.0</ele><time>2026-04-20T09:14:15.879Z</time></trkpt><trkpt lat="42.141695" lon="14.6408683"><ele>44.0</ele><time>2026-04-20T09:14:17.879Z</time></trkpt><trkpt lat="42.1415883" lon="14.6409067"><ele>44.0</ele><time>2026-04-20T09:14:19.878Z</time></trkpt><trkpt lat="42.1414833" lon="14.6409433"><ele>44.0</ele><time>2026-04-20T09:14:21.879Z</time></trkpt><trkpt lat="42.14138" lon="14.640975"><ele>44.0</ele><time>2026-04-20T09:14:23.878Z</time></trkpt><trkpt lat="42.1412567" lon="14.6410017"><ele>44.285714285714285</ele><time>2026-04-20T09:14:25.879Z</time></trkpt><trkpt lat="42.1411917" lon="14.64102"><ele>44.57142857142857</ele><time>2026-04-20T09:14:26.879Z</time></trkpt><trkpt lat="42.1411233" lon="14.6410367"><ele>44.85714285714286</ele><time>2026-04-20T09:14:27.878Z</time></trkpt><trkpt lat="42.141055" lon="14.6410567"><ele>45.14285714285714</ele><time>2026-04-20T09:14:28.879Z</time></trkpt><trkpt lat="42.1409883" lon="14.641075"><ele>45.42857142857142</ele><time>2026-04-20T09:14:29.879Z</time></trkpt><trkpt lat="42.1409217" lon="14.641095"><ele>45.714285714285715</ele><time>2026-04-20T09:14:30.878Z</time></trkpt><trkpt lat="42.140855" lon="14.6411183"><ele>46.0</ele><time>2026-04-20T09:14:31.879Z</time></trkpt><trkpt lat="42.14079" lon="14.6411367"><ele>45.0</ele><time>2026-04-20T09:14:32.878Z</time></trkpt><trkpt lat="42.1407217" lon="14.6411533"><ele>44.0</ele><time>2026-04-20T09:14:33.878Z</time></trkpt><trkpt lat="42.14065" lon="14.6411767"><ele>43.0</ele><time>2026-04-20T09:14:34.879Z</time></trkpt><trkpt lat="42.1405783" lon="14.6411983"><ele>42.0</ele><time>2026-04-20T09:14:35.879Z</time></trkpt><trkpt lat="42.1404983" lon="14.6412217"><ele>41.0</ele><time>2026-04-20T09:14:36.879Z</time></trkpt><trkpt lat="42.14042" lon="14.6412533"><ele>40.0</ele><time>2026-04-20T09:14:37.879Z</time></trkpt><trkpt lat="42.1403517" lon="14.6412733"><ele>40.0</ele><time>2026-04-20T09:14:38.879Z</time></trkpt><trkpt lat="42.1402817" lon="14.6412933"><ele>40.0</ele><time>2026-04-20T09:14:39.879Z</time></trkpt><trkpt lat="42.1402133" lon="14.641315"><ele>40.0</ele><time>2026-04-20T09:14:40.878Z</time></trkpt><trkpt lat="42.1401383" lon="14.6413433"><ele>40.0</ele><time>2026-04-20T09:14:41.879Z</time></trkpt><trkpt lat="42.1400667" lon="14.64137"><ele>40.0</ele><time>2026-04-20T09:14:42.879Z</time></trkpt><trkpt lat="42.13999" lon="14.64138"><ele>40.0</ele><time>2026-04-20T09:14:43.879Z</time></trkpt><trkpt lat="42.1399083" lon="14.6414017"><ele>40.0</ele><time>2026-04-20T09:14:44.878Z</time></trkpt><trkpt lat="42.13984" lon="14.64142"><ele>40.0</ele><time>2026-04-20T09:14:45.879Z</time></trkpt><trkpt lat="42.139775" lon="14.6414433"><ele>40.0</ele><time>2026-04-20T09:14:46.878Z</time></trkpt><trkpt lat="42.13971" lon="14.6414633"><ele>40.0</ele><time>2026-04-20T09:14:47.878Z</time></trkpt><trkpt lat="42.1396467" lon="14.6414833"><ele>40.0</ele><time>2026-04-20T09:14:48.879Z</time></trkpt><trkpt lat="42.139535" lon="14.6415367"><ele>40.0</ele><time>2026-04-20T09:14:50.878Z</time></trkpt><trkpt lat="42.1394317" lon="14.64158"><ele>40.0</ele><time>2026-04-20T09:14:52.879Z</time></trkpt><trkpt lat="42.1393283" lon="14.6416133"><ele>40.0</ele><time>2026-04-20T09:14:54.879Z</time></trkpt><trkpt lat="42.1392067" lon="14.64163"><ele>40.0</ele><time>2026-04-20T09:14:56.878Z</time></trkpt><trkpt lat="42.1390867" lon="14.641615"><ele>40.0</ele><time>2026-04-20T09:14:58.879Z</time></trkpt><trkpt lat="42.1390167" lon="14.6415917"><ele>40.0</ele><time>2026-04-20T09:14:59.879Z</time></trkpt><trkpt lat="42.13895" lon="14.6415633"><ele>39.8</ele><time>2026-04-20T09:15:00.879Z</time></trkpt><trkpt lat="42.1388267" lon="14.6415217"><ele>39.6</ele><time>2026-04-20T09:15:02.879Z</time></trkpt><trkpt lat="42.1387617" lon="14.641495"><ele>39.4</ele><time>2026-04-20T09:15:03.879Z</time></trkpt><trkpt lat="42.1386467" lon="14.6414483"><ele>39.2</ele><time>2026-04-20T09:15:05.879Z</time></trkpt><trkpt lat="42.13855" lon="14.6413867"><ele>39.0</ele><time>2026-04-20T09:15:07.879Z</time></trkpt><trkpt lat="42.138445" lon="14.641335"><ele>39.0</ele><time>2026-04-20T09:15:09.879Z</time></trkpt><trkpt lat="42.1383417" lon="14.641285"><ele>39.0</ele><time>2026-04-20T09:15:11.878Z</time></trkpt><trkpt lat="42.138245" lon="14.641235"><ele>39.0</ele><time>2026-04-20T09:15:13.879Z</time></trkpt><trkpt lat="42.13816" lon="14.6411817"><ele>39.0</ele><time>2026-04-20T09:15:15.879Z</time></trkpt><trkpt lat="42.1380683" lon="14.64114"><ele>39.0</ele><time>2026-04-20T09:15:17.879Z</time></trkpt><trkpt lat="42.1379667" lon="14.641095"><ele>39.2</ele><time>2026-04-20T09:15:19.879Z</time></trkpt><trkpt lat="42.1378667" lon="14.6410433"><ele>39.4</ele><time>2026-04-20T09:15:21.879Z</time></trkpt><trkpt lat="42.1377717" lon="14.64099"><ele>39.6</ele><time>2026-04-20T09:15:23.878Z</time></trkpt><trkpt lat="42.1376917" lon="14.64094"><ele>39.8</ele><time>2026-04-20T09:15:25.878Z</time></trkpt><trkpt lat="42.1376033" lon="14.64089"><ele>40.0</ele><time>2026-04-20T09:15:27.878Z</time></trkpt><trkpt lat="42.137515" lon="14.6408433"><ele>40.0</ele><time>2026-04-20T09:15:29.879Z</time></trkpt><trkpt lat="42.1374217" lon="14.6408"><ele>40.0</ele><time>2026-04-20T09:15:31.879Z</time></trkpt><trkpt lat="42.1373283" lon="14.640755"><ele>40.0</ele><time>2026-04-20T09:15:33.878Z</time></trkpt><trkpt lat="42.1372433" lon="14.6407117"><ele>40.0</ele><time>2026-04-20T09:15:35.879Z</time></trkpt><trkpt lat="42.1371533" lon="14.6406583"><ele>40.0</ele><time>2026-04-20T09:15:37.879Z</time></trkpt><trkpt lat="42.1370633" lon="14.640615"><ele>39.8</ele><time>2026-04-20T09:15:39.879Z</time></trkpt><trkpt lat="42.136975" lon="14.640575"><ele>39.6</ele><time>2026-04-20T09:15:41.878Z</time></trkpt><trkpt lat="42.1368917" lon="14.6405383"><ele>39.4</ele><time>2026-04-20T09:15:43.879Z</time></trkpt><trkpt lat="42.1368083" lon="14.6404983"><ele>39.2</ele><time>2026-04-20T09:15:45.879Z</time></trkpt><trkpt lat="42.136725" lon="14.640455"><ele>39.0</ele><time>2026-04-20T09:15:47.878Z</time></trkpt><trkpt lat="42.1366333" lon="14.64042"><ele>40.2</ele><time>2026-04-20T09:15:49.879Z</time></trkpt><trkpt lat="42.136535" lon="14.6403867"><ele>41.4</ele><time>2026-04-20T09:15:51.879Z</time></trkpt><trkpt lat="42.13643" lon="14.64035"><ele>42.6</ele><time>2026-04-20T09:15:53.879Z</time></trkpt><trkpt lat="42.1363317" lon="14.640325"><ele>43.8</ele><time>2026-04-20T09:15:55.878Z</time></trkpt><trkpt lat="42.1362317" lon="14.6403117"><ele>45.0</ele><time>2026-04-20T09:15:57.878Z</time></trkpt><trkpt lat="42.1361317" lon="14.64029"><ele>45.6</ele><time>2026-04-20T09:15:59.878Z</time></trkpt><trkpt lat="42.1360367" lon="14.640275"><ele>46.2</ele><time>2026-04-20T09:16:01.878Z</time></trkpt><trkpt lat="42.1359383" lon="14.6402583"><ele>46.8</ele><time>2026-04-20T09:16:03.879Z</time></trkpt><trkpt lat="42.1358433" lon="14.6402517"><ele>47.4</ele><time>2026-04-20T09:16:05.879Z</time></trkpt><trkpt lat="42.1357483" lon="14.640245"><ele>48.0</ele><time>2026-04-20T09:16:07.879Z</time></trkpt><trkpt lat="42.1356617" lon="14.6402333"><ele>49.0</ele><time>2026-04-20T09:16:09.878Z</time></trkpt><trkpt lat="42.135575" lon="14.640225"><ele>50.0</ele><time>2026-04-20T09:16:11.878Z</time></trkpt><trkpt lat="42.1354733" lon="14.64021"><ele>51.0</ele><time>2026-04-20T09:16:13.878Z</time></trkpt><trkpt lat="42.13538" lon="14.6401967"><ele>52.0</ele><time>2026-04-20T09:16:15.879Z</time></trkpt><trkpt lat="42.1352983" lon="14.6401917"><ele>53.0</ele><time>2026-04-20T09:16:18.879Z</time></trkpt><trkpt lat="42.1352317" lon="14.6401933"><ele>54.0</ele><time>2026-04-20T09:16:20.878Z</time></trkpt><trkpt lat="42.135165" lon="14.6401933"><ele>54.0</ele><time>2026-04-20T09:16:22.879Z</time></trkpt><trkpt lat="42.1350883" lon="14.6401733"><ele>54.0</ele><time>2026-04-20T09:16:24.878Z</time></trkpt><trkpt lat="42.1350233" lon="14.6401533"><ele>54.0</ele><time>2026-04-20T09:16:26.879Z</time></trkpt><trkpt lat="42.1349433" lon="14.6401317"><ele>54.0</ele><time>2026-04-20T09:16:28.878Z</time></trkpt><trkpt lat="42.13486" lon="14.6401217"><ele>54.0</ele><time>2026-04-20T09:16:30.878Z</time></trkpt><trkpt lat="42.13477" lon="14.6401033"><ele>54.0</ele><time>2026-04-20T09:16:32.879Z</time></trkpt><trkpt lat="42.1346683" lon="14.64009"><ele>54.2</ele><time>2026-04-20T09:16:34.879Z</time></trkpt><trkpt lat="42.1345717" lon="14.6400783"><ele>54.400000000000006</ele><time>2026-04-20T09:16:36.878Z</time></trkpt><trkpt lat="42.1344683" lon="14.640065"><ele>54.6</ele><time>2026-04-20T09:16:38.878Z</time></trkpt><trkpt lat="42.1343733" lon="14.6400483"><ele>54.8</ele><time>2026-04-20T09:16:40.879Z</time></trkpt><trkpt lat="42.13429" lon="14.6400333"><ele>55.0</ele><time>2026-04-20T09:16:42.878Z</time></trkpt><trkpt lat="42.13421" lon="14.6400267"><ele>54.99999999999999</ele><time>2026-04-20T09:16:44.879Z</time></trkpt><trkpt lat="42.1341283" lon="14.6400133"><ele>55.0</ele><time>2026-04-20T09:16:46.879Z</time></trkpt><trkpt lat="42.13405" lon="14.6400117"><ele>55.0</ele><time>2026-04-20T09:16:48.879Z</time></trkpt><trkpt lat="42.1339717" lon="14.6400017"><ele>55.0</ele><time>2026-04-20T09:16:50.879Z</time></trkpt><trkpt lat="42.13389" lon="14.640005"><ele>54.99999999999999</ele><time>2026-04-20T09:16:52.879Z</time></trkpt><trkpt lat="42.1338117" lon="14.6400017"><ele>55.0</ele><time>2026-04-20T09:16:54.879Z</time></trkpt><trkpt lat="42.13372" lon="14.6399833"><ele>56.49999999999999</ele><time>2026-04-20T09:16:56.879Z</time></trkpt><trkpt lat="42.13364" lon="14.63997"><ele>58.0</ele><time>2026-04-20T09:16:58.878Z</time></trkpt><trkpt lat="42.1335633" lon="14.639955"><ele>59.5</ele><time>2026-04-20T09:17:00.878Z</time></trkpt><trkpt lat="42.133485" lon="14.6399483"><ele>61.0</ele><time>2026-04-20T09:17:02.879Z</time></trkpt><trkpt lat="42.1334067" lon="14.63994"><ele>62.49999999999999</ele><time>2026-04-20T09:17:04.879Z</time></trkpt><trkpt lat="42.133325" lon="14.6399367"><ele>64.0</ele><time>2026-04-20T09:17:06.879Z</time></trkpt><trkpt lat="42.1332483" lon="14.6399383"><ele>64.83333333333333</ele><time>2026-04-20T09:17:08.879Z</time></trkpt><trkpt lat="42.1331783" lon="14.639925"><ele>65.66666666666666</ele><time>2026-04-20T09:17:10.879Z</time></trkpt><trkpt lat="42.13311" lon="14.6399117"><ele>66.5</ele><time>2026-04-20T09:17:12.878Z</time></trkpt><trkpt lat="42.133045" lon="14.6399017"><ele>67.33333333333333</ele><time>2026-04-20T09:17:14.879Z</time></trkpt><trkpt lat="42.1329733" lon="14.6399"><ele>68.16666666666667</ele><time>2026-04-20T09:17:16.878Z</time></trkpt><trkpt lat="42.1328767" lon="14.639905"><ele>69.0</ele><time>2026-04-20T09:17:19.879Z</time></trkpt><trkpt lat="42.132785" lon="14.63991"><ele>69.0</ele><time>2026-04-20T09:17:21.878Z</time></trkpt><trkpt lat="42.1326883" lon="14.639935"><ele>69.0</ele><time>2026-04-20T09:17:23.879Z</time></trkpt><trkpt lat="42.13259" lon="14.6399567"><ele>69.0</ele><time>2026-04-20T09:17:25.878Z</time></trkpt><trkpt lat="42.1325017" lon="14.6399733"><ele>69.0</ele><time>2026-04-20T09:17:27.878Z</time></trkpt><trkpt lat="42.1324133" lon="14.6399917"><ele>69.0</ele><time>2026-04-20T09:17:29.879Z</time></trkpt><trkpt lat="42.1323267" lon="14.640005"><ele>69.0</ele><time>2026-04-20T09:17:31.878Z</time></trkpt><trkpt lat="42.1322533" lon="14.6400217"><ele>69.0</ele><time>2026-04-20T09:17:33.878Z</time></trkpt><trkpt lat="42.1321717" lon="14.64004"><ele>69.0</ele><time>2026-04-20T09:17:35.879Z</time></trkpt><trkpt lat="42.13208" lon="14.6400733"><ele>69.0</ele><time>2026-04-20T09:17:37.879Z</time></trkpt><trkpt lat="42.1319967" lon="14.6400933"><ele>69.0</ele><time>2026-04-20T09:17:39.878Z</time></trkpt><trkpt lat="42.1318983" lon="14.6401017"><ele>69.0</ele><time>2026-04-20T09:17:41.879Z</time></trkpt><trkpt lat="42.1317867" lon="14.6401317"><ele>69.0</ele><time>2026-04-20T09:17:43.879Z</time></trkpt><trkpt lat="42.131675" lon="14.6401567"><ele>69.0</ele><time>2026-04-20T09:17:45.879Z</time></trkpt><trkpt lat="42.1315817" lon="14.6401767"><ele>69.0</ele><time>2026-04-20T09:17:47.878Z</time></trkpt><trkpt lat="42.1314817" lon="14.640205"><ele>69.0</ele><time>2026-04-20T09:17:49.878Z</time></trkpt><trkpt lat="42.1313817" lon="14.64023"><ele>69.0</ele><time>2026-04-20T09:17:51.878Z</time></trkpt><trkpt lat="42.1312967" lon="14.6402567"><ele>69.2</ele><time>2026-04-20T09:17:53.879Z</time></trkpt><trkpt lat="42.131205" lon="14.6402917"><ele>69.4</ele><time>2026-04-20T09:17:55.879Z</time></trkpt><trkpt lat="42.1311033" lon="14.6403233"><ele>69.6</ele><time>2026-04-20T09:17:57.878Z</time></trkpt><trkpt lat="42.131005" lon="14.640355"><ele>69.8</ele><time>2026-04-20T09:17:59.878Z</time></trkpt><trkpt lat="42.13091" lon="14.6403917"><ele>70.0</ele><time>2026-04-20T09:18:01.878Z</time></trkpt><trkpt lat="42.1308117" lon="14.6404267"><ele>68.0</ele><time>2026-04-20T09:18:03.879Z</time></trkpt><trkpt lat="42.13072" lon="14.6404617"><ele>66.0</ele><time>2026-04-20T09:18:05.878Z</time></trkpt><trkpt lat="42.1306233" lon="14.6404917"><ele>64.0</ele><time>2026-04-20T09:18:07.879Z</time></trkpt><trkpt lat="42.1305333" lon="14.64052"><ele>62.0</ele><time>2026-04-20T09:18:09.879Z</time></trkpt><trkpt lat="42.1304383" lon="14.640565"><ele>60.0</ele><time>2026-04-20T09:18:11.879Z</time></trkpt><trkpt lat="42.1303517" lon="14.6405867"><ele>60.0</ele><time>2026-04-20T09:18:13.879Z</time></trkpt><trkpt lat="42.1302617" lon="14.6406033"><ele>60.0</ele><time>2026-04-20T09:18:15.879Z</time></trkpt><trkpt lat="42.1301633" lon="14.64064"><ele>60.0</ele><time>2026-04-20T09:18:17.878Z</time></trkpt><trkpt lat="42.1300717" lon="14.640675"><ele>60.0</ele><time>2026-04-20T09:18:19.878Z</time></trkpt><trkpt lat="42.1299633" lon="14.6407233"><ele>60.0</ele><time>2026-04-20T09:18:21.878Z</time></trkpt><trkpt lat="42.129855" lon="14.6407617"><ele>59.8</ele><time>2026-04-20T09:18:23.879Z</time></trkpt><trkpt lat="42.129745" lon="14.6407983"><ele>59.6</ele><time>2026-04-20T09:18:25.878Z</time></trkpt><trkpt lat="42.129625" lon="14.6408383"><ele>59.400000000000006</ele><time>2026-04-20T09:18:27.879Z</time></trkpt><trkpt lat="42.1295083" lon="14.6408917"><ele>59.2</ele><time>2026-04-20T09:18:29.879Z</time></trkpt><trkpt lat="42.1294467" lon="14.6409133"><ele>59.0</ele><time>2026-04-20T09:18:30.878Z</time></trkpt><trkpt lat="42.129385" lon="14.6409317"><ele>59.00000000000001</ele><time>2026-04-20T09:18:31.878Z</time></trkpt><trkpt lat="42.1293183" lon="14.6409567"><ele>59.0</ele><time>2026-04-20T09:18:32.879Z</time></trkpt><trkpt lat="42.129195" lon="14.641"><ele>59.0</ele><time>2026-04-20T09:18:34.879Z</time></trkpt><trkpt lat="42.12913" lon="14.6410233"><ele>59.0</ele><time>2026-04-20T09:18:35.879Z</time></trkpt><trkpt lat="42.1290617" lon="14.641045"><ele>59.00000000000001</ele><time>2026-04-20T09:18:36.879Z</time></trkpt><trkpt lat="42.1289917" lon="14.6410633"><ele>59.0</ele><time>2026-04-20T09:18:37.878Z</time></trkpt><trkpt lat="42.1289183" lon="14.6410833"><ele>58.71428571428571</ele><time>2026-04-20T09:18:38.879Z</time></trkpt><trkpt lat="42.1288467" lon="14.6411017"><ele>58.42857142857143</ele><time>2026-04-20T09:18:39.878Z</time></trkpt><trkpt lat="42.1287767" lon="14.6411133"><ele>58.14285714285714</ele><time>2026-04-20T09:18:40.879Z</time></trkpt><trkpt lat="42.1287067" lon="14.6411267"><ele>57.857142857142854</ele><time>2026-04-20T09:18:41.878Z</time></trkpt><trkpt lat="42.128635" lon="14.6411333"><ele>57.57142857142857</ele><time>2026-04-20T09:18:42.879Z</time></trkpt><trkpt lat="42.1285617" lon="14.6411383"><ele>57.285714285714285</ele><time>2026-04-20T09:18:43.878Z</time></trkpt><trkpt lat="42.1284933" lon="14.6411283"><ele>57.0</ele><time>2026-04-20T09:18:44.879Z</time></trkpt><trkpt lat="42.1283733" lon="14.6411067"><ele>57.0</ele><time>2026-04-20T09:18:46.879Z</time></trkpt><trkpt lat="42.1282483" lon="14.6410733"><ele>57.0</ele><time>2026-04-20T09:18:48.879Z</time></trkpt><trkpt lat="42.128145" lon="14.641015"><ele>57.0</ele><time>2026-04-20T09:18:50.879Z</time></trkpt><trkpt lat="42.1280483" lon="14.6409583"><ele>57.0</ele><time>2026-04-20T09:18:52.879Z</time></trkpt><trkpt lat="42.12796" lon="14.6409083"><ele>57.0</ele><time>2026-04-20T09:18:54.879Z</time></trkpt><trkpt lat="42.1278833" lon="14.6408533"><ele>56.833333333333336</ele><time>2026-04-20T09:18:56.879Z</time></trkpt><trkpt lat="42.1278017" lon="14.64082"><ele>56.66666666666667</ele><time>2026-04-20T09:18:58.879Z</time></trkpt><trkpt lat="42.1277317" lon="14.64079"><ele>56.5</ele><time>2026-04-20T09:19:00.878Z</time></trkpt><trkpt lat="42.1276533" lon="14.6407417"><ele>56.333333333333336</ele><time>2026-04-20T09:19:02.878Z</time></trkpt><trkpt lat="42.1275817" lon="14.6407033"><ele>56.16666666666667</ele><time>2026-04-20T09:19:04.879Z</time></trkpt><trkpt lat="42.1274983" lon="14.6406567"><ele>56.0</ele><time>2026-04-20T09:19:06.879Z</time></trkpt><trkpt lat="42.127405" lon="14.6405983"><ele>55.0</ele><time>2026-04-20T09:19:08.878Z</time></trkpt><trkpt lat="42.127325" lon="14.64054"><ele>53.99999999999999</ele><time>2026-04-20T09:19:10.879Z</time></trkpt><trkpt lat="42.1272417" lon="14.640475"><ele>53.0</ele><time>2026-04-20T09:19:12.878Z</time></trkpt><trkpt lat="42.1271667" lon="14.6404267"><ele>52.0</ele><time>2026-04-20T09:19:14.879Z</time></trkpt><trkpt lat="42.1270817" lon="14.6403867"><ele>51.0</ele><time>2026-04-20T09:19:16.879Z</time></trkpt><trkpt lat="42.1269983" lon="14.6403417"><ele>52.0</ele><time>2026-04-20T09:19:18.878Z</time></trkpt><trkpt lat="42.1269133" lon="14.64029"><ele>53.0</ele><time>2026-04-20T09:19:20.879Z</time></trkpt><trkpt lat="42.1268417" lon="14.64025"><ele>54.0</ele><time>2026-04-20T09:19:22.878Z</time></trkpt><trkpt lat="42.1267667" lon="14.6402017"><ele>55.0</ele><time>2026-04-20T09:19:24.879Z</time></trkpt><trkpt lat="42.126695" lon="14.6401533"><ele>56.0</ele><time>2026-04-20T09:19:26.879Z</time></trkpt><trkpt lat="42.1266167" lon="14.640105"><ele>57.0</ele><time>2026-04-20T09:19:28.879Z</time></trkpt><trkpt lat="42.1265367" lon="14.6400633"><ele>57.0</ele><time>2026-04-20T09:19:30.878Z</time></trkpt><trkpt lat="42.1264567" lon="14.6400133"><ele>57.0</ele><time>2026-04-20T09:19:32.878Z</time></trkpt><trkpt lat="42.1263767" lon="14.6399733"><ele>57.0</ele><time>2026-04-20T09:19:34.879Z</time></trkpt><trkpt lat="42.1262967" lon="14.63993"><ele>57.0</ele><time>2026-04-20T09:19:36.879Z</time></trkpt><trkpt lat="42.1262167" lon="14.6398833"><ele>57.0</ele><time>2026-04-20T09:19:38.879Z</time></trkpt><trkpt lat="42.1261483" lon="14.6398467"><ele>57.0</ele><time>2026-04-20T09:19:40.879Z</time></trkpt><trkpt lat="42.1260833" lon="14.6398067"><ele>57.0</ele><time>2026-04-20T09:19:42.879Z</time></trkpt><trkpt lat="42.1260167" lon="14.639765"><ele>57.0</ele><time>2026-04-20T09:19:44.878Z</time></trkpt><trkpt lat="42.1259367" lon="14.6397233"><ele>57.0</ele><time>2026-04-20T09:19:46.879Z</time></trkpt><trkpt lat="42.1258617" lon="14.6396833"><ele>57.0</ele><time>2026-04-20T09:19:48.879Z</time></trkpt><trkpt lat="42.1257817" lon="14.63964"><ele>57.0</ele><time>2026-04-20T09:19:50.878Z</time></trkpt><trkpt lat="42.1257183" lon="14.6395867"><ele>57.0</ele><time>2026-04-20T09:19:52.879Z</time></trkpt><trkpt lat="42.125645" lon="14.639545"><ele>56.666666666666664</ele><time>2026-04-20T09:19:54.879Z</time></trkpt><trkpt lat="42.1255683" lon="14.6395033"><ele>56.33333333333333</ele><time>2026-04-20T09:19:56.879Z</time></trkpt><trkpt lat="42.1254983" lon="14.639465"><ele>56.0</ele><time>2026-04-20T09:19:58.878Z</time></trkpt><trkpt lat="42.125425" lon="14.6394183"><ele>55.666666666666664</ele><time>2026-04-20T09:20:00.878Z</time></trkpt><trkpt lat="42.1253517" lon="14.63938"><ele>55.33333333333333</ele><time>2026-04-20T09:20:02.879Z</time></trkpt><trkpt lat="42.1252783" lon="14.63934"><ele>55.0</ele><time>2026-04-20T09:20:04.879Z</time></trkpt><trkpt lat="42.1252117" lon="14.639295"><ele>56.71428571428571</ele><time>2026-04-20T09:20:06.879Z</time></trkpt><trkpt lat="42.125145" lon="14.6392583"><ele>58.42857142857143</ele><time>2026-04-20T09:20:08.879Z</time></trkpt><trkpt lat="42.1250733" lon="14.6392183"><ele>60.14285714285714</ele><time>2026-04-20T09:20:10.878Z</time></trkpt><trkpt lat="42.1250033" lon="14.63918"><ele>61.857142857142854</ele><time>2026-04-20T09:20:12.879Z</time></trkpt><trkpt lat="42.1249417" lon="14.6391417"><ele>63.57142857142857</ele><time>2026-04-20T09:20:14.878Z</time></trkpt><trkpt lat="42.124875" lon="14.6391083"><ele>65.28571428571429</ele><time>2026-04-20T09:20:16.879Z</time></trkpt><trkpt lat="42.124805" lon="14.639075"><ele>67.0</ele><time>2026-04-20T09:20:18.879Z</time></trkpt><trkpt lat="42.1247417" lon="14.6390483"><ele>67.16666666666666</ele><time>2026-04-20T09:20:20.879Z</time></trkpt><trkpt lat="42.1246767" lon="14.6390183"><ele>67.33333333333333</ele><time>2026-04-20T09:20:22.879Z</time></trkpt><trkpt lat="42.12459" lon="14.639"><ele>67.5</ele><time>2026-04-20T09:20:25.879Z</time></trkpt><trkpt lat="42.12451" lon="14.6389733"><ele>67.66666666666667</ele><time>2026-04-20T09:20:28.878Z</time></trkpt><trkpt lat="42.124435" lon="14.6389933"><ele>67.83333333333334</ele><time>2026-04-20T09:20:31.879Z</time></trkpt><trkpt lat="42.1243667" lon="14.63903"><ele>68.0</ele><time>2026-04-20T09:20:34.879Z</time></trkpt><trkpt lat="42.1242867" lon="14.639095"><ele>68.0</ele><time>2026-04-20T09:20:37.879Z</time></trkpt><trkpt lat="42.1242267" lon="14.639145"><ele>68.0</ele><time>2026-04-20T09:20:39.879Z</time></trkpt><trkpt lat="42.1241333" lon="14.6391967"><ele>68.0</ele><time>2026-04-20T09:20:41.879Z</time></trkpt><trkpt lat="42.1240383" lon="14.639255"><ele>68.0</ele><time>2026-04-20T09:20:43.879Z</time></trkpt><trkpt lat="42.1239333" lon="14.639325"><ele>68.0</ele><time>2026-04-20T09:20:45.878Z</time></trkpt><trkpt lat="42.1238317" lon="14.6394"><ele>68.28571428571428</ele><time>2026-04-20T09:20:47.878Z</time></trkpt><trkpt lat="42.1237783" lon="14.639445"><ele>68.57142857142857</ele><time>2026-04-20T09:20:48.878Z</time></trkpt><trkpt lat="42.1237183" lon="14.6394917"><ele>68.85714285714286</ele><time>2026-04-20T09:20:49.879Z</time></trkpt><trkpt lat="42.1236567" lon="14.63954"><ele>69.14285714285714</ele><time>2026-04-20T09:20:50.878Z</time></trkpt><trkpt lat="42.12359" lon="14.6395917"><ele>69.42857142857143</ele><time>2026-04-20T09:20:51.879Z</time></trkpt><trkpt lat="42.1235233" lon="14.6396383"><ele>69.71428571428571</ele><time>2026-04-20T09:20:52.879Z</time></trkpt><trkpt lat="42.123455" lon="14.6396783"><ele>70.0</ele><time>2026-04-20T09:20:53.879Z</time></trkpt><trkpt lat="42.12339" lon="14.63972"><ele>68.66666666666666</ele><time>2026-04-20T09:20:54.878Z</time></trkpt><trkpt lat="42.1233233" lon="14.63976"><ele>67.33333333333333</ele><time>2026-04-20T09:20:55.878Z</time></trkpt><trkpt lat="42.1232567" lon="14.6398033"><ele>66.0</ele><time>2026-04-20T09:20:56.879Z</time></trkpt><trkpt lat="42.1231917" lon="14.6398467"><ele>64.66666666666667</ele><time>2026-04-20T09:20:57.878Z</time></trkpt><trkpt lat="42.123125" lon="14.6398917"><ele>63.333333333333336</ele><time>2026-04-20T09:20:58.878Z</time></trkpt><trkpt lat="42.1230467" lon="14.6399383"><ele>62.0</ele><time>2026-04-20T09:20:59.879Z</time></trkpt><trkpt lat="42.1229667" lon="14.63998"><ele>61.8</ele><time>2026-04-20T09:21:00.879Z</time></trkpt><trkpt lat="42.12288" lon="14.640015"><ele>61.6</ele><time>2026-04-20T09:21:01.878Z</time></trkpt><trkpt lat="42.1227833" lon="14.6400467"><ele>61.39999999999999</ele><time>2026-04-20T09:21:02.879Z</time></trkpt><trkpt lat="42.1226933" lon="14.64009"><ele>61.199999999999996</ele><time>2026-04-20T09:21:03.879Z</time></trkpt><trkpt lat="42.122595" lon="14.6401283"><ele>61.0</ele><time>2026-04-20T09:21:04.879Z</time></trkpt><trkpt lat="42.1224967" lon="14.6401617"><ele>59.4</ele><time>2026-04-20T09:21:05.879Z</time></trkpt><trkpt lat="42.122395" lon="14.6401883"><ele>57.8</ele><time>2026-04-20T09:21:06.879Z</time></trkpt><trkpt lat="42.1222933" lon="14.6402117"><ele>56.199999999999996</ele><time>2026-04-20T09:21:07.879Z</time></trkpt><trkpt lat="42.1221867" lon="14.64024"><ele>54.599999999999994</ele><time>2026-04-20T09:21:08.878Z</time></trkpt><trkpt lat="42.1220833" lon="14.6402583"><ele>53.0</ele><time>2026-04-20T09:21:09.879Z</time></trkpt><trkpt lat="42.1219767" lon="14.6402767"><ele>53.0</ele><time>2026-04-20T09:21:10.879Z</time></trkpt><trkpt lat="42.1218733" lon="14.6402967"><ele>53.0</ele><time>2026-04-20T09:21:11.878Z</time></trkpt><trkpt lat="42.1217683" lon="14.6403117"><ele>53.0</ele><time>2026-04-20T09:21:12.879Z</time></trkpt><trkpt lat="42.1216717" lon="14.6403267"><ele>53.0</ele><time>2026-04-20T09:21:13.879Z</time></trkpt><trkpt lat="42.1215783" lon="14.64034"><ele>53.0</ele><time>2026-04-20T09:21:14.878Z</time></trkpt><trkpt lat="42.1214817" lon="14.6403567"><ele>52.50000000000001</ele><time>2026-04-20T09:21:15.879Z</time></trkpt><trkpt lat="42.1213933" lon="14.6403717"><ele>52.0</ele><time>2026-04-20T09:21:16.879Z</time></trkpt><trkpt lat="42.12131" lon="14.6403867"><ele>51.5</ele><time>2026-04-20T09:21:17.878Z</time></trkpt><trkpt lat="42.1212217" lon="14.640395"><ele>51.0</ele><time>2026-04-20T09:21:18.879Z</time></trkpt><trkpt lat="42.1211367" lon="14.6403967"><ele>50.50000000000001</ele><time>2026-04-20T09:21:19.879Z</time></trkpt><trkpt lat="42.121055" lon="14.6404083"><ele>50.0</ele><time>2026-04-20T09:21:20.879Z</time></trkpt><trkpt lat="42.1209833" lon="14.64042"><ele>50.0</ele><time>2026-04-20T09:21:21.878Z</time></trkpt><trkpt lat="42.1209183" lon="14.6404333"><ele>50.0</ele><time>2026-04-20T09:21:22.879Z</time></trkpt><trkpt lat="42.1208467" lon="14.640445"><ele>50.0</ele><time>2026-04-20T09:21:23.878Z</time></trkpt><trkpt lat="42.1207317" lon="14.6404717"><ele>50.0</ele><time>2026-04-20T09:21:25.879Z</time></trkpt><trkpt lat="42.1206267" lon="14.64049"><ele>50.0</ele><time>2026-04-20T09:21:27.879Z</time></trkpt><trkpt lat="42.1205267" lon="14.6405017"><ele>50.833333333333336</ele><time>2026-04-20T09:21:29.879Z</time></trkpt><trkpt lat="42.1204433" lon="14.640525"><ele>51.66666666666667</ele><time>2026-04-20T09:21:31.878Z</time></trkpt><trkpt lat="42.120365" lon="14.6405417"><ele>52.5</ele><time>2026-04-20T09:21:34.879Z</time></trkpt><trkpt lat="42.12028" lon="14.6405433"><ele>53.33333333333333</ele><time>2026-04-20T09:21:36.879Z</time></trkpt><trkpt lat="42.1201933" lon="14.6405333"><ele>54.166666666666664</ele><time>2026-04-20T09:21:38.879Z</time></trkpt><trkpt lat="42.120105" lon="14.640545"><ele>55.0</ele><time>2026-04-20T09:21:40.879Z</time></trkpt><trkpt lat="42.1200283" lon="14.6405567"><ele>54.99999999999999</ele><time>2026-04-20T09:21:42.879Z</time></trkpt><trkpt lat="42.1199617" lon="14.64056"><ele>55.0</ele><time>2026-04-20T09:21:44.879Z</time></trkpt><trkpt lat="42.1198967" lon="14.640575"><ele>55.0</ele><time>2026-04-20T09:21:46.879Z</time></trkpt><trkpt lat="42.1198317" lon="14.640565"><ele>55.0</ele><time>2026-04-20T09:21:48.879Z</time></trkpt><trkpt lat="42.1197517" lon="14.6405583"><ele>54.99999999999999</ele><time>2026-04-20T09:21:50.879Z</time></trkpt><trkpt lat="42.1196717" lon="14.6405633"><ele>55.0</ele><time>2026-04-20T09:21:52.878Z</time></trkpt><trkpt lat="42.1195783" lon="14.6405583"><ele>55.83333333333333</ele><time>2026-04-20T09:21:54.878Z</time></trkpt><trkpt lat="42.1195067" lon="14.6405567"><ele>56.666666666666664</ele><time>2026-04-20T09:21:56.879Z</time></trkpt><trkpt lat="42.1194417" lon="14.6405483"><ele>57.5</ele><time>2026-04-20T09:21:58.879Z</time></trkpt><trkpt lat="42.1193483" lon="14.6405183"><ele>58.33333333333333</ele><time>2026-04-20T09:22:01.879Z</time></trkpt><trkpt lat="42.1192783" lon="14.640515"><ele>59.166666666666664</ele><time>2026-04-20T09:22:03.878Z</time></trkpt><trkpt lat="42.119195" lon="14.640495"><ele>60.0</ele><time>2026-04-20T09:22:06.879Z</time></trkpt><trkpt lat="42.1191033" lon="14.6404833"><ele>60.5</ele><time>2026-04-20T09:22:09.878Z</time></trkpt><trkpt lat="42.1190317" lon="14.6404617"><ele>61.0</ele><time>2026-04-20T09:22:11.879Z</time></trkpt><trkpt lat="42.1189483" lon="14.6404483"><ele>61.5</ele><time>2026-04-20T09:22:13.878Z</time></trkpt><trkpt lat="42.11886" lon="14.6404267"><ele>62.0</ele><time>2026-04-20T09:22:15.879Z</time></trkpt><trkpt lat="42.1187717" lon="14.6403933"><ele>62.5</ele><time>2026-04-20T09:22:17.878Z</time></trkpt><trkpt lat="42.1186867" lon="14.6403567"><ele>63.0</ele><time>2026-04-20T09:22:19.878Z</time></trkpt><trkpt lat="42.1186067" lon="14.64032"><ele>64.0</ele><time>2026-04-20T09:22:21.878Z</time></trkpt><trkpt lat="42.1185317" lon="14.6402833"><ele>65.0</ele><time>2026-04-20T09:22:23.878Z</time></trkpt><trkpt lat="42.1184533" lon="14.64024"><ele>66.0</ele><time>2026-04-20T09:22:25.879Z</time></trkpt><trkpt lat="42.1183733" lon="14.6401983"><ele>67.0</ele><time>2026-04-20T09:22:27.878Z</time></trkpt><trkpt lat="42.1182967" lon="14.6401617"><ele>68.0</ele><time>2026-04-20T09:22:29.878Z</time></trkpt><trkpt lat="42.118225" lon="14.6401183"><ele>69.0</ele><time>2026-04-20T09:22:31.879Z</time></trkpt><trkpt lat="42.1181583" lon="14.640075"><ele>70.0</ele><time>2026-04-20T09:22:33.878Z</time></trkpt><trkpt lat="42.1180917" lon="14.640035"><ele>71.0</ele><time>2026-04-20T09:22:35.879Z</time></trkpt><trkpt lat="42.1180417" lon="14.6399817"><ele>72.0</ele><time>2026-04-20T09:22:37.878Z</time></trkpt><trkpt lat="42.11797" lon="14.6399367"><ele>73.0</ele><time>2026-04-20T09:22:40.878Z</time></trkpt><trkpt lat="42.1178967" lon="14.63988"><ele>74.0</ele><time>2026-04-20T09:22:43.878Z</time></trkpt><trkpt lat="42.11783" lon="14.639825"><ele>75.0</ele><time>2026-04-20T09:22:46.879Z</time></trkpt><trkpt lat="42.11777" lon="14.639775"><ele>76.0</ele><time>2026-04-20T09:22:49.879Z</time></trkpt><trkpt lat="42.117695" lon="14.6397067"><ele>76.0</ele><time>2026-04-20T09:22:52.879Z</time></trkpt><trkpt lat="42.1176333" lon="14.6396483"><ele>76.0</ele><time>2026-04-20T09:22:55.878Z</time></trkpt><trkpt lat="42.117575" lon="14.63958"><ele>76.0</ele><time>2026-04-20T09:22:58.879Z</time></trkpt><trkpt lat="42.117525" lon="14.639525"><ele>76.0</ele><time>2026-04-20T09:23:00.878Z</time></trkpt><trkpt lat="42.1174617" lon="14.6394633"><ele>76.0</ele><time>2026-04-20T09:23:03.878Z</time></trkpt><trkpt lat="42.117405" lon="14.6394"><ele>76.0</ele><time>2026-04-20T09:23:06.879Z</time></trkpt><trkpt lat="42.1173417" lon="14.6393233"><ele>76.66666666666666</ele><time>2026-04-20T09:23:09.878Z</time></trkpt><trkpt lat="42.1172933" lon="14.6392667"><ele>77.33333333333333</ele><time>2026-04-20T09:23:11.878Z</time></trkpt><trkpt lat="42.1172183" lon="14.63919"><ele>78.0</ele><time>2026-04-20T09:23:14.879Z</time></trkpt><trkpt lat="42.1171667" lon="14.639135"><ele>78.66666666666667</ele><time>2026-04-20T09:23:16.878Z</time></trkpt><trkpt lat="42.1171083" lon="14.6390783"><ele>79.33333333333334</ele><time>2026-04-20T09:23:18.879Z</time></trkpt><trkpt lat="42.1170583" lon="14.63902"><ele>80.0</ele><time>2026-04-20T09:23:20.879Z</time></trkpt><trkpt lat="42.11699" lon="14.6389367"><ele>80.0</ele><time>2026-04-20T09:23:23.879Z</time></trkpt><trkpt lat="42.116945" lon="14.6388767"><ele>80.0</ele><time>2026-04-20T09:23:25.878Z</time></trkpt><trkpt lat="42.1168733" lon="14.6388033"><ele>80.0</ele><time>2026-04-20T09:23:28.879Z</time></trkpt><trkpt lat="42.1168017" lon="14.63872"><ele>80.0</ele><time>2026-04-20T09:23:31.879Z</time></trkpt><trkpt lat="42.1167617" lon="14.6386517"><ele>80.0</ele><time>2026-04-20T09:23:33.879Z</time></trkpt><trkpt lat="42.1167" lon="14.6385933"><ele>80.0</ele><time>2026-04-20T09:23:35.879Z</time></trkpt><trkpt lat="42.1166217" lon="14.638525"><ele>80.83333333333334</ele><time>2026-04-20T09:23:37.878Z</time></trkpt><trkpt lat="42.11654" lon="14.6384583"><ele>81.66666666666667</ele><time>2026-04-20T09:23:39.878Z</time></trkpt><trkpt lat="42.1164683" lon="14.638395"><ele>82.5</ele><time>2026-04-20T09:23:41.879Z</time></trkpt><trkpt lat="42.1164017" lon="14.6383383"><ele>83.33333333333333</ele><time>2026-04-20T09:23:43.878Z</time></trkpt><trkpt lat="42.1163417" lon="14.6382817"><ele>84.16666666666666</ele><time>2026-04-20T09:23:45.879Z</time></trkpt><trkpt lat="42.116285" lon="14.6382233"><ele>85.0</ele><time>2026-04-20T09:23:47.879Z</time></trkpt><trkpt lat="42.1162283" lon="14.6381667"><ele>85.0</ele><time>2026-04-20T09:23:49.879Z</time></trkpt><trkpt lat="42.11617" lon="14.6381067"><ele>85.0</ele><time>2026-04-20T09:23:51.879Z</time></trkpt><trkpt lat="42.1161117" lon="14.6380483"><ele>85.0</ele><time>2026-04-20T09:23:53.878Z</time></trkpt><trkpt lat="42.1160517" lon="14.6379933"><ele>85.0</ele><time>2026-04-20T09:23:55.879Z</time></trkpt><trkpt lat="42.1159967" lon="14.637935"><ele>85.0</ele><time>2026-04-20T09:23:57.878Z</time></trkpt><trkpt lat="42.1159367" lon="14.63788"><ele>85.0</ele><time>2026-04-20T09:23:59.879Z</time></trkpt><trkpt lat="42.11588" lon="14.6378283"><ele>85.0</ele><time>2026-04-20T09:24:01.879Z</time></trkpt><trkpt lat="42.115825" lon="14.637775"><ele>85.71428571428572</ele><time>2026-04-20T09:24:03.878Z</time></trkpt><trkpt lat="42.11578" lon="14.63771"><ele>86.42857142857142</ele><time>2026-04-20T09:24:05.879Z</time></trkpt><trkpt lat="42.115725" lon="14.6376517"><ele>87.14285714285714</ele><time>2026-04-20T09:24:07.878Z</time></trkpt><trkpt lat="42.1156633" lon="14.6375983"><ele>87.85714285714286</ele><time>2026-04-20T09:24:09.879Z</time></trkpt><trkpt lat="42.1156067" lon="14.63755"><ele>88.57142857142858</ele><time>2026-04-20T09:24:11.879Z</time></trkpt><trkpt lat="42.115535" lon="14.637465"><ele>89.28571428571428</ele><time>2026-04-20T09:24:14.879Z</time></trkpt><trkpt lat="42.11548" lon="14.637405"><ele>90.0</ele><time>2026-04-20T09:24:16.879Z</time></trkpt><trkpt lat="42.1154017" lon="14.63733"><ele>90.14285714285714</ele><time>2026-04-20T09:24:19.879Z</time></trkpt><trkpt lat="42.1153483" lon="14.6372733"><ele>90.28571428571429</ele><time>2026-04-20T09:24:21.878Z</time></trkpt><trkpt lat="42.11528" lon="14.637215"><ele>90.42857142857143</ele><time>2026-04-20T09:24:23.878Z</time></trkpt><trkpt lat="42.1152183" lon="14.63716"><ele>90.57142857142857</ele><time>2026-04-20T09:24:25.878Z</time></trkpt><trkpt lat="42.1151633" lon="14.6371033"><ele>90.71428571428572</ele><time>2026-04-20T09:24:27.878Z</time></trkpt><trkpt lat="42.1151033" lon="14.6370533"><ele>90.85714285714286</ele><time>2026-04-20T09:24:29.879Z</time></trkpt><trkpt lat="42.11504" lon="14.6370067"><ele>91.0</ele><time>2026-04-20T09:24:31.879Z</time></trkpt><trkpt lat="42.11498" lon="14.6369617"><ele>91.0</ele><time>2026-04-20T09:24:33.879Z</time></trkpt><trkpt lat="42.1149233" lon="14.63692"><ele>91.0</ele><time>2026-04-20T09:24:35.879Z</time></trkpt><trkpt lat="42.114845" lon="14.63685"><ele>91.0</ele><time>2026-04-20T09:24:38.879Z</time></trkpt><trkpt lat="42.114785" lon="14.6368033"><ele>91.0</ele><time>2026-04-20T09:24:40.879Z</time></trkpt><trkpt lat="42.1147233" lon="14.6367633"><ele>91.0</ele><time>2026-04-20T09:24:42.878Z</time></trkpt><trkpt lat="42.11466" lon="14.6367317"><ele>91.0</ele><time>2026-04-20T09:24:44.879Z</time></trkpt><trkpt lat="42.1146" lon="14.6367033"><ele>91.0</ele><time>2026-04-20T09:24:46.878Z</time></trkpt><trkpt lat="42.11454" lon="14.6366683"><ele>91.66666666666666</ele><time>2026-04-20T09:24:48.879Z</time></trkpt><trkpt lat="42.11448" lon="14.6366417"><ele>92.33333333333333</ele><time>2026-04-20T09:24:50.878Z</time></trkpt><trkpt lat="42.11442" lon="14.63658"><ele>93.0</ele><time>2026-04-20T09:24:53.878Z</time></trkpt><trkpt lat="42.11438" lon="14.6364933"><ele>93.66666666666667</ele><time>2026-04-20T09:24:56.879Z</time></trkpt><trkpt lat="42.11431" lon="14.63641"><ele>94.33333333333334</ele><time>2026-04-20T09:24:59.878Z</time></trkpt><trkpt lat="42.1142267" lon="14.6363433"><ele>95.0</ele><time>2026-04-20T09:25:02.878Z</time></trkpt><trkpt lat="42.1141717" lon="14.6363017"><ele>95.0</ele><time>2026-04-20T09:25:04.879Z</time></trkpt><trkpt lat="42.114115" lon="14.6362617"><ele>95.0</ele><time>2026-04-20T09:25:06.879Z</time></trkpt><trkpt lat="42.1140433" lon="14.6361917"><ele>95.0</ele><time>2026-04-20T09:25:09.878Z</time></trkpt><trkpt lat="42.113965" lon="14.6361133"><ele>95.0</ele><time>2026-04-20T09:25:12.879Z</time></trkpt><trkpt lat="42.113895" lon="14.6360517"><ele>95.0</ele><time>2026-04-20T09:25:15.879Z</time></trkpt><trkpt lat="42.1138283" lon="14.6359917"><ele>95.0</ele><time>2026-04-20T09:25:18.879Z</time></trkpt><trkpt lat="42.113765" lon="14.635935"><ele>96.83333333333334</ele><time>2026-04-20T09:25:21.879Z</time></trkpt><trkpt lat="42.1136933" lon="14.63587"><ele>98.66666666666667</ele><time>2026-04-20T09:25:24.878Z</time></trkpt><trkpt lat="42.11363" lon="14.635815"><ele>100.5</ele><time>2026-04-20T09:25:27.878Z</time></trkpt><trkpt lat="42.1135667" lon="14.635755"><ele>102.33333333333334</ele><time>2026-04-20T09:25:30.878Z</time></trkpt><trkpt lat="42.1135033" lon="14.635695"><ele>104.16666666666667</ele><time>2026-04-20T09:25:33.879Z</time></trkpt><trkpt lat="42.11344" lon="14.6356317"><ele>106.0</ele><time>2026-04-20T09:25:36.878Z</time></trkpt><trkpt lat="42.1133683" lon="14.6355767"><ele>106.00000000000001</ele><time>2026-04-20T09:25:39.879Z</time></trkpt><trkpt lat="42.1133017" lon="14.6355117"><ele>106.0</ele><time>2026-04-20T09:25:42.879Z</time></trkpt><trkpt lat="42.1132417" lon="14.63545"><ele>106.0</ele><time>2026-04-20T09:25:45.879Z</time></trkpt><trkpt lat="42.113175" lon="14.635405"><ele>106.0</ele><time>2026-04-20T09:25:48.879Z</time></trkpt><trkpt lat="42.1130967" lon="14.6353517"><ele>106.00000000000001</ele><time>2026-04-20T09:25:51.879Z</time></trkpt><trkpt lat="42.1130333" lon="14.6352917"><ele>106.0</ele><time>2026-04-20T09:25:54.879Z</time></trkpt><trkpt lat="42.112965" lon="14.6352367"><ele>108.16666666666667</ele><time>2026-04-20T09:25:57.878Z</time></trkpt><trkpt lat="42.1128967" lon="14.63518"><ele>110.33333333333334</ele><time>2026-04-20T09:26:00.879Z</time></trkpt><trkpt lat="42.1128367" lon="14.6351183"><ele>112.5</ele><time>2026-04-20T09:26:03.879Z</time></trkpt><trkpt lat="42.1127633" lon="14.6350567"><ele>114.66666666666666</ele><time>2026-04-20T09:26:06.879Z</time></trkpt><trkpt lat="42.1126967" lon="14.6349917"><ele>116.83333333333333</ele><time>2026-04-20T09:26:09.878Z</time></trkpt><trkpt lat="42.1126267" lon="14.6349367"><ele>119.0</ele><time>2026-04-20T09:26:12.879Z</time></trkpt><trkpt lat="42.1125567" lon="14.6348733"><ele>118.99999999999999</ele><time>2026-04-20T09:26:15.878Z</time></trkpt><trkpt lat="42.1125083" lon="14.6347817"><ele>119.0</ele><time>2026-04-20T09:26:18.879Z</time></trkpt><trkpt lat="42.1124917" lon="14.6346733"><ele>119.0</ele><time>2026-04-20T09:26:21.879Z</time></trkpt><trkpt lat="42.112485" lon="14.6345483"><ele>119.0</ele><time>2026-04-20T09:26:24.879Z</time></trkpt><trkpt lat="42.1124833" lon="14.6344633"><ele>118.99999999999999</ele><time>2026-04-20T09:26:26.879Z</time></trkpt><trkpt lat="42.11248" lon="14.6343783"><ele>119.0</ele><time>2026-04-20T09:26:28.879Z</time></trkpt><trkpt lat="42.1124783" lon="14.634285"><ele>119.85714285714286</ele><time>2026-04-20T09:26:30.878Z</time></trkpt><trkpt lat="42.1124817" lon="14.6341917"><ele>120.71428571428572</ele><time>2026-04-20T09:26:32.879Z</time></trkpt><trkpt lat="42.1124817" lon="14.6340983"><ele>121.57142857142857</ele><time>2026-04-20T09:26:34.879Z</time></trkpt><trkpt lat="42.112485" lon="14.63401"><ele>122.42857142857143</ele><time>2026-04-20T09:26:36.879Z</time></trkpt><trkpt lat="42.112485" lon="14.63392"><ele>123.28571428571429</ele><time>2026-04-20T09:26:38.879Z</time></trkpt><trkpt lat="42.1124833" lon="14.6338317"><ele>124.14285714285714</ele><time>2026-04-20T09:26:40.879Z</time></trkpt><trkpt lat="42.1124783" lon="14.6337333"><ele>125.0</ele><time>2026-04-20T09:26:42.879Z</time></trkpt><trkpt lat="42.11248" lon="14.6336467"><ele>125.33333333333333</ele><time>2026-04-20T09:26:44.879Z</time></trkpt><trkpt lat="42.1124767" lon="14.6335617"><ele>125.66666666666666</ele><time>2026-04-20T09:26:46.879Z</time></trkpt><trkpt lat="42.11248" lon="14.633475"><ele>126.0</ele><time>2026-04-20T09:26:48.879Z</time></trkpt><trkpt lat="42.1124783" lon="14.6333467"><ele>126.33333333333334</ele><time>2026-04-20T09:26:51.879Z</time></trkpt><trkpt lat="42.1124717" lon="14.6332333"><ele>126.66666666666667</ele><time>2026-04-20T09:26:54.878Z</time></trkpt><trkpt lat="42.1124417" lon="14.6331217"><ele>127.0</ele><time>2026-04-20T09:26:57.879Z</time></trkpt><trkpt lat="42.1124033" lon="14.6330117"><ele>128.0</ele><time>2026-04-20T09:27:00.878Z</time></trkpt><trkpt lat="42.1123617" lon="14.6328933"><ele>129.0</ele><time>2026-04-20T09:27:03.878Z</time></trkpt><trkpt lat="42.1123267" lon="14.632805"><ele>130.0</ele><time>2026-04-20T09:27:05.879Z</time></trkpt><trkpt lat="42.1123" lon="14.632715"><ele>131.0</ele><time>2026-04-20T09:27:07.879Z</time></trkpt><trkpt lat="42.11227" lon="14.63262"><ele>132.0</ele><time>2026-04-20T09:27:09.879Z</time></trkpt><trkpt lat="42.112235" lon="14.6325267"><ele>133.0</ele><time>2026-04-20T09:27:11.879Z</time></trkpt><trkpt lat="42.1121983" lon="14.6324333"><ele>133.0</ele><time>2026-04-20T09:27:13.878Z</time></trkpt><trkpt lat="42.1121517" lon="14.6323483"><ele>133.0</ele><time>2026-04-20T09:27:15.879Z</time></trkpt><trkpt lat="42.112105" lon="14.6322583"><ele>133.0</ele><time>2026-04-20T09:27:17.878Z</time></trkpt><trkpt lat="42.1120667" lon="14.6321717"><ele>133.0</ele><time>2026-04-20T09:27:19.879Z</time></trkpt><trkpt lat="42.1120367" lon="14.632085"><ele>133.0</ele><time>2026-04-20T09:27:21.879Z</time></trkpt><trkpt lat="42.1120083" lon="14.6320067"><ele>133.0</ele><time>2026-04-20T09:27:23.879Z</time></trkpt><trkpt lat="42.1119717" lon="14.6319217"><ele>133.0</ele><time>2026-04-20T09:27:25.879Z</time></trkpt><trkpt lat="42.1119267" lon="14.6318467"><ele>133.14285714285714</ele><time>2026-04-20T09:27:27.879Z</time></trkpt><trkpt lat="42.1118917" lon="14.63176"><ele>133.28571428571428</ele><time>2026-04-20T09:27:29.879Z</time></trkpt><trkpt lat="42.1118583" lon="14.6316717"><ele>133.42857142857144</ele><time>2026-04-20T09:27:31.879Z</time></trkpt><trkpt lat="42.111825" lon="14.631585"><ele>133.57142857142856</ele><time>2026-04-20T09:27:33.878Z</time></trkpt><trkpt lat="42.1117967" lon="14.6315"><ele>133.71428571428572</ele><time>2026-04-20T09:27:35.879Z</time></trkpt><trkpt lat="42.11176" lon="14.6314117"><ele>133.85714285714286</ele><time>2026-04-20T09:27:37.879Z</time></trkpt><trkpt lat="42.1117267" lon="14.6313233"><ele>134.0</ele><time>2026-04-20T09:27:39.878Z</time></trkpt><trkpt lat="42.111695" lon="14.6312333"><ele>133.71428571428572</ele><time>2026-04-20T09:27:41.878Z</time></trkpt><trkpt lat="42.11166" lon="14.631125"><ele>133.42857142857142</ele><time>2026-04-20T09:27:44.879Z</time></trkpt><trkpt lat="42.111625" lon="14.6310433"><ele>133.14285714285714</ele><time>2026-04-20T09:27:46.879Z</time></trkpt><trkpt lat="42.1115917" lon="14.6309633"><ele>132.85714285714286</ele><time>2026-04-20T09:27:48.879Z</time></trkpt><trkpt lat="42.1115617" lon="14.6308783"><ele>132.57142857142858</ele><time>2026-04-20T09:27:50.878Z</time></trkpt><trkpt lat="42.1115317" lon="14.6307933"><ele>132.28571428571428</ele><time>2026-04-20T09:27:52.879Z</time></trkpt><trkpt lat="42.1115033" lon="14.6307083"><ele>132.0</ele><time>2026-04-20T09:27:54.879Z</time></trkpt><trkpt lat="42.1114733" lon="14.6306233"><ele>132.66666666666666</ele><time>2026-04-20T09:27:56.878Z</time></trkpt><trkpt lat="42.111435" lon="14.6305383"><ele>133.33333333333334</ele><time>2026-04-20T09:27:58.879Z</time></trkpt><trkpt lat="42.1114017" lon="14.6304583"><ele>134.0</ele><time>2026-04-20T09:28:00.879Z</time></trkpt><trkpt lat="42.1113667" lon="14.630365"><ele>134.66666666666669</ele><time>2026-04-20T09:28:02.878Z</time></trkpt><trkpt lat="42.1113283" lon="14.63027"><ele>135.33333333333334</ele><time>2026-04-20T09:28:04.879Z</time></trkpt><trkpt lat="42.1112917" lon="14.630175"><ele>136.0</ele><time>2026-04-20T09:28:06.879Z</time></trkpt><trkpt lat="42.1112433" lon="14.6300633"><ele>136.16666666666669</ele><time>2026-04-20T09:28:09.879Z</time></trkpt><trkpt lat="42.1111983" lon="14.6299567"><ele>136.33333333333334</ele><time>2026-04-20T09:28:12.879Z</time></trkpt><trkpt lat="42.11117" lon="14.6298617"><ele>136.5</ele><time>2026-04-20T09:28:15.879Z</time></trkpt><trkpt lat="42.111145" lon="14.6297533"><ele>136.66666666666666</ele><time>2026-04-20T09:29:16.879Z</time></trkpt><trkpt lat="42.111105" lon="14.6296733"><ele>136.83333333333331</ele><time>2026-04-20T09:29:19.879Z</time></trkpt><trkpt lat="42.1110667" lon="14.6295667"><ele>137.0</ele><time>2026-04-20T09:29:22.879Z</time></trkpt><trkpt lat="42.11103" lon="14.6294833"><ele>137.33333333333331</ele><time>2026-04-20T09:29:24.878Z</time></trkpt><trkpt lat="42.11099" lon="14.6293933"><ele>137.66666666666666</ele><time>2026-04-20T09:29:26.878Z</time></trkpt><trkpt lat="42.1109533" lon="14.6293067"><ele>138.0</ele><time>2026-04-20T09:29:28.879Z</time></trkpt><trkpt lat="42.110915" lon="14.6292067"><ele>138.33333333333334</ele><time>2026-04-20T09:29:30.879Z</time></trkpt><trkpt lat="42.110875" lon="14.629105"><ele>138.66666666666669</ele><time>2026-04-20T09:29:32.879Z</time></trkpt><trkpt lat="42.1108367" lon="14.6290083"><ele>139.0</ele><time>2026-04-20T09:29:34.878Z</time></trkpt><trkpt lat="42.1108017" lon="14.628915"><ele>139.0</ele><time>2026-04-20T09:29:36.879Z</time></trkpt><trkpt lat="42.1107733" lon="14.6288267"><ele>139.0</ele><time>2026-04-20T09:29:38.879Z</time></trkpt><trkpt lat="42.1107417" lon="14.6287383"><ele>139.0</ele><time>2026-04-20T09:29:40.878Z</time></trkpt><trkpt lat="42.1107067" lon="14.628655"><ele>139.0</ele><time>2026-04-20T09:29:42.879Z</time></trkpt><trkpt lat="42.11067" lon="14.6285783"><ele>139.0</ele><time>2026-04-20T09:29:44.878Z</time></trkpt><trkpt lat="42.1106383" lon="14.6284933"><ele>139.0</ele><time>2026-04-20T09:29:46.879Z</time></trkpt><trkpt lat="42.1106017" lon="14.6284083"><ele>139.0</ele><time>2026-04-20T09:29:48.879Z</time></trkpt><trkpt lat="42.1105617" lon="14.6283233"><ele>139.42857142857142</ele><time>2026-04-20T09:29:50.878Z</time></trkpt><trkpt lat="42.1105317" lon="14.6282417"><ele>139.85714285714286</ele><time>2026-04-20T09:29:52.878Z</time></trkpt><trkpt lat="42.1105017" lon="14.6281583"><ele>140.28571428571428</ele><time>2026-04-20T09:29:54.878Z</time></trkpt><trkpt lat="42.1104667" lon="14.6280717"><ele>140.71428571428572</ele><time>2026-04-20T09:29:56.878Z</time></trkpt><trkpt lat="42.1104333" lon="14.6279917"><ele>141.14285714285714</ele><time>2026-04-20T09:29:58.879Z</time></trkpt><trkpt lat="42.1104017" lon="14.627905"><ele>141.57142857142856</ele><time>2026-04-20T09:30:00.878Z</time></trkpt><trkpt lat="42.1103667" lon="14.6278183"><ele>142.0</ele><time>2026-04-20T09:30:02.878Z</time></trkpt><trkpt lat="42.1103267" lon="14.62773"><ele>142.28571428571428</ele><time>2026-04-20T09:30:04.879Z</time></trkpt><trkpt lat="42.1102883" lon="14.6276467"><ele>142.57142857142856</ele><time>2026-04-20T09:30:06.879Z</time></trkpt><trkpt lat="42.1102533" lon="14.62756"><ele>142.85714285714286</ele><time>2026-04-20T09:30:08.879Z</time></trkpt><trkpt lat="42.11022" lon="14.6274783"><ele>143.14285714285714</ele><time>2026-04-20T09:30:10.878Z</time></trkpt><trkpt lat="42.1101867" lon="14.627395"><ele>143.42857142857144</ele><time>2026-04-20T09:30:12.878Z</time></trkpt><trkpt lat="42.110155" lon="14.62731"><ele>143.71428571428572</ele><time>2026-04-20T09:30:14.878Z</time></trkpt><trkpt lat="42.1101183" lon="14.627225"><ele>144.0</ele><time>2026-04-20T09:30:16.878Z</time></trkpt><trkpt lat="42.1100883" lon="14.6271367"><ele>144.00000000000003</ele><time>2026-04-20T09:30:18.879Z</time></trkpt><trkpt lat="42.110055" lon="14.627045"><ele>144.0</ele><time>2026-04-20T09:30:20.879Z</time></trkpt><trkpt lat="42.1100167" lon="14.626965"><ele>144.0</ele><time>2026-04-20T09:30:22.879Z</time></trkpt><trkpt lat="42.109985" lon="14.6268783"><ele>144.0</ele><time>2026-04-20T09:30:24.879Z</time></trkpt><trkpt lat="42.10995" lon="14.62679"><ele>144.0</ele><time>2026-04-20T09:30:26.878Z</time></trkpt><trkpt lat="42.1099217" lon="14.6267033"><ele>144.00000000000003</ele><time>2026-04-20T09:30:28.879Z</time></trkpt><trkpt lat="42.1098883" lon="14.6266217"><ele>144.0</ele><time>2026-04-20T09:30:30.879Z</time></trkpt><trkpt lat="42.1098517" lon="14.6265333"><ele>144.33333333333334</ele><time>2026-04-20T09:30:32.878Z</time></trkpt><trkpt lat="42.1098217" lon="14.6264533"><ele>144.66666666666666</ele><time>2026-04-20T09:30:34.878Z</time></trkpt><trkpt lat="42.1097767" lon="14.62634"><ele>145.0</ele><time>2026-04-20T09:30:37.878Z</time></trkpt><trkpt lat="42.1097433" lon="14.6262517"><ele>145.33333333333331</ele><time>2026-04-20T09:30:39.878Z</time></trkpt><trkpt lat="42.1097117" lon="14.62616"><ele>145.66666666666666</ele><time>2026-04-20T09:30:41.878Z</time></trkpt><trkpt lat="42.1096767" lon="14.6260683"><ele>146.0</ele><time>2026-04-20T09:30:43.879Z</time></trkpt><trkpt lat="42.1096433" lon="14.6259767"><ele>146.71428571428572</ele><time>2026-04-20T09:30:45.878Z</time></trkpt><trkpt lat="42.1096083" lon="14.6258933"><ele>147.42857142857144</ele><time>2026-04-20T09:30:47.878Z</time></trkpt><trkpt lat="42.1095733" lon="14.625805"><ele>148.14285714285717</ele><time>2026-04-20T09:30:49.879Z</time></trkpt><trkpt lat="42.1095383" lon="14.625725"><ele>148.85714285714286</ele><time>2026-04-20T09:30:51.879Z</time></trkpt><trkpt lat="42.1095067" lon="14.6256367"><ele>149.57142857142858</ele><time>2026-04-20T09:30:53.879Z</time></trkpt><trkpt lat="42.10947" lon="14.6255567"><ele>150.2857142857143</ele><time>2026-04-20T09:30:55.879Z</time></trkpt><trkpt lat="42.1094433" lon="14.6254667"><ele>151.0</ele><time>2026-04-20T09:30:57.879Z</time></trkpt><trkpt lat="42.10941" lon="14.6253783"><ele>151.83333333333334</ele><time>2026-04-20T09:30:59.879Z</time></trkpt><trkpt lat="42.1093783" lon="14.6252833"><ele>152.66666666666669</ele><time>2026-04-20T09:31:01.878Z</time></trkpt><trkpt lat="42.1093483" lon="14.6251983"><ele>153.5</ele><time>2026-04-20T09:31:03.879Z</time></trkpt><trkpt lat="42.1093167" lon="14.6251217"><ele>154.33333333333334</ele><time>2026-04-20T09:31:05.879Z</time></trkpt><trkpt lat="42.1092833" lon="14.62504"><ele>155.16666666666666</ele><time>2026-04-20T09:31:07.879Z</time></trkpt><trkpt lat="42.1092383" lon="14.6249433"><ele>156.0</ele><time>2026-04-20T09:31:10.879Z</time></trkpt><trkpt lat="42.1091983" lon="14.624825"><ele>156.0</ele><time>2026-04-20T09:31:13.879Z</time></trkpt><trkpt lat="42.1091717" lon="14.6247367"><ele>156.0</ele><time>2026-04-20T09:31:15.878Z</time></trkpt><trkpt lat="42.109145" lon="14.6246567"><ele>156.0</ele><time>2026-04-20T09:31:17.879Z</time></trkpt><trkpt lat="42.1091117" lon="14.6245733"><ele>156.0</ele><time>2026-04-20T09:31:19.879Z</time></trkpt><trkpt lat="42.10909" lon="14.6244717"><ele>156.0</ele><time>2026-04-20T09:31:21.878Z</time></trkpt><trkpt lat="42.1090583" lon="14.624375"><ele>156.0</ele><time>2026-04-20T09:31:23.879Z</time></trkpt><trkpt lat="42.1090217" lon="14.624275"><ele>156.0</ele><time>2026-04-20T09:31:25.878Z</time></trkpt><trkpt lat="42.108985" lon="14.6242033"><ele>156.0</ele><time>2026-04-20T09:31:27.879Z</time></trkpt><trkpt lat="42.1089467" lon="14.6241167"><ele>156.0</ele><time>2026-04-20T09:31:29.878Z</time></trkpt><trkpt lat="42.1089033" lon="14.6240183"><ele>156.0</ele><time>2026-04-20T09:31:31.879Z</time></trkpt><trkpt lat="42.1088583" lon="14.6239233"><ele>156.0</ele><time>2026-04-20T09:31:33.879Z</time></trkpt><trkpt lat="42.1088" lon="14.62383"><ele>156.0</ele><time>2026-04-20T09:31:35.879Z</time></trkpt><trkpt lat="42.1087417" lon="14.6237283"><ele>156.0</ele><time>2026-04-20T09:31:37.879Z</time></trkpt><trkpt lat="42.1086783" lon="14.623615"><ele>156.0</ele><time>2026-04-20T09:31:39.879Z</time></trkpt><trkpt lat="42.108615" lon="14.6234867"><ele>156.0</ele><time>2026-04-20T09:31:41.879Z</time></trkpt><trkpt lat="42.1085417" lon="14.62336"><ele>156.0</ele><time>2026-04-20T09:31:43.879Z</time></trkpt><trkpt lat="42.108475" lon="14.62322"><ele>156.0</ele><time>2026-04-20T09:31:45.879Z</time></trkpt><trkpt lat="42.108405" lon="14.6230983"><ele>156.0</ele><time>2026-04-20T09:31:47.878Z</time></trkpt><trkpt lat="42.1083717" lon="14.6230183"><ele>156.0</ele><time>2026-04-20T09:31:48.878Z</time></trkpt><trkpt lat="42.1083383" lon="14.622945"><ele>156.0</ele><time>2026-04-20T09:31:49.878Z</time></trkpt><trkpt lat="42.10829" lon="14.6228033"><ele>156.0</ele><time>2026-04-20T09:31:51.879Z</time></trkpt><trkpt lat="42.1082417" lon="14.6226833"><ele>156.0</ele><time>2026-04-20T09:31:53.879Z</time></trkpt><trkpt lat="42.1082" lon="14.6225733"><ele>156.0</ele><time>2026-04-20T09:31:55.878Z</time></trkpt><trkpt lat="42.1081617" lon="14.6224767"><ele>156.5</ele><time>2026-04-20T09:31:57.879Z</time></trkpt><trkpt lat="42.1081233" lon="14.62237"><ele>157.0</ele><time>2026-04-20T09:31:59.878Z</time></trkpt><trkpt lat="42.1080833" lon="14.622275"><ele>157.5</ele><time>2026-04-20T09:32:01.878Z</time></trkpt><trkpt lat="42.1080433" lon="14.6221783"><ele>158.0</ele><time>2026-04-20T09:32:03.879Z</time></trkpt><trkpt lat="42.1079917" lon="14.6220933"><ele>158.5</ele><time>2026-04-20T09:32:05.879Z</time></trkpt><trkpt lat="42.1079367" lon="14.6220083"><ele>159.0</ele><time>2026-04-20T09:32:07.878Z</time></trkpt><trkpt lat="42.1078833" lon="14.6219267"><ele>159.5</ele><time>2026-04-20T09:32:09.879Z</time></trkpt><trkpt lat="42.1078317" lon="14.6218417"><ele>160.0</ele><time>2026-04-20T09:32:11.879Z</time></trkpt><trkpt lat="42.1077783" lon="14.6217583"><ele>160.5</ele><time>2026-04-20T09:32:13.878Z</time></trkpt><trkpt lat="42.107735" lon="14.621665"><ele>161.0</ele><time>2026-04-20T09:32:15.879Z</time></trkpt><trkpt lat="42.107695" lon="14.6215683"><ele>161.5</ele><time>2026-04-20T09:32:17.878Z</time></trkpt><trkpt lat="42.1076633" lon="14.6214617"><ele>162.0</ele><time>2026-04-20T09:32:19.879Z</time></trkpt><trkpt lat="42.1076367" lon="14.6213567"><ele>162.0</ele><time>2026-04-20T09:32:21.878Z</time></trkpt><trkpt lat="42.107615" lon="14.6212733"><ele>162.0</ele><time>2026-04-20T09:32:23.879Z</time></trkpt><trkpt lat="42.1075983" lon="14.6211867"><ele>162.0</ele><time>2026-04-20T09:32:25.878Z</time></trkpt><trkpt lat="42.107575" lon="14.6211067"><ele>162.0</ele><time>2026-04-20T09:32:27.879Z</time></trkpt><trkpt lat="42.1075533" lon="14.6210217"><ele>162.0</ele><time>2026-04-20T09:32:29.879Z</time></trkpt><trkpt lat="42.1075233" lon="14.62094"><ele>162.0</ele><time>2026-04-20T09:32:31.879Z</time></trkpt><trkpt lat="42.107495" lon="14.6208567"><ele>162.0</ele><time>2026-04-20T09:32:33.879Z</time></trkpt><trkpt lat="42.10747" lon="14.6207733"><ele>161.71428571428572</ele><time>2026-04-20T09:32:35.878Z</time></trkpt><trkpt lat="42.1074367" lon="14.6206967"><ele>161.42857142857142</ele><time>2026-04-20T09:32:37.878Z</time></trkpt><trkpt lat="42.1074033" lon="14.6206167"><ele>161.14285714285714</ele><time>2026-04-20T09:32:39.878Z</time></trkpt><trkpt lat="42.1073633" lon="14.6205483"><ele>160.85714285714286</ele><time>2026-04-20T09:32:41.879Z</time></trkpt><trkpt lat="42.107285" lon="14.62048"><ele>160.57142857142858</ele><time>2026-04-20T09:32:44.879Z</time></trkpt><trkpt lat="42.107215" lon="14.6204633"><ele>160.28571428571428</ele><time>2026-04-20T09:32:46.879Z</time></trkpt><trkpt lat="42.1071433" lon="14.62047"><ele>160.0</ele><time>2026-04-20T09:32:48.879Z</time></trkpt><trkpt lat="42.107075" lon="14.62048"><ele>160.66666666666669</ele><time>2026-04-20T09:32:50.878Z</time></trkpt><trkpt lat="42.10701" lon="14.62048"><ele>161.33333333333334</ele><time>2026-04-20T09:32:52.878Z</time></trkpt><trkpt lat="42.106945" lon="14.6204683"><ele>162.0</ele><time>2026-04-20T09:32:54.878Z</time></trkpt><trkpt lat="42.10686" lon="14.6204283"><ele>162.66666666666666</ele><time>2026-04-20T09:32:57.879Z</time></trkpt><trkpt lat="42.1067867" lon="14.6203483"><ele>163.33333333333331</ele><time>2026-04-20T09:33:00.879Z</time></trkpt><trkpt lat="42.106735" lon="14.62029"><ele>164.0</ele><time>2026-04-20T09:33:02.878Z</time></trkpt><trkpt lat="42.1066917" lon="14.62022"><ele>164.66666666666666</ele><time>2026-04-20T09:33:04.878Z</time></trkpt><trkpt lat="42.1066383" lon="14.6201183"><ele>165.33333333333331</ele><time>2026-04-20T09:33:07.879Z</time></trkpt><trkpt lat="42.1065883" lon="14.62006"><ele>166.0</ele><time>2026-04-20T09:33:09.879Z</time></trkpt><trkpt lat="42.106535" lon="14.6199617"><ele>166.66666666666666</ele><time>2026-04-20T09:33:12.879Z</time></trkpt><trkpt lat="42.1064767" lon="14.61988"><ele>167.33333333333334</ele><time>2026-04-20T09:33:15.879Z</time></trkpt><trkpt lat="42.106425" lon="14.6197867"><ele>168.0</ele><time>2026-04-20T09:33:18.878Z</time></trkpt><trkpt lat="42.1063733" lon="14.6196933"><ele>168.16666666666666</ele><time>2026-04-20T09:33:21.879Z</time></trkpt><trkpt lat="42.1063167" lon="14.619605"><ele>168.33333333333334</ele><time>2026-04-20T09:33:24.878Z</time></trkpt><trkpt lat="42.1062583" lon="14.6195283"><ele>168.5</ele><time>2026-04-20T09:33:27.878Z</time></trkpt><trkpt lat="42.106205" lon="14.61943"><ele>168.66666666666669</ele><time>2026-04-20T09:33:30.879Z</time></trkpt><trkpt lat="42.1061533" lon="14.6193383"><ele>168.83333333333334</ele><time>2026-04-20T09:33:33.878Z</time></trkpt><trkpt lat="42.1061167" lon="14.619245"><ele>169.0</ele><time>2026-04-20T09:33:36.879Z</time></trkpt><trkpt lat="42.10606" lon="14.6191483"><ele>169.33333333333334</ele><time>2026-04-20T09:33:39.879Z</time></trkpt><trkpt lat="42.1060083" lon="14.6190583"><ele>169.66666666666669</ele><time>2026-04-20T09:33:42.878Z</time></trkpt><trkpt lat="42.1059683" lon="14.61899"><ele>170.0</ele><time>2026-04-20T09:33:44.879Z</time></trkpt><trkpt lat="42.1059117" lon="14.6188933"><ele>170.33333333333334</ele><time>2026-04-20T09:33:47.879Z</time></trkpt><trkpt lat="42.10585" lon="14.6188167"><ele>170.66666666666666</ele><time>2026-04-20T09:33:50.878Z</time></trkpt><trkpt lat="42.1058033" lon="14.618745"><ele>171.0</ele><time>2026-04-20T09:33:54.879Z</time></trkpt><trkpt lat="42.1057567" lon="14.6186783"><ele>171.5</ele><time>2026-04-20T09:33:58.879Z</time></trkpt><trkpt lat="42.105715" lon="14.6185917"><ele>172.0</ele><time>2026-04-20T09:34:03.879Z</time></trkpt><trkpt lat="42.1056567" lon="14.6185183"><ele>172.5</ele><time>2026-04-20T09:34:07.879Z</time></trkpt><trkpt lat="42.10563" lon="14.6184367"><ele>173.0</ele><time>2026-04-20T09:34:10.879Z</time></trkpt><trkpt lat="42.105575" lon="14.6183517"><ele>173.5</ele><time>2026-04-20T09:34:13.879Z</time></trkpt><trkpt lat="42.1055367" lon="14.61828"><ele>174.0</ele><time>2026-04-20T09:34:15.879Z</time></trkpt><trkpt lat="42.10548" lon="14.6181833"><ele>174.0</ele><time>2026-04-20T09:34:18.879Z</time></trkpt><trkpt lat="42.1054467" lon="14.61811"><ele>174.0</ele><time>2026-04-20T09:34:20.879Z</time></trkpt><trkpt lat="42.1054067" lon="14.61804"><ele>174.0</ele><time>2026-04-20T09:34:22.879Z</time></trkpt><trkpt lat="42.105365" lon="14.6179667"><ele>174.0</ele><time>2026-04-20T09:34:24.878Z</time></trkpt><trkpt lat="42.1053317" lon="14.617885"><ele>174.0</ele><time>2026-04-20T09:34:26.879Z</time></trkpt><trkpt lat="42.105285" lon="14.6177933"><ele>174.0</ele><time>2026-04-20T09:34:28.879Z</time></trkpt><trkpt lat="42.105235" lon="14.617715"><ele>174.0</ele><time>2026-04-20T09:34:30.879Z</time></trkpt><trkpt lat="42.1051967" lon="14.6176417"><ele>174.16666666666666</ele><time>2026-04-20T09:34:32.879Z</time></trkpt><trkpt lat="42.105155" lon="14.6175617"><ele>174.33333333333334</ele><time>2026-04-20T09:34:34.878Z</time></trkpt><trkpt lat="42.1051067" lon="14.61748"><ele>174.5</ele><time>2026-04-20T09:34:36.879Z</time></trkpt><trkpt lat="42.1050567" lon="14.6173867"><ele>174.66666666666669</ele><time>2026-04-20T09:34:38.878Z</time></trkpt><trkpt lat="42.1050133" lon="14.6173033"><ele>174.83333333333334</ele><time>2026-04-20T09:34:40.878Z</time></trkpt><trkpt lat="42.1049617" lon="14.6172417"><ele>175.0</ele><time>2026-04-20T09:34:42.878Z</time></trkpt><trkpt lat="42.1049117" lon="14.6171683"><ele>175.16666666666669</ele><time>2026-04-20T09:34:44.878Z</time></trkpt><trkpt lat="42.1048717" lon="14.6170867"><ele>175.33333333333334</ele><time>2026-04-20T09:34:46.878Z</time></trkpt><trkpt lat="42.1048133" lon="14.6170133"><ele>175.5</ele><time>2026-04-20T09:34:48.878Z</time></trkpt><trkpt lat="42.1047683" lon="14.6169367"><ele>175.66666666666666</ele><time>2026-04-20T09:34:50.879Z</time></trkpt><trkpt lat="42.1047183" lon="14.6168567"><ele>175.83333333333331</ele><time>2026-04-20T09:34:52.878Z</time></trkpt><trkpt lat="42.1046617" lon="14.6167633"><ele>176.0</ele><time>2026-04-20T09:34:54.878Z</time></trkpt><trkpt lat="42.1046133" lon="14.61669"><ele>176.0</ele><time>2026-04-20T09:34:56.879Z</time></trkpt><trkpt lat="42.1045617" lon="14.61661"><ele>176.0</ele><time>2026-04-20T09:34:58.878Z</time></trkpt><trkpt lat="42.10451" lon="14.6165033"><ele>176.0</ele><time>2026-04-20T09:35:01.879Z</time></trkpt><trkpt lat="42.1044583" lon="14.616395"><ele>176.0</ele><time>2026-04-20T09:35:04.879Z</time></trkpt><trkpt lat="42.1044217" lon="14.6163033"><ele>176.0</ele><time>2026-04-20T09:35:06.879Z</time></trkpt><trkpt lat="42.104385" lon="14.6162183"><ele>176.0</ele><time>2026-04-20T09:35:08.879Z</time></trkpt><trkpt lat="42.1043417" lon="14.6161317"><ele>176.16666666666666</ele><time>2026-04-20T09:35:10.879Z</time></trkpt><trkpt lat="42.104295" lon="14.616045"><ele>176.33333333333331</ele><time>2026-04-20T09:35:12.878Z</time></trkpt><trkpt lat="42.1042383" lon="14.61596"><ele>176.5</ele><time>2026-04-20T09:35:14.879Z</time></trkpt><trkpt lat="42.1041867" lon="14.61588"><ele>176.66666666666666</ele><time>2026-04-20T09:35:16.879Z</time></trkpt><trkpt lat="42.10414" lon="14.6157933"><ele>176.83333333333334</ele><time>2026-04-20T09:35:18.878Z</time></trkpt><trkpt lat="42.10409" lon="14.615715"><ele>177.0</ele><time>2026-04-20T09:35:20.878Z</time></trkpt><trkpt lat="42.1040417" lon="14.61563"><ele>177.2857142857143</ele><time>2026-04-20T09:35:22.879Z</time></trkpt><trkpt lat="42.103985" lon="14.615545"><ele>177.57142857142856</ele><time>2026-04-20T09:35:24.879Z</time></trkpt><trkpt lat="42.103935" lon="14.61547"><ele>177.85714285714286</ele><time>2026-04-20T09:35:26.879Z</time></trkpt><trkpt lat="42.1038883" lon="14.6153917"><ele>178.14285714285717</ele><time>2026-04-20T09:35:28.878Z</time></trkpt><trkpt lat="42.10385" lon="14.6153233"><ele>178.42857142857144</ele><time>2026-04-20T09:35:30.879Z</time></trkpt><trkpt lat="42.103815" lon="14.615245"><ele>178.71428571428572</ele><time>2026-04-20T09:35:32.878Z</time></trkpt><trkpt lat="42.1037683" lon="14.61517"><ele>179.0</ele><time>2026-04-20T09:35:34.878Z</time></trkpt><trkpt lat="42.103715" lon="14.6150967"><ele>179.00000000000003</ele><time>2026-04-20T09:35:36.879Z</time></trkpt><trkpt lat="42.1036617" lon="14.615015"><ele>179.0</ele><time>2026-04-20T09:35:38.879Z</time></trkpt><trkpt lat="42.10361" lon="14.6149467"><ele>179.0</ele><time>2026-04-20T09:35:40.878Z</time></trkpt><trkpt lat="42.10357" lon="14.614875"><ele>179.0</ele><time>2026-04-20T09:35:42.879Z</time></trkpt><trkpt lat="42.103525" lon="14.6148033"><ele>179.0</ele><time>2026-04-20T09:35:44.879Z</time></trkpt><trkpt lat="42.1034833" lon="14.614715"><ele>179.00000000000003</ele><time>2026-04-20T09:35:46.879Z</time></trkpt><trkpt lat="42.103435" lon="14.61463"><ele>179.0</ele><time>2026-04-20T09:35:48.878Z</time></trkpt><trkpt lat="42.1033883" lon="14.6145417"><ele>178.83333333333331</ele><time>2026-04-20T09:35:50.878Z</time></trkpt><trkpt lat="42.1033317" lon="14.6144617"><ele>178.66666666666666</ele><time>2026-04-20T09:35:52.878Z</time></trkpt><trkpt lat="42.1032867" lon="14.61439"><ele>178.5</ele><time>2026-04-20T09:35:54.879Z</time></trkpt><trkpt lat="42.1032483" lon="14.6143033"><ele>178.33333333333334</ele><time>2026-04-20T09:35:56.879Z</time></trkpt><trkpt lat="42.103195" lon="14.6142167"><ele>178.16666666666669</ele><time>2026-04-20T09:35:58.879Z</time></trkpt><trkpt lat="42.1031483" lon="14.6141267"><ele>178.0</ele><time>2026-04-20T09:36:00.879Z</time></trkpt><trkpt lat="42.1031033" lon="14.614035"><ele>178.66666666666669</ele><time>2026-04-20T09:36:02.878Z</time></trkpt><trkpt lat="42.103065" lon="14.613955"><ele>179.33333333333334</ele><time>2026-04-20T09:36:04.878Z</time></trkpt><trkpt lat="42.103015" lon="14.6138633"><ele>180.0</ele><time>2026-04-20T09:36:07.878Z</time></trkpt><trkpt lat="42.102965" lon="14.6137817"><ele>180.66666666666666</ele><time>2026-04-20T09:36:11.878Z</time></trkpt><trkpt lat="42.1029317" lon="14.6136917"><ele>181.33333333333331</ele><time>2026-04-20T09:36:16.879Z</time></trkpt><trkpt lat="42.10292" lon="14.6135933"><ele>182.0</ele><time>2026-04-20T09:36:20.879Z</time></trkpt><trkpt lat="42.102895" lon="14.6134883"><ele>182.28571428571428</ele><time>2026-04-20T09:36:23.879Z</time></trkpt><trkpt lat="42.1028717" lon="14.6133983"><ele>182.57142857142856</ele><time>2026-04-20T09:36:25.879Z</time></trkpt><trkpt lat="42.1028417" lon="14.6133183"><ele>182.85714285714286</ele><time>2026-04-20T09:36:27.879Z</time></trkpt><trkpt lat="42.102805" lon="14.6132283"><ele>183.14285714285714</ele><time>2026-04-20T09:36:29.879Z</time></trkpt><trkpt lat="42.102775" lon="14.6131467"><ele>183.42857142857142</ele><time>2026-04-20T09:36:31.879Z</time></trkpt><trkpt lat="42.1027433" lon="14.6130733"><ele>183.71428571428572</ele><time>2026-04-20T09:36:33.879Z</time></trkpt><trkpt lat="42.1027133" lon="14.6129917"><ele>184.0</ele><time>2026-04-20T09:36:35.879Z</time></trkpt><trkpt lat="42.10268" lon="14.6129067"><ele>184.16666666666669</ele><time>2026-04-20T09:36:37.879Z</time></trkpt><trkpt lat="42.1026433" lon="14.6128217"><ele>184.33333333333334</ele><time>2026-04-20T09:36:39.879Z</time></trkpt><trkpt lat="42.102615" lon="14.61274"><ele>184.5</ele><time>2026-04-20T09:36:41.879Z</time></trkpt><trkpt lat="42.1025783" lon="14.6126567"><ele>184.66666666666666</ele><time>2026-04-20T09:36:43.879Z</time></trkpt><trkpt lat="42.1025433" lon="14.61256"><ele>184.83333333333331</ele><time>2026-04-20T09:36:45.879Z</time></trkpt><trkpt lat="42.1025067" lon="14.61247"><ele>185.0</ele><time>2026-04-20T09:36:47.879Z</time></trkpt><trkpt lat="42.10248" lon="14.6123633"><ele>185.0</ele><time>2026-04-20T09:36:49.879Z</time></trkpt><trkpt lat="42.10245" lon="14.6122683"><ele>185.0</ele><time>2026-04-20T09:36:51.879Z</time></trkpt><trkpt lat="42.10242" lon="14.6121617"><ele>185.0</ele><time>2026-04-20T09:36:53.879Z</time></trkpt><trkpt lat="42.10238" lon="14.6120567"><ele>185.0</ele><time>2026-04-20T09:36:55.878Z</time></trkpt><trkpt lat="42.102355" lon="14.6119533"><ele>185.0</ele><time>2026-04-20T09:36:57.878Z</time></trkpt><trkpt lat="42.1023317" lon="14.6118617"><ele>185.0</ele><time>2026-04-20T09:36:59.878Z</time></trkpt><trkpt lat="42.10232" lon="14.6117683"><ele>184.99999999999997</ele><time>2026-04-20T09:37:01.878Z</time></trkpt><trkpt lat="42.1023183" lon="14.6116617"><ele>185.0</ele><time>2026-04-20T09:37:03.879Z</time></trkpt><trkpt lat="42.102315" lon="14.6115567"><ele>185.0</ele><time>2026-04-20T09:37:05.878Z</time></trkpt><trkpt lat="42.102305" lon="14.6114667"><ele>185.0</ele><time>2026-04-20T09:37:07.879Z</time></trkpt><trkpt lat="42.1022783" lon="14.611385"><ele>185.0</ele><time>2026-04-20T09:37:09.878Z</time></trkpt><trkpt lat="42.1022517" lon="14.6112933"><ele>184.99999999999997</ele><time>2026-04-20T09:37:11.878Z</time></trkpt><trkpt lat="42.1022183" lon="14.6112033"><ele>185.0</ele><time>2026-04-20T09:37:13.879Z</time></trkpt><trkpt lat="42.1021817" lon="14.6111217"><ele>185.0</ele><time>2026-04-20T09:37:15.878Z</time></trkpt><trkpt lat="42.1021433" lon="14.61103"><ele>185.0</ele><time>2026-04-20T09:37:17.879Z</time></trkpt><trkpt lat="42.1020917" lon="14.6109283"><ele>185.0</ele><time>2026-04-20T09:37:19.878Z</time></trkpt><trkpt lat="42.1020417" lon="14.6108433"><ele>185.0</ele><time>2026-04-20T09:37:21.878Z</time></trkpt><trkpt lat="42.1020083" lon="14.610755"><ele>185.0</ele><time>2026-04-20T09:37:23.879Z</time></trkpt><trkpt lat="42.1019733" lon="14.610645"><ele>185.0</ele><time>2026-04-20T09:37:25.878Z</time></trkpt><trkpt lat="42.1019367" lon="14.61053"><ele>185.0</ele><time>2026-04-20T09:37:27.879Z</time></trkpt><trkpt lat="42.1019067" lon="14.61042"><ele>185.0</ele><time>2026-04-20T09:37:29.879Z</time></trkpt><trkpt lat="42.1018883" lon="14.6103133"><ele>185.0</ele><time>2026-04-20T09:37:31.879Z</time></trkpt><trkpt lat="42.1018767" lon="14.6102183"><ele>185.0</ele><time>2026-04-20T09:37:33.879Z</time></trkpt><trkpt lat="42.10187" lon="14.6101183"><ele>185.0</ele><time>2026-04-20T09:37:35.879Z</time></trkpt><trkpt lat="42.1018617" lon="14.6100283"><ele>185.0</ele><time>2026-04-20T09:37:37.878Z</time></trkpt><trkpt lat="42.101875" lon="14.6099083"><ele>185.0</ele><time>2026-04-20T09:37:40.878Z</time></trkpt><trkpt lat="42.1019" lon="14.6098167"><ele>185.0</ele><time>2026-04-20T09:37:43.878Z</time></trkpt><trkpt lat="42.10193" lon="14.6096983"><ele>185.0</ele><time>2026-04-20T09:37:46.879Z</time></trkpt><trkpt lat="42.1019517" lon="14.6096133"><ele>185.0</ele><time>2026-04-20T09:37:48.879Z</time></trkpt><trkpt lat="42.1019633" lon="14.6094817"><ele>185.0</ele><time>2026-04-20T09:37:51.878Z</time></trkpt><trkpt lat="42.10195" lon="14.609395"><ele>185.0</ele><time>2026-04-20T09:37:53.878Z</time></trkpt><trkpt lat="42.1019367" lon="14.6093"><ele>185.0</ele><time>2026-04-20T09:37:55.878Z</time></trkpt><trkpt lat="42.10191" lon="14.6091783"><ele>185.0</ele><time>2026-04-20T09:37:58.878Z</time></trkpt><trkpt lat="42.1018933" lon="14.6090933"><ele>185.0</ele><time>2026-04-20T09:38:00.879Z</time></trkpt><trkpt lat="42.1018717" lon="14.6089617"><ele>185.0</ele><time>2026-04-20T09:38:03.879Z</time></trkpt><trkpt lat="42.1018667" lon="14.608845"><ele>185.0</ele><time>2026-04-20T09:38:06.878Z</time></trkpt><trkpt lat="42.1018717" lon="14.60876"><ele>185.0</ele><time>2026-04-20T09:38:08.878Z</time></trkpt><trkpt lat="42.10187" lon="14.6086333"><ele>185.0</ele><time>2026-04-20T09:38:11.878Z</time></trkpt><trkpt lat="42.101855" lon="14.6085217"><ele>185.0</ele><time>2026-04-20T09:38:14.879Z</time></trkpt><trkpt lat="42.101835" lon="14.6084083"><ele>185.0</ele><time>2026-04-20T09:38:17.878Z</time></trkpt><trkpt lat="42.1018217" lon="14.608315"><ele>185.0</ele><time>2026-04-20T09:38:19.878Z</time></trkpt><trkpt lat="42.1018133" lon="14.6082217"><ele>185.0</ele><time>2026-04-20T09:38:21.879Z</time></trkpt><trkpt lat="42.1018017" lon="14.608095"><ele>185.0</ele><time>2026-04-20T09:38:23.878Z</time></trkpt><trkpt lat="42.1017767" lon="14.60799"><ele>184.99999999999997</ele><time>2026-04-20T09:38:25.878Z</time></trkpt><trkpt lat="42.10174" lon="14.60788"><ele>185.0</ele><time>2026-04-20T09:38:27.879Z</time></trkpt><trkpt lat="42.1017133" lon="14.607785"><ele>185.0</ele><time>2026-04-20T09:38:29.878Z</time></trkpt><trkpt lat="42.1017117" lon="14.607695"><ele>185.0</ele><time>2026-04-20T09:38:32.879Z</time></trkpt><trkpt lat="42.1017317" lon="14.60761"><ele>185.0</ele><time>2026-04-20T09:38:36.879Z</time></trkpt><trkpt lat="42.10178" lon="14.607515"><ele>184.99999999999997</ele><time>2026-04-20T09:38:40.879Z</time></trkpt><trkpt lat="42.1017933" lon="14.6074317"><ele>185.0</ele><time>2026-04-20T09:38:43.878Z</time></trkpt><trkpt lat="42.10177" lon="14.607325"><ele>184.83333333333331</ele><time>2026-04-20T09:38:47.878Z</time></trkpt><trkpt lat="42.1017433" lon="14.6072167"><ele>184.66666666666666</ele><time>2026-04-20T09:38:50.878Z</time></trkpt><trkpt lat="42.1017283" lon="14.6071133"><ele>184.5</ele><time>2026-04-20T09:38:53.879Z</time></trkpt><trkpt lat="42.1017183" lon="14.6070083"><ele>184.33333333333334</ele><time>2026-04-20T09:38:55.878Z</time></trkpt><trkpt lat="42.1017033" lon="14.6069167"><ele>184.16666666666669</ele><time>2026-04-20T09:38:57.879Z</time></trkpt><trkpt lat="42.1016767" lon="14.6068267"><ele>184.0</ele><time>2026-04-20T09:38:59.879Z</time></trkpt><trkpt lat="42.1016317" lon="14.60672"><ele>184.66666666666669</ele><time>2026-04-20T09:39:02.879Z</time></trkpt><trkpt lat="42.1015733" lon="14.60666"><ele>185.33333333333334</ele><time>2026-04-20T09:39:04.879Z</time></trkpt><trkpt lat="42.1015133" lon="14.6065733"><ele>186.0</ele><time>2026-04-20T09:39:07.879Z</time></trkpt><trkpt lat="42.1014367" lon="14.606495"><ele>186.66666666666666</ele><time>2026-04-20T09:39:10.879Z</time></trkpt><trkpt lat="42.1013717" lon="14.606425"><ele>187.33333333333331</ele><time>2026-04-20T09:39:12.879Z</time></trkpt><trkpt lat="42.10133" lon="14.60636"><ele>188.0</ele><time>2026-04-20T09:39:14.879Z</time></trkpt><trkpt lat="42.1012917" lon="14.60629"><ele>188.0</ele><time>2026-04-20T09:39:16.878Z</time></trkpt><trkpt lat="42.1012483" lon="14.60617"><ele>188.0</ele><time>2026-04-20T09:39:19.879Z</time></trkpt><trkpt lat="42.1012133" lon="14.6060983"><ele>188.0</ele><time>2026-04-20T09:39:21.879Z</time></trkpt><trkpt lat="42.1011667" lon="14.606035"><ele>188.0</ele><time>2026-04-20T09:39:23.878Z</time></trkpt><trkpt lat="42.101095" lon="14.6059533"><ele>188.0</ele><time>2026-04-20T09:39:26.879Z</time></trkpt><trkpt lat="42.101045" lon="14.6058883"><ele>188.0</ele><time>2026-04-20T09:39:28.879Z</time></trkpt><trkpt lat="42.100995" lon="14.605825"><ele>188.0</ele><time>2026-04-20T09:39:30.878Z</time></trkpt><trkpt lat="42.1009417" lon="14.6057567"><ele>188.0</ele><time>2026-04-20T09:39:32.879Z</time></trkpt><trkpt lat="42.1009" lon="14.6056667"><ele>188.0</ele><time>2026-04-20T09:39:34.878Z</time></trkpt><trkpt lat="42.1008667" lon="14.6055683"><ele>188.0</ele><time>2026-04-20T09:39:36.878Z</time></trkpt><trkpt lat="42.1008417" lon="14.6054467"><ele>188.0</ele><time>2026-04-20T09:39:39.878Z</time></trkpt><trkpt lat="42.1008267" lon="14.6053617"><ele>188.0</ele><time>2026-04-20T09:39:41.879Z</time></trkpt><trkpt lat="42.1008017" lon="14.6052717"><ele>188.57142857142856</ele><time>2026-04-20T09:39:44.879Z</time></trkpt><trkpt lat="42.100795" lon="14.6051733"><ele>189.14285714285714</ele><time>2026-04-20T09:39:48.879Z</time></trkpt><trkpt lat="42.1007783" lon="14.605085"><ele>189.71428571428572</ele><time>2026-04-20T09:39:52.878Z</time></trkpt><trkpt lat="42.1007467" lon="14.6049933"><ele>190.28571428571428</ele><time>2026-04-20T09:39:57.878Z</time></trkpt><trkpt lat="42.10068" lon="14.60501"><ele>190.85714285714286</ele><time>2026-04-20T09:40:39.879Z</time></trkpt><trkpt lat="42.1006733" lon="14.605115"><ele>191.42857142857142</ele><time>2026-04-20T09:40:43.879Z</time></trkpt><trkpt lat="42.1006817" lon="14.6052183"><ele>192.0</ele><time>2026-04-20T09:40:46.879Z</time></trkpt><trkpt lat="42.1007117" lon="14.6054117"><ele>192.0</ele><time>2026-04-20T09:40:54.879Z</time></trkpt><trkpt lat="42.1007333" lon="14.6055267"><ele>192.0</ele><time>2026-04-20T09:40:57.879Z</time></trkpt><trkpt lat="42.1007767" lon="14.6056333"><ele>192.0</ele><time>2026-04-20T09:41:00.879Z</time></trkpt><trkpt lat="42.1008183" lon="14.6057017"><ele>192.0</ele><time>2026-04-20T09:41:02.879Z</time></trkpt><trkpt lat="42.1008833" lon="14.6057867"><ele>192.0</ele><time>2026-04-20T09:41:05.879Z</time></trkpt><trkpt lat="42.1009333" lon="14.6058517"><ele>192.0</ele><time>2026-04-20T09:41:07.879Z</time></trkpt><trkpt lat="42.1009867" lon="14.6059083"><ele>191.33333333333334</ele><time>2026-04-20T09:41:09.879Z</time></trkpt><trkpt lat="42.1010283" lon="14.6059983"><ele>190.66666666666666</ele><time>2026-04-20T09:41:12.879Z</time></trkpt><trkpt lat="42.101075" lon="14.6061067"><ele>190.0</ele><time>2026-04-20T09:41:15.879Z</time></trkpt><trkpt lat="42.10112" lon="14.6061867"><ele>189.33333333333331</ele><time>2026-04-20T09:41:17.879Z</time></trkpt><trkpt lat="42.1011667" lon="14.6062617"><ele>188.66666666666666</ele><time>2026-04-20T09:41:19.879Z</time></trkpt><trkpt lat="42.1012217" lon="14.6063333"><ele>188.0</ele><time>2026-04-20T09:41:21.878Z</time></trkpt><trkpt lat="42.1012817" lon="14.6063833"><ele>188.0</ele><time>2026-04-20T09:41:23.878Z</time></trkpt><trkpt lat="42.1013583" lon="14.6064567"><ele>188.0</ele><time>2026-04-20T09:41:25.878Z</time></trkpt><trkpt lat="42.1014317" lon="14.6065"><ele>188.0</ele><time>2026-04-20T09:41:27.879Z</time></trkpt><trkpt lat="42.1014917" lon="14.6065483"><ele>188.0</ele><time>2026-04-20T09:41:29.878Z</time></trkpt><trkpt lat="42.101555" lon="14.6066233"><ele>188.0</ele><time>2026-04-20T09:41:32.879Z</time></trkpt><trkpt lat="42.1015983" lon="14.6067067"><ele>188.0</ele><time>2026-04-20T09:41:35.879Z</time></trkpt><trkpt lat="42.1016283" lon="14.6067883"><ele>187.33333333333331</ele><time>2026-04-20T09:41:38.879Z</time></trkpt><trkpt lat="42.101645" lon="14.606885"><ele>186.66666666666666</ele><time>2026-04-20T09:41:41.879Z</time></trkpt><trkpt lat="42.1016683" lon="14.6070117"><ele>186.0</ele><time>2026-04-20T09:41:44.879Z</time></trkpt><trkpt lat="42.1017" lon="14.6070983"><ele>185.33333333333334</ele><time>2026-04-20T09:41:46.878Z</time></trkpt><trkpt lat="42.10174" lon="14.6071983"><ele>184.66666666666669</ele><time>2026-04-20T09:41:49.879Z</time></trkpt><trkpt lat="42.1017683" lon="14.60729"><ele>184.0</ele><time>2026-04-20T09:41:52.879Z</time></trkpt><trkpt lat="42.10176" lon="14.60738"><ele>184.0</ele><time>2026-04-20T09:41:55.879Z</time></trkpt><trkpt lat="42.1016917" lon="14.6074233"><ele>184.0</ele><time>2026-04-20T09:42:00.879Z</time></trkpt><trkpt lat="42.1016217" lon="14.6074317"><ele>184.0</ele><time>2026-04-20T09:42:04.879Z</time></trkpt><trkpt lat="42.101545" lon="14.6074483"><ele>184.0</ele><time>2026-04-20T09:42:08.879Z</time></trkpt><trkpt lat="42.10146" lon="14.6074417"><ele>184.0</ele><time>2026-04-20T09:42:11.879Z</time></trkpt><trkpt lat="42.10138" lon="14.60742"><ele>184.0</ele><time>2026-04-20T09:42:14.879Z</time></trkpt><trkpt lat="42.1012883" lon="14.6074117"><ele>184.5</ele><time>2026-04-20T09:42:17.879Z</time></trkpt><trkpt lat="42.1012017" lon="14.607395"><ele>185.0</ele><time>2026-04-20T09:42:20.879Z</time></trkpt><trkpt lat="42.10111" lon="14.6073833"><ele>185.5</ele><time>2026-04-20T09:42:23.879Z</time></trkpt><trkpt lat="42.1010267" lon="14.6073733"><ele>186.0</ele><time>2026-04-20T09:42:26.879Z</time></trkpt><trkpt lat="42.1009467" lon="14.60737"><ele>186.5</ele><time>2026-04-20T09:42:29.878Z</time></trkpt><trkpt lat="42.1008667" lon="14.6073617"><ele>187.0</ele><time>2026-04-20T09:42:32.878Z</time></trkpt><trkpt lat="42.10079" lon="14.6073483"><ele>187.83333333333334</ele><time>2026-04-20T09:42:35.879Z</time></trkpt><trkpt lat="42.1007067" lon="14.6073367"><ele>188.66666666666669</ele><time>2026-04-20T09:42:38.879Z</time></trkpt><trkpt lat="42.1006267" lon="14.607325"><ele>189.5</ele><time>2026-04-20T09:42:41.879Z</time></trkpt><trkpt lat="42.1005433" lon="14.6073183"><ele>190.33333333333334</ele><time>2026-04-20T09:42:44.878Z</time></trkpt><trkpt lat="42.1004633" lon="14.6073083"><ele>191.16666666666666</ele><time>2026-04-20T09:42:47.879Z</time></trkpt><trkpt lat="42.100385" lon="14.6073017"><ele>192.0</ele><time>2026-04-20T09:42:50.879Z</time></trkpt><trkpt lat="42.10031" lon="14.607295"><ele>192.0</ele><time>2026-04-20T09:42:53.879Z</time></trkpt><trkpt lat="42.100235" lon="14.6072833"><ele>192.0</ele><time>2026-04-20T09:42:56.878Z</time></trkpt><trkpt lat="42.1001533" lon="14.6072733"><ele>192.0</ele><time>2026-04-20T09:42:59.878Z</time></trkpt><trkpt lat="42.1000733" lon="14.6072683"><ele>192.0</ele><time>2026-04-20T09:43:02.879Z</time></trkpt><trkpt lat="42.0999867" lon="14.607265"><ele>192.0</ele><time>2026-04-20T09:43:05.878Z</time></trkpt><trkpt lat="42.09991" lon="14.607265"><ele>192.0</ele><time>2026-04-20T09:43:08.879Z</time></trkpt><trkpt lat="42.0998517" lon="14.6071967"><ele>191.83333333333334</ele><time>2026-04-20T09:43:12.879Z</time></trkpt><trkpt lat="42.0998433" lon="14.6070883"><ele>191.66666666666666</ele><time>2026-04-20T09:43:16.878Z</time></trkpt><trkpt lat="42.0998283" lon="14.6069917"><ele>191.5</ele><time>2026-04-20T09:43:19.879Z</time></trkpt><trkpt lat="42.0997883" lon="14.606905"><ele>191.33333333333331</ele><time>2026-04-20T09:43:22.878Z</time></trkpt><trkpt lat="42.0997033" lon="14.60685"><ele>191.16666666666666</ele><time>2026-04-20T09:43:25.879Z</time></trkpt><trkpt lat="42.0996433" lon="14.606815"><ele>191.0</ele><time>2026-04-20T09:43:27.878Z</time></trkpt><trkpt lat="42.09957" lon="14.6067583"><ele>191.33333333333331</ele><time>2026-04-20T09:43:30.878Z</time></trkpt><trkpt lat="42.0994967" lon="14.6067"><ele>191.66666666666666</ele><time>2026-04-20T09:43:33.879Z</time></trkpt><trkpt lat="42.0994383" lon="14.6066617"><ele>192.0</ele><time>2026-04-20T09:43:35.879Z</time></trkpt><trkpt lat="42.0993517" lon="14.606615"><ele>192.33333333333331</ele><time>2026-04-20T09:43:38.878Z</time></trkpt><trkpt lat="42.09929" lon="14.6065733"><ele>192.66666666666666</ele><time>2026-04-20T09:43:40.879Z</time></trkpt><trkpt lat="42.0992233" lon="14.6065383"><ele>193.0</ele><time>2026-04-20T09:43:42.879Z</time></trkpt><trkpt lat="42.0991633" lon="14.606495"><ele>193.00000000000003</ele><time>2026-04-20T09:43:44.878Z</time></trkpt><trkpt lat="42.0991017" lon="14.6064567"><ele>193.0</ele><time>2026-04-20T09:43:46.879Z</time></trkpt><trkpt lat="42.09902" lon="14.6063917"><ele>193.0</ele><time>2026-04-20T09:43:49.879Z</time></trkpt><trkpt lat="42.0989633" lon="14.60634"><ele>193.0</ele><time>2026-04-20T09:43:51.879Z</time></trkpt><trkpt lat="42.098895" lon="14.6062933"><ele>193.0</ele><time>2026-04-20T09:43:53.879Z</time></trkpt><trkpt lat="42.0988283" lon="14.6062383"><ele>193.00000000000003</ele><time>2026-04-20T09:43:55.879Z</time></trkpt><trkpt lat="42.0987733" lon="14.6061967"><ele>193.0</ele><time>2026-04-20T09:43:57.878Z</time></trkpt><trkpt lat="42.0986917" lon="14.6061283"><ele>192.99999999999997</ele><time>2026-04-20T09:44:00.878Z</time></trkpt><trkpt lat="42.0986333" lon="14.6060833"><ele>193.0</ele><time>2026-04-20T09:44:02.879Z</time></trkpt><trkpt lat="42.09856" lon="14.606025"><ele>193.0</ele><time>2026-04-20T09:44:05.879Z</time></trkpt><trkpt lat="42.0984817" lon="14.6059483"><ele>193.0</ele><time>2026-04-20T09:44:08.879Z</time></trkpt><trkpt lat="42.0984217" lon="14.605905"><ele>192.99999999999997</ele><time>2026-04-20T09:44:10.879Z</time></trkpt><trkpt lat="42.0983433" lon="14.6058483"><ele>193.0</ele><time>2026-04-20T09:44:13.879Z</time></trkpt><trkpt lat="42.098285" lon="14.6058017"><ele>193.00000000000003</ele><time>2026-04-20T09:44:15.879Z</time></trkpt><trkpt lat="42.0982267" lon="14.6057533"><ele>193.0</ele><time>2026-04-20T09:44:17.878Z</time></trkpt><trkpt lat="42.0981717" lon="14.6057117"><ele>193.0</ele><time>2026-04-20T09:44:19.879Z</time></trkpt><trkpt lat="42.098115" lon="14.6056617"><ele>193.0</ele><time>2026-04-20T09:44:21.879Z</time></trkpt><trkpt lat="42.09806" lon="14.60561"><ele>193.0</ele><time>2026-04-20T09:44:23.879Z</time></trkpt><trkpt lat="42.098005" lon="14.6055533"><ele>193.00000000000003</ele><time>2026-04-20T09:44:25.878Z</time></trkpt><trkpt lat="42.0979267" lon="14.6054833"><ele>193.0</ele><time>2026-04-20T09:44:28.879Z</time></trkpt><trkpt lat="42.0978567" lon="14.6054083"><ele>193.00000000000003</ele><time>2026-04-20T09:44:31.879Z</time></trkpt><trkpt lat="42.0978" lon="14.60537"><ele>193.0</ele><time>2026-04-20T09:44:33.878Z</time></trkpt><trkpt lat="42.0977333" lon="14.6053533"><ele>193.0</ele><time>2026-04-20T09:44:35.879Z</time></trkpt><trkpt lat="42.0976633" lon="14.6053517"><ele>193.0</ele><time>2026-04-20T09:44:37.878Z</time></trkpt><trkpt lat="42.0975967" lon="14.6053433"><ele>193.0</ele><time>2026-04-20T09:44:39.878Z</time></trkpt><trkpt lat="42.0975317" lon="14.6053317"><ele>193.00000000000003</ele><time>2026-04-20T09:44:41.879Z</time></trkpt><trkpt lat="42.09746" lon="14.6053067"><ele>193.0</ele><time>2026-04-20T09:44:44.878Z</time></trkpt><trkpt lat="42.0974367" lon="14.6052017"><ele>192.99999999999997</ele><time>2026-04-20T09:44:48.878Z</time></trkpt><trkpt lat="42.0974467" lon="14.605105"><ele>193.0</ele><time>2026-04-20T09:44:51.879Z</time></trkpt><trkpt lat="42.0974667" lon="14.605"><ele>193.0</ele><time>2026-04-20T09:44:54.879Z</time></trkpt><trkpt lat="42.0974833" lon="14.6048767"><ele>193.0</ele><time>2026-04-20T09:44:57.879Z</time></trkpt><trkpt lat="42.0974933" lon="14.6047517"><ele>192.99999999999997</ele><time>2026-04-20T09:45:00.878Z</time></trkpt><trkpt lat="42.0974967" lon="14.6046583"><ele>193.0</ele><time>2026-04-20T09:45:02.879Z</time></trkpt><trkpt lat="42.0975" lon="14.60457"><ele>193.16666666666666</ele><time>2026-04-20T09:45:04.878Z</time></trkpt><trkpt lat="42.0974983" lon="14.6044683"><ele>193.33333333333331</ele><time>2026-04-20T09:45:06.878Z</time></trkpt><trkpt lat="42.0974983" lon="14.6043617"><ele>193.5</ele><time>2026-04-20T09:45:08.879Z</time></trkpt><trkpt lat="42.0975" lon="14.60426"><ele>193.66666666666669</ele><time>2026-04-20T09:45:10.879Z</time></trkpt><trkpt lat="42.097505" lon="14.6041683"><ele>193.83333333333334</ele><time>2026-04-20T09:45:12.878Z</time></trkpt><trkpt lat="42.0975067" lon="14.6040567"><ele>194.0</ele><time>2026-04-20T09:45:14.878Z</time></trkpt><trkpt lat="42.0974983" lon="14.603935"><ele>194.0</ele><time>2026-04-20T09:45:16.878Z</time></trkpt><trkpt lat="42.097505" lon="14.6038333"><ele>194.0</ele><time>2026-04-20T09:45:18.878Z</time></trkpt><trkpt lat="42.0975083" lon="14.6037417"><ele>194.0</ele><time>2026-04-20T09:45:20.879Z</time></trkpt><trkpt lat="42.0975083" lon="14.6036483"><ele>194.0</ele><time>2026-04-20T09:45:22.879Z</time></trkpt><trkpt lat="42.0975083" lon="14.60356"><ele>194.0</ele><time>2026-04-20T09:45:24.878Z</time></trkpt><trkpt lat="42.0975133" lon="14.6034733"><ele>194.0</ele><time>2026-04-20T09:45:26.878Z</time></trkpt><trkpt lat="42.0975083" lon="14.6033517"><ele>194.0</ele><time>2026-04-20T09:45:29.879Z</time></trkpt><trkpt lat="42.0974767" lon="14.603275"><ele>194.33333333333334</ele><time>2026-04-20T09:45:31.879Z</time></trkpt><trkpt lat="42.09739" lon="14.6032433"><ele>194.66666666666669</ele><time>2026-04-20T09:45:34.878Z</time></trkpt><trkpt lat="42.0973167" lon="14.6032517"><ele>195.0</ele><time>2026-04-20T09:45:36.878Z</time></trkpt><trkpt lat="42.0972467" lon="14.6032733"><ele>195.33333333333331</ele><time>2026-04-20T09:45:38.878Z</time></trkpt><trkpt lat="42.097175" lon="14.60328"><ele>195.66666666666666</ele><time>2026-04-20T09:45:40.879Z</time></trkpt><trkpt lat="42.0971117" lon="14.603295"><ele>196.0</ele><time>2026-04-20T09:45:42.879Z</time></trkpt><trkpt lat="42.0970283" lon="14.603305"><ele>195.99999999999997</ele><time>2026-04-20T09:45:44.878Z</time></trkpt><trkpt lat="42.09696" lon="14.6033533"><ele>196.0</ele><time>2026-04-20T09:45:47.878Z</time></trkpt><trkpt lat="42.096895" lon="14.6033817"><ele>196.0</ele><time>2026-04-20T09:45:49.879Z</time></trkpt><trkpt lat="42.0968217" lon="14.6034083"><ele>196.0</ele><time>2026-04-20T09:45:51.878Z</time></trkpt><trkpt lat="42.0967433" lon="14.603435"><ele>195.99999999999997</ele><time>2026-04-20T09:45:53.878Z</time></trkpt><trkpt lat="42.096655" lon="14.6034617"><ele>196.0</ele><time>2026-04-20T09:45:55.879Z</time></trkpt><trkpt lat="42.0965817" lon="14.6034917"><ele>194.60000000000002</ele><time>2026-04-20T09:45:57.879Z</time></trkpt><trkpt lat="42.0965067" lon="14.6035233"><ele>193.2</ele><time>2026-04-20T09:45:59.878Z</time></trkpt><trkpt lat="42.0964383" lon="14.6035833"><ele>191.8</ele><time>2026-04-20T09:46:01.879Z</time></trkpt><trkpt lat="42.09637" lon="14.603685"><ele>190.39999999999998</ele><time>2026-04-20T09:46:03.878Z</time></trkpt><trkpt lat="42.0962983" lon="14.60379"><ele>189.0</ele><time>2026-04-20T09:46:05.879Z</time></trkpt><trkpt lat="42.0962067" lon="14.6038933"><ele>188.79999999999998</ele><time>2026-04-20T09:46:07.878Z</time></trkpt><trkpt lat="42.0961183" lon="14.6039833"><ele>188.6</ele><time>2026-04-20T09:46:09.878Z</time></trkpt><trkpt lat="42.0960417" lon="14.6040733"><ele>188.4</ele><time>2026-04-20T09:46:11.878Z</time></trkpt><trkpt lat="42.0959717" lon="14.6041567"><ele>188.2</ele><time>2026-04-20T09:46:13.878Z</time></trkpt><trkpt lat="42.0958983" lon="14.60424"><ele>188.0</ele><time>2026-04-20T09:46:15.878Z</time></trkpt><trkpt lat="42.0958333" lon="14.60433"><ele>188.0</ele><time>2026-04-20T09:46:17.879Z</time></trkpt><trkpt lat="42.09576" lon="14.604395"><ele>188.0</ele><time>2026-04-20T09:46:19.879Z</time></trkpt><trkpt lat="42.0956883" lon="14.60443"><ele>188.0</ele><time>2026-04-20T09:46:21.879Z</time></trkpt><trkpt lat="42.0956083" lon="14.604405"><ele>188.0</ele><time>2026-04-20T09:46:23.879Z</time></trkpt><trkpt lat="42.0955317" lon="14.60434"><ele>188.0</ele><time>2026-04-20T09:46:25.879Z</time></trkpt><trkpt lat="42.0954783" lon="14.6042883"><ele>188.0</ele><time>2026-04-20T09:46:27.878Z</time></trkpt><trkpt lat="42.09543" lon="14.6042167"><ele>186.33333333333331</ele><time>2026-04-20T09:46:30.879Z</time></trkpt><trkpt lat="42.0953633" lon="14.6042783"><ele>184.66666666666666</ele><time>2026-04-20T09:46:33.878Z</time></trkpt><trkpt lat="42.09534" lon="14.60439"><ele>183.0</ele><time>2026-04-20T09:46:35.879Z</time></trkpt><trkpt lat="42.0953433" lon="14.604475"><ele>181.33333333333334</ele><time>2026-04-20T09:46:37.878Z</time></trkpt><trkpt lat="42.0953417" lon="14.6046117"><ele>179.66666666666669</ele><time>2026-04-20T09:47:02.879Z</time></trkpt><trkpt lat="42.0953333" lon="14.6046983"><ele>178.0</ele><time>2026-04-20T09:47:05.878Z</time></trkpt><trkpt lat="42.095325" lon="14.6048217"><ele>177.5</ele><time>2026-04-20T09:47:08.879Z</time></trkpt><trkpt lat="42.09532" lon="14.60494"><ele>177.0</ele><time>2026-04-20T09:47:11.879Z</time></trkpt><trkpt lat="42.0953083" lon="14.605025"><ele>176.5</ele><time>2026-04-20T09:47:13.878Z</time></trkpt><trkpt lat="42.0953017" lon="14.6051317"><ele>176.0</ele><time>2026-04-20T09:47:15.879Z</time></trkpt><trkpt lat="42.0952833" lon="14.6052317"><ele>175.5</ele><time>2026-04-20T09:47:17.879Z</time></trkpt><trkpt lat="42.0952783" lon="14.60534"><ele>175.0</ele><time>2026-04-20T09:47:19.878Z</time></trkpt><trkpt lat="42.0952817" lon="14.6054533"><ele>174.85714285714286</ele><time>2026-04-20T09:47:21.878Z</time></trkpt><trkpt lat="42.09528" lon="14.6055617"><ele>174.71428571428572</ele><time>2026-04-20T09:47:23.879Z</time></trkpt><trkpt lat="42.095275" lon="14.6056567"><ele>174.57142857142856</ele><time>2026-04-20T09:47:25.878Z</time></trkpt><trkpt lat="42.0952717" lon="14.6057567"><ele>174.42857142857144</ele><time>2026-04-20T09:47:27.879Z</time></trkpt><trkpt lat="42.0952683" lon="14.605865"><ele>174.28571428571428</ele><time>2026-04-20T09:47:29.879Z</time></trkpt><trkpt lat="42.0952667" lon="14.6059567"><ele>174.14285714285714</ele><time>2026-04-20T09:47:31.878Z</time></trkpt><trkpt lat="42.09526" lon="14.606045"><ele>174.0</ele><time>2026-04-20T09:47:33.879Z</time></trkpt><trkpt lat="42.0952583" lon="14.606135"><ele>173.33333333333334</ele><time>2026-04-20T09:47:35.878Z</time></trkpt><trkpt lat="42.09526" lon="14.6062267"><ele>172.66666666666666</ele><time>2026-04-20T09:47:37.879Z</time></trkpt><trkpt lat="42.0952567" lon="14.6063217"><ele>172.0</ele><time>2026-04-20T09:47:39.878Z</time></trkpt><trkpt lat="42.09525" lon="14.606415"><ele>171.33333333333331</ele><time>2026-04-20T09:47:41.879Z</time></trkpt><trkpt lat="42.0952433" lon="14.6065117"><ele>170.66666666666666</ele><time>2026-04-20T09:47:44.879Z</time></trkpt><trkpt lat="42.095245" lon="14.6065967"><ele>170.0</ele><time>2026-04-20T09:47:49.878Z</time></trkpt><trkpt lat="42.0950733" lon="14.6067233"><ele>170.0</ele><time>2026-04-20T09:48:55.136Z</time></trkpt><trkpt lat="42.0952233" lon="14.60673"><ele>170.0</ele><time>2026-04-20T09:48:56.376Z</time></trkpt><trkpt lat="42.095255" lon="14.6068317"><ele>170.0</ele><time>2026-04-20T09:49:22.877Z</time></trkpt><trkpt lat="42.0952533" lon="14.606935"><ele>170.0</ele><time>2026-04-20T09:49:25.876Z</time></trkpt><trkpt lat="42.0952533" lon="14.607025"><ele>170.0</ele><time>2026-04-20T09:49:28.877Z</time></trkpt><trkpt lat="42.0952533" lon="14.607125"><ele>169.85714285714286</ele><time>2026-04-20T09:49:31.877Z</time></trkpt><trkpt lat="42.09524" lon="14.6072317"><ele>169.7142857142857</ele><time>2026-04-20T09:49:34.877Z</time></trkpt><trkpt lat="42.0952367" lon="14.6073167"><ele>169.57142857142856</ele><time>2026-04-20T09:49:36.876Z</time></trkpt><trkpt lat="42.0952267" lon="14.6074017"><ele>169.42857142857144</ele><time>2026-04-20T09:49:38.876Z</time></trkpt><trkpt lat="42.0952167" lon="14.6074883"><ele>169.28571428571428</ele><time>2026-04-20T09:49:40.877Z</time></trkpt><trkpt lat="42.0952033" lon="14.607595"><ele>169.14285714285714</ele><time>2026-04-20T09:49:43.876Z</time></trkpt><trkpt lat="42.095165" lon="14.6077"><ele>169.0</ele><time>2026-04-20T09:49:46.876Z</time></trkpt><trkpt lat="42.0950733" lon="14.6077383"><ele>169.0</ele><time>2026-04-20T09:49:49.877Z</time></trkpt><trkpt lat="42.0950083" lon="14.6077633"><ele>169.0</ele><time>2026-04-20T09:49:51.877Z</time></trkpt><trkpt lat="42.0949383" lon="14.6077833"><ele>169.0</ele><time>2026-04-20T09:49:53.876Z</time></trkpt><trkpt lat="42.09486" lon="14.6078017"><ele>169.0</ele><time>2026-04-20T09:49:55.877Z</time></trkpt><trkpt lat="42.09479" lon="14.6078233"><ele>169.0</ele><time>2026-04-20T09:49:57.876Z</time></trkpt><trkpt lat="42.0947117" lon="14.60783"><ele>169.0</ele><time>2026-04-20T09:50:00.877Z</time></trkpt><trkpt lat="42.0946517" lon="14.60786"><ele>169.0</ele><time>2026-04-20T09:50:02.877Z</time></trkpt><trkpt lat="42.0945883" lon="14.6078933"><ele>167.5</ele><time>2026-04-20T09:50:05.877Z</time></trkpt><trkpt lat="42.0945167" lon="14.607925"><ele>166.0</ele><time>2026-04-20T09:50:10.877Z</time></trkpt><trkpt lat="42.09445" lon="14.607945"><ele>164.5</ele><time>2026-04-20T09:50:14.877Z</time></trkpt><trkpt lat="42.0943883" lon="14.6079633"><ele>163.0</ele><time>2026-04-20T09:50:17.876Z</time></trkpt><trkpt lat="42.0942483" lon="14.60797"><ele>161.5</ele><time>2026-04-20T09:50:34.877Z</time></trkpt><trkpt lat="42.094185" lon="14.607975"><ele>160.0</ele><time>2026-04-20T09:50:39.876Z</time></trkpt><trkpt lat="42.09411" lon="14.6079683"><ele>159.33333333333334</ele><time>2026-04-20T09:50:43.876Z</time></trkpt><trkpt lat="42.09404" lon="14.6079733"><ele>158.66666666666669</ele><time>2026-04-20T09:50:46.877Z</time></trkpt><trkpt lat="42.093975" lon="14.6079783"><ele>158.0</ele><time>2026-04-20T09:50:49.877Z</time></trkpt><trkpt lat="42.0939017" lon="14.6080267"><ele>157.33333333333334</ele><time>2026-04-20T09:50:53.876Z</time></trkpt><trkpt lat="42.0938333" lon="14.6080783"><ele>156.66666666666666</ele><time>2026-04-20T09:50:56.877Z</time></trkpt><trkpt lat="42.0937617" lon="14.6081667"><ele>156.0</ele><time>2026-04-20T09:50:59.876Z</time></trkpt><trkpt lat="42.09371" lon="14.608225"><ele>156.0</ele><time>2026-04-20T09:51:01.877Z</time></trkpt><trkpt lat="42.0936567" lon="14.6082717"><ele>156.0</ele><time>2026-04-20T09:51:03.876Z</time></trkpt><trkpt lat="42.09359" lon="14.6082867"><ele>156.0</ele><time>2026-04-20T09:51:06.876Z</time></trkpt><trkpt lat="42.0935133" lon="14.6082817"><ele>156.0</ele><time>2026-04-20T09:51:09.877Z</time></trkpt><trkpt lat="42.09344" lon="14.6082633"><ele>156.0</ele><time>2026-04-20T09:51:12.877Z</time></trkpt><trkpt lat="42.0933683" lon="14.6082517"><ele>156.0</ele><time>2026-04-20T09:51:16.877Z</time></trkpt><trkpt lat="42.0933083" lon="14.608225"><ele>156.0</ele><time>2026-04-20T09:51:19.877Z</time></trkpt><trkpt lat="42.09323" lon="14.6082167"><ele>157.42857142857144</ele><time>2026-04-20T09:51:23.877Z</time></trkpt><trkpt lat="42.093155" lon="14.6082033"><ele>158.85714285714283</ele><time>2026-04-20T09:51:27.877Z</time></trkpt><trkpt lat="42.093085" lon="14.6081917"><ele>160.28571428571428</ele><time>2026-04-20T09:51:31.877Z</time></trkpt><trkpt lat="42.09302" lon="14.6081767"><ele>161.71428571428572</ele><time>2026-04-20T09:51:35.876Z</time></trkpt><trkpt lat="42.092945" lon="14.608185"><ele>163.14285714285717</ele><time>2026-04-20T09:51:39.876Z</time></trkpt><trkpt lat="42.09288" lon="14.6081767"><ele>164.57142857142856</ele><time>2026-04-20T09:51:43.877Z</time></trkpt><trkpt lat="42.0928033" lon="14.6081617"><ele>166.0</ele><time>2026-04-20T09:51:47.877Z</time></trkpt><trkpt lat="42.0927367" lon="14.6081483"><ele>166.0</ele><time>2026-04-20T09:51:51.877Z</time></trkpt><trkpt lat="42.0926367" lon="14.6081317"><ele>166.0</ele><time>2026-04-20T09:51:55.877Z</time></trkpt><trkpt lat="42.0925633" lon="14.608105"><ele>166.0</ele><time>2026-04-20T09:51:58.876Z</time></trkpt><trkpt lat="42.0924867" lon="14.6080917"><ele>166.0</ele><time>2026-04-20T09:52:01.877Z</time></trkpt><trkpt lat="42.0924083" lon="14.60808"><ele>166.0</ele><time>2026-04-20T09:52:04.876Z</time></trkpt><trkpt lat="42.0923367" lon="14.6080517"><ele>166.0</ele><time>2026-04-20T09:52:08.877Z</time></trkpt><trkpt lat="42.0922633" lon="14.6080217"><ele>165.33333333333334</ele><time>2026-04-20T09:52:11.877Z</time></trkpt><trkpt lat="42.0921717" lon="14.60801"><ele>164.66666666666669</ele><time>2026-04-20T09:52:14.877Z</time></trkpt><trkpt lat="42.0920983" lon="14.6080033"><ele>164.0</ele><time>2026-04-20T09:52:16.877Z</time></trkpt><trkpt lat="42.0920317" lon="14.6080067"><ele>163.33333333333334</ele><time>2026-04-20T09:52:18.877Z</time></trkpt><trkpt lat="42.091965" lon="14.608"><ele>162.66666666666666</ele><time>2026-04-20T09:52:20.877Z</time></trkpt><trkpt lat="42.0918783" lon="14.6079767"><ele>162.0</ele><time>2026-04-20T09:52:23.877Z</time></trkpt><trkpt lat="42.0918233" lon="14.60793"><ele>162.0</ele><time>2026-04-20T09:52:26.876Z</time></trkpt><trkpt lat="42.0917917" lon="14.6078283"><ele>162.0</ele><time>2026-04-20T09:52:29.876Z</time></trkpt><trkpt lat="42.0917617" lon="14.6077183"><ele>162.0</ele><time>2026-04-20T09:52:32.877Z</time></trkpt><trkpt lat="42.0917283" lon="14.6076167"><ele>162.0</ele><time>2026-04-20T09:52:35.877Z</time></trkpt><trkpt lat="42.091705" lon="14.60752"><ele>162.0</ele><time>2026-04-20T09:52:38.877Z</time></trkpt><trkpt lat="42.0916667" lon="14.60741"><ele>162.0</ele><time>2026-04-20T09:52:41.877Z</time></trkpt><trkpt lat="42.0916367" lon="14.6072967"><ele>162.66666666666666</ele><time>2026-04-20T09:52:44.876Z</time></trkpt><trkpt lat="42.0916133" lon="14.6071767"><ele>163.33333333333334</ele><time>2026-04-20T09:52:47.877Z</time></trkpt><trkpt lat="42.0915867" lon="14.60706"><ele>164.0</ele><time>2026-04-20T09:52:50.876Z</time></trkpt><trkpt lat="42.0915667" lon="14.6069633"><ele>164.66666666666669</ele><time>2026-04-20T09:52:52.876Z</time></trkpt><trkpt lat="42.0915433" lon="14.6068467"><ele>165.33333333333334</ele><time>2026-04-20T09:52:55.876Z</time></trkpt><trkpt lat="42.091525" lon="14.606725"><ele>166.0</ele><time>2026-04-20T09:52:58.876Z</time></trkpt><trkpt lat="42.0915067" lon="14.606605"><ele>165.33333333333334</ele><time>2026-04-20T09:53:01.876Z</time></trkpt><trkpt lat="42.0914817" lon="14.6064917"><ele>164.66666666666669</ele><time>2026-04-20T09:53:04.876Z</time></trkpt><trkpt lat="42.0914517" lon="14.6063733"><ele>164.0</ele><time>2026-04-20T09:53:07.877Z</time></trkpt><trkpt lat="42.0914167" lon="14.6062583"><ele>163.33333333333334</ele><time>2026-04-20T09:53:10.877Z</time></trkpt><trkpt lat="42.0913983" lon="14.6061567"><ele>162.66666666666666</ele><time>2026-04-20T09:53:12.877Z</time></trkpt><trkpt lat="42.0913583" lon="14.606045"><ele>162.0</ele><time>2026-04-20T09:53:15.877Z</time></trkpt><trkpt lat="42.0913167" lon="14.60598"><ele>162.0</ele><time>2026-04-20T09:53:17.877Z</time></trkpt><trkpt lat="42.0912667" lon="14.6058883"><ele>162.0</ele><time>2026-04-20T09:53:20.875Z</time></trkpt><trkpt lat="42.0912217" lon="14.605815"><ele>162.0</ele><time>2026-04-20T09:53:23.876Z</time></trkpt><trkpt lat="42.0911767" lon="14.605745"><ele>162.0</ele><time>2026-04-20T09:53:26.876Z</time></trkpt><trkpt lat="42.0911367" lon="14.6056767"><ele>162.0</ele><time>2026-04-20T09:53:29.876Z</time></trkpt><trkpt lat="42.0910917" lon="14.60558"><ele>162.0</ele><time>2026-04-20T09:53:32.876Z</time></trkpt><trkpt lat="42.0910633" lon="14.6054867"><ele>162.0</ele><time>2026-04-20T09:53:35.876Z</time></trkpt><trkpt lat="42.0910317" lon="14.6054"><ele>162.66666666666666</ele><time>2026-04-20T09:53:38.875Z</time></trkpt><trkpt lat="42.0910183" lon="14.6053033"><ele>163.33333333333334</ele><time>2026-04-20T09:53:40.876Z</time></trkpt><trkpt lat="42.0910033" lon="14.605205"><ele>164.0</ele><time>2026-04-20T09:53:42.876Z</time></trkpt><trkpt lat="42.0909817" lon="14.6051133"><ele>164.66666666666669</ele><time>2026-04-20T09:53:44.876Z</time></trkpt><trkpt lat="42.09096" lon="14.6050233"><ele>165.33333333333334</ele><time>2026-04-20T09:53:46.875Z</time></trkpt><trkpt lat="42.0909583" lon="14.6049383"><ele>166.0</ele><time>2026-04-20T09:53:48.876Z</time></trkpt><trkpt lat="42.0909733" lon="14.6048083"><ele>166.0</ele><time>2026-04-20T09:53:51.876Z</time></trkpt><trkpt lat="42.0909917" lon="14.6047033"><ele>166.0</ele><time>2026-04-20T09:53:53.875Z</time></trkpt><trkpt lat="42.0910133" lon="14.604605"><ele>166.0</ele><time>2026-04-20T09:53:55.876Z</time></trkpt><trkpt lat="42.0910367" lon="14.604505"><ele>166.0</ele><time>2026-04-20T09:53:57.876Z</time></trkpt><trkpt lat="42.0910517" lon="14.6044167"><ele>166.0</ele><time>2026-04-20T09:53:59.875Z</time></trkpt><trkpt lat="42.0910733" lon="14.6043017"><ele>166.0</ele><time>2026-04-20T09:54:02.876Z</time></trkpt><trkpt lat="42.0911" lon="14.60419"><ele>166.42857142857142</ele><time>2026-04-20T09:54:05.876Z</time></trkpt><trkpt lat="42.0911283" lon="14.604105"><ele>166.85714285714286</ele><time>2026-04-20T09:54:08.876Z</time></trkpt><trkpt lat="42.091165" lon="14.6040117"><ele>167.28571428571428</ele><time>2026-04-20T09:54:11.875Z</time></trkpt><trkpt lat="42.091205" lon="14.6039217"><ele>167.71428571428572</ele><time>2026-04-20T09:54:14.875Z</time></trkpt><trkpt lat="42.09121" lon="14.6038367"><ele>168.14285714285714</ele><time>2026-04-20T09:55:01.876Z</time></trkpt><trkpt lat="42.09125" lon="14.6037667"><ele>168.57142857142858</ele><time>2026-04-20T09:55:18.876Z</time></trkpt><trkpt lat="42.0912633" lon="14.6036717"><ele>169.0</ele><time>2026-04-20T09:55:46.876Z</time></trkpt><trkpt lat="42.0912483" lon="14.6035833"><ele>169.0</ele><time>2026-04-20T09:55:50.876Z</time></trkpt><trkpt lat="42.0912133" lon="14.60349"><ele>169.0</ele><time>2026-04-20T09:55:55.875Z</time></trkpt><trkpt lat="42.0911683" lon="14.6034217"><ele>169.0</ele><time>2026-04-20T09:55:58.875Z</time></trkpt><trkpt lat="42.0911367" lon="14.6033417"><ele>169.0</ele><time>2026-04-20T09:56:01.875Z</time></trkpt><trkpt lat="42.091135" lon="14.603255"><ele>169.0</ele><time>2026-04-20T09:56:04.876Z</time></trkpt><trkpt lat="42.0911367" lon="14.60316"><ele>169.0</ele><time>2026-04-20T09:56:07.876Z</time></trkpt><trkpt lat="42.091125" lon="14.6030683"><ele>169.0</ele><time>2026-04-20T09:56:10.876Z</time></trkpt><trkpt lat="42.0911333" lon="14.6029817"><ele>169.0</ele><time>2026-04-20T09:56:13.876Z</time></trkpt><trkpt lat="42.091145" lon="14.6028867"><ele>169.0</ele><time>2026-04-20T09:56:17.876Z</time></trkpt><trkpt lat="42.0911183" lon="14.6027933"><ele>169.0</ele><time>2026-04-20T09:56:21.875Z</time></trkpt><trkpt lat="42.091105" lon="14.6027017"><ele>169.0</ele><time>2026-04-20T09:56:24.876Z</time></trkpt><trkpt lat="42.0911133" lon="14.6026033"><ele>169.0</ele><time>2026-04-20T09:56:27.876Z</time></trkpt><trkpt lat="42.09113" lon="14.6025083"><ele>169.0</ele><time>2026-04-20T09:56:30.876Z</time></trkpt><trkpt lat="42.091155" lon="14.602425"><ele>169.0</ele><time>2026-04-20T09:56:33.876Z</time></trkpt><trkpt lat="42.0911717" lon="14.6023367"><ele>168.42857142857144</ele><time>2026-04-20T09:56:36.875Z</time></trkpt><trkpt lat="42.091185" lon="14.60225"><ele>167.85714285714286</ele><time>2026-04-20T09:56:39.876Z</time></trkpt><trkpt lat="42.0912117" lon="14.60216"><ele>167.28571428571428</ele><time>2026-04-20T09:56:42.875Z</time></trkpt><trkpt lat="42.0912333" lon="14.6020667"><ele>166.71428571428572</ele><time>2026-04-20T09:56:45.875Z</time></trkpt><trkpt lat="42.0912683" lon="14.601965"><ele>166.14285714285714</ele><time>2026-04-20T09:56:49.875Z</time></trkpt><trkpt lat="42.0912717" lon="14.6018783"><ele>165.57142857142858</ele><time>2026-04-20T09:56:52.875Z</time></trkpt><trkpt lat="42.0912733" lon="14.6017867"><ele>165.0</ele><time>2026-04-20T09:56:55.876Z</time></trkpt><trkpt lat="42.091295" lon="14.6016533"><ele>164.5</ele><time>2026-04-20T09:57:28.875Z</time></trkpt><trkpt lat="42.091305" lon="14.6015483"><ele>164.0</ele><time>2026-04-20T09:57:31.876Z</time></trkpt><trkpt lat="42.0913167" lon="14.601445"><ele>163.5</ele><time>2026-04-20T09:57:34.876Z</time></trkpt><trkpt lat="42.0913383" lon="14.6013433"><ele>163.0</ele><time>2026-04-20T09:57:37.876Z</time></trkpt><trkpt lat="42.0913567" lon="14.6012383"><ele>162.5</ele><time>2026-04-20T09:57:40.876Z</time></trkpt><trkpt lat="42.0913783" lon="14.601125"><ele>162.0</ele><time>2026-04-20T09:57:43.875Z</time></trkpt><trkpt lat="42.0913983" lon="14.6010167"><ele>161.33333333333334</ele><time>2026-04-20T09:57:46.876Z</time></trkpt><trkpt lat="42.0914133" lon="14.6009183"><ele>160.66666666666666</ele><time>2026-04-20T09:57:49.876Z</time></trkpt><trkpt lat="42.0914217" lon="14.6008267"><ele>160.0</ele><time>2026-04-20T09:57:52.875Z</time></trkpt><trkpt lat="42.0914367" lon="14.6007167"><ele>159.33333333333331</ele><time>2026-04-20T09:57:55.875Z</time></trkpt><trkpt lat="42.0914567" lon="14.6006117"><ele>158.66666666666666</ele><time>2026-04-20T09:57:58.876Z</time></trkpt><trkpt lat="42.0914717" lon="14.6005017"><ele>158.0</ele><time>2026-04-20T09:58:01.876Z</time></trkpt><trkpt lat="42.0914833" lon="14.6004017"><ele>157.5</ele><time>2026-04-20T09:58:04.876Z</time></trkpt><trkpt lat="42.0914967" lon="14.6002967"><ele>157.0</ele><time>2026-04-20T09:58:07.876Z</time></trkpt><trkpt lat="42.091505" lon="14.6001883"><ele>156.5</ele><time>2026-04-20T09:58:10.876Z</time></trkpt><trkpt lat="42.0915267" lon="14.6000767"><ele>156.0</ele><time>2026-04-20T09:58:13.876Z</time></trkpt><trkpt lat="42.0915417" lon="14.5999733"><ele>155.5</ele><time>2026-04-20T09:58:16.875Z</time></trkpt><trkpt lat="42.0915583" lon="14.599865"><ele>155.0</ele><time>2026-04-20T09:58:19.876Z</time></trkpt><trkpt lat="42.0915783" lon="14.599775"><ele>155.0</ele><time>2026-04-20T09:58:22.875Z</time></trkpt><trkpt lat="42.0915883" lon="14.59967"><ele>155.0</ele><time>2026-04-20T09:58:26.876Z</time></trkpt><trkpt lat="42.0915933" lon="14.5995783"><ele>155.0</ele><time>2026-04-20T09:58:29.876Z</time></trkpt><trkpt lat="42.0916117" lon="14.5994867"><ele>155.0</ele><time>2026-04-20T09:58:32.876Z</time></trkpt><trkpt lat="42.0916383" lon="14.5993783"><ele>155.0</ele><time>2026-04-20T09:58:35.876Z</time></trkpt><trkpt lat="42.0916683" lon="14.5992833"><ele>155.0</ele><time>2026-04-20T09:58:38.875Z</time></trkpt><trkpt lat="42.0916983" lon="14.5991967"><ele>155.0</ele><time>2026-04-20T09:58:41.876Z</time></trkpt><trkpt lat="42.0917233" lon="14.5990933"><ele>157.71428571428572</ele><time>2026-04-20T09:58:44.876Z</time></trkpt><trkpt lat="42.0917383" lon="14.599"><ele>160.42857142857142</ele><time>2026-04-20T09:58:47.875Z</time></trkpt><trkpt lat="42.091755" lon="14.5989167"><ele>163.14285714285714</ele><time>2026-04-20T09:58:50.876Z</time></trkpt><trkpt lat="42.0917683" lon="14.5988267"><ele>165.85714285714286</ele><time>2026-04-20T09:58:53.876Z</time></trkpt><trkpt lat="42.0917733" lon="14.5987267"><ele>168.57142857142858</ele><time>2026-04-20T09:58:56.876Z</time></trkpt><trkpt lat="42.0917683" lon="14.5986283"><ele>171.28571428571428</ele><time>2026-04-20T09:58:59.876Z</time></trkpt><trkpt lat="42.0917533" lon="14.5985083"><ele>174.0</ele><time>2026-04-20T09:59:02.876Z</time></trkpt><trkpt lat="42.0917467" lon="14.59841"><ele>174.16666666666666</ele><time>2026-04-20T09:59:05.876Z</time></trkpt><trkpt lat="42.0917383" lon="14.598305"><ele>174.33333333333334</ele><time>2026-04-20T09:59:08.876Z</time></trkpt><trkpt lat="42.0917367" lon="14.5981917"><ele>174.5</ele><time>2026-04-20T09:59:11.875Z</time></trkpt><trkpt lat="42.0917467" lon="14.5980983"><ele>174.66666666666669</ele><time>2026-04-20T09:59:14.875Z</time></trkpt><trkpt lat="42.091755" lon="14.597985"><ele>174.83333333333334</ele><time>2026-04-20T09:59:17.875Z</time></trkpt><trkpt lat="42.0917483" lon="14.59789"><ele>175.0</ele><time>2026-04-20T09:59:20.876Z</time></trkpt><trkpt lat="42.0917367" lon="14.5977883"><ele>175.5</ele><time>2026-04-20T09:59:23.876Z</time></trkpt><trkpt lat="42.0917267" lon="14.597695"><ele>176.0</ele><time>2026-04-20T09:59:26.876Z</time></trkpt><trkpt lat="42.09172" lon="14.5975983"><ele>176.5</ele><time>2026-04-20T09:59:29.876Z</time></trkpt><trkpt lat="42.0917167" lon="14.59749"><ele>177.0</ele><time>2026-04-20T09:59:32.875Z</time></trkpt><trkpt lat="42.091705" lon="14.5973767"><ele>177.5</ele><time>2026-04-20T09:59:35.876Z</time></trkpt><trkpt lat="42.09169" lon="14.59728"><ele>178.0</ele><time>2026-04-20T09:59:38.876Z</time></trkpt><trkpt lat="42.091685" lon="14.597175"><ele>177.99999999999997</ele><time>2026-04-20T09:59:41.876Z</time></trkpt><trkpt lat="42.0916783" lon="14.5970817"><ele>178.0</ele><time>2026-04-20T09:59:44.876Z</time></trkpt><trkpt lat="42.0916717" lon="14.5969717"><ele>178.0</ele><time>2026-04-20T09:59:47.876Z</time></trkpt><trkpt lat="42.091655" lon="14.5968683"><ele>178.0</ele><time>2026-04-20T09:59:50.875Z</time></trkpt><trkpt lat="42.09165" lon="14.596775"><ele>178.0</ele><time>2026-04-20T09:59:53.875Z</time></trkpt><trkpt lat="42.091635" lon="14.5966833"><ele>177.99999999999997</ele><time>2026-04-20T09:59:56.876Z</time></trkpt><trkpt lat="42.0916217" lon="14.59659"><ele>178.0</ele><time>2026-04-20T09:59:59.875Z</time></trkpt><trkpt lat="42.091615" lon="14.5964867"><ele>178.5</ele><time>2026-04-20T10:00:02.876Z</time></trkpt><trkpt lat="42.0916167" lon="14.59638"><ele>179.0</ele><time>2026-04-20T10:00:05.875Z</time></trkpt><trkpt lat="42.0916167" lon="14.596285"><ele>179.5</ele><time>2026-04-20T10:00:08.876Z</time></trkpt><trkpt lat="42.0916117" lon="14.5961583"><ele>180.0</ele><time>2026-04-20T10:00:11.876Z</time></trkpt><trkpt lat="42.0916033" lon="14.596065"><ele>180.5</ele><time>2026-04-20T10:00:14.876Z</time></trkpt><trkpt lat="42.0915933" lon="14.59596"><ele>181.0</ele><time>2026-04-20T10:00:18.875Z</time></trkpt><trkpt lat="42.091585" lon="14.59586"><ele>181.42857142857142</ele><time>2026-04-20T10:00:21.875Z</time></trkpt><trkpt lat="42.0915933" lon="14.595775"><ele>181.85714285714283</ele><time>2026-04-20T10:00:24.876Z</time></trkpt><trkpt lat="42.0916067" lon="14.5956817"><ele>182.28571428571428</ele><time>2026-04-20T10:00:27.875Z</time></trkpt><trkpt lat="42.0916383" lon="14.5955933"><ele>182.71428571428572</ele><time>2026-04-20T10:00:30.876Z</time></trkpt><trkpt lat="42.091675" lon="14.5955083"><ele>183.14285714285714</ele><time>2026-04-20T10:00:33.876Z</time></trkpt><trkpt lat="42.091695" lon="14.5954267"><ele>183.57142857142858</ele><time>2026-04-20T10:00:36.876Z</time></trkpt><trkpt lat="42.091725" lon="14.5953333"><ele>184.0</ele><time>2026-04-20T10:00:39.876Z</time></trkpt><trkpt lat="42.0917533" lon="14.5952367"><ele>184.57142857142858</ele><time>2026-04-20T10:00:42.876Z</time></trkpt><trkpt lat="42.0917667" lon="14.59515"><ele>185.14285714285714</ele><time>2026-04-20T10:00:45.875Z</time></trkpt><trkpt lat="42.0917783" lon="14.5950533"><ele>185.71428571428572</ele><time>2026-04-20T10:00:49.876Z</time></trkpt><trkpt lat="42.0917817" lon="14.5949683"><ele>186.28571428571428</ele><time>2026-04-20T10:00:52.875Z</time></trkpt><trkpt lat="42.0917717" lon="14.5948583"><ele>186.85714285714283</ele><time>2026-04-20T10:00:56.875Z</time></trkpt><trkpt lat="42.091765" lon="14.5947517"><ele>187.42857142857142</ele><time>2026-04-20T10:01:00.875Z</time></trkpt><trkpt lat="42.091765" lon="14.59465"><ele>188.0</ele><time>2026-04-20T10:01:04.875Z</time></trkpt><trkpt lat="42.0917633" lon="14.5945617"><ele>188.42857142857142</ele><time>2026-04-20T10:01:08.875Z</time></trkpt><trkpt lat="42.0917767" lon="14.5944533"><ele>188.85714285714283</ele><time>2026-04-20T10:01:12.875Z</time></trkpt><trkpt lat="42.0917917" lon="14.59435"><ele>189.28571428571428</ele><time>2026-04-20T10:01:16.875Z</time></trkpt><trkpt lat="42.0918267" lon="14.5942767"><ele>189.71428571428572</ele><time>2026-04-20T10:01:19.876Z</time></trkpt><trkpt lat="42.0918883" lon="14.59425"><ele>190.14285714285714</ele><time>2026-04-20T10:01:22.876Z</time></trkpt><trkpt lat="42.0919683" lon="14.5942383"><ele>190.57142857142858</ele><time>2026-04-20T10:01:26.876Z</time></trkpt><trkpt lat="42.0920333" lon="14.5942267"><ele>191.0</ele><time>2026-04-20T10:01:29.876Z</time></trkpt><trkpt lat="42.0920967" lon="14.594215"><ele>191.0</ele><time>2026-04-20T10:01:32.876Z</time></trkpt><trkpt lat="42.0921733" lon="14.5941867"><ele>191.0</ele><time>2026-04-20T10:01:36.876Z</time></trkpt><trkpt lat="42.092235" lon="14.5941683"><ele>191.0</ele><time>2026-04-20T10:01:38.876Z</time></trkpt><trkpt lat="42.0923133" lon="14.59413"><ele>191.0</ele><time>2026-04-20T10:01:41.875Z</time></trkpt><trkpt lat="42.0923783" lon="14.5940833"><ele>191.0</ele><time>2026-04-20T10:01:44.876Z</time></trkpt><trkpt lat="42.0924117" lon="14.594"><ele>191.0</ele><time>2026-04-20T10:01:49.876Z</time></trkpt><trkpt lat="42.0924017" lon="14.5939117"><ele>191.0</ele><time>2026-04-20T10:01:58.875Z</time></trkpt><trkpt lat="42.0924167" lon="14.5938117"><ele>191.0</ele><time>2026-04-20T10:05:56.878Z</time></trkpt><trkpt lat="42.0923933" lon="14.5937183"><ele>191.0</ele><time>2026-04-20T10:06:00.877Z</time></trkpt><trkpt lat="42.0923717" lon="14.593615"><ele>191.0</ele><time>2026-04-20T10:06:03.877Z</time></trkpt><trkpt lat="42.0923483" lon="14.5935117"><ele>191.0</ele><time>2026-04-20T10:06:07.878Z</time></trkpt><trkpt lat="42.0923267" lon="14.593425"><ele>191.0</ele><time>2026-04-20T10:06:11.877Z</time></trkpt><trkpt lat="42.0922933" lon="14.59333"><ele>191.0</ele><time>2026-04-20T10:06:15.878Z</time></trkpt><trkpt lat="42.0922683" lon="14.5932367"><ele>191.0</ele><time>2026-04-20T10:06:18.878Z</time></trkpt><trkpt lat="42.0922533" lon="14.5931383"><ele>191.0</ele><time>2026-04-20T10:06:21.878Z</time></trkpt><trkpt lat="42.0922383" lon="14.5930317"><ele>191.0</ele><time>2026-04-20T10:06:25.878Z</time></trkpt><trkpt lat="42.0922233" lon="14.5929167"><ele>191.0</ele><time>2026-04-20T10:06:28.877Z</time></trkpt><trkpt lat="42.0922217" lon="14.59283"><ele>191.0</ele><time>2026-04-20T10:06:30.878Z</time></trkpt><trkpt lat="42.0922317" lon="14.5927383"><ele>191.0</ele><time>2026-04-20T10:06:32.878Z</time></trkpt><trkpt lat="42.0922467" lon="14.5926467"><ele>191.0</ele><time>2026-04-20T10:06:34.878Z</time></trkpt><trkpt lat="42.0922617" lon="14.592555"><ele>190.33333333333331</ele><time>2026-04-20T10:06:36.878Z</time></trkpt><trkpt lat="42.092285" lon="14.59245"><ele>189.66666666666666</ele><time>2026-04-20T10:06:38.878Z</time></trkpt><trkpt lat="42.092315" lon="14.5923533"><ele>189.0</ele><time>2026-04-20T10:06:40.877Z</time></trkpt><trkpt lat="42.0923483" lon="14.5922567"><ele>188.33333333333334</ele><time>2026-04-20T10:06:42.878Z</time></trkpt><trkpt lat="42.0923867" lon="14.59216"><ele>187.66666666666669</ele><time>2026-04-20T10:06:44.878Z</time></trkpt><trkpt lat="42.092435" lon="14.5920767"><ele>187.0</ele><time>2026-04-20T10:06:46.877Z</time></trkpt><trkpt lat="42.09249" lon="14.5920067"><ele>189.5</ele><time>2026-04-20T10:06:48.878Z</time></trkpt><trkpt lat="42.092535" lon="14.5919417"><ele>192.0</ele><time>2026-04-20T10:06:50.877Z</time></trkpt><trkpt lat="42.092585" lon="14.5918517"><ele>194.5</ele><time>2026-04-20T10:06:53.877Z</time></trkpt><trkpt lat="42.0926517" lon="14.591795"><ele>197.0</ele><time>2026-04-20T10:06:57.877Z</time></trkpt><trkpt lat="42.0925967" lon="14.5918433"><ele>199.49999999999997</ele><time>2026-04-20T10:07:05.878Z</time></trkpt><trkpt lat="42.0925567" lon="14.5919133"><ele>202.0</ele><time>2026-04-20T10:07:07.877Z</time></trkpt><trkpt lat="42.0924917" lon="14.5920067"><ele>202.85714285714286</ele><time>2026-04-20T10:07:10.878Z</time></trkpt><trkpt lat="42.0924317" lon="14.5920783"><ele>203.71428571428572</ele><time>2026-04-20T10:07:12.877Z</time></trkpt><trkpt lat="42.09239" lon="14.5921467"><ele>204.57142857142856</ele><time>2026-04-20T10:07:14.877Z</time></trkpt><trkpt lat="42.0923533" lon="14.592235"><ele>205.42857142857144</ele><time>2026-04-20T10:07:16.878Z</time></trkpt><trkpt lat="42.0923267" lon="14.5923233"><ele>206.2857142857143</ele><time>2026-04-20T10:07:18.878Z</time></trkpt><trkpt lat="42.092295" lon="14.5924067"><ele>207.14285714285714</ele><time>2026-04-20T10:07:20.878Z</time></trkpt><trkpt lat="42.092265" lon="14.5924867"><ele>208.0</ele><time>2026-04-20T10:07:22.878Z</time></trkpt><trkpt lat="42.0922417" lon="14.592575"><ele>205.16666666666666</ele><time>2026-04-20T10:07:24.877Z</time></trkpt><trkpt lat="42.0922167" lon="14.5927"><ele>202.33333333333331</ele><time>2026-04-20T10:07:27.877Z</time></trkpt><trkpt lat="42.0921983" lon="14.5928083"><ele>199.5</ele><time>2026-04-20T10:07:29.877Z</time></trkpt><trkpt lat="42.0922" lon="14.592915"><ele>196.66666666666666</ele><time>2026-04-20T10:07:31.878Z</time></trkpt><trkpt lat="42.0922083" lon="14.593015"><ele>193.83333333333331</ele><time>2026-04-20T10:07:33.878Z</time></trkpt><trkpt lat="42.0922233" lon="14.59313"><ele>191.0</ele><time>2026-04-20T10:07:35.877Z</time></trkpt><trkpt lat="42.0922483" lon="14.59324"><ele>191.0</ele><time>2026-04-20T10:07:37.878Z</time></trkpt><trkpt lat="42.0922833" lon="14.5933133"><ele>191.0</ele><time>2026-04-20T10:07:39.878Z</time></trkpt><trkpt lat="42.0923483" lon="14.593355"><ele>191.0</ele><time>2026-04-20T10:07:41.878Z</time></trkpt><trkpt lat="42.092435" lon="14.59339"><ele>191.0</ele><time>2026-04-20T10:07:43.878Z</time></trkpt><trkpt lat="42.09253" lon="14.59343"><ele>191.0</ele><time>2026-04-20T10:07:45.878Z</time></trkpt><trkpt lat="42.0926183" lon="14.5934633"><ele>191.0</ele><time>2026-04-20T10:07:47.878Z</time></trkpt><trkpt lat="42.0927133" lon="14.5934967"><ele>193.83333333333331</ele><time>2026-04-20T10:07:49.877Z</time></trkpt><trkpt lat="42.0928083" lon="14.5935217"><ele>196.66666666666666</ele><time>2026-04-20T10:07:51.877Z</time></trkpt><trkpt lat="42.0928917" lon="14.5935283"><ele>199.5</ele><time>2026-04-20T10:07:53.878Z</time></trkpt><trkpt lat="42.0929733" lon="14.593495"><ele>202.33333333333331</ele><time>2026-04-20T10:07:55.878Z</time></trkpt><trkpt lat="42.0930517" lon="14.5934433"><ele>205.16666666666666</ele><time>2026-04-20T10:07:57.878Z</time></trkpt><trkpt lat="42.093125" lon="14.5933883"><ele>208.0</ele><time>2026-04-20T10:07:59.877Z</time></trkpt><trkpt lat="42.0932033" lon="14.5933267"><ele>207.99999999999997</ele><time>2026-04-20T10:08:01.878Z</time></trkpt><trkpt lat="42.0932767" lon="14.5932617"><ele>208.0</ele><time>2026-04-20T10:08:03.877Z</time></trkpt><trkpt lat="42.093345" lon="14.59319"><ele>208.0</ele><time>2026-04-20T10:08:05.878Z</time></trkpt><trkpt lat="42.0934067" lon="14.5931183"><ele>208.0</ele><time>2026-04-20T10:08:07.878Z</time></trkpt><trkpt lat="42.0934583" lon="14.59304"><ele>207.99999999999997</ele><time>2026-04-20T10:08:09.877Z</time></trkpt><trkpt lat="42.093505" lon="14.5929533"><ele>208.0</ele><time>2026-04-20T10:08:11.877Z</time></trkpt><trkpt lat="42.093545" lon="14.5928683"><ele>208.49999999999997</ele><time>2026-04-20T10:08:13.877Z</time></trkpt><trkpt lat="42.09359" lon="14.5927783"><ele>209.0</ele><time>2026-04-20T10:08:15.878Z</time></trkpt><trkpt lat="42.0936333" lon="14.5926833"><ele>209.5</ele><time>2026-04-20T10:08:17.877Z</time></trkpt><trkpt lat="42.093675" lon="14.5925917"><ele>210.0</ele><time>2026-04-20T10:08:19.877Z</time></trkpt><trkpt lat="42.0937167" lon="14.5925067"><ele>210.49999999999997</ele><time>2026-04-20T10:08:21.878Z</time></trkpt><trkpt lat="42.09376" lon="14.5924333"><ele>211.0</ele><time>2026-04-20T10:08:23.877Z</time></trkpt><trkpt lat="42.0938167" lon="14.5923767"><ele>211.0</ele><time>2026-04-20T10:08:25.878Z</time></trkpt><trkpt lat="42.09389" lon="14.5923467"><ele>211.0</ele><time>2026-04-20T10:08:27.877Z</time></trkpt><trkpt lat="42.093975" lon="14.5923383"><ele>211.0</ele><time>2026-04-20T10:08:29.878Z</time></trkpt><trkpt lat="42.09405" lon="14.59234"><ele>211.0</ele><time>2026-04-20T10:08:31.878Z</time></trkpt><trkpt lat="42.0941133" lon="14.592345"><ele>211.0</ele><time>2026-04-20T10:08:33.878Z</time></trkpt><trkpt lat="42.09418" lon="14.59235"><ele>211.0</ele><time>2026-04-20T10:08:35.877Z</time></trkpt><trkpt lat="42.09425" lon="14.592355"><ele>211.0</ele><time>2026-04-20T10:08:37.878Z</time></trkpt><trkpt lat="42.0943283" lon="14.592365"><ele>210.49999999999997</ele><time>2026-04-20T10:08:39.878Z</time></trkpt><trkpt lat="42.0944167" lon="14.5923783"><ele>210.0</ele><time>2026-04-20T10:08:41.878Z</time></trkpt><trkpt lat="42.0944933" lon="14.5923917"><ele>209.5</ele><time>2026-04-20T10:08:43.878Z</time></trkpt><trkpt lat="42.0945633" lon="14.5923983"><ele>209.0</ele><time>2026-04-20T10:08:45.877Z</time></trkpt><trkpt lat="42.094635" lon="14.5924117"><ele>208.49999999999997</ele><time>2026-04-20T10:08:47.877Z</time></trkpt><trkpt lat="42.0947167" lon="14.592425"><ele>208.0</ele><time>2026-04-20T10:08:49.878Z</time></trkpt><trkpt lat="42.0947867" lon="14.5924433"><ele>207.99999999999997</ele><time>2026-04-20T10:08:51.878Z</time></trkpt><trkpt lat="42.09486" lon="14.592465"><ele>208.0</ele><time>2026-04-20T10:08:53.878Z</time></trkpt><trkpt lat="42.0949467" lon="14.592485"><ele>208.0</ele><time>2026-04-20T10:08:55.878Z</time></trkpt><trkpt lat="42.09503" lon="14.5925117"><ele>208.0</ele><time>2026-04-20T10:08:57.877Z</time></trkpt><trkpt lat="42.0951033" lon="14.5925517"><ele>207.99999999999997</ele><time>2026-04-20T10:08:59.876Z</time></trkpt><trkpt lat="42.0951683" lon="14.5925983"><ele>208.0</ele><time>2026-04-20T10:09:01.876Z</time></trkpt><trkpt lat="42.095235" lon="14.5926583"><ele>207.99999999999997</ele><time>2026-04-20T10:09:03.876Z</time></trkpt><trkpt lat="42.0953033" lon="14.5927217"><ele>208.0</ele><time>2026-04-20T10:09:05.876Z</time></trkpt><trkpt lat="42.0953817" lon="14.5927767"><ele>208.0</ele><time>2026-04-20T10:09:07.876Z</time></trkpt><trkpt lat="42.0954617" lon="14.592825"><ele>208.0</ele><time>2026-04-20T10:09:09.876Z</time></trkpt><trkpt lat="42.0955417" lon="14.5928867"><ele>207.99999999999997</ele><time>2026-04-20T10:09:11.877Z</time></trkpt><trkpt lat="42.0956217" lon="14.5929483"><ele>208.0</ele><time>2026-04-20T10:09:13.876Z</time></trkpt><trkpt lat="42.0957017" lon="14.5930133"><ele>207.60000000000002</ele><time>2026-04-20T10:09:15.876Z</time></trkpt><trkpt lat="42.0957933" lon="14.5930867"><ele>207.20000000000002</ele><time>2026-04-20T10:09:17.877Z</time></trkpt><trkpt lat="42.0958783" lon="14.593155"><ele>206.8</ele><time>2026-04-20T10:09:19.877Z</time></trkpt><trkpt lat="42.09597" lon="14.5932133"><ele>206.4</ele><time>2026-04-20T10:09:21.876Z</time></trkpt><trkpt lat="42.0960617" lon="14.5932933"><ele>206.0</ele><time>2026-04-20T10:09:23.876Z</time></trkpt><trkpt lat="42.0961483" lon="14.593395"><ele>206.0</ele><time>2026-04-20T10:09:25.877Z</time></trkpt><trkpt lat="42.0962317" lon="14.5935033"><ele>206.0</ele><time>2026-04-20T10:09:27.877Z</time></trkpt><trkpt lat="42.0963117" lon="14.5936233"><ele>206.0</ele><time>2026-04-20T10:09:29.877Z</time></trkpt><trkpt lat="42.096385" lon="14.5937167"><ele>206.0</ele><time>2026-04-20T10:09:31.877Z</time></trkpt><trkpt lat="42.09646" lon="14.593755"><ele>206.0</ele><time>2026-04-20T10:09:33.877Z</time></trkpt><trkpt lat="42.09653" lon="14.5937867"><ele>206.00000000000003</ele><time>2026-04-20T10:09:35.876Z</time></trkpt><trkpt lat="42.0966" lon="14.5938183"><ele>206.0</ele><time>2026-04-20T10:09:37.877Z</time></trkpt><trkpt lat="42.09668" lon="14.5938683"><ele>206.0</ele><time>2026-04-20T10:09:40.877Z</time></trkpt><trkpt lat="42.0967167" lon="14.593945"><ele>206.0</ele><time>2026-04-20T10:09:43.877Z</time></trkpt><trkpt lat="42.0967033" lon="14.594055"><ele>206.00000000000003</ele><time>2026-04-20T10:09:46.876Z</time></trkpt><trkpt lat="42.0967083" lon="14.594155"><ele>206.0</ele><time>2026-04-20T10:09:49.877Z</time></trkpt><trkpt lat="42.096705" lon="14.5942667"><ele>206.00000000000003</ele><time>2026-04-20T10:09:52.877Z</time></trkpt><trkpt lat="42.0967067" lon="14.5943783"><ele>206.0</ele><time>2026-04-20T10:09:55.877Z</time></trkpt><trkpt lat="42.0967333" lon="14.594475"><ele>206.0</ele><time>2026-04-20T10:09:59.877Z</time></trkpt><trkpt lat="42.09681" lon="14.5945017"><ele>206.0</ele><time>2026-04-20T10:10:03.876Z</time></trkpt><trkpt lat="42.0968717" lon="14.594445"><ele>206.00000000000003</ele><time>2026-04-20T10:10:06.876Z</time></trkpt><trkpt lat="42.09694" lon="14.5943583"><ele>206.0</ele><time>2026-04-20T10:10:09.877Z</time></trkpt><trkpt lat="42.0969917" lon="14.594305"><ele>206.0</ele><time>2026-04-20T10:10:11.877Z</time></trkpt><trkpt lat="42.0970683" lon="14.59425"><ele>206.0</ele><time>2026-04-20T10:10:14.877Z</time></trkpt><trkpt lat="42.0971517" lon="14.5942"><ele>206.0</ele><time>2026-04-20T10:10:17.876Z</time></trkpt><trkpt lat="42.0972367" lon="14.594155"><ele>206.0</ele><time>2026-04-20T10:10:20.876Z</time></trkpt><trkpt lat="42.0973183" lon="14.5941"><ele>206.0</ele><time>2026-04-20T10:10:23.876Z</time></trkpt><trkpt lat="42.0974017" lon="14.5940383"><ele>206.28571428571428</ele><time>2026-04-20T10:10:26.877Z</time></trkpt><trkpt lat="42.09746" lon="14.594"><ele>206.57142857142856</ele><time>2026-04-20T10:10:28.877Z</time></trkpt><trkpt lat="42.0975267" lon="14.59396"><ele>206.85714285714283</ele><time>2026-04-20T10:10:31.877Z</time></trkpt><trkpt lat="42.097595" lon="14.59397"><ele>207.14285714285714</ele><time>2026-04-20T10:10:36.877Z</time></trkpt><trkpt lat="42.0976867" lon="14.5939767"><ele>207.42857142857144</ele><time>2026-04-20T10:10:39.876Z</time></trkpt><trkpt lat="42.097765" lon="14.5939783"><ele>207.7142857142857</ele><time>2026-04-20T10:10:42.876Z</time></trkpt><trkpt lat="42.0978333" lon="14.5939817"><ele>208.0</ele><time>2026-04-20T10:10:45.877Z</time></trkpt><trkpt lat="42.097915" lon="14.5939833"><ele>207.99999999999997</ele><time>2026-04-20T10:10:48.877Z</time></trkpt><trkpt lat="42.097985" lon="14.593985"><ele>208.0</ele><time>2026-04-20T10:10:51.876Z</time></trkpt><trkpt lat="42.0980517" lon="14.59399"><ele>208.0</ele><time>2026-04-20T10:10:54.877Z</time></trkpt><trkpt lat="42.0980767" lon="14.59409"><ele>208.0</ele><time>2026-04-20T10:10:59.876Z</time></trkpt><trkpt lat="42.0980683" lon="14.59421"><ele>207.99999999999997</ele><time>2026-04-20T10:11:03.877Z</time></trkpt><trkpt lat="42.098055" lon="14.5943317"><ele>208.0</ele><time>2026-04-20T10:11:06.877Z</time></trkpt><trkpt lat="42.09804" lon="14.5944483"><ele>208.16666666666666</ele><time>2026-04-20T10:11:09.877Z</time></trkpt><trkpt lat="42.09805" lon="14.5945367"><ele>208.33333333333331</ele><time>2026-04-20T10:11:11.876Z</time></trkpt><trkpt lat="42.0980933" lon="14.5946017"><ele>208.5</ele><time>2026-04-20T10:11:13.876Z</time></trkpt><trkpt lat="42.0981833" lon="14.594615"><ele>208.66666666666669</ele><time>2026-04-20T10:11:16.877Z</time></trkpt><trkpt lat="42.0982667" lon="14.5946233"><ele>208.83333333333334</ele><time>2026-04-20T10:11:19.876Z</time></trkpt><trkpt lat="42.0983467" lon="14.59463"><ele>209.0</ele><time>2026-04-20T10:11:22.877Z</time></trkpt><trkpt lat="42.09844" lon="14.594645"><ele>208.50000000000003</ele><time>2026-04-20T10:11:25.877Z</time></trkpt><trkpt lat="42.0985133" lon="14.59465"><ele>208.0</ele><time>2026-04-20T10:11:27.876Z</time></trkpt><trkpt lat="42.09859" lon="14.5946533"><ele>207.5</ele><time>2026-04-20T10:11:29.877Z</time></trkpt><trkpt lat="42.0986617" lon="14.5946567"><ele>207.0</ele><time>2026-04-20T10:11:31.876Z</time></trkpt><trkpt lat="42.0987583" lon="14.5946583"><ele>206.50000000000003</ele><time>2026-04-20T10:11:34.877Z</time></trkpt><trkpt lat="42.0988267" lon="14.5946367"><ele>206.0</ele><time>2026-04-20T10:11:36.876Z</time></trkpt><trkpt lat="42.0988717" lon="14.5945417"><ele>206.28571428571428</ele><time>2026-04-20T10:11:39.877Z</time></trkpt><trkpt lat="42.0988783" lon="14.5944517"><ele>206.57142857142856</ele><time>2026-04-20T10:11:41.876Z</time></trkpt><trkpt lat="42.0988867" lon="14.59435"><ele>206.85714285714283</ele><time>2026-04-20T10:11:43.877Z</time></trkpt><trkpt lat="42.0988767" lon="14.5942383"><ele>207.14285714285714</ele><time>2026-04-20T10:11:45.877Z</time></trkpt><trkpt lat="42.0988533" lon="14.5941467"><ele>207.42857142857144</ele><time>2026-04-20T10:11:47.877Z</time></trkpt><trkpt lat="42.09885" lon="14.5940617"><ele>207.7142857142857</ele><time>2026-04-20T10:11:49.877Z</time></trkpt><trkpt lat="42.098855" lon="14.5939567"><ele>208.0</ele><time>2026-04-20T10:11:51.877Z</time></trkpt><trkpt lat="42.09885" lon="14.5938517"><ele>207.99999999999997</ele><time>2026-04-20T10:11:53.876Z</time></trkpt><trkpt lat="42.0988533" lon="14.5937467"><ele>208.0</ele><time>2026-04-20T10:11:55.877Z</time></trkpt><trkpt lat="42.0988733" lon="14.5936417"><ele>208.0</ele><time>2026-04-20T10:11:57.877Z</time></trkpt><trkpt lat="42.0988983" lon="14.5935267"><ele>208.0</ele><time>2026-04-20T10:11:59.876Z</time></trkpt><trkpt lat="42.0989183" lon="14.593425"><ele>207.99999999999997</ele><time>2026-04-20T10:12:01.876Z</time></trkpt><trkpt lat="42.0989383" lon="14.59333"><ele>208.0</ele><time>2026-04-20T10:12:03.877Z</time></trkpt><trkpt lat="42.0989583" lon="14.5932333"><ele>208.28571428571428</ele><time>2026-04-20T10:12:05.876Z</time></trkpt><trkpt lat="42.098975" lon="14.5931417"><ele>208.57142857142858</ele><time>2026-04-20T10:12:07.876Z</time></trkpt><trkpt lat="42.0989933" lon="14.5930567"><ele>208.85714285714286</ele><time>2026-04-20T10:12:09.877Z</time></trkpt><trkpt lat="42.0990517" lon="14.5929717"><ele>209.14285714285714</ele><time>2026-04-20T10:12:12.877Z</time></trkpt><trkpt lat="42.099115" lon="14.5929733"><ele>209.42857142857144</ele><time>2026-04-20T10:12:14.877Z</time></trkpt><trkpt lat="42.0991817" lon="14.5929833"><ele>209.71428571428572</ele><time>2026-04-20T10:12:16.877Z</time></trkpt><trkpt lat="42.099255" lon="14.59299"><ele>210.0</ele><time>2026-04-20T10:12:18.876Z</time></trkpt><trkpt lat="42.0993267" lon="14.59298"><ele>210.28571428571428</ele><time>2026-04-20T10:12:20.877Z</time></trkpt><trkpt lat="42.0993917" lon="14.5929583"><ele>210.57142857142856</ele><time>2026-04-20T10:12:22.877Z</time></trkpt><trkpt lat="42.0994517" lon="14.5929317"><ele>210.85714285714286</ele><time>2026-04-20T10:12:24.877Z</time></trkpt><trkpt lat="42.0995233" lon="14.5928983"><ele>211.14285714285714</ele><time>2026-04-20T10:12:26.877Z</time></trkpt><trkpt lat="42.0995933" lon="14.5928533"><ele>211.42857142857142</ele><time>2026-04-20T10:12:28.877Z</time></trkpt><trkpt lat="42.0996433" lon="14.5927517"><ele>211.71428571428572</ele><time>2026-04-20T10:12:31.877Z</time></trkpt><trkpt lat="42.0996667" lon="14.5926633"><ele>212.0</ele><time>2026-04-20T10:12:33.877Z</time></trkpt><trkpt lat="42.0996917" lon="14.5925733"><ele>212.0</ele><time>2026-04-20T10:12:35.876Z</time></trkpt><trkpt lat="42.0997133" lon="14.5924817"><ele>212.0</ele><time>2026-04-20T10:12:37.876Z</time></trkpt><trkpt lat="42.0997383" lon="14.592385"><ele>212.0</ele><time>2026-04-20T10:12:39.877Z</time></trkpt><trkpt lat="42.09976" lon="14.5922933"><ele>212.0</ele><time>2026-04-20T10:12:41.877Z</time></trkpt><trkpt lat="42.0997833" lon="14.592205"><ele>212.0</ele><time>2026-04-20T10:12:43.876Z</time></trkpt><trkpt lat="42.099815" lon="14.592125"><ele>212.0</ele><time>2026-04-20T10:12:45.877Z</time></trkpt><trkpt lat="42.0998567" lon="14.5920133"><ele>212.0</ele><time>2026-04-20T10:12:48.876Z</time></trkpt><trkpt lat="42.0998783" lon="14.5919283"><ele>212.00000000000003</ele><time>2026-04-20T10:12:50.877Z</time></trkpt><trkpt lat="42.0999033" lon="14.5918067"><ele>212.0</ele><time>2026-04-20T10:12:53.877Z</time></trkpt><trkpt lat="42.0999133" lon="14.5916867"><ele>212.0</ele><time>2026-04-20T10:12:56.877Z</time></trkpt><trkpt lat="42.0999367" lon="14.5915683"><ele>212.0</ele><time>2026-04-20T10:12:59.877Z</time></trkpt><trkpt lat="42.0999583" lon="14.59145"><ele>212.00000000000003</ele><time>2026-04-20T10:13:02.877Z</time></trkpt><trkpt lat="42.0999867" lon="14.59137"><ele>212.0</ele><time>2026-04-20T10:13:05.876Z</time></trkpt><trkpt lat="42.10008" lon="14.5913467"><ele>212.00000000000003</ele><time>2026-04-20T10:13:08.877Z</time></trkpt><trkpt lat="42.1001417" lon="14.59131"><ele>212.0</ele><time>2026-04-20T10:13:10.876Z</time></trkpt><trkpt lat="42.1002167" lon="14.5912633"><ele>212.0</ele><time>2026-04-20T10:13:13.877Z</time></trkpt><trkpt lat="42.1002917" lon="14.5912167"><ele>212.0</ele><time>2026-04-20T10:13:17.876Z</time></trkpt><trkpt lat="42.100345" lon="14.5911383"><ele>212.00000000000003</ele><time>2026-04-20T10:13:20.877Z</time></trkpt><trkpt lat="42.100415" lon="14.591075"><ele>212.0</ele><time>2026-04-20T10:13:23.876Z</time></trkpt><trkpt lat="42.1004783" lon="14.5910317"><ele>212.16666666666669</ele><time>2026-04-20T10:13:25.877Z</time></trkpt><trkpt lat="42.1005433" lon="14.5909817"><ele>212.33333333333334</ele><time>2026-04-20T10:13:27.877Z</time></trkpt><trkpt lat="42.1006033" lon="14.5909333"><ele>212.5</ele><time>2026-04-20T10:13:29.876Z</time></trkpt><trkpt lat="42.1006617" lon="14.590875"><ele>212.66666666666669</ele><time>2026-04-20T10:13:31.877Z</time></trkpt><trkpt lat="42.1007417" lon="14.5908083"><ele>212.83333333333334</ele><time>2026-04-20T10:13:34.877Z</time></trkpt><trkpt lat="42.1008033" lon="14.5907617"><ele>213.0</ele><time>2026-04-20T10:13:36.877Z</time></trkpt><trkpt lat="42.100865" lon="14.5907133"><ele>212.99999999999997</ele><time>2026-04-20T10:13:38.877Z</time></trkpt><trkpt lat="42.100915" lon="14.5906483"><ele>213.0</ele><time>2026-04-20T10:13:40.877Z</time></trkpt><trkpt lat="42.10096" lon="14.5905767"><ele>213.0</ele><time>2026-04-20T10:13:42.877Z</time></trkpt><trkpt lat="42.1010017" lon="14.5905083"><ele>213.0</ele><time>2026-04-20T10:13:44.877Z</time></trkpt><trkpt lat="42.10104" lon="14.5904383"><ele>213.0</ele><time>2026-04-20T10:13:46.877Z</time></trkpt><trkpt lat="42.101095" lon="14.59034"><ele>212.99999999999997</ele><time>2026-04-20T10:13:49.877Z</time></trkpt><trkpt lat="42.1011333" lon="14.5902567"><ele>213.0</ele><time>2026-04-20T10:13:51.876Z</time></trkpt><trkpt lat="42.1011583" lon="14.5901783"><ele>213.57142857142856</ele><time>2026-04-20T10:13:53.877Z</time></trkpt><trkpt lat="42.1011517" lon="14.5900533"><ele>214.14285714285714</ele><time>2026-04-20T10:13:56.876Z</time></trkpt><trkpt lat="42.1011517" lon="14.5899633"><ele>214.71428571428572</ele><time>2026-04-20T10:13:58.877Z</time></trkpt><trkpt lat="42.1011533" lon="14.589875"><ele>215.28571428571428</ele><time>2026-04-20T10:14:00.877Z</time></trkpt><trkpt lat="42.1011533" lon="14.5897883"><ele>215.85714285714286</ele><time>2026-04-20T10:14:02.877Z</time></trkpt><trkpt lat="42.101155" lon="14.5897"><ele>216.42857142857142</ele><time>2026-04-20T10:14:04.877Z</time></trkpt><trkpt lat="42.1011667" lon="14.58961"><ele>217.0</ele><time>2026-04-20T10:14:06.877Z</time></trkpt><trkpt lat="42.1011717" lon="14.589485"><ele>217.33333333333331</ele><time>2026-04-20T10:14:09.877Z</time></trkpt><trkpt lat="42.1011717" lon="14.589365"><ele>217.66666666666666</ele><time>2026-04-20T10:14:12.877Z</time></trkpt><trkpt lat="42.1011767" lon="14.5892517"><ele>218.0</ele><time>2026-04-20T10:14:15.876Z</time></trkpt><trkpt lat="42.1011833" lon="14.5891367"><ele>218.33333333333331</ele><time>2026-04-20T10:14:18.877Z</time></trkpt><trkpt lat="42.1011833" lon="14.58902"><ele>218.66666666666666</ele><time>2026-04-20T10:14:21.876Z</time></trkpt><trkpt lat="42.1011817" lon="14.5889"><ele>219.0</ele><time>2026-04-20T10:14:24.877Z</time></trkpt><trkpt lat="42.1011817" lon="14.58881"><ele>219.0</ele><time>2026-04-20T10:14:26.877Z</time></trkpt><trkpt lat="42.10118" lon="14.5887233"><ele>219.0</ele><time>2026-04-20T10:14:28.876Z</time></trkpt><trkpt lat="42.101175" lon="14.588625"><ele>219.0</ele><time>2026-04-20T10:14:30.877Z</time></trkpt><trkpt lat="42.1011767" lon="14.58853"><ele>219.0</ele><time>2026-04-20T10:14:32.877Z</time></trkpt><trkpt lat="42.1011767" lon="14.58844"><ele>219.0</ele><time>2026-04-20T10:14:34.877Z</time></trkpt><trkpt lat="42.1011783" lon="14.5883183"><ele>219.0</ele><time>2026-04-20T10:14:37.876Z</time></trkpt><trkpt lat="42.1011783" lon="14.5882317"><ele>219.0</ele><time>2026-04-20T10:14:39.876Z</time></trkpt><trkpt lat="42.1011767" lon="14.588145"><ele>219.42857142857144</ele><time>2026-04-20T10:14:41.877Z</time></trkpt><trkpt lat="42.1011767" lon="14.5880567"><ele>219.85714285714283</ele><time>2026-04-20T10:14:43.876Z</time></trkpt><trkpt lat="42.1011783" lon="14.5879617"><ele>220.28571428571428</ele><time>2026-04-20T10:14:45.876Z</time></trkpt><trkpt lat="42.10118" lon="14.58787"><ele>220.71428571428572</ele><time>2026-04-20T10:14:47.877Z</time></trkpt><trkpt lat="42.1011817" lon="14.5877433"><ele>221.14285714285717</ele><time>2026-04-20T10:14:50.877Z</time></trkpt><trkpt lat="42.1011833" lon="14.5876517"><ele>221.57142857142856</ele><time>2026-04-20T10:14:52.877Z</time></trkpt><trkpt lat="42.1011833" lon="14.5875617"><ele>222.0</ele><time>2026-04-20T10:14:54.877Z</time></trkpt><trkpt lat="42.101185" lon="14.5874633"><ele>222.42857142857142</ele><time>2026-04-20T10:14:56.876Z</time></trkpt><trkpt lat="42.10119" lon="14.5873683"><ele>222.8571428571429</ele><time>2026-04-20T10:14:58.876Z</time></trkpt><trkpt lat="42.1011917" lon="14.5872767"><ele>223.2857142857143</ele><time>2026-04-20T10:15:00.877Z</time></trkpt><trkpt lat="42.1011917" lon="14.58719"><ele>223.71428571428572</ele><time>2026-04-20T10:15:02.877Z</time></trkpt><trkpt lat="42.1011917" lon="14.5871033"><ele>224.14285714285717</ele><time>2026-04-20T10:15:04.877Z</time></trkpt><trkpt lat="42.10119" lon="14.5870067"><ele>224.5714285714286</ele><time>2026-04-20T10:15:06.877Z</time></trkpt><trkpt lat="42.1011933" lon="14.58692"><ele>225.00000000000003</ele><time>2026-04-20T10:15:08.876Z</time></trkpt><trkpt lat="42.101185" lon="14.5867917"><ele>225.83333333333334</ele><time>2026-04-20T10:15:11.876Z</time></trkpt><trkpt lat="42.10115" lon="14.5867117"><ele>226.66666666666669</ele><time>2026-04-20T10:15:13.876Z</time></trkpt><trkpt lat="42.1010817" lon="14.586625"><ele>227.5</ele><time>2026-04-20T10:15:16.877Z</time></trkpt><trkpt lat="42.1010333" lon="14.5865667"><ele>228.33333333333334</ele><time>2026-04-20T10:15:18.877Z</time></trkpt><trkpt lat="42.1009683" lon="14.5865"><ele>229.16666666666669</ele><time>2026-04-20T10:15:21.876Z</time></trkpt><trkpt lat="42.100915" lon="14.5864433"><ele>230.0</ele><time>2026-04-20T10:15:24.876Z</time></trkpt><trkpt lat="42.1009267" lon="14.586345"><ele>230.00000000000003</ele><time>2026-04-20T10:15:28.877Z</time></trkpt><trkpt lat="42.1009667" lon="14.58625"><ele>230.0</ele><time>2026-04-20T10:15:31.877Z</time></trkpt><trkpt lat="42.1010133" lon="14.5861533"><ele>230.0</ele><time>2026-04-20T10:15:34.876Z</time></trkpt><trkpt lat="42.101045" lon="14.5860783"><ele>230.0</ele><time>2026-04-20T10:15:36.876Z</time></trkpt><trkpt lat="42.101075" lon="14.5860033"><ele>230.00000000000003</ele><time>2026-04-20T10:15:38.876Z</time></trkpt><trkpt lat="42.1011083" lon="14.5859133"><ele>230.0</ele><time>2026-04-20T10:15:40.877Z</time></trkpt><trkpt lat="42.1011383" lon="14.5857967"><ele>230.50000000000003</ele><time>2026-04-20T10:15:43.877Z</time></trkpt><trkpt lat="42.1011733" lon="14.5857017"><ele>231.0</ele><time>2026-04-20T10:15:46.876Z</time></trkpt><trkpt lat="42.1012267" lon="14.585615"><ele>231.5</ele><time>2026-04-20T10:15:49.877Z</time></trkpt><trkpt lat="42.101255" lon="14.58552"><ele>232.0</ele><time>2026-04-20T10:15:51.877Z</time></trkpt><trkpt lat="42.101285" lon="14.5854183"><ele>232.50000000000003</ele><time>2026-04-20T10:15:53.877Z</time></trkpt><trkpt lat="42.1013117" lon="14.5852883"><ele>233.0</ele><time>2026-04-20T10:15:55.877Z</time></trkpt><trkpt lat="42.1013333" lon="14.5851583"><ele>233.60000000000002</ele><time>2026-04-20T10:15:57.877Z</time></trkpt><trkpt lat="42.1013517" lon="14.5850183"><ele>234.20000000000002</ele><time>2026-04-20T10:15:59.877Z</time></trkpt><trkpt lat="42.10136" lon="14.5848933"><ele>234.8</ele><time>2026-04-20T10:16:01.877Z</time></trkpt><trkpt lat="42.1013633" lon="14.584755"><ele>235.4</ele><time>2026-04-20T10:16:03.876Z</time></trkpt><trkpt lat="42.1013717" lon="14.584605"><ele>236.0</ele><time>2026-04-20T10:16:05.877Z</time></trkpt><trkpt lat="42.1014017" lon="14.5844583"><ele>236.00000000000003</ele><time>2026-04-20T10:16:07.877Z</time></trkpt><trkpt lat="42.1014383" lon="14.5843267"><ele>236.0</ele><time>2026-04-20T10:16:09.877Z</time></trkpt><trkpt lat="42.1014817" lon="14.5842067"><ele>236.0</ele><time>2026-04-20T10:16:11.876Z</time></trkpt><trkpt lat="42.1015217" lon="14.5841067"><ele>236.0</ele><time>2026-04-20T10:16:13.876Z</time></trkpt><trkpt lat="42.1015683" lon="14.5839983"><ele>236.00000000000003</ele><time>2026-04-20T10:16:16.876Z</time></trkpt><trkpt lat="42.1015967" lon="14.5839167"><ele>236.0</ele><time>2026-04-20T10:16:18.877Z</time></trkpt><trkpt lat="42.1016233" lon="14.583825"><ele>236.00000000000003</ele><time>2026-04-20T10:16:20.877Z</time></trkpt><trkpt lat="42.1016417" lon="14.5837367"><ele>236.0</ele><time>2026-04-20T10:16:22.876Z</time></trkpt><trkpt lat="42.10162" lon="14.5836167"><ele>236.0</ele><time>2026-04-20T10:16:25.877Z</time></trkpt><trkpt lat="42.10157" lon="14.5835433"><ele>236.0</ele><time>2026-04-20T10:16:27.876Z</time></trkpt><trkpt lat="42.1015283" lon="14.5834583"><ele>236.00000000000003</ele><time>2026-04-20T10:16:29.877Z</time></trkpt><trkpt lat="42.1014883" lon="14.58337"><ele>236.0</ele><time>2026-04-20T10:16:31.877Z</time></trkpt><trkpt lat="42.1014517" lon="14.58327"><ele>236.16666666666669</ele><time>2026-04-20T10:16:33.876Z</time></trkpt><trkpt lat="42.1014217" lon="14.5831683"><ele>236.33333333333334</ele><time>2026-04-20T10:16:35.877Z</time></trkpt><trkpt lat="42.1013917" lon="14.5830633"><ele>236.5</ele><time>2026-04-20T10:16:37.876Z</time></trkpt><trkpt lat="42.1013783" lon="14.58298"><ele>236.66666666666669</ele><time>2026-04-20T10:16:39.876Z</time></trkpt><trkpt lat="42.101355" lon="14.5828583"><ele>236.83333333333334</ele><time>2026-04-20T10:16:42.876Z</time></trkpt><trkpt lat="42.1013333" lon="14.5827533"><ele>237.0</ele><time>2026-04-20T10:16:45.876Z</time></trkpt><trkpt lat="42.1013" lon="14.582675"><ele>237.66666666666666</ele><time>2026-04-20T10:16:48.877Z</time></trkpt><trkpt lat="42.1012917" lon="14.582585"><ele>238.33333333333331</ele><time>2026-04-20T10:16:51.876Z</time></trkpt><trkpt lat="42.1013133" lon="14.5824783"><ele>239.0</ele><time>2026-04-20T10:16:54.877Z</time></trkpt><trkpt lat="42.10133" lon="14.5823533"><ele>239.66666666666666</ele><time>2026-04-20T10:16:57.877Z</time></trkpt><trkpt lat="42.1013217" lon="14.5822317"><ele>240.33333333333331</ele><time>2026-04-20T10:17:00.877Z</time></trkpt><trkpt lat="42.1013167" lon="14.5821467"><ele>241.0</ele><time>2026-04-20T10:17:02.876Z</time></trkpt><trkpt lat="42.1013317" lon="14.5820367"><ele>241.33333333333331</ele><time>2026-04-20T10:17:04.877Z</time></trkpt><trkpt lat="42.101345" lon="14.5819433"><ele>241.66666666666666</ele><time>2026-04-20T10:17:06.877Z</time></trkpt><trkpt lat="42.1013567" lon="14.5818533"><ele>242.0</ele><time>2026-04-20T10:17:08.877Z</time></trkpt><trkpt lat="42.10138" lon="14.581735"><ele>242.33333333333331</ele><time>2026-04-20T10:17:11.876Z</time></trkpt><trkpt lat="42.1013983" lon="14.5816267"><ele>242.66666666666666</ele><time>2026-04-20T10:17:15.876Z</time></trkpt><trkpt lat="42.1014333" lon="14.581515"><ele>243.0</ele><time>2026-04-20T10:17:18.877Z</time></trkpt><trkpt lat="42.101455" lon="14.5814267"><ele>243.0</ele><time>2026-04-20T10:17:21.877Z</time></trkpt><trkpt lat="42.1014783" lon="14.581345"><ele>243.0</ele><time>2026-04-20T10:17:25.877Z</time></trkpt><trkpt lat="42.101445" lon="14.5812583"><ele>243.0</ele><time>2026-04-20T10:17:29.877Z</time></trkpt><trkpt lat="42.1014133" lon="14.58118"><ele>243.0</ele><time>2026-04-20T10:17:31.877Z</time></trkpt><trkpt lat="42.1013967" lon="14.5810967"><ele>243.0</ele><time>2026-04-20T10:17:33.877Z</time></trkpt><trkpt lat="42.101365" lon="14.5810033"><ele>243.0</ele><time>2026-04-20T10:17:35.876Z</time></trkpt><trkpt lat="42.1013433" lon="14.58092"><ele>243.0</ele><time>2026-04-20T10:17:37.877Z</time></trkpt><trkpt lat="42.1013183" lon="14.58081"><ele>243.14285714285714</ele><time>2026-04-20T10:17:40.877Z</time></trkpt><trkpt lat="42.1013033" lon="14.5807"><ele>243.28571428571428</ele><time>2026-04-20T10:17:43.876Z</time></trkpt><trkpt lat="42.1012633" lon="14.5806017"><ele>243.42857142857142</ele><time>2026-04-20T10:17:46.877Z</time></trkpt><trkpt lat="42.1012417" lon="14.5805183"><ele>243.57142857142856</ele><time>2026-04-20T10:17:48.877Z</time></trkpt><trkpt lat="42.10124" lon="14.5804267"><ele>243.71428571428572</ele><time>2026-04-20T10:17:50.877Z</time></trkpt><trkpt lat="42.1012583" lon="14.580335"><ele>243.85714285714283</ele><time>2026-04-20T10:17:52.877Z</time></trkpt><trkpt lat="42.101265" lon="14.5802467"><ele>243.99999999999997</ele><time>2026-04-20T10:17:54.877Z</time></trkpt><trkpt lat="42.1012717" lon="14.5801217"><ele>244.16666666666666</ele><time>2026-04-20T10:17:57.876Z</time></trkpt><trkpt lat="42.1012783" lon="14.5800317"><ele>244.33333333333331</ele><time>2026-04-20T10:17:59.877Z</time></trkpt><trkpt lat="42.101275" lon="14.5799217"><ele>244.5</ele><time>2026-04-20T10:18:01.877Z</time></trkpt><trkpt lat="42.10128" lon="14.5798117"><ele>244.66666666666669</ele><time>2026-04-20T10:18:03.877Z</time></trkpt><trkpt lat="42.1012917" lon="14.579705"><ele>244.83333333333334</ele><time>2026-04-20T10:18:05.877Z</time></trkpt><trkpt lat="42.1013" lon="14.5795883"><ele>245.0</ele><time>2026-04-20T10:18:07.877Z</time></trkpt><trkpt lat="42.1013033" lon="14.5794717"><ele>245.66666666666669</ele><time>2026-04-20T10:18:09.877Z</time></trkpt><trkpt lat="42.1013117" lon="14.5793533"><ele>246.33333333333334</ele><time>2026-04-20T10:18:11.876Z</time></trkpt><trkpt lat="42.1013233" lon="14.57925"><ele>247.0</ele><time>2026-04-20T10:18:13.877Z</time></trkpt><trkpt lat="42.1013817" lon="14.57917"><ele>247.66666666666669</ele><time>2026-04-20T10:18:16.877Z</time></trkpt><trkpt lat="42.1014583" lon="14.5791167"><ele>248.33333333333334</ele><time>2026-04-20T10:18:19.876Z</time></trkpt><trkpt lat="42.10153" lon="14.5790933"><ele>249.0</ele><time>2026-04-20T10:18:21.877Z</time></trkpt><trkpt lat="42.1016033" lon="14.5790633"><ele>249.28571428571428</ele><time>2026-04-20T10:18:23.877Z</time></trkpt><trkpt lat="42.10167" lon="14.579035"><ele>249.57142857142856</ele><time>2026-04-20T10:18:25.877Z</time></trkpt><trkpt lat="42.1017333" lon="14.578995"><ele>249.85714285714283</ele><time>2026-04-20T10:18:27.877Z</time></trkpt><trkpt lat="42.10182" lon="14.578935"><ele>250.1428571428571</ele><time>2026-04-20T10:18:30.876Z</time></trkpt><trkpt lat="42.1018783" lon="14.578895"><ele>250.42857142857142</ele><time>2026-04-20T10:18:32.876Z</time></trkpt><trkpt lat="42.1019367" lon="14.5788617"><ele>250.71428571428567</ele><time>2026-04-20T10:18:34.876Z</time></trkpt><trkpt lat="42.1020017" lon="14.5788067"><ele>250.99999999999997</ele><time>2026-04-20T10:18:37.877Z</time></trkpt><trkpt lat="42.1020717" lon="14.5787367"><ele>251.33333333333334</ele><time>2026-04-20T10:18:40.877Z</time></trkpt><trkpt lat="42.1021483" lon="14.5786783"><ele>251.66666666666669</ele><time>2026-04-20T10:18:43.876Z</time></trkpt><trkpt lat="42.1022183" lon="14.57863"><ele>252.0</ele><time>2026-04-20T10:18:46.877Z</time></trkpt><trkpt lat="42.10229" lon="14.57858"><ele>252.33333333333331</ele><time>2026-04-20T10:18:49.877Z</time></trkpt><trkpt lat="42.1023433" lon="14.5785333"><ele>252.66666666666666</ele><time>2026-04-20T10:18:52.877Z</time></trkpt><trkpt lat="42.1024033" lon="14.5784883"><ele>253.0</ele><time>2026-04-20T10:18:55.877Z</time></trkpt><trkpt lat="42.10247" lon="14.57845"><ele>254.14285714285717</ele><time>2026-04-20T10:18:58.876Z</time></trkpt><trkpt lat="42.1025233" lon="14.5783983"><ele>255.28571428571428</ele><time>2026-04-20T10:19:01.877Z</time></trkpt><trkpt lat="42.1025817" lon="14.57833"><ele>256.42857142857144</ele><time>2026-04-20T10:19:05.877Z</time></trkpt><trkpt lat="42.102635" lon="14.578255"><ele>257.57142857142856</ele><time>2026-04-20T10:19:09.877Z</time></trkpt><trkpt lat="42.1026783" lon="14.5781833"><ele>258.7142857142857</ele><time>2026-04-20T10:19:12.877Z</time></trkpt><trkpt lat="42.1027333" lon="14.5781233"><ele>259.8571428571429</ele><time>2026-04-20T10:19:15.877Z</time></trkpt><trkpt lat="42.1027967" lon="14.5780583"><ele>261.0</ele><time>2026-04-20T10:19:19.877Z</time></trkpt><trkpt lat="42.102865" lon="14.5780983"><ele>261.0</ele><time>2026-04-20T10:19:24.876Z</time></trkpt><trkpt lat="42.1029233" lon="14.5781717"><ele>261.0</ele><time>2026-04-20T10:19:30.877Z</time></trkpt><trkpt lat="42.1029317" lon="14.5782733"><ele>261.0</ele><time>2026-04-20T10:19:35.877Z</time></trkpt><trkpt lat="42.1029817" lon="14.578345"><ele>261.0</ele><time>2026-04-20T10:19:39.876Z</time></trkpt><trkpt lat="42.103045" lon="14.5783817"><ele>261.0</ele><time>2026-04-20T10:19:43.877Z</time></trkpt><trkpt lat="42.103125" lon="14.5783617"><ele>261.0</ele><time>2026-04-20T10:19:48.877Z</time></trkpt><trkpt lat="42.1031817" lon="14.5784083"><ele>261.0</ele><time>2026-04-20T10:19:51.877Z</time></trkpt><trkpt lat="42.1032317" lon="14.5784767"><ele>261.2857142857143</ele><time>2026-04-20T10:19:55.877Z</time></trkpt><trkpt lat="42.103275" lon="14.5785433"><ele>261.57142857142856</ele><time>2026-04-20T10:19:59.877Z</time></trkpt><trkpt lat="42.1033017" lon="14.5786333"><ele>261.85714285714283</ele><time>2026-04-20T10:20:15.876Z</time></trkpt><trkpt lat="42.1033433" lon="14.5787083"><ele>262.1428571428571</ele><time>2026-04-20T10:20:19.877Z</time></trkpt><trkpt lat="42.1033917" lon="14.5787733"><ele>262.4285714285714</ele><time>2026-04-20T10:20:24.877Z</time></trkpt><trkpt lat="42.1033383" lon="14.57885"><ele>262.7142857142857</ele><time>2026-04-20T10:20:46.875Z</time></trkpt><trkpt lat="42.1032733" lon="14.5789"><ele>263.0</ele><time>2026-04-20T10:20:50.875Z</time></trkpt><trkpt lat="42.103215" lon="14.5789617"><ele>262.2857142857143</ele><time>2026-04-20T10:20:53.876Z</time></trkpt><trkpt lat="42.103155" lon="14.57903"><ele>261.57142857142856</ele><time>2026-04-20T10:20:56.875Z</time></trkpt><trkpt lat="42.1030917" lon="14.5790983"><ele>260.85714285714283</ele><time>2026-04-20T10:20:59.876Z</time></trkpt><trkpt lat="42.1030283" lon="14.5791583"><ele>260.1428571428571</ele><time>2026-04-20T10:21:02.876Z</time></trkpt><trkpt lat="42.102965" lon="14.5792033"><ele>259.42857142857144</ele><time>2026-04-20T10:21:05.876Z</time></trkpt><trkpt lat="42.1029117" lon="14.57926"><ele>258.71428571428567</ele><time>2026-04-20T10:21:08.876Z</time></trkpt><trkpt lat="42.1028483" lon="14.5792533"><ele>258.0</ele><time>2026-04-20T10:21:14.876Z</time></trkpt><trkpt lat="42.1027917" lon="14.579205"><ele>257.99999999999994</ele><time>2026-04-20T10:21:18.876Z</time></trkpt><trkpt lat="42.1027467" lon="14.579145"><ele>258.0</ele><time>2026-04-20T10:21:23.875Z</time></trkpt><trkpt lat="42.1027517" lon="14.57905"><ele>258.0</ele><time>2026-04-20T10:21:28.876Z</time></trkpt><trkpt lat="42.10274" lon="14.578965"><ele>258.0</ele><time>2026-04-20T10:21:31.875Z</time></trkpt><trkpt lat="42.1027433" lon="14.5788683"><ele>258.0</ele><time>2026-04-20T10:21:36.876Z</time></trkpt><trkpt lat="42.1027883" lon="14.5788033"><ele>257.99999999999994</ele><time>2026-04-20T10:21:54.876Z</time></trkpt><trkpt lat="42.1028483" lon="14.578745"><ele>258.0</ele><time>2026-04-20T10:21:59.876Z</time></trkpt><trkpt lat="42.102915" lon="14.5787283"><ele>257.99999999999994</ele><time>2026-04-20T10:22:05.876Z</time></trkpt><trkpt lat="42.1029833" lon="14.5786867"><ele>258.0</ele><time>2026-04-20T10:22:09.876Z</time></trkpt><trkpt lat="42.1030367" lon="14.5786333"><ele>258.0</ele><time>2026-04-20T10:22:12.875Z</time></trkpt><trkpt lat="42.1030883" lon="14.5785683"><ele>258.0</ele><time>2026-04-20T10:22:15.876Z</time></trkpt><trkpt lat="42.10314" lon="14.5785183"><ele>258.0</ele><time>2026-04-20T10:22:18.876Z</time></trkpt><trkpt lat="42.10319" lon="14.5784633"><ele>257.99999999999994</ele><time>2026-04-20T10:22:25.875Z</time></trkpt><trkpt lat="42.1032483" lon="14.5785283"><ele>258.0</ele><time>2026-04-20T10:22:38.876Z</time></trkpt><trkpt lat="42.1033133" lon="14.5785817"><ele>259.2857142857143</ele><time>2026-04-20T10:22:42.875Z</time></trkpt><trkpt lat="42.1033783" lon="14.578545"><ele>260.57142857142856</ele><time>2026-04-20T10:22:46.875Z</time></trkpt><trkpt lat="42.1034367" lon="14.5784767"><ele>261.8571428571429</ele><time>2026-04-20T10:22:50.875Z</time></trkpt><trkpt lat="42.103485" lon="14.5784117"><ele>263.1428571428571</ele><time>2026-04-20T10:22:53.876Z</time></trkpt><trkpt lat="42.1035433" lon="14.5783483"><ele>264.42857142857144</ele><time>2026-04-20T10:22:57.875Z</time></trkpt><trkpt lat="42.1035967" lon="14.578295"><ele>265.7142857142857</ele><time>2026-04-20T10:23:00.876Z</time></trkpt><trkpt lat="42.1036567" lon="14.5782283"><ele>267.0</ele><time>2026-04-20T10:23:03.876Z</time></trkpt><trkpt lat="42.1037233" lon="14.57817"><ele>267.00000000000006</ele><time>2026-04-20T10:23:07.876Z</time></trkpt><trkpt lat="42.10378" lon="14.5781117"><ele>267.0</ele><time>2026-04-20T10:23:11.876Z</time></trkpt><trkpt lat="42.103835" lon="14.5780533"><ele>267.0</ele><time>2026-04-20T10:23:16.875Z</time></trkpt><trkpt lat="42.1038933" lon="14.577985"><ele>267.0</ele><time>2026-04-20T10:23:21.876Z</time></trkpt><trkpt lat="42.1039467" lon="14.57793"><ele>267.0</ele><time>2026-04-20T10:23:25.875Z</time></trkpt><trkpt lat="42.104" lon="14.5778683"><ele>267.00000000000006</ele><time>2026-04-20T10:23:28.876Z</time></trkpt><trkpt lat="42.1040617" lon="14.577805"><ele>267.0</ele><time>2026-04-20T10:23:31.876Z</time></trkpt><trkpt lat="42.1041117" lon="14.577735"><ele>267.1666666666667</ele><time>2026-04-20T10:23:34.875Z</time></trkpt><trkpt lat="42.1041633" lon="14.577675"><ele>267.3333333333333</ele><time>2026-04-20T10:23:37.876Z</time></trkpt><trkpt lat="42.1042183" lon="14.5776017"><ele>267.5</ele><time>2026-04-20T10:23:40.876Z</time></trkpt><trkpt lat="42.1042783" lon="14.577525"><ele>267.66666666666663</ele><time>2026-04-20T10:23:43.875Z</time></trkpt><trkpt lat="42.10434" lon="14.57745"><ele>267.8333333333333</ele><time>2026-04-20T10:23:46.875Z</time></trkpt><trkpt lat="42.1043983" lon="14.5773817"><ele>268.0</ele><time>2026-04-20T10:23:49.875Z</time></trkpt><trkpt lat="42.104455" lon="14.5773133"><ele>268.0</ele><time>2026-04-20T10:23:53.876Z</time></trkpt><trkpt lat="42.10452" lon="14.577235"><ele>268.0</ele><time>2026-04-20T10:23:57.876Z</time></trkpt><trkpt lat="42.104575" lon="14.5771717"><ele>268.0</ele><time>2026-04-20T10:24:00.875Z</time></trkpt><trkpt lat="42.1046317" lon="14.57711"><ele>268.0</ele><time>2026-04-20T10:24:03.875Z</time></trkpt><trkpt lat="42.1046833" lon="14.577045"><ele>268.0</ele><time>2026-04-20T10:24:06.876Z</time></trkpt><trkpt lat="42.1047417" lon="14.5769567"><ele>268.0</ele><time>2026-04-20T10:24:10.876Z</time></trkpt><trkpt lat="42.1048067" lon="14.57688"><ele>268.42857142857144</ele><time>2026-04-20T10:24:13.875Z</time></trkpt><trkpt lat="42.1048633" lon="14.57681"><ele>268.85714285714283</ele><time>2026-04-20T10:24:17.875Z</time></trkpt><trkpt lat="42.1049167" lon="14.5767383"><ele>269.2857142857143</ele><time>2026-04-20T10:24:21.876Z</time></trkpt><trkpt lat="42.1049717" lon="14.5766967"><ele>269.7142857142857</ele><time>2026-04-20T10:24:27.876Z</time></trkpt><trkpt lat="42.10495" lon="14.5766033"><ele>270.14285714285717</ele><time>2026-04-20T10:24:39.876Z</time></trkpt><trkpt lat="42.1049017" lon="14.57654"><ele>270.57142857142856</ele><time>2026-04-20T10:24:45.875Z</time></trkpt><trkpt lat="42.1048417" lon="14.5764933"><ele>271.0</ele><time>2026-04-20T10:24:50.875Z</time></trkpt><trkpt lat="42.1047883" lon="14.5764317"><ele>271.0</ele><time>2026-04-20T10:24:56.875Z</time></trkpt><trkpt lat="42.1047233" lon="14.576385"><ele>271.0</ele><time>2026-04-20T10:25:00.875Z</time></trkpt><trkpt lat="42.1046533" lon="14.576335"><ele>271.0</ele><time>2026-04-20T10:25:04.876Z</time></trkpt><trkpt lat="42.104595" lon="14.5762967"><ele>271.0</ele><time>2026-04-20T10:25:08.876Z</time></trkpt><trkpt lat="42.1045167" lon="14.5762867"><ele>271.0</ele><time>2026-04-20T10:25:13.875Z</time></trkpt><trkpt lat="42.1044567" lon="14.57635"><ele>271.0</ele><time>2026-04-20T10:25:17.875Z</time></trkpt><trkpt lat="42.1044583" lon="14.5764433"><ele>271.0</ele><time>2026-04-20T10:25:23.875Z</time></trkpt><trkpt lat="42.1044117" lon="14.5765217"><ele>271.0</ele><time>2026-04-20T10:25:27.875Z</time></trkpt><trkpt lat="42.104365" lon="14.57659"><ele>271.0</ele><time>2026-04-20T10:25:29.876Z</time></trkpt><trkpt lat="42.104315" lon="14.576655"><ele>271.0</ele><time>2026-04-20T10:25:31.876Z</time></trkpt><trkpt lat="42.1042667" lon="14.5767167"><ele>271.0</ele><time>2026-04-20T10:25:33.876Z</time></trkpt><trkpt lat="42.1042183" lon="14.576785"><ele>271.0</ele><time>2026-04-20T10:25:35.876Z</time></trkpt><trkpt lat="42.104165" lon="14.57686"><ele>271.0</ele><time>2026-04-20T10:25:37.875Z</time></trkpt><trkpt lat="42.104115" lon="14.576925"><ele>271.0</ele><time>2026-04-20T10:25:39.876Z</time></trkpt><trkpt lat="42.104055" lon="14.5770067"><ele>270.7142857142857</ele><time>2026-04-20T10:25:42.876Z</time></trkpt><trkpt lat="42.1040067" lon="14.5770733"><ele>270.42857142857144</ele><time>2026-04-20T10:25:45.876Z</time></trkpt><trkpt lat="42.1039517" lon="14.5771317"><ele>270.14285714285717</ele><time>2026-04-20T10:25:48.875Z</time></trkpt><trkpt lat="42.1038933" lon="14.5772017"><ele>269.8571428571429</ele><time>2026-04-20T10:25:51.876Z</time></trkpt><trkpt lat="42.103835" lon="14.5772783"><ele>269.5714285714286</ele><time>2026-04-20T10:25:54.876Z</time></trkpt><trkpt lat="42.1037833" lon="14.577335"><ele>269.2857142857143</ele><time>2026-04-20T10:25:57.876Z</time></trkpt><trkpt lat="42.1037317" lon="14.5772767"><ele>269.0</ele><time>2026-04-20T10:26:18.876Z</time></trkpt><trkpt lat="42.1036633" lon="14.5773333"><ele>269.0</ele><time>2026-04-20T10:26:23.876Z</time></trkpt><trkpt lat="42.10359" lon="14.5773983"><ele>269.0</ele><time>2026-04-20T10:26:26.876Z</time></trkpt><trkpt lat="42.10354" lon="14.57745"><ele>269.0</ele><time>2026-04-20T10:26:28.876Z</time></trkpt><trkpt lat="42.1034683" lon="14.5775467"><ele>269.0</ele><time>2026-04-20T10:26:31.875Z</time></trkpt><trkpt lat="42.1034217" lon="14.577605"><ele>269.0</ele><time>2026-04-20T10:26:33.875Z</time></trkpt><trkpt lat="42.1033717" lon="14.5776567"><ele>269.0</ele><time>2026-04-20T10:26:35.875Z</time></trkpt><trkpt lat="42.1033067" lon="14.5777317"><ele>268.33333333333337</ele><time>2026-04-20T10:26:38.876Z</time></trkpt><trkpt lat="42.10324" lon="14.5778033"><ele>267.6666666666667</ele><time>2026-04-20T10:26:41.875Z</time></trkpt><trkpt lat="42.1031717" lon="14.5778933"><ele>267.0</ele><time>2026-04-20T10:26:44.876Z</time></trkpt><trkpt lat="42.1031217" lon="14.5779517"><ele>266.3333333333333</ele><time>2026-04-20T10:26:46.876Z</time></trkpt><trkpt lat="42.1030567" lon="14.5780317"><ele>265.66666666666663</ele><time>2026-04-20T10:26:49.876Z</time></trkpt><trkpt lat="42.1030017" lon="14.5780733"><ele>265.0</ele><time>2026-04-20T10:26:52.875Z</time></trkpt><trkpt lat="42.1029367" lon="14.5780933"><ele>264.4285714285714</ele><time>2026-04-20T10:27:03.876Z</time></trkpt><trkpt lat="42.1028683" lon="14.5781417"><ele>263.85714285714283</ele><time>2026-04-20T10:27:06.876Z</time></trkpt><trkpt lat="42.10281" lon="14.57819"><ele>263.2857142857143</ele><time>2026-04-20T10:27:09.876Z</time></trkpt><trkpt lat="42.1027483" lon="14.5782617"><ele>262.71428571428567</ele><time>2026-04-20T10:27:13.875Z</time></trkpt><trkpt lat="42.1027567" lon="14.57836"><ele>262.1428571428571</ele><time>2026-04-20T10:27:17.876Z</time></trkpt><trkpt lat="42.1027333" lon="14.5784417"><ele>261.57142857142856</ele><time>2026-04-20T10:27:21.876Z</time></trkpt><trkpt lat="42.10269" lon="14.5785133"><ele>261.0</ele><time>2026-04-20T10:27:26.876Z</time></trkpt><trkpt lat="42.1026183" lon="14.57857"><ele>261.0</ele><time>2026-04-20T10:27:29.876Z</time></trkpt><trkpt lat="42.102545" lon="14.5786183"><ele>261.0</ele><time>2026-04-20T10:27:31.875Z</time></trkpt><trkpt lat="42.1024667" lon="14.57867"><ele>261.0</ele><time>2026-04-20T10:27:33.875Z</time></trkpt><trkpt lat="42.1023933" lon="14.5787167"><ele>261.0</ele><time>2026-04-20T10:27:35.875Z</time></trkpt><trkpt lat="42.1023233" lon="14.57876"><ele>261.0</ele><time>2026-04-20T10:27:37.875Z</time></trkpt><trkpt lat="42.102255" lon="14.5788117"><ele>261.0</ele><time>2026-04-20T10:27:39.876Z</time></trkpt><trkpt lat="42.10218" lon="14.5788667"><ele>259.57142857142856</ele><time>2026-04-20T10:27:41.875Z</time></trkpt><trkpt lat="42.10211" lon="14.578915"><ele>258.1428571428571</ele><time>2026-04-20T10:27:43.875Z</time></trkpt><trkpt lat="42.1020383" lon="14.5789617"><ele>256.71428571428567</ele><time>2026-04-20T10:27:45.876Z</time></trkpt><trkpt lat="42.1019783" lon="14.579"><ele>255.28571428571428</ele><time>2026-04-20T10:27:47.876Z</time></trkpt><trkpt lat="42.1019217" lon="14.57904"><ele>253.85714285714283</ele><time>2026-04-20T10:27:49.876Z</time></trkpt><trkpt lat="42.1018617" lon="14.5790867"><ele>252.4285714285714</ele><time>2026-04-20T10:27:51.876Z</time></trkpt><trkpt lat="42.1018" lon="14.57913"><ele>250.99999999999997</ele><time>2026-04-20T10:27:53.875Z</time></trkpt><trkpt lat="42.1017133" lon="14.5791833"><ele>251.00000000000003</ele><time>2026-04-20T10:27:56.876Z</time></trkpt><trkpt lat="42.1016383" lon="14.5792167"><ele>251.0</ele><time>2026-04-20T10:27:58.876Z</time></trkpt><trkpt lat="42.101575" lon="14.5792483"><ele>251.0</ele><time>2026-04-20T10:28:00.875Z</time></trkpt><trkpt lat="42.101495" lon="14.5792917"><ele>251.0</ele><time>2026-04-20T10:28:03.875Z</time></trkpt><trkpt lat="42.101435" lon="14.5793267"><ele>251.00000000000003</ele><time>2026-04-20T10:28:05.876Z</time></trkpt><trkpt lat="42.1013717" lon="14.579355"><ele>251.0</ele><time>2026-04-20T10:28:08.875Z</time></trkpt><trkpt lat="42.101305" lon="14.579455"><ele>250.99999999999997</ele><time>2026-04-20T10:28:25.876Z</time></trkpt><trkpt lat="42.1013183" lon="14.5793683"><ele>251.0</ele><time>2026-04-20T10:28:48.875Z</time></trkpt><trkpt lat="42.1013267" lon="14.57926"><ele>250.99999999999997</ele><time>2026-04-20T10:28:52.876Z</time></trkpt><trkpt lat="42.1013483" lon="14.5791783"><ele>250.99999999999997</ele><time>2026-04-20T10:28:55.875Z</time></trkpt><trkpt lat="42.1014133" lon="14.5791383"><ele>251.0</ele><time>2026-04-20T10:28:58.875Z</time></trkpt><trkpt lat="42.1014883" lon="14.5790933"><ele>250.99999999999997</ele><time>2026-04-20T10:29:01.876Z</time></trkpt><trkpt lat="42.101565" lon="14.5790683"><ele>250.99999999999997</ele><time>2026-04-20T10:29:04.875Z</time></trkpt><trkpt lat="42.1016417" lon="14.5790583"><ele>250.99999999999997</ele><time>2026-04-20T10:29:07.876Z</time></trkpt><trkpt lat="42.1017117" lon="14.579025"><ele>251.0</ele><time>2026-04-20T10:29:10.876Z</time></trkpt><trkpt lat="42.1017733" lon="14.5789767"><ele>250.99999999999997</ele><time>2026-04-20T10:29:13.875Z</time></trkpt><trkpt lat="42.1018367" lon="14.5789333"><ele>250.99999999999997</ele><time>2026-04-20T10:29:16.876Z</time></trkpt><trkpt lat="42.1018983" lon="14.5788983"><ele>251.0</ele><time>2026-04-20T10:29:19.876Z</time></trkpt><trkpt lat="42.1019533" lon="14.57885"><ele>250.99999999999997</ele><time>2026-04-20T10:29:22.876Z</time></trkpt><trkpt lat="42.1020083" lon="14.578805"><ele>250.99999999999997</ele><time>2026-04-20T10:29:25.876Z</time></trkpt><trkpt lat="42.1020767" lon="14.5787433"><ele>250.99999999999997</ele><time>2026-04-20T10:29:29.876Z</time></trkpt><trkpt lat="42.102135" lon="14.5787"><ele>251.0</ele><time>2026-04-20T10:29:32.876Z</time></trkpt><trkpt lat="42.1021917" lon="14.5786533"><ele>250.99999999999997</ele><time>2026-04-20T10:29:35.876Z</time></trkpt><trkpt lat="42.1022583" lon="14.578605"><ele>250.99999999999997</ele><time>2026-04-20T10:29:39.876Z</time></trkpt><trkpt lat="42.1023117" lon="14.5785467"><ele>251.0</ele><time>2026-04-20T10:29:42.875Z</time></trkpt><trkpt lat="42.1023667" lon="14.5784983"><ele>250.99999999999997</ele><time>2026-04-20T10:29:45.876Z</time></trkpt><trkpt lat="42.1024383" lon="14.5784517"><ele>250.99999999999997</ele><time>2026-04-20T10:29:49.876Z</time></trkpt><trkpt lat="42.1024983" lon="14.5784133"><ele>252.4285714285714</ele><time>2026-04-20T10:29:52.875Z</time></trkpt><trkpt lat="42.102555" lon="14.5783567"><ele>253.85714285714283</ele><time>2026-04-20T10:29:55.876Z</time></trkpt><trkpt lat="42.1026117" lon="14.5782883"><ele>255.28571428571428</ele><time>2026-04-20T10:29:59.876Z</time></trkpt><trkpt lat="42.1026517" lon="14.5782033"><ele>256.71428571428567</ele><time>2026-04-20T10:30:03.876Z</time></trkpt><trkpt lat="42.102695" lon="14.57814"><ele>258.1428571428571</ele><time>2026-04-20T10:30:06.875Z</time></trkpt><trkpt lat="42.1027483" lon="14.57809"><ele>259.57142857142856</ele><time>2026-04-20T10:30:09.876Z</time></trkpt><trkpt lat="42.102795" lon="14.5780317"><ele>261.0</ele><time>2026-04-20T10:30:12.876Z</time></trkpt><trkpt lat="42.1028317" lon="14.5779333"><ele>261.6666666666667</ele><time>2026-04-20T10:30:15.876Z</time></trkpt><trkpt lat="42.1028783" lon="14.5778367"><ele>262.3333333333333</ele><time>2026-04-20T10:30:18.875Z</time></trkpt><trkpt lat="42.1029433" lon="14.5777483"><ele>263.0</ele><time>2026-04-20T10:30:21.876Z</time></trkpt><trkpt lat="42.1029983" lon="14.5776817"><ele>263.66666666666663</ele><time>2026-04-20T10:30:23.875Z</time></trkpt><trkpt lat="42.1030467" lon="14.577615"><ele>264.3333333333333</ele><time>2026-04-20T10:30:25.876Z</time></trkpt><trkpt lat="42.1030883" lon="14.57754"><ele>265.0</ele><time>2026-04-20T10:30:27.875Z</time></trkpt><trkpt lat="42.10315" lon="14.5774583"><ele>265.0</ele><time>2026-04-20T10:30:31.876Z</time></trkpt><trkpt lat="42.1032233" lon="14.5773867"><ele>265.0</ele><time>2026-04-20T10:30:34.876Z</time></trkpt><trkpt lat="42.10329" lon="14.577315"><ele>265.0</ele><time>2026-04-20T10:30:37.875Z</time></trkpt><trkpt lat="42.10334" lon="14.577255"><ele>265.0</ele><time>2026-04-20T10:30:40.876Z</time></trkpt><trkpt lat="42.1034083" lon="14.577245"><ele>265.0</ele><time>2026-04-20T10:30:45.875Z</time></trkpt><trkpt lat="42.103465" lon="14.5773067"><ele>265.0</ele><time>2026-04-20T10:30:51.876Z</time></trkpt><trkpt lat="42.1035267" lon="14.5773617"><ele>265.66666666666663</ele><time>2026-04-20T10:30:55.875Z</time></trkpt><trkpt lat="42.103585" lon="14.5773967"><ele>266.3333333333333</ele><time>2026-04-20T10:31:05.876Z</time></trkpt><trkpt lat="42.1036433" lon="14.5773583"><ele>267.0</ele><time>2026-04-20T10:31:12.876Z</time></trkpt><trkpt lat="42.1036933" lon="14.5772933"><ele>267.6666666666667</ele><time>2026-04-20T10:31:15.876Z</time></trkpt><trkpt lat="42.1037583" lon="14.5772133"><ele>268.33333333333337</ele><time>2026-04-20T10:31:18.876Z</time></trkpt><trkpt lat="42.1038217" lon="14.57712"><ele>269.0</ele><time>2026-04-20T10:31:21.876Z</time></trkpt><trkpt lat="42.1038783" lon="14.5770567"><ele>269.33333333333337</ele><time>2026-04-20T10:31:23.875Z</time></trkpt><trkpt lat="42.103935" lon="14.57698"><ele>269.6666666666667</ele><time>2026-04-20T10:31:25.875Z</time></trkpt><trkpt lat="42.1039933" lon="14.57689"><ele>270.0</ele><time>2026-04-20T10:31:28.874Z</time></trkpt><trkpt lat="42.1040517" lon="14.576815"><ele>270.3333333333333</ele><time>2026-04-20T10:31:31.874Z</time></trkpt><trkpt lat="42.1041033" lon="14.5767267"><ele>270.66666666666663</ele><time>2026-04-20T10:31:34.875Z</time></trkpt><trkpt lat="42.104165" lon="14.57665"><ele>271.0</ele><time>2026-04-20T10:31:37.875Z</time></trkpt><trkpt lat="42.1042233" lon="14.57657"><ele>271.0</ele><time>2026-04-20T10:31:40.875Z</time></trkpt><trkpt lat="42.1042767" lon="14.5765017"><ele>271.0</ele><time>2026-04-20T10:31:43.875Z</time></trkpt><trkpt lat="42.104335" lon="14.57643"><ele>271.0</ele><time>2026-04-20T10:31:46.875Z</time></trkpt><trkpt lat="42.1043833" lon="14.5763717"><ele>271.0</ele><time>2026-04-20T10:31:49.875Z</time></trkpt><trkpt lat="42.1044567" lon="14.5764233"><ele>271.0</ele><time>2026-04-20T10:31:54.875Z</time></trkpt><trkpt lat="42.1045233" lon="14.5764317"><ele>271.0</ele><time>2026-04-20T10:31:58.875Z</time></trkpt><trkpt lat="42.104595" lon="14.5764117"><ele>271.0</ele><time>2026-04-20T10:32:02.875Z</time></trkpt><trkpt lat="42.1046733" lon="14.5764067"><ele>271.0</ele><time>2026-04-20T10:32:06.874Z</time></trkpt><trkpt lat="42.1047367" lon="14.5764"><ele>271.0</ele><time>2026-04-20T10:32:11.875Z</time></trkpt><trkpt lat="42.10478" lon="14.5764767"><ele>271.0</ele><time>2026-04-20T10:32:17.875Z</time></trkpt><trkpt lat="42.1048517" lon="14.5765183"><ele>271.0</ele><time>2026-04-20T10:32:22.875Z</time></trkpt><trkpt lat="42.1048983" lon="14.57658"><ele>271.0</ele><time>2026-04-20T10:32:27.875Z</time></trkpt><trkpt lat="42.1049567" lon="14.5766517"><ele>271.0</ele><time>2026-04-20T10:32:31.875Z</time></trkpt><trkpt lat="42.1050233" lon="14.576705"><ele>271.0</ele><time>2026-04-20T10:32:34.875Z</time></trkpt><trkpt lat="42.10508" lon="14.5767833"><ele>271.16666666666663</ele><time>2026-04-20T10:32:37.875Z</time></trkpt><trkpt lat="42.1051267" lon="14.5768633"><ele>271.3333333333333</ele><time>2026-04-20T10:32:40.874Z</time></trkpt><trkpt lat="42.105155" lon="14.57694"><ele>271.5</ele><time>2026-04-20T10:32:44.875Z</time></trkpt><trkpt lat="42.1050933" lon="14.5770117"><ele>271.6666666666667</ele><time>2026-04-20T10:32:49.874Z</time></trkpt><trkpt lat="42.10503" lon="14.5771"><ele>271.83333333333337</ele><time>2026-04-20T10:32:52.875Z</time></trkpt><trkpt lat="42.1049733" lon="14.577185"><ele>272.0</ele><time>2026-04-20T10:32:55.875Z</time></trkpt><trkpt lat="42.1049217" lon="14.5772483"><ele>271.33333333333337</ele><time>2026-04-20T10:32:57.874Z</time></trkpt><trkpt lat="42.1048683" lon="14.5773183"><ele>270.6666666666667</ele><time>2026-04-20T10:32:59.875Z</time></trkpt><trkpt lat="42.10482" lon="14.57738"><ele>270.0</ele><time>2026-04-20T10:33:01.875Z</time></trkpt><trkpt lat="42.1047567" lon="14.5774583"><ele>269.3333333333333</ele><time>2026-04-20T10:33:04.874Z</time></trkpt><trkpt lat="42.104695" lon="14.577535"><ele>268.66666666666663</ele><time>2026-04-20T10:33:07.875Z</time></trkpt><trkpt lat="42.10464" lon="14.577595"><ele>268.0</ele><time>2026-04-20T10:33:09.875Z</time></trkpt><trkpt lat="42.10457" lon="14.5776783"><ele>268.0</ele><time>2026-04-20T10:33:12.874Z</time></trkpt><trkpt lat="42.1045117" lon="14.5777417"><ele>268.0</ele><time>2026-04-20T10:33:15.875Z</time></trkpt><trkpt lat="42.104465" lon="14.5778017"><ele>268.0</ele><time>2026-04-20T10:33:19.875Z</time></trkpt><trkpt lat="42.1044883" lon="14.5778967"><ele>268.0</ele><time>2026-04-20T10:33:25.875Z</time></trkpt><trkpt lat="42.104525" lon="14.5779733"><ele>268.0</ele><time>2026-04-20T10:33:28.875Z</time></trkpt><trkpt lat="42.1045683" lon="14.57804"><ele>268.0</ele><time>2026-04-20T10:33:30.874Z</time></trkpt><trkpt lat="42.1045983" lon="14.57812"><ele>268.0</ele><time>2026-04-20T10:33:32.875Z</time></trkpt><trkpt lat="42.104615" lon="14.5782333"><ele>267.8</ele><time>2026-04-20T10:33:34.875Z</time></trkpt><trkpt lat="42.10464" lon="14.5783733"><ele>267.6</ele><time>2026-04-20T10:33:36.875Z</time></trkpt><trkpt lat="42.1047" lon="14.5785133"><ele>267.4</ele><time>2026-04-20T10:33:38.874Z</time></trkpt><trkpt lat="42.104765" lon="14.5786367"><ele>267.2</ele><time>2026-04-20T10:33:40.875Z</time></trkpt><trkpt lat="42.10483" lon="14.5787533"><ele>267.0</ele><time>2026-04-20T10:33:42.875Z</time></trkpt><trkpt lat="42.10489" lon="14.57886"><ele>266.3333333333333</ele><time>2026-04-20T10:33:44.875Z</time></trkpt><trkpt lat="42.1049567" lon="14.5789617"><ele>265.6666666666667</ele><time>2026-04-20T10:33:46.875Z</time></trkpt><trkpt lat="42.1050217" lon="14.5790483"><ele>265.0</ele><time>2026-04-20T10:33:48.875Z</time></trkpt><trkpt lat="42.10508" lon="14.5790933"><ele>264.33333333333337</ele><time>2026-04-20T10:33:50.874Z</time></trkpt><trkpt lat="42.1051633" lon="14.57914"><ele>263.6666666666667</ele><time>2026-04-20T10:33:53.875Z</time></trkpt><trkpt lat="42.10523" lon="14.57921"><ele>263.0</ele><time>2026-04-20T10:33:56.875Z</time></trkpt><trkpt lat="42.1053017" lon="14.5792833"><ele>263.0</ele><time>2026-04-20T10:33:59.875Z</time></trkpt><trkpt lat="42.10537" lon="14.5793183"><ele>263.0</ele><time>2026-04-20T10:34:02.875Z</time></trkpt><trkpt lat="42.10544" lon="14.579305"><ele>263.0</ele><time>2026-04-20T10:34:04.875Z</time></trkpt><trkpt lat="42.1055233" lon="14.5792717"><ele>263.0</ele><time>2026-04-20T10:34:06.874Z</time></trkpt><trkpt lat="42.105605" lon="14.5792233"><ele>263.0</ele><time>2026-04-20T10:34:08.874Z</time></trkpt><trkpt lat="42.105675" lon="14.57917"><ele>263.0</ele><time>2026-04-20T10:34:10.875Z</time></trkpt><trkpt lat="42.1057533" lon="14.5791233"><ele>263.0</ele><time>2026-04-20T10:34:12.875Z</time></trkpt><trkpt lat="42.1058367" lon="14.5790633"><ele>263.0</ele><time>2026-04-20T10:34:14.874Z</time></trkpt><trkpt lat="42.1059333" lon="14.5790067"><ele>263.0</ele><time>2026-04-20T10:34:16.875Z</time></trkpt><trkpt lat="42.1060333" lon="14.578945"><ele>263.0</ele><time>2026-04-20T10:34:18.874Z</time></trkpt><trkpt lat="42.106135" lon="14.578875"><ele>263.0</ele><time>2026-04-20T10:34:20.875Z</time></trkpt><trkpt lat="42.1062367" lon="14.5788"><ele>263.0</ele><time>2026-04-20T10:34:22.875Z</time></trkpt><trkpt lat="42.1063367" lon="14.5787183"><ele>263.0</ele><time>2026-04-20T10:34:24.875Z</time></trkpt><trkpt lat="42.1064283" lon="14.5786417"><ele>263.0</ele><time>2026-04-20T10:34:26.875Z</time></trkpt><trkpt lat="42.1065117" lon="14.5785667"><ele>263.0</ele><time>2026-04-20T10:34:28.875Z</time></trkpt><trkpt lat="42.1065933" lon="14.578495"><ele>263.0</ele><time>2026-04-20T10:34:30.875Z</time></trkpt><trkpt lat="42.10667" lon="14.5784333"><ele>263.2857142857143</ele><time>2026-04-20T10:34:32.875Z</time></trkpt><trkpt lat="42.1067383" lon="14.5783717"><ele>263.57142857142856</ele><time>2026-04-20T10:34:34.875Z</time></trkpt><trkpt lat="42.1068" lon="14.5783133"><ele>263.85714285714283</ele><time>2026-04-20T10:34:36.875Z</time></trkpt><trkpt lat="42.1068567" lon="14.5782467"><ele>264.1428571428571</ele><time>2026-04-20T10:34:38.874Z</time></trkpt><trkpt lat="42.1069117" lon="14.5781867"><ele>264.42857142857144</ele><time>2026-04-20T10:34:40.875Z</time></trkpt><trkpt lat="42.1069533" lon="14.57812"><ele>264.71428571428567</ele><time>2026-04-20T10:34:42.875Z</time></trkpt><trkpt lat="42.106965" lon="14.5780283"><ele>265.0</ele><time>2026-04-20T10:34:44.875Z</time></trkpt><trkpt lat="42.1069583" lon="14.5779067"><ele>265.0</ele><time>2026-04-20T10:34:46.874Z</time></trkpt><trkpt lat="42.10692" lon="14.577785"><ele>265.0</ele><time>2026-04-20T10:34:48.875Z</time></trkpt><trkpt lat="42.1068667" lon="14.5776767"><ele>265.0</ele><time>2026-04-20T10:34:50.875Z</time></trkpt><trkpt lat="42.10681" lon="14.577565"><ele>265.0</ele><time>2026-04-20T10:34:52.875Z</time></trkpt><trkpt lat="42.1067483" lon="14.5774383"><ele>265.0</ele><time>2026-04-20T10:34:54.874Z</time></trkpt><trkpt lat="42.10668" lon="14.5773183"><ele>265.0</ele><time>2026-04-20T10:34:56.875Z</time></trkpt><trkpt lat="42.1066183" lon="14.5772217"><ele>265.0</ele><time>2026-04-20T10:34:58.875Z</time></trkpt><trkpt lat="42.1065483" lon="14.5771167"><ele>265.0</ele><time>2026-04-20T10:35:00.874Z</time></trkpt><trkpt lat="42.1064733" lon="14.5770133"><ele>265.0</ele><time>2026-04-20T10:35:02.875Z</time></trkpt><trkpt lat="42.1064017" lon="14.5769067"><ele>265.0</ele><time>2026-04-20T10:35:04.875Z</time></trkpt><trkpt lat="42.106325" lon="14.5768"><ele>265.8</ele><time>2026-04-20T10:35:06.875Z</time></trkpt><trkpt lat="42.1062533" lon="14.5767"><ele>266.6</ele><time>2026-04-20T10:35:08.875Z</time></trkpt><trkpt lat="42.1061867" lon="14.5765917"><ele>267.4</ele><time>2026-04-20T10:35:10.875Z</time></trkpt><trkpt lat="42.1061067" lon="14.57649"><ele>268.2</ele><time>2026-04-20T10:35:12.874Z</time></trkpt><trkpt lat="42.10603" lon="14.5763817"><ele>269.0</ele><time>2026-04-20T10:35:14.875Z</time></trkpt><trkpt lat="42.10595" lon="14.5762767"><ele>269.59999999999997</ele><time>2026-04-20T10:35:16.875Z</time></trkpt><trkpt lat="42.1058733" lon="14.5761817"><ele>270.2</ele><time>2026-04-20T10:35:18.875Z</time></trkpt><trkpt lat="42.1058017" lon="14.576075"><ele>270.79999999999995</ele><time>2026-04-20T10:35:20.875Z</time></trkpt><trkpt lat="42.1057317" lon="14.5759617"><ele>271.4</ele><time>2026-04-20T10:35:22.875Z</time></trkpt><trkpt lat="42.1056517" lon="14.5758717"><ele>272.0</ele><time>2026-04-20T10:35:24.875Z</time></trkpt><trkpt lat="42.105565" lon="14.5757917"><ele>272.6</ele><time>2026-04-20T10:35:26.875Z</time></trkpt><trkpt lat="42.105475" lon="14.5757183"><ele>273.2</ele><time>2026-04-20T10:35:28.874Z</time></trkpt><trkpt lat="42.10538" lon="14.5756417"><ele>273.8</ele><time>2026-04-20T10:35:30.875Z</time></trkpt><trkpt lat="42.1052833" lon="14.575575"><ele>274.4</ele><time>2026-04-20T10:35:32.874Z</time></trkpt><trkpt lat="42.1051833" lon="14.5755267"><ele>275.0</ele><time>2026-04-20T10:35:34.874Z</time></trkpt><trkpt lat="42.1050817" lon="14.5754767"><ele>275.0</ele><time>2026-04-20T10:35:36.874Z</time></trkpt><trkpt lat="42.1049833" lon="14.5754333"><ele>275.0</ele><time>2026-04-20T10:35:38.875Z</time></trkpt><trkpt lat="42.1048867" lon="14.575385"><ele>275.0</ele><time>2026-04-20T10:35:40.874Z</time></trkpt><trkpt lat="42.1047833" lon="14.575325"><ele>275.0</ele><time>2026-04-20T10:35:42.875Z</time></trkpt><trkpt lat="42.1046833" lon="14.5752567"><ele>275.0</ele><time>2026-04-20T10:35:44.875Z</time></trkpt><trkpt lat="42.1046" lon="14.5751967"><ele>275.8</ele><time>2026-04-20T10:35:46.875Z</time></trkpt><trkpt lat="42.10452" lon="14.5751267"><ele>276.6</ele><time>2026-04-20T10:35:48.875Z</time></trkpt><trkpt lat="42.1044417" lon="14.57504"><ele>277.4</ele><time>2026-04-20T10:35:50.874Z</time></trkpt><trkpt lat="42.1043633" lon="14.57495"><ele>278.2</ele><time>2026-04-20T10:35:52.875Z</time></trkpt><trkpt lat="42.1042867" lon="14.5748467"><ele>279.0</ele><time>2026-04-20T10:35:54.874Z</time></trkpt><trkpt lat="42.10421" lon="14.5747467"><ele>279.0</ele><time>2026-04-20T10:35:56.875Z</time></trkpt><trkpt lat="42.1041217" lon="14.5746433"><ele>279.0</ele><time>2026-04-20T10:35:58.874Z</time></trkpt><trkpt lat="42.1040433" lon="14.5745217"><ele>279.0</ele><time>2026-04-20T10:36:00.874Z</time></trkpt><trkpt lat="42.1039683" lon="14.5744117"><ele>279.0</ele><time>2026-04-20T10:36:02.875Z</time></trkpt><trkpt lat="42.103895" lon="14.5742917"><ele>279.25</ele><time>2026-04-20T10:36:04.875Z</time></trkpt><trkpt lat="42.1038233" lon="14.5741733"><ele>279.5</ele><time>2026-04-20T10:36:06.875Z</time></trkpt><trkpt lat="42.1037617" lon="14.5740367"><ele>279.75</ele><time>2026-04-20T10:36:08.875Z</time></trkpt><trkpt lat="42.1036967" lon="14.573915"><ele>280.0</ele><time>2026-04-20T10:36:10.875Z</time></trkpt><trkpt lat="42.103645" lon="14.5737867"><ele>280.4</ele><time>2026-04-20T10:36:12.875Z</time></trkpt><trkpt lat="42.1035867" lon="14.5736633"><ele>280.8</ele><time>2026-04-20T10:36:14.874Z</time></trkpt><trkpt lat="42.10353" lon="14.5735367"><ele>281.2</ele><time>2026-04-20T10:36:16.874Z</time></trkpt><trkpt lat="42.10347" lon="14.5734033"><ele>281.6</ele><time>2026-04-20T10:36:18.874Z</time></trkpt><trkpt lat="42.103405" lon="14.5732783"><ele>282.0</ele><time>2026-04-20T10:36:20.875Z</time></trkpt><trkpt lat="42.1033433" lon="14.5731517"><ele>282.0</ele><time>2026-04-20T10:36:22.875Z</time></trkpt><trkpt lat="42.1033" lon="14.5730167"><ele>282.0</ele><time>2026-04-20T10:36:24.875Z</time></trkpt><trkpt lat="42.10327" lon="14.5728833"><ele>282.0</ele><time>2026-04-20T10:36:26.874Z</time></trkpt><trkpt lat="42.103245" lon="14.572745"><ele>282.0</ele><time>2026-04-20T10:36:28.875Z</time></trkpt><trkpt lat="42.1032167" lon="14.572595"><ele>282.0</ele><time>2026-04-20T10:36:30.875Z</time></trkpt><trkpt lat="42.1031933" lon="14.5724417"><ele>281.8</ele><time>2026-04-20T10:36:32.874Z</time></trkpt><trkpt lat="42.103175" lon="14.572295"><ele>281.6</ele><time>2026-04-20T10:36:34.875Z</time></trkpt><trkpt lat="42.103155" lon="14.572155"><ele>281.40000000000003</ele><time>2026-04-20T10:36:36.875Z</time></trkpt><trkpt lat="42.103135" lon="14.57201"><ele>281.2</ele><time>2026-04-20T10:36:38.875Z</time></trkpt><trkpt lat="42.1031217" lon="14.5719267"><ele>281.0</ele><time>2026-04-20T10:36:39.874Z</time></trkpt><trkpt lat="42.1031017" lon="14.5717817"><ele>281.40000000000003</ele><time>2026-04-20T10:36:41.875Z</time></trkpt><trkpt lat="42.1030717" lon="14.5716367"><ele>281.8</ele><time>2026-04-20T10:36:43.875Z</time></trkpt><trkpt lat="42.103035" lon="14.5714967"><ele>282.20000000000005</ele><time>2026-04-20T10:36:45.875Z</time></trkpt><trkpt lat="42.1030017" lon="14.5713617"><ele>282.6</ele><time>2026-04-20T10:36:47.874Z</time></trkpt><trkpt lat="42.1029683" lon="14.5712133"><ele>283.0</ele><time>2026-04-20T10:36:49.874Z</time></trkpt><trkpt lat="42.1029367" lon="14.571065"><ele>283.2</ele><time>2026-04-20T10:36:51.874Z</time></trkpt><trkpt lat="42.102895" lon="14.570925"><ele>283.4</ele><time>2026-04-20T10:36:53.875Z</time></trkpt><trkpt lat="42.1028483" lon="14.5707867"><ele>283.59999999999997</ele><time>2026-04-20T10:36:55.875Z</time></trkpt><trkpt lat="42.1028033" lon="14.5706483"><ele>283.8</ele><time>2026-04-20T10:36:57.874Z</time></trkpt><trkpt lat="42.102755" lon="14.5705167"><ele>284.0</ele><time>2026-04-20T10:36:59.875Z</time></trkpt><trkpt lat="42.1027083" lon="14.570385"><ele>284.59999999999997</ele><time>2026-04-20T10:37:01.875Z</time></trkpt><trkpt lat="42.1026617" lon="14.5702567"><ele>285.2</ele><time>2026-04-20T10:37:03.874Z</time></trkpt><trkpt lat="42.102615" lon="14.57013"><ele>285.79999999999995</ele><time>2026-04-20T10:37:05.875Z</time></trkpt><trkpt lat="42.10257" lon="14.5699967"><ele>286.4</ele><time>2026-04-20T10:37:07.875Z</time></trkpt><trkpt lat="42.1025267" lon="14.5698483"><ele>287.0</ele><time>2026-04-20T10:37:09.875Z</time></trkpt><trkpt lat="42.10248" lon="14.56972"><ele>287.0</ele><time>2026-04-20T10:37:11.875Z</time></trkpt><trkpt lat="42.102425" lon="14.56961"><ele>287.0</ele><time>2026-04-20T10:37:13.875Z</time></trkpt><trkpt lat="42.102355" lon="14.5695183"><ele>287.0</ele><time>2026-04-20T10:37:15.875Z</time></trkpt><trkpt lat="42.10227" lon="14.5694333"><ele>287.0</ele><time>2026-04-20T10:37:17.875Z</time></trkpt><trkpt lat="42.1021833" lon="14.5693683"><ele>287.0</ele><time>2026-04-20T10:37:19.875Z</time></trkpt><trkpt lat="42.1021033" lon="14.5693033"><ele>287.33333333333337</ele><time>2026-04-20T10:37:21.875Z</time></trkpt><trkpt lat="42.102035" lon="14.5692517"><ele>287.6666666666667</ele><time>2026-04-20T10:37:23.875Z</time></trkpt><trkpt lat="42.1019867" lon="14.56919"><ele>288.0</ele><time>2026-04-20T10:37:25.875Z</time></trkpt><trkpt lat="42.1019517" lon="14.5691"><ele>288.3333333333333</ele><time>2026-04-20T10:37:27.875Z</time></trkpt><trkpt lat="42.10194" lon="14.5689817"><ele>288.66666666666663</ele><time>2026-04-20T10:37:29.874Z</time></trkpt><trkpt lat="42.101945" lon="14.5688567"><ele>289.0</ele><time>2026-04-20T10:37:31.874Z</time></trkpt><trkpt lat="42.1019733" lon="14.5687233"><ele>289.59999999999997</ele><time>2026-04-20T10:37:33.875Z</time></trkpt><trkpt lat="42.1019983" lon="14.5685867"><ele>290.2</ele><time>2026-04-20T10:37:35.875Z</time></trkpt><trkpt lat="42.10202" lon="14.5684617"><ele>290.79999999999995</ele><time>2026-04-20T10:37:37.875Z</time></trkpt><trkpt lat="42.102045" lon="14.56832"><ele>291.4</ele><time>2026-04-20T10:37:39.875Z</time></trkpt><trkpt lat="42.102065" lon="14.5681783"><ele>292.0</ele><time>2026-04-20T10:37:41.874Z</time></trkpt><trkpt lat="42.1020883" lon="14.5680333"><ele>292.0</ele><time>2026-04-20T10:37:43.874Z</time></trkpt><trkpt lat="42.102105" lon="14.56795"><ele>292.0</ele><time>2026-04-20T10:37:44.874Z</time></trkpt><trkpt lat="42.1021333" lon="14.5677967"><ele>292.0</ele><time>2026-04-20T10:37:46.875Z</time></trkpt><trkpt lat="42.10216" lon="14.5676483"><ele>292.0</ele><time>2026-04-20T10:37:48.874Z</time></trkpt><trkpt lat="42.1021833" lon="14.5675033"><ele>292.0</ele><time>2026-04-20T10:37:50.874Z</time></trkpt><trkpt lat="42.1022067" lon="14.5673583"><ele>292.0</ele><time>2026-04-20T10:37:52.874Z</time></trkpt><trkpt lat="42.1022417" lon="14.5672167"><ele>292.0</ele><time>2026-04-20T10:37:54.875Z</time></trkpt><trkpt lat="42.1022683" lon="14.5670683"><ele>292.0</ele><time>2026-04-20T10:37:56.874Z</time></trkpt><trkpt lat="42.10229" lon="14.56692"><ele>292.0</ele><time>2026-04-20T10:37:58.874Z</time></trkpt><trkpt lat="42.1023117" lon="14.5667667"><ele>292.0</ele><time>2026-04-20T10:38:00.874Z</time></trkpt><trkpt lat="42.1023267" lon="14.5666217"><ele>292.0</ele><time>2026-04-20T10:38:02.875Z</time></trkpt><trkpt lat="42.1023533" lon="14.566485"><ele>292.0</ele><time>2026-04-20T10:38:04.874Z</time></trkpt><trkpt lat="42.102385" lon="14.5663483"><ele>292.0</ele><time>2026-04-20T10:38:06.875Z</time></trkpt><trkpt lat="42.1024267" lon="14.5662233"><ele>292.0</ele><time>2026-04-20T10:38:08.875Z</time></trkpt><trkpt lat="42.1024817" lon="14.566085"><ele>293.0</ele><time>2026-04-20T10:38:10.875Z</time></trkpt><trkpt lat="42.1025483" lon="14.56595"><ele>294.0</ele><time>2026-04-20T10:38:12.874Z</time></trkpt><trkpt lat="42.10262" lon="14.5658117"><ele>295.0</ele><time>2026-04-20T10:38:14.875Z</time></trkpt><trkpt lat="42.1026933" lon="14.5656917"><ele>296.0</ele><time>2026-04-20T10:38:16.874Z</time></trkpt><trkpt lat="42.1027683" lon="14.565575"><ele>296.0</ele><time>2026-04-20T10:38:18.875Z</time></trkpt><trkpt lat="42.1028483" lon="14.5654683"><ele>296.0</ele><time>2026-04-20T10:38:20.875Z</time></trkpt><trkpt lat="42.102925" lon="14.5653617"><ele>296.0</ele><time>2026-04-20T10:38:22.875Z</time></trkpt><trkpt lat="42.103005" lon="14.565255"><ele>296.0</ele><time>2026-04-20T10:38:24.874Z</time></trkpt><trkpt lat="42.1030767" lon="14.5651383"><ele>296.0</ele><time>2026-04-20T10:38:26.874Z</time></trkpt><trkpt lat="42.1031517" lon="14.5650117"><ele>295.75</ele><time>2026-04-20T10:38:28.874Z</time></trkpt><trkpt lat="42.1032283" lon="14.5648867"><ele>295.5</ele><time>2026-04-20T10:38:30.875Z</time></trkpt><trkpt lat="42.1033017" lon="14.56476"><ele>295.25</ele><time>2026-04-20T10:38:32.874Z</time></trkpt><trkpt lat="42.1033667" lon="14.56464"><ele>295.0</ele><time>2026-04-20T10:38:34.875Z</time></trkpt><trkpt lat="42.1034333" lon="14.5645167"><ele>295.0</ele><time>2026-04-20T10:38:36.875Z</time></trkpt><trkpt lat="42.1034967" lon="14.5643867"><ele>295.0</ele><time>2026-04-20T10:38:38.875Z</time></trkpt><trkpt lat="42.10356" lon="14.5642533"><ele>295.0</ele><time>2026-04-20T10:38:40.874Z</time></trkpt><trkpt lat="42.10361" lon="14.5641183"><ele>295.0</ele><time>2026-04-20T10:38:42.875Z</time></trkpt><trkpt lat="42.1036633" lon="14.563985"><ele>295.0</ele><time>2026-04-20T10:38:44.875Z</time></trkpt><trkpt lat="42.1037133" lon="14.5638567"><ele>295.0</ele><time>2026-04-20T10:38:46.875Z</time></trkpt><trkpt lat="42.1037583" lon="14.56373"><ele>295.0</ele><time>2026-04-20T10:38:48.874Z</time></trkpt><trkpt lat="42.1038117" lon="14.5636083"><ele>295.0</ele><time>2026-04-20T10:38:50.875Z</time></trkpt><trkpt lat="42.1038667" lon="14.5634817"><ele>295.0</ele><time>2026-04-20T10:38:52.875Z</time></trkpt><trkpt lat="42.1039217" lon="14.5633433"><ele>294.8</ele><time>2026-04-20T10:38:54.875Z</time></trkpt><trkpt lat="42.1039733" lon="14.563205"><ele>294.6</ele><time>2026-04-20T10:38:56.874Z</time></trkpt><trkpt lat="42.10402" lon="14.5630717"><ele>294.4</ele><time>2026-04-20T10:38:58.874Z</time></trkpt><trkpt lat="42.1040633" lon="14.5629267"><ele>294.2</ele><time>2026-04-20T10:39:00.875Z</time></trkpt><trkpt lat="42.104095" lon="14.5627933"><ele>294.0</ele><time>2026-04-20T10:39:02.874Z</time></trkpt><trkpt lat="42.1041167" lon="14.562645"><ele>295.4</ele><time>2026-04-20T10:39:04.874Z</time></trkpt><trkpt lat="42.1041333" lon="14.5625"><ele>296.79999999999995</ele><time>2026-04-20T10:39:06.874Z</time></trkpt><trkpt lat="42.1041483" lon="14.562355"><ele>298.20000000000005</ele><time>2026-04-20T10:39:08.875Z</time></trkpt><trkpt lat="42.1041667" lon="14.56221"><ele>299.6</ele><time>2026-04-20T10:39:10.874Z</time></trkpt><trkpt lat="42.1041817" lon="14.56206"><ele>301.0</ele><time>2026-04-20T10:39:12.875Z</time></trkpt><trkpt lat="42.1041983" lon="14.5619167"><ele>301.25</ele><time>2026-04-20T10:39:14.874Z</time></trkpt><trkpt lat="42.1042133" lon="14.56177"><ele>301.5</ele><time>2026-04-20T10:39:16.875Z</time></trkpt><trkpt lat="42.10423" lon="14.5616083"><ele>301.75</ele><time>2026-04-20T10:39:18.874Z</time></trkpt><trkpt lat="42.1042383" lon="14.5614517"><ele>302.0</ele><time>2026-04-20T10:39:20.874Z</time></trkpt><trkpt lat="42.1042517" lon="14.561295"><ele>302.25</ele><time>2026-04-20T10:39:22.875Z</time></trkpt><trkpt lat="42.104275" lon="14.5611483"><ele>302.5</ele><time>2026-04-20T10:39:24.875Z</time></trkpt><trkpt lat="42.1042983" lon="14.5609917"><ele>302.75</ele><time>2026-04-20T10:39:26.875Z</time></trkpt><trkpt lat="42.1043167" lon="14.5608433"><ele>303.0</ele><time>2026-04-20T10:39:28.874Z</time></trkpt><trkpt lat="42.1043317" lon="14.5606867"><ele>303.0</ele><time>2026-04-20T10:39:30.875Z</time></trkpt><trkpt lat="42.1043483" lon="14.5605283"><ele>303.0</ele><time>2026-04-20T10:39:32.875Z</time></trkpt><trkpt lat="42.1043667" lon="14.5603683"><ele>303.0</ele><time>2026-04-20T10:39:34.874Z</time></trkpt><trkpt lat="42.104385" lon="14.560215"><ele>303.0</ele><time>2026-04-20T10:39:36.875Z</time></trkpt><trkpt lat="42.104405" lon="14.56006"><ele>303.8</ele><time>2026-04-20T10:39:38.875Z</time></trkpt><trkpt lat="42.1044283" lon="14.55992"><ele>304.6</ele><time>2026-04-20T10:39:40.875Z</time></trkpt><trkpt lat="42.10445" lon="14.5597683"><ele>305.4</ele><time>2026-04-20T10:39:42.875Z</time></trkpt><trkpt lat="42.104465" lon="14.5596217"><ele>306.2</ele><time>2026-04-20T10:39:44.875Z</time></trkpt><trkpt lat="42.1044783" lon="14.5594683"><ele>307.0</ele><time>2026-04-20T10:39:46.875Z</time></trkpt><trkpt lat="42.1045" lon="14.5593117"><ele>307.75</ele><time>2026-04-20T10:39:48.875Z</time></trkpt><trkpt lat="42.1045183" lon="14.5591533"><ele>308.5</ele><time>2026-04-20T10:39:50.874Z</time></trkpt><trkpt lat="42.1045367" lon="14.5589967"><ele>309.25</ele><time>2026-04-20T10:39:52.875Z</time></trkpt><trkpt lat="42.1045567" lon="14.558855"><ele>310.0</ele><time>2026-04-20T10:39:54.875Z</time></trkpt><trkpt lat="42.10457" lon="14.558705"><ele>310.8</ele><time>2026-04-20T10:39:56.875Z</time></trkpt><trkpt lat="42.104585" lon="14.55856"><ele>311.6</ele><time>2026-04-20T10:39:58.875Z</time></trkpt><trkpt lat="42.104605" lon="14.558415"><ele>312.4</ele><time>2026-04-20T10:40:00.875Z</time></trkpt><trkpt lat="42.1046167" lon="14.558275"><ele>313.2</ele><time>2026-04-20T10:40:02.874Z</time></trkpt><trkpt lat="42.10464" lon="14.5581283"><ele>314.0</ele><time>2026-04-20T10:40:04.875Z</time></trkpt><trkpt lat="42.1046583" lon="14.5579817"><ele>314.4</ele><time>2026-04-20T10:40:06.875Z</time></trkpt><trkpt lat="42.104675" lon="14.557845"><ele>314.79999999999995</ele><time>2026-04-20T10:40:08.874Z</time></trkpt><trkpt lat="42.1046933" lon="14.557695"><ele>315.20000000000005</ele><time>2026-04-20T10:40:10.875Z</time></trkpt><trkpt lat="42.10471" lon="14.557545"><ele>315.6</ele><time>2026-04-20T10:40:12.874Z</time></trkpt><trkpt lat="42.1047267" lon="14.5573933"><ele>316.0</ele><time>2026-04-20T10:40:14.875Z</time></trkpt><trkpt lat="42.10474" lon="14.5572517"><ele>316.0</ele><time>2026-04-20T10:40:16.874Z</time></trkpt><trkpt lat="42.10477" lon="14.5571067"><ele>316.0</ele><time>2026-04-20T10:40:18.875Z</time></trkpt><trkpt lat="42.1048033" lon="14.5569617"><ele>316.0</ele><time>2026-04-20T10:40:20.874Z</time></trkpt><trkpt lat="42.1048433" lon="14.5568167"><ele>316.0</ele><time>2026-04-20T10:40:22.874Z</time></trkpt><trkpt lat="42.1048983" lon="14.55668"><ele>316.25</ele><time>2026-04-20T10:40:24.874Z</time></trkpt><trkpt lat="42.104965" lon="14.5565517"><ele>316.5</ele><time>2026-04-20T10:40:26.875Z</time></trkpt><trkpt lat="42.1050367" lon="14.55643"><ele>316.75</ele><time>2026-04-20T10:40:28.875Z</time></trkpt><trkpt lat="42.105115" lon="14.5563117"><ele>317.0</ele><time>2026-04-20T10:40:30.875Z</time></trkpt><trkpt lat="42.1051983" lon="14.5561983"><ele>317.0</ele><time>2026-04-20T10:40:32.875Z</time></trkpt><trkpt lat="42.105275" lon="14.5560967"><ele>317.0</ele><time>2026-04-20T10:40:34.875Z</time></trkpt><trkpt lat="42.1053433" lon="14.5560033"><ele>317.0</ele><time>2026-04-20T10:40:36.875Z</time></trkpt><trkpt lat="42.105415" lon="14.5559083"><ele>317.0</ele><time>2026-04-20T10:40:38.875Z</time></trkpt><trkpt lat="42.1054967" lon="14.55581"><ele>317.0</ele><time>2026-04-20T10:40:40.875Z</time></trkpt><trkpt lat="42.105575" lon="14.5557133"><ele>317.0</ele><time>2026-04-20T10:40:42.874Z</time></trkpt><trkpt lat="42.1056583" lon="14.55561"><ele>317.0</ele><time>2026-04-20T10:40:44.874Z</time></trkpt><trkpt lat="42.1057483" lon="14.5555267"><ele>317.0</ele><time>2026-04-20T10:40:46.874Z</time></trkpt><trkpt lat="42.1058317" lon="14.555445"><ele>317.0</ele><time>2026-04-20T10:40:48.875Z</time></trkpt><trkpt lat="42.105915" lon="14.5553683"><ele>317.0</ele><time>2026-04-20T10:40:50.874Z</time></trkpt><trkpt lat="42.1060033" lon="14.5552917"><ele>318.2</ele><time>2026-04-20T10:40:52.875Z</time></trkpt><trkpt lat="42.1060933" lon="14.555205"><ele>319.4</ele><time>2026-04-20T10:40:54.875Z</time></trkpt><trkpt lat="42.1061417" lon="14.5551467"><ele>320.59999999999997</ele><time>2026-04-20T10:40:55.875Z</time></trkpt><trkpt lat="42.10623" lon="14.5550683"><ele>321.79999999999995</ele><time>2026-04-20T10:40:57.875Z</time></trkpt><trkpt lat="42.10632" lon="14.5549817"><ele>323.0</ele><time>2026-04-20T10:40:59.875Z</time></trkpt><trkpt lat="42.106415" lon="14.5549"><ele>323.0</ele><time>2026-04-20T10:41:01.874Z</time></trkpt><trkpt lat="42.1065033" lon="14.5548283"><ele>323.0</ele><time>2026-04-20T10:41:03.875Z</time></trkpt><trkpt lat="42.1066033" lon="14.5547567"><ele>323.0</ele><time>2026-04-20T10:41:05.874Z</time></trkpt><trkpt lat="42.1066667" lon="14.5547067"><ele>323.0</ele><time>2026-04-20T10:41:06.874Z</time></trkpt><trkpt lat="42.1067717" lon="14.5546367"><ele>323.0</ele><time>2026-04-20T10:41:08.874Z</time></trkpt><trkpt lat="42.1068767" lon="14.5545783"><ele>323.0</ele><time>2026-04-20T10:41:10.875Z</time></trkpt><trkpt lat="42.106935" lon="14.5545417"><ele>323.0</ele><time>2026-04-20T10:41:11.874Z</time></trkpt><trkpt lat="42.107045" lon="14.5544767"><ele>323.0</ele><time>2026-04-20T10:41:13.874Z</time></trkpt><trkpt lat="42.10711" lon="14.5544383"><ele>323.0</ele><time>2026-04-20T10:41:14.874Z</time></trkpt><trkpt lat="42.1072083" lon="14.554385"><ele>323.0</ele><time>2026-04-20T10:41:16.874Z</time></trkpt><trkpt lat="42.1073017" lon="14.5543283"><ele>323.4</ele><time>2026-04-20T10:41:18.874Z</time></trkpt><trkpt lat="42.1074033" lon="14.5542733"><ele>323.79999999999995</ele><time>2026-04-20T10:41:20.874Z</time></trkpt><trkpt lat="42.107505" lon="14.5542167"><ele>324.2</ele><time>2026-04-20T10:41:22.874Z</time></trkpt><trkpt lat="42.1076033" lon="14.5541433"><ele>324.6</ele><time>2026-04-20T10:41:24.875Z</time></trkpt><trkpt lat="42.1076917" lon="14.5540533"><ele>325.0</ele><time>2026-04-20T10:41:26.875Z</time></trkpt><trkpt lat="42.107775" lon="14.55396"><ele>325.0</ele><time>2026-04-20T10:41:28.874Z</time></trkpt><trkpt lat="42.1078617" lon="14.55387"><ele>325.0</ele><time>2026-04-20T10:41:30.874Z</time></trkpt><trkpt lat="42.107945" lon="14.5537833"><ele>325.0</ele><time>2026-04-20T10:41:32.875Z</time></trkpt><trkpt lat="42.1080233" lon="14.553695"><ele>325.0</ele><time>2026-04-20T10:41:34.874Z</time></trkpt><trkpt lat="42.1080983" lon="14.553615"><ele>325.0</ele><time>2026-04-20T10:41:36.875Z</time></trkpt><trkpt lat="42.108185" lon="14.5535383"><ele>325.75</ele><time>2026-04-20T10:41:38.875Z</time></trkpt><trkpt lat="42.1082883" lon="14.5534667"><ele>326.5</ele><time>2026-04-20T10:41:40.874Z</time></trkpt><trkpt lat="42.108395" lon="14.5533867"><ele>327.25</ele><time>2026-04-20T10:41:42.874Z</time></trkpt><trkpt lat="42.1085" lon="14.5533217"><ele>328.0</ele><time>2026-04-20T10:41:44.875Z</time></trkpt><trkpt lat="42.1086083" lon="14.5532483"><ele>328.0</ele><time>2026-04-20T10:41:46.874Z</time></trkpt><trkpt lat="42.1087183" lon="14.5531833"><ele>328.0</ele><time>2026-04-20T10:41:48.875Z</time></trkpt><trkpt lat="42.108825" lon="14.5531167"><ele>328.0</ele><time>2026-04-20T10:41:50.874Z</time></trkpt><trkpt lat="42.1089267" lon="14.55306"><ele>328.0</ele><time>2026-04-20T10:41:52.874Z</time></trkpt><trkpt lat="42.1090317" lon="14.5529883"><ele>328.0</ele><time>2026-04-20T10:41:54.875Z</time></trkpt><trkpt lat="42.1091383" lon="14.5529333"><ele>328.0</ele><time>2026-04-20T10:41:56.874Z</time></trkpt><trkpt lat="42.1092467" lon="14.55289"><ele>328.0</ele><time>2026-04-20T10:41:58.875Z</time></trkpt><trkpt lat="42.10935" lon="14.5528517"><ele>328.0</ele><time>2026-04-20T10:42:00.874Z</time></trkpt><trkpt lat="42.1094583" lon="14.5528"><ele>328.0</ele><time>2026-04-20T10:42:02.874Z</time></trkpt><trkpt lat="42.1095783" lon="14.5527467"><ele>328.1428571428571</ele><time>2026-04-20T10:42:04.874Z</time></trkpt><trkpt lat="42.1096433" lon="14.5527183"><ele>328.2857142857143</ele><time>2026-04-20T10:42:05.874Z</time></trkpt><trkpt lat="42.1097117" lon="14.5526917"><ele>328.42857142857144</ele><time>2026-04-20T10:42:06.874Z</time></trkpt><trkpt lat="42.1097817" lon="14.5526683"><ele>328.57142857142856</ele><time>2026-04-20T10:42:07.875Z</time></trkpt><trkpt lat="42.1098467" lon="14.552635"><ele>328.7142857142857</ele><time>2026-04-20T10:42:08.875Z</time></trkpt><trkpt lat="42.1099133" lon="14.5526017"><ele>328.85714285714283</ele><time>2026-04-20T10:42:09.875Z</time></trkpt><trkpt lat="42.109985" lon="14.5525683"><ele>329.0</ele><time>2026-04-20T10:42:10.875Z</time></trkpt><trkpt lat="42.1100633" lon="14.5525367"><ele>329.0</ele><time>2026-04-20T10:42:11.875Z</time></trkpt><trkpt lat="42.1101383" lon="14.5525"><ele>329.0</ele><time>2026-04-20T10:42:12.874Z</time></trkpt><trkpt lat="42.1102183" lon="14.5524717"><ele>329.0</ele><time>2026-04-20T10:42:13.875Z</time></trkpt><trkpt lat="42.1102983" lon="14.552435"><ele>329.0</ele><time>2026-04-20T10:42:14.875Z</time></trkpt><trkpt lat="42.1103867" lon="14.5523967"><ele>329.0</ele><time>2026-04-20T10:42:15.874Z</time></trkpt><trkpt lat="42.1104717" lon="14.5523483"><ele>329.0</ele><time>2026-04-20T10:42:16.875Z</time></trkpt><trkpt lat="42.1105517" lon="14.5522983"><ele>329.0</ele><time>2026-04-20T10:42:17.874Z</time></trkpt><trkpt lat="42.1106367" lon="14.5522417"><ele>329.0</ele><time>2026-04-20T10:42:18.875Z</time></trkpt><trkpt lat="42.1107333" lon="14.5521883"><ele>329.0</ele><time>2026-04-20T10:42:19.875Z</time></trkpt><trkpt lat="42.1108217" lon="14.552155"><ele>329.0</ele><time>2026-04-20T10:42:20.874Z</time></trkpt><trkpt lat="42.1109133" lon="14.5520917"><ele>329.0</ele><time>2026-04-20T10:42:21.875Z</time></trkpt><trkpt lat="42.1110033" lon="14.5520283"><ele>326.8</ele><time>2026-04-20T10:42:22.875Z</time></trkpt><trkpt lat="42.111085" lon="14.55195"><ele>324.59999999999997</ele><time>2026-04-20T10:42:23.874Z</time></trkpt><trkpt lat="42.1111633" lon="14.5518567"><ele>322.4</ele><time>2026-04-20T10:42:24.874Z</time></trkpt><trkpt lat="42.1112283" lon="14.551745"><ele>320.2</ele><time>2026-04-20T10:42:25.875Z</time></trkpt><trkpt lat="42.1112783" lon="14.551615"><ele>318.0</ele><time>2026-04-20T10:42:26.875Z</time></trkpt><trkpt lat="42.111305" lon="14.5514783"><ele>318.0</ele><time>2026-04-20T10:42:27.875Z</time></trkpt><trkpt lat="42.111315" lon="14.5513267"><ele>318.0</ele><time>2026-04-20T10:42:28.875Z</time></trkpt><trkpt lat="42.1113083" lon="14.5511767"><ele>318.0</ele><time>2026-04-20T10:42:29.875Z</time></trkpt><trkpt lat="42.1113017" lon="14.5510283"><ele>318.0</ele><time>2026-04-20T10:42:30.874Z</time></trkpt><trkpt lat="42.1113117" lon="14.5508933"><ele>318.0</ele><time>2026-04-20T10:42:31.875Z</time></trkpt><trkpt lat="42.111335" lon="14.550755"><ele>317.5</ele><time>2026-04-20T10:42:32.875Z</time></trkpt><trkpt lat="42.1113717" lon="14.5506117"><ele>317.0</ele><time>2026-04-20T10:42:33.874Z</time></trkpt><trkpt lat="42.1114267" lon="14.550475"><ele>316.5</ele><time>2026-04-20T10:42:34.875Z</time></trkpt><trkpt lat="42.111485" lon="14.5503383"><ele>316.0</ele><time>2026-04-20T10:42:35.875Z</time></trkpt><trkpt lat="42.11155" lon="14.5502117"><ele>312.25</ele><time>2026-04-20T10:42:36.874Z</time></trkpt><trkpt lat="42.1116283" lon="14.5500917"><ele>308.5</ele><time>2026-04-20T10:42:37.874Z</time></trkpt><trkpt lat="42.1117167" lon="14.549975"><ele>304.75</ele><time>2026-04-20T10:42:38.875Z</time></trkpt><trkpt lat="42.111815" lon="14.5498683"><ele>301.0</ele><time>2026-04-20T10:42:39.875Z</time></trkpt><trkpt lat="42.111925" lon="14.54978"><ele>301.0</ele><time>2026-04-20T10:42:40.875Z</time></trkpt><trkpt lat="42.1120467" lon="14.5497067"><ele>301.0</ele><time>2026-04-20T10:42:41.874Z</time></trkpt><trkpt lat="42.1121733" lon="14.5496633"><ele>301.0</ele><time>2026-04-20T10:42:42.874Z</time></trkpt><trkpt lat="42.1122933" lon="14.54964"><ele>301.0</ele><time>2026-04-20T10:42:43.875Z</time></trkpt><trkpt lat="42.1124233" lon="14.5496183"><ele>299.25</ele><time>2026-04-20T10:42:44.875Z</time></trkpt><trkpt lat="42.11255" lon="14.549605"><ele>297.5</ele><time>2026-04-20T10:42:45.875Z</time></trkpt><trkpt lat="42.1126683" lon="14.5495917"><ele>295.75</ele><time>2026-04-20T10:42:46.875Z</time></trkpt><trkpt lat="42.112785" lon="14.5495817"><ele>294.0</ele><time>2026-04-20T10:42:47.875Z</time></trkpt><trkpt lat="42.1129033" lon="14.5495767"><ele>294.0</ele><time>2026-04-20T10:42:48.875Z</time></trkpt><trkpt lat="42.1130233" lon="14.54958"><ele>294.0</ele><time>2026-04-20T10:42:49.875Z</time></trkpt><trkpt lat="42.1131417" lon="14.5495867"><ele>294.0</ele><time>2026-04-20T10:42:50.875Z</time></trkpt><trkpt lat="42.1132533" lon="14.5496083"><ele>294.0</ele><time>2026-04-20T10:42:51.874Z</time></trkpt><trkpt lat="42.113365" lon="14.5496483"><ele>293.8</ele><time>2026-04-20T10:42:52.875Z</time></trkpt><trkpt lat="42.1134683" lon="14.5496917"><ele>293.59999999999997</ele><time>2026-04-20T10:42:53.873Z</time></trkpt><trkpt lat="42.11357" lon="14.5497433"><ele>293.4</ele><time>2026-04-20T10:42:54.874Z</time></trkpt><trkpt lat="42.113675" lon="14.5497933"><ele>293.2</ele><time>2026-04-20T10:42:55.874Z</time></trkpt><trkpt lat="42.1137733" lon="14.5498367"><ele>293.0</ele><time>2026-04-20T10:42:56.873Z</time></trkpt><trkpt lat="42.1138733" lon="14.549885"><ele>293.0</ele><time>2026-04-20T10:42:57.874Z</time></trkpt><trkpt lat="42.1139683" lon="14.5499317"><ele>293.0</ele><time>2026-04-20T10:42:58.874Z</time></trkpt><trkpt lat="42.1140617" lon="14.5499767"><ele>293.0</ele><time>2026-04-20T10:42:59.874Z</time></trkpt><trkpt lat="42.11416" lon="14.5500183"><ele>293.0</ele><time>2026-04-20T10:43:00.874Z</time></trkpt><trkpt lat="42.114255" lon="14.5500533"><ele>293.0</ele><time>2026-04-20T10:43:01.874Z</time></trkpt><trkpt lat="42.1143467" lon="14.5500867"><ele>292.33333333333337</ele><time>2026-04-20T10:43:02.874Z</time></trkpt><trkpt lat="42.114435" lon="14.55011"><ele>291.6666666666667</ele><time>2026-04-20T10:43:03.873Z</time></trkpt><trkpt lat="42.1145217" lon="14.5501317"><ele>291.0</ele><time>2026-04-20T10:43:04.874Z</time></trkpt><trkpt lat="42.1146" lon="14.550145"><ele>290.3333333333333</ele><time>2026-04-20T10:43:05.874Z</time></trkpt><trkpt lat="42.114675" lon="14.5501617"><ele>289.66666666666663</ele><time>2026-04-20T10:43:06.874Z</time></trkpt><trkpt lat="42.11475" lon="14.55018"><ele>289.0</ele><time>2026-04-20T10:43:07.874Z</time></trkpt><trkpt lat="42.1148233" lon="14.5501933"><ele>289.0</ele><time>2026-04-20T10:43:08.874Z</time></trkpt><trkpt lat="42.1149" lon="14.5501967"><ele>289.0</ele><time>2026-04-20T10:43:09.873Z</time></trkpt><trkpt lat="42.1149733" lon="14.5501833"><ele>289.0</ele><time>2026-04-20T10:43:10.874Z</time></trkpt><trkpt lat="42.1150417" lon="14.550165"><ele>289.0</ele><time>2026-04-20T10:43:11.873Z</time></trkpt><trkpt lat="42.115105" lon="14.5501233"><ele>289.0</ele><time>2026-04-20T10:43:12.873Z</time></trkpt><trkpt lat="42.11516" lon="14.5500667"><ele>289.0</ele><time>2026-04-20T10:43:13.874Z</time></trkpt><trkpt lat="42.1152117" lon="14.5499983"><ele>289.0</ele><time>2026-04-20T10:43:14.874Z</time></trkpt><trkpt lat="42.11526" lon="14.5499283"><ele>289.14285714285717</ele><time>2026-04-20T10:43:15.874Z</time></trkpt><trkpt lat="42.1153017" lon="14.5498567"><ele>289.2857142857143</ele><time>2026-04-20T10:43:16.873Z</time></trkpt><trkpt lat="42.1153433" lon="14.5497783"><ele>289.42857142857144</ele><time>2026-04-20T10:43:17.874Z</time></trkpt><trkpt lat="42.11539" lon="14.5497067"><ele>289.57142857142856</ele><time>2026-04-20T10:43:18.874Z</time></trkpt><trkpt lat="42.1154383" lon="14.5496433"><ele>289.7142857142857</ele><time>2026-04-20T10:43:19.873Z</time></trkpt><trkpt lat="42.11549" lon="14.54959"><ele>289.8571428571429</ele><time>2026-04-20T10:43:20.874Z</time></trkpt><trkpt lat="42.1155483" lon="14.5495433"><ele>290.0</ele><time>2026-04-20T10:43:21.874Z</time></trkpt><trkpt lat="42.1156083" lon="14.549505"><ele>289.33333333333337</ele><time>2026-04-20T10:43:22.873Z</time></trkpt><trkpt lat="42.1156683" lon="14.54946"><ele>288.6666666666667</ele><time>2026-04-20T10:43:23.874Z</time></trkpt><trkpt lat="42.1157283" lon="14.5494133"><ele>288.0</ele><time>2026-04-20T10:43:24.874Z</time></trkpt><trkpt lat="42.1157883" lon="14.5493667"><ele>287.3333333333333</ele><time>2026-04-20T10:43:25.873Z</time></trkpt><trkpt lat="42.1158433" lon="14.549325"><ele>286.66666666666663</ele><time>2026-04-20T10:43:26.874Z</time></trkpt><trkpt lat="42.115905" lon="14.5492783"><ele>286.0</ele><time>2026-04-20T10:43:27.874Z</time></trkpt><trkpt lat="42.11601" lon="14.549205"><ele>286.0</ele><time>2026-04-20T10:43:29.874Z</time></trkpt><trkpt lat="42.1161083" lon="14.5491133"><ele>286.0</ele><time>2026-04-20T10:43:31.873Z</time></trkpt><trkpt lat="42.1162" lon="14.5490183"><ele>286.0</ele><time>2026-04-20T10:43:33.873Z</time></trkpt><trkpt lat="42.1162933" lon="14.5489233"><ele>286.0</ele><time>2026-04-20T10:43:35.874Z</time></trkpt><trkpt lat="42.1163917" lon="14.5488367"><ele>286.0</ele><time>2026-04-20T10:43:37.873Z</time></trkpt><trkpt lat="42.11649" lon="14.5487433"><ele>286.0</ele><time>2026-04-20T10:43:39.874Z</time></trkpt><trkpt lat="42.1165767" lon="14.54864"><ele>286.0</ele><time>2026-04-20T10:43:41.873Z</time></trkpt><trkpt lat="42.1166683" lon="14.5485467"><ele>286.0</ele><time>2026-04-20T10:43:43.874Z</time></trkpt><trkpt lat="42.1167633" lon="14.5484533"><ele>285.40000000000003</ele><time>2026-04-20T10:43:45.874Z</time></trkpt><trkpt lat="42.116865" lon="14.5483683"><ele>284.8</ele><time>2026-04-20T10:43:47.873Z</time></trkpt><trkpt lat="42.11698" lon="14.5483367"><ele>284.20000000000005</ele><time>2026-04-20T10:43:49.873Z</time></trkpt><trkpt lat="42.1170817" lon="14.54838"><ele>283.6</ele><time>2026-04-20T10:43:51.873Z</time></trkpt><trkpt lat="42.1171583" lon="14.5484717"><ele>283.0</ele><time>2026-04-20T10:43:53.873Z</time></trkpt><trkpt lat="42.1172367" lon="14.5485633"><ele>283.0</ele><time>2026-04-20T10:43:55.874Z</time></trkpt><trkpt lat="42.1173317" lon="14.54863"><ele>283.0</ele><time>2026-04-20T10:43:57.874Z</time></trkpt><trkpt lat="42.1174333" lon="14.54867"><ele>283.0</ele><time>2026-04-20T10:43:59.873Z</time></trkpt><trkpt lat="42.1175417" lon="14.5486967"><ele>283.0</ele><time>2026-04-20T10:44:01.874Z</time></trkpt><trkpt lat="42.11765" lon="14.5487083"><ele>283.0</ele><time>2026-04-20T10:44:03.874Z</time></trkpt><trkpt lat="42.11775" lon="14.5487317"><ele>284.25</ele><time>2026-04-20T10:44:05.873Z</time></trkpt><trkpt lat="42.1178583" lon="14.5487683"><ele>285.5</ele><time>2026-04-20T10:44:07.874Z</time></trkpt><trkpt lat="42.1179633" lon="14.5488233"><ele>286.75</ele><time>2026-04-20T10:44:09.874Z</time></trkpt><trkpt lat="42.1180633" lon="14.5488783"><ele>288.0</ele><time>2026-04-20T10:44:11.874Z</time></trkpt><trkpt lat="42.11817" lon="14.5489567"><ele>286.8</ele><time>2026-04-20T10:44:13.873Z</time></trkpt><trkpt lat="42.1182633" lon="14.5490567"><ele>285.6</ele><time>2026-04-20T10:44:15.874Z</time></trkpt><trkpt lat="42.1183433" lon="14.54919"><ele>284.4</ele><time>2026-04-20T10:44:17.873Z</time></trkpt><trkpt lat="42.11841" lon="14.5493367"><ele>283.2</ele><time>2026-04-20T10:44:19.874Z</time></trkpt><trkpt lat="42.1184433" lon="14.5494133"><ele>282.0</ele><time>2026-04-20T10:44:20.873Z</time></trkpt><trkpt lat="42.118485" lon="14.5494933"><ele>282.6666666666667</ele><time>2026-04-20T10:44:21.873Z</time></trkpt><trkpt lat="42.1185233" lon="14.549575"><ele>283.3333333333333</ele><time>2026-04-20T10:44:22.873Z</time></trkpt><trkpt lat="42.1185633" lon="14.5496667"><ele>284.0</ele><time>2026-04-20T10:44:23.874Z</time></trkpt><trkpt lat="42.1186067" lon="14.5497567"><ele>284.66666666666663</ele><time>2026-04-20T10:44:24.873Z</time></trkpt><trkpt lat="42.1186583" lon="14.5498417"><ele>285.3333333333333</ele><time>2026-04-20T10:44:25.874Z</time></trkpt><trkpt lat="42.1187067" lon="14.5499233"><ele>286.0</ele><time>2026-04-20T10:44:26.874Z</time></trkpt><trkpt lat="42.11876" lon="14.55"><ele>286.0</ele><time>2026-04-20T10:44:27.873Z</time></trkpt><trkpt lat="42.11882" lon="14.5500783"><ele>286.0</ele><time>2026-04-20T10:44:28.873Z</time></trkpt><trkpt lat="42.11888" lon="14.55015"><ele>286.0</ele><time>2026-04-20T10:44:29.874Z</time></trkpt><trkpt lat="42.11894" lon="14.5502217"><ele>286.0</ele><time>2026-04-20T10:44:30.874Z</time></trkpt><trkpt lat="42.1190067" lon="14.5502967"><ele>286.0</ele><time>2026-04-20T10:44:31.874Z</time></trkpt><trkpt lat="42.1190767" lon="14.5503633"><ele>286.0</ele><time>2026-04-20T10:44:32.874Z</time></trkpt><trkpt lat="42.1191517" lon="14.5504233"><ele>284.8</ele><time>2026-04-20T10:44:33.873Z</time></trkpt><trkpt lat="42.1192317" lon="14.5504683"><ele>283.6</ele><time>2026-04-20T10:44:34.874Z</time></trkpt><trkpt lat="42.1193167" lon="14.550505"><ele>282.4</ele><time>2026-04-20T10:44:35.873Z</time></trkpt><trkpt lat="42.1194083" lon="14.5505567"><ele>281.2</ele><time>2026-04-20T10:44:36.874Z</time></trkpt><trkpt lat="42.119495" lon="14.550605"><ele>280.0</ele><time>2026-04-20T10:44:37.874Z</time></trkpt><trkpt lat="42.1195733" lon="14.5506617"><ele>280.0</ele><time>2026-04-20T10:44:38.874Z</time></trkpt><trkpt lat="42.1196583" lon="14.550725"><ele>280.0</ele><time>2026-04-20T10:44:39.873Z</time></trkpt><trkpt lat="42.11974" lon="14.5507817"><ele>280.0</ele><time>2026-04-20T10:44:40.874Z</time></trkpt><trkpt lat="42.1198183" lon="14.5508433"><ele>280.0</ele><time>2026-04-20T10:44:41.873Z</time></trkpt><trkpt lat="42.1199" lon="14.550895"><ele>280.0</ele><time>2026-04-20T10:44:42.874Z</time></trkpt><trkpt lat="42.1199883" lon="14.55093"><ele>277.8</ele><time>2026-04-20T10:44:43.874Z</time></trkpt><trkpt lat="42.1200783" lon="14.5509417"><ele>275.6</ele><time>2026-04-20T10:44:44.873Z</time></trkpt><trkpt lat="42.12017" lon="14.55095"><ele>273.4</ele><time>2026-04-20T10:44:45.874Z</time></trkpt><trkpt lat="42.1202617" lon="14.5509633"><ele>271.2</ele><time>2026-04-20T10:44:46.874Z</time></trkpt><trkpt lat="42.1203567" lon="14.5509933"><ele>269.0</ele><time>2026-04-20T10:44:47.874Z</time></trkpt><trkpt lat="42.1204417" lon="14.5510517"><ele>269.0</ele><time>2026-04-20T10:44:48.874Z</time></trkpt><trkpt lat="42.1205167" lon="14.5511217"><ele>269.0</ele><time>2026-04-20T10:44:49.873Z</time></trkpt><trkpt lat="42.12059" lon="14.5511917"><ele>269.0</ele><time>2026-04-20T10:44:50.874Z</time></trkpt><trkpt lat="42.1206683" lon="14.5512617"><ele>269.0</ele><time>2026-04-20T10:44:51.873Z</time></trkpt><trkpt lat="42.120745" lon="14.5513417"><ele>269.0</ele><time>2026-04-20T10:44:52.874Z</time></trkpt><trkpt lat="42.12083" lon="14.5514117"><ele>269.4</ele><time>2026-04-20T10:44:53.874Z</time></trkpt><trkpt lat="42.1209217" lon="14.55146"><ele>269.79999999999995</ele><time>2026-04-20T10:44:54.874Z</time></trkpt><trkpt lat="42.1210217" lon="14.5514883"><ele>270.20000000000005</ele><time>2026-04-20T10:44:55.874Z</time></trkpt><trkpt lat="42.12112" lon="14.551485"><ele>270.6</ele><time>2026-04-20T10:44:56.873Z</time></trkpt><trkpt lat="42.1212183" lon="14.5514783"><ele>271.0</ele><time>2026-04-20T10:44:57.873Z</time></trkpt><trkpt lat="42.1213117" lon="14.5514617"><ele>271.0</ele><time>2026-04-20T10:44:58.873Z</time></trkpt><trkpt lat="42.121405" lon="14.5514317"><ele>271.0</ele><time>2026-04-20T10:44:59.873Z</time></trkpt><trkpt lat="42.1214967" lon="14.5514033"><ele>271.0</ele><time>2026-04-20T10:45:00.873Z</time></trkpt><trkpt lat="42.1215867" lon="14.5513667"><ele>271.0</ele><time>2026-04-20T10:45:01.874Z</time></trkpt><trkpt lat="42.1216867" lon="14.5513333"><ele>271.0</ele><time>2026-04-20T10:45:02.874Z</time></trkpt><trkpt lat="42.1217883" lon="14.5513083"><ele>270.0</ele><time>2026-04-20T10:45:03.873Z</time></trkpt><trkpt lat="42.121885" lon="14.5512883"><ele>269.0</ele><time>2026-04-20T10:45:04.873Z</time></trkpt><trkpt lat="42.1219817" lon="14.5512733"><ele>268.0</ele><time>2026-04-20T10:45:05.874Z</time></trkpt><trkpt lat="42.12208" lon="14.55127"><ele>267.0</ele><time>2026-04-20T10:45:06.873Z</time></trkpt><trkpt lat="42.12218" lon="14.5512783"><ele>266.0</ele><time>2026-04-20T10:45:07.874Z</time></trkpt><trkpt lat="42.122285" lon="14.5512983"><ele>266.0</ele><time>2026-04-20T10:45:08.874Z</time></trkpt><trkpt lat="42.1223817" lon="14.551335"><ele>266.0</ele><time>2026-04-20T10:45:09.874Z</time></trkpt><trkpt lat="42.1224667" lon="14.5513867"><ele>266.0</ele><time>2026-04-20T10:45:10.874Z</time></trkpt><trkpt lat="42.122545" lon="14.5514483"><ele>266.0</ele><time>2026-04-20T10:45:11.874Z</time></trkpt><trkpt lat="42.122625" lon="14.55152"><ele>266.0</ele><time>2026-04-20T10:45:12.873Z</time></trkpt><trkpt lat="42.1227017" lon="14.551595"><ele>264.6</ele><time>2026-04-20T10:45:13.874Z</time></trkpt><trkpt lat="42.1227767" lon="14.5516667"><ele>263.20000000000005</ele><time>2026-04-20T10:45:14.874Z</time></trkpt><trkpt lat="42.1228517" lon="14.5517367"><ele>261.79999999999995</ele><time>2026-04-20T10:45:15.873Z</time></trkpt><trkpt lat="42.1229367" lon="14.5517967"><ele>260.4</ele><time>2026-04-20T10:45:16.873Z</time></trkpt><trkpt lat="42.123025" lon="14.5518583"><ele>259.0</ele><time>2026-04-20T10:45:17.874Z</time></trkpt><trkpt lat="42.1231117" lon="14.5519117"><ele>259.0</ele><time>2026-04-20T10:45:18.874Z</time></trkpt><trkpt lat="42.1231917" lon="14.551965"><ele>259.0</ele><time>2026-04-20T10:45:19.873Z</time></trkpt><trkpt lat="42.12327" lon="14.5520183"><ele>259.0</ele><time>2026-04-20T10:45:20.874Z</time></trkpt><trkpt lat="42.12335" lon="14.5520633"><ele>259.0</ele><time>2026-04-20T10:45:21.873Z</time></trkpt><trkpt lat="42.1234283" lon="14.5521167"><ele>259.0</ele><time>2026-04-20T10:45:22.873Z</time></trkpt><trkpt lat="42.123505" lon="14.5521633"><ele>259.0</ele><time>2026-04-20T10:45:23.873Z</time></trkpt><trkpt lat="42.12358" lon="14.5522117"><ele>259.16666666666663</ele><time>2026-04-20T10:45:24.874Z</time></trkpt><trkpt lat="42.1236533" lon="14.5522617"><ele>259.3333333333333</ele><time>2026-04-20T10:45:25.874Z</time></trkpt><trkpt lat="42.1237233" lon="14.5523167"><ele>259.5</ele><time>2026-04-20T10:45:26.874Z</time></trkpt><trkpt lat="42.1237933" lon="14.5523683"><ele>259.6666666666667</ele><time>2026-04-20T10:45:27.873Z</time></trkpt><trkpt lat="42.1238567" lon="14.55242"><ele>259.83333333333337</ele><time>2026-04-20T10:45:28.873Z</time></trkpt><trkpt lat="42.1239167" lon="14.5524717"><ele>260.0</ele><time>2026-04-20T10:45:29.873Z</time></trkpt><trkpt lat="42.12398" lon="14.55252"><ele>260.00000000000006</ele><time>2026-04-20T10:45:30.874Z</time></trkpt><trkpt lat="42.1240433" lon="14.55256"><ele>260.0</ele><time>2026-04-20T10:45:31.874Z</time></trkpt><trkpt lat="42.1241" lon="14.5526033"><ele>260.0</ele><time>2026-04-20T10:45:32.874Z</time></trkpt><trkpt lat="42.1241583" lon="14.5526417"><ele>260.0</ele><time>2026-04-20T10:45:33.873Z</time></trkpt><trkpt lat="42.1242167" lon="14.55268"><ele>260.0</ele><time>2026-04-20T10:45:34.874Z</time></trkpt><trkpt lat="42.12427" lon="14.5527283"><ele>260.00000000000006</ele><time>2026-04-20T10:45:35.874Z</time></trkpt><trkpt lat="42.1243317" lon="14.5527783"><ele>260.0</ele><time>2026-04-20T10:45:36.874Z</time></trkpt><trkpt lat="42.124395" lon="14.552825"><ele>260.14285714285717</ele><time>2026-04-20T10:45:37.873Z</time></trkpt><trkpt lat="42.1244567" lon="14.55287"><ele>260.2857142857143</ele><time>2026-04-20T10:45:38.874Z</time></trkpt><trkpt lat="42.1245217" lon="14.5529133"><ele>260.42857142857144</ele><time>2026-04-20T10:45:39.874Z</time></trkpt><trkpt lat="42.1245817" lon="14.55296"><ele>260.57142857142856</ele><time>2026-04-20T10:45:40.874Z</time></trkpt><trkpt lat="42.1246433" lon="14.5530083"><ele>260.7142857142857</ele><time>2026-04-20T10:45:41.874Z</time></trkpt><trkpt lat="42.124705" lon="14.553055"><ele>260.8571428571429</ele><time>2026-04-20T10:45:42.874Z</time></trkpt><trkpt lat="42.1247667" lon="14.5531033"><ele>261.0</ele><time>2026-04-20T10:45:43.874Z</time></trkpt><trkpt lat="42.1248233" lon="14.5531433"><ele>261.0</ele><time>2026-04-20T10:45:44.874Z</time></trkpt><trkpt lat="42.124885" lon="14.553185"><ele>261.0</ele><time>2026-04-20T10:45:45.874Z</time></trkpt><trkpt lat="42.1249567" lon="14.5532083"><ele>261.0</ele><time>2026-04-20T10:45:46.874Z</time></trkpt><trkpt lat="42.125035" lon="14.5532233"><ele>261.0</ele><time>2026-04-20T10:45:47.874Z</time></trkpt><trkpt lat="42.1251067" lon="14.5532183"><ele>261.0</ele><time>2026-04-20T10:45:48.874Z</time></trkpt><trkpt lat="42.1251783" lon="14.5532033"><ele>261.0</ele><time>2026-04-20T10:45:49.873Z</time></trkpt><trkpt lat="42.1252467" lon="14.5531833"><ele>261.0</ele><time>2026-04-20T10:45:50.874Z</time></trkpt><trkpt lat="42.1253183" lon="14.55316"><ele>260.1666666666667</ele><time>2026-04-20T10:45:51.874Z</time></trkpt><trkpt lat="42.12539" lon="14.5531383"><ele>259.3333333333333</ele><time>2026-04-20T10:45:52.873Z</time></trkpt><trkpt lat="42.12546" lon="14.5531183"><ele>258.5</ele><time>2026-04-20T10:45:53.874Z</time></trkpt><trkpt lat="42.125535" lon="14.5531083"><ele>257.66666666666663</ele><time>2026-04-20T10:45:54.873Z</time></trkpt><trkpt lat="42.1256117" lon="14.5531017"><ele>256.8333333333333</ele><time>2026-04-20T10:45:55.874Z</time></trkpt><trkpt lat="42.125685" lon="14.5531067"><ele>256.0</ele><time>2026-04-20T10:45:56.874Z</time></trkpt><trkpt lat="42.125765" lon="14.5531167"><ele>255.42857142857142</ele><time>2026-04-20T10:45:57.874Z</time></trkpt><trkpt lat="42.1258433" lon="14.5531233"><ele>254.85714285714283</ele><time>2026-04-20T10:45:58.874Z</time></trkpt><trkpt lat="42.1259183" lon="14.5531383"><ele>254.28571428571428</ele><time>2026-04-20T10:45:59.874Z</time></trkpt><trkpt lat="42.12599" lon="14.55316"><ele>253.71428571428572</ele><time>2026-04-20T10:46:00.874Z</time></trkpt><trkpt lat="42.1260567" lon="14.5531933"><ele>253.14285714285714</ele><time>2026-04-20T10:46:01.873Z</time></trkpt><trkpt lat="42.1261133" lon="14.5532417"><ele>252.57142857142856</ele><time>2026-04-20T10:46:02.874Z</time></trkpt><trkpt lat="42.126165" lon="14.5533033"><ele>252.0</ele><time>2026-04-20T10:46:03.874Z</time></trkpt><trkpt lat="42.1262133" lon="14.553365"><ele>252.0</ele><time>2026-04-20T10:46:04.874Z</time></trkpt><trkpt lat="42.1262967" lon="14.5534817"><ele>252.0</ele><time>2026-04-20T10:46:06.874Z</time></trkpt><trkpt lat="42.1263817" lon="14.5536"><ele>252.0</ele><time>2026-04-20T10:46:08.874Z</time></trkpt><trkpt lat="42.1264217" lon="14.5536683"><ele>252.0</ele><time>2026-04-20T10:46:09.874Z</time></trkpt><trkpt lat="42.126505" lon="14.553795"><ele>252.0</ele><time>2026-04-20T10:46:11.874Z</time></trkpt><trkpt lat="42.12655" lon="14.553855"><ele>252.0</ele><time>2026-04-20T10:46:12.874Z</time></trkpt><trkpt lat="42.1265967" lon="14.553915"><ele>252.0</ele><time>2026-04-20T10:46:13.874Z</time></trkpt><trkpt lat="42.1267033" lon="14.5539983"><ele>252.0</ele><time>2026-04-20T10:46:15.874Z</time></trkpt><trkpt lat="42.1267667" lon="14.5540317"><ele>252.0</ele><time>2026-04-20T10:46:16.874Z</time></trkpt><trkpt lat="42.12683" lon="14.554045"><ele>252.0</ele><time>2026-04-20T10:46:17.874Z</time></trkpt><trkpt lat="42.1268967" lon="14.554035"><ele>252.0</ele><time>2026-04-20T10:46:18.874Z</time></trkpt><trkpt lat="42.1269617" lon="14.5540067"><ele>252.0</ele><time>2026-04-20T10:46:19.874Z</time></trkpt><trkpt lat="42.12703" lon="14.553975"><ele>252.0</ele><time>2026-04-20T10:46:20.874Z</time></trkpt><trkpt lat="42.1271017" lon="14.5539333"><ele>252.0</ele><time>2026-04-20T10:46:21.874Z</time></trkpt><trkpt lat="42.1271683" lon="14.5538983"><ele>252.0</ele><time>2026-04-20T10:46:22.874Z</time></trkpt><trkpt lat="42.127235" lon="14.5538633"><ele>252.0</ele><time>2026-04-20T10:46:23.873Z</time></trkpt><trkpt lat="42.1273067" lon="14.5538283"><ele>252.0</ele><time>2026-04-20T10:46:24.874Z</time></trkpt><trkpt lat="42.1273833" lon="14.5537867"><ele>252.0</ele><time>2026-04-20T10:46:25.874Z</time></trkpt><trkpt lat="42.12746" lon="14.5537533"><ele>252.0</ele><time>2026-04-20T10:46:26.873Z</time></trkpt><trkpt lat="42.1275367" lon="14.55372"><ele>252.0</ele><time>2026-04-20T10:46:27.874Z</time></trkpt><trkpt lat="42.1276167" lon="14.5536817"><ele>252.0</ele><time>2026-04-20T10:46:28.874Z</time></trkpt><trkpt lat="42.1276917" lon="14.5536267"><ele>252.0</ele><time>2026-04-20T10:46:29.874Z</time></trkpt><trkpt lat="42.1277633" lon="14.5535683"><ele>252.0</ele><time>2026-04-20T10:46:30.874Z</time></trkpt><trkpt lat="42.1278417" lon="14.5535167"><ele>248.0</ele><time>2026-04-20T10:46:31.873Z</time></trkpt><trkpt lat="42.12792" lon="14.5534783"><ele>244.0</ele><time>2026-04-20T10:46:32.874Z</time></trkpt><trkpt lat="42.128005" lon="14.5534533"><ele>240.0</ele><time>2026-04-20T10:46:33.874Z</time></trkpt><trkpt lat="42.1281017" lon="14.5534333"><ele>236.0</ele><time>2026-04-20T10:46:34.874Z</time></trkpt><trkpt lat="42.1281967" lon="14.5534317"><ele>232.0</ele><time>2026-04-20T10:46:35.873Z</time></trkpt><trkpt lat="42.1282883" lon="14.5534383"><ele>232.0</ele><time>2026-04-20T10:46:36.873Z</time></trkpt><trkpt lat="42.12838" lon="14.5534433"><ele>232.0</ele><time>2026-04-20T10:46:37.874Z</time></trkpt><trkpt lat="42.128475" lon="14.5534333"><ele>232.0</ele><time>2026-04-20T10:46:38.874Z</time></trkpt><trkpt lat="42.1285683" lon="14.5534083"><ele>232.0</ele><time>2026-04-20T10:46:39.873Z</time></trkpt><trkpt lat="42.1286517" lon="14.5533717"><ele>232.0</ele><time>2026-04-20T10:46:40.874Z</time></trkpt><trkpt lat="42.128735" lon="14.55332"><ele>232.0</ele><time>2026-04-20T10:46:41.874Z</time></trkpt><trkpt lat="42.1288083" lon="14.5532517"><ele>232.0</ele><time>2026-04-20T10:46:42.874Z</time></trkpt><trkpt lat="42.1288783" lon="14.5531733"><ele>232.0</ele><time>2026-04-20T10:46:43.874Z</time></trkpt><trkpt lat="42.1289467" lon="14.55308"><ele>232.0</ele><time>2026-04-20T10:46:44.873Z</time></trkpt><trkpt lat="42.1290133" lon="14.5529933"><ele>232.0</ele><time>2026-04-20T10:46:45.874Z</time></trkpt><trkpt lat="42.12908" lon="14.5529317"><ele>232.00000000000003</ele><time>2026-04-20T10:46:46.874Z</time></trkpt><trkpt lat="42.1291467" lon="14.552895"><ele>232.0</ele><time>2026-04-20T10:46:47.874Z</time></trkpt><trkpt lat="42.129215" lon="14.55289"><ele>232.00000000000003</ele><time>2026-04-20T10:46:48.874Z</time></trkpt><trkpt lat="42.1292833" lon="14.5529183"><ele>232.00000000000003</ele><time>2026-04-20T10:46:49.873Z</time></trkpt><trkpt lat="42.129335" lon="14.5529933"><ele>232.0</ele><time>2026-04-20T10:46:50.873Z</time></trkpt><trkpt lat="42.129375" lon="14.5530783"><ele>232.00000000000003</ele><time>2026-04-20T10:46:51.874Z</time></trkpt><trkpt lat="42.1294033" lon="14.55317"><ele>232.00000000000003</ele><time>2026-04-20T10:46:52.874Z</time></trkpt><trkpt lat="42.1294317" lon="14.5532583"><ele>232.00000000000003</ele><time>2026-04-20T10:46:53.874Z</time></trkpt><trkpt lat="42.1294583" lon="14.55335"><ele>232.0</ele><time>2026-04-20T10:46:54.874Z</time></trkpt><trkpt lat="42.12949" lon="14.553435"><ele>232.00000000000003</ele><time>2026-04-20T10:46:55.874Z</time></trkpt><trkpt lat="42.1295267" lon="14.55351"><ele>232.00000000000003</ele><time>2026-04-20T10:46:56.874Z</time></trkpt><trkpt lat="42.12957" lon="14.5535917"><ele>232.0</ele><time>2026-04-20T10:46:57.874Z</time></trkpt><trkpt lat="42.1296217" lon="14.5536667"><ele>232.00000000000003</ele><time>2026-04-20T10:46:58.874Z</time></trkpt><trkpt lat="42.129675" lon="14.5537417"><ele>232.00000000000003</ele><time>2026-04-20T10:46:59.874Z</time></trkpt><trkpt lat="42.1297267" lon="14.5538167"><ele>232.83333333333331</ele><time>2026-04-20T10:47:00.874Z</time></trkpt><trkpt lat="42.12978" lon="14.5538933"><ele>233.66666666666666</ele><time>2026-04-20T10:47:01.874Z</time></trkpt><trkpt lat="42.1298383" lon="14.55397"><ele>234.5</ele><time>2026-04-20T10:47:02.874Z</time></trkpt><trkpt lat="42.129895" lon="14.5540417"><ele>235.33333333333331</ele><time>2026-04-20T10:47:03.873Z</time></trkpt><trkpt lat="42.12994" lon="14.5541133"><ele>236.16666666666666</ele><time>2026-04-20T10:47:04.873Z</time></trkpt><trkpt lat="42.1299917" lon="14.554195"><ele>237.0</ele><time>2026-04-20T10:47:05.874Z</time></trkpt><trkpt lat="42.13005" lon="14.55427"><ele>235.16666666666666</ele><time>2026-04-20T10:47:06.873Z</time></trkpt><trkpt lat="42.1301183" lon="14.5543217"><ele>233.33333333333331</ele><time>2026-04-20T10:47:07.873Z</time></trkpt><trkpt lat="42.1301933" lon="14.5543383"><ele>231.5</ele><time>2026-04-20T10:47:08.874Z</time></trkpt><trkpt lat="42.1302683" lon="14.5543117"><ele>229.66666666666666</ele><time>2026-04-20T10:47:09.874Z</time></trkpt><trkpt lat="42.1303317" lon="14.55425"><ele>227.83333333333331</ele><time>2026-04-20T10:47:10.874Z</time></trkpt><trkpt lat="42.1303683" lon="14.5541533"><ele>226.0</ele><time>2026-04-20T10:47:11.873Z</time></trkpt><trkpt lat="42.1303617" lon="14.5540283"><ele>225.99999999999997</ele><time>2026-04-20T10:47:12.873Z</time></trkpt><trkpt lat="42.1303333" lon="14.55392"><ele>226.0</ele><time>2026-04-20T10:47:13.874Z</time></trkpt><trkpt lat="42.1302917" lon="14.5538267"><ele>226.0</ele><time>2026-04-20T10:47:14.874Z</time></trkpt><trkpt lat="42.1302417" lon="14.5537283"><ele>226.0</ele><time>2026-04-20T10:47:15.874Z</time></trkpt><trkpt lat="42.1301933" lon="14.5536267"><ele>225.99999999999997</ele><time>2026-04-20T10:47:16.874Z</time></trkpt><trkpt lat="42.1301567" lon="14.553525"><ele>226.0</ele><time>2026-04-20T10:47:17.874Z</time></trkpt><trkpt lat="42.1301383" lon="14.5534133"><ele>224.99999999999997</ele><time>2026-04-20T10:47:18.874Z</time></trkpt><trkpt lat="42.1301367" lon="14.5532917"><ele>224.0</ele><time>2026-04-20T10:47:19.874Z</time></trkpt><trkpt lat="42.1301317" lon="14.55317"><ele>223.0</ele><time>2026-04-20T10:47:20.873Z</time></trkpt><trkpt lat="42.1301317" lon="14.5530533"><ele>222.0</ele><time>2026-04-20T10:47:21.874Z</time></trkpt><trkpt lat="42.1301367" lon="14.5529317"><ele>220.99999999999997</ele><time>2026-04-20T10:47:22.873Z</time></trkpt><trkpt lat="42.13014" lon="14.552815"><ele>220.0</ele><time>2026-04-20T10:47:23.873Z</time></trkpt><trkpt lat="42.1301433" lon="14.5526883"><ele>219.4</ele><time>2026-04-20T10:47:24.874Z</time></trkpt><trkpt lat="42.1301633" lon="14.5525567"><ele>218.8</ele><time>2026-04-20T10:47:25.873Z</time></trkpt><trkpt lat="42.1302033" lon="14.5524367"><ele>218.2</ele><time>2026-04-20T10:47:26.873Z</time></trkpt><trkpt lat="42.13025" lon="14.55233"><ele>217.6</ele><time>2026-04-20T10:47:27.874Z</time></trkpt><trkpt lat="42.130305" lon="14.5522217"><ele>217.0</ele><time>2026-04-20T10:47:28.873Z</time></trkpt><trkpt lat="42.13036" lon="14.5521083"><ele>216.6</ele><time>2026-04-20T10:47:29.874Z</time></trkpt><trkpt lat="42.1304133" lon="14.5519967"><ele>216.2</ele><time>2026-04-20T10:47:30.873Z</time></trkpt><trkpt lat="42.130465" lon="14.55188"><ele>215.8</ele><time>2026-04-20T10:47:31.874Z</time></trkpt><trkpt lat="42.1305317" lon="14.551775"><ele>215.4</ele><time>2026-04-20T10:47:32.874Z</time></trkpt><trkpt lat="42.1305867" lon="14.5516617"><ele>215.0</ele><time>2026-04-20T10:47:33.874Z</time></trkpt><trkpt lat="42.1306417" lon="14.55155"><ele>215.0</ele><time>2026-04-20T10:47:34.874Z</time></trkpt><trkpt lat="42.1306933" lon="14.551435"><ele>215.0</ele><time>2026-04-20T10:47:35.873Z</time></trkpt><trkpt lat="42.13074" lon="14.55131"><ele>215.0</ele><time>2026-04-20T10:47:36.874Z</time></trkpt><trkpt lat="42.130785" lon="14.55119"><ele>215.0</ele><time>2026-04-20T10:47:37.873Z</time></trkpt><trkpt lat="42.1308267" lon="14.551065"><ele>215.0</ele><time>2026-04-20T10:47:38.874Z</time></trkpt><trkpt lat="42.130865" lon="14.5509417"><ele>213.4</ele><time>2026-04-20T10:47:39.873Z</time></trkpt><trkpt lat="42.1308967" lon="14.55081"><ele>211.8</ele><time>2026-04-20T10:47:40.874Z</time></trkpt><trkpt lat="42.130935" lon="14.5506767"><ele>210.2</ele><time>2026-04-20T10:47:41.874Z</time></trkpt><trkpt lat="42.1309667" lon="14.5505433"><ele>208.6</ele><time>2026-04-20T10:47:42.874Z</time></trkpt><trkpt lat="42.1310017" lon="14.5504133"><ele>207.0</ele><time>2026-04-20T10:47:43.874Z</time></trkpt><trkpt lat="42.131045" lon="14.5502783"><ele>206.0</ele><time>2026-04-20T10:47:44.874Z</time></trkpt><trkpt lat="42.1310917" lon="14.550155"><ele>205.0</ele><time>2026-04-20T10:47:45.873Z</time></trkpt><trkpt lat="42.1311467" lon="14.5500367"><ele>204.0</ele><time>2026-04-20T10:47:46.874Z</time></trkpt><trkpt lat="42.1312033" lon="14.5499283"><ele>203.0</ele><time>2026-04-20T10:47:47.873Z</time></trkpt><trkpt lat="42.1312617" lon="14.5498183"><ele>202.0</ele><time>2026-04-20T10:47:48.874Z</time></trkpt><trkpt lat="42.1313283" lon="14.5497067"><ele>202.0</ele><time>2026-04-20T10:47:49.873Z</time></trkpt><trkpt lat="42.13139" lon="14.5495933"><ele>202.0</ele><time>2026-04-20T10:47:50.874Z</time></trkpt><trkpt lat="42.1314467" lon="14.5494833"><ele>202.0</ele><time>2026-04-20T10:47:51.874Z</time></trkpt><trkpt lat="42.1314967" lon="14.5493733"><ele>202.0</ele><time>2026-04-20T10:47:52.874Z</time></trkpt><trkpt lat="42.1315383" lon="14.5492633"><ele>202.0</ele><time>2026-04-20T10:47:53.873Z</time></trkpt><trkpt lat="42.131575" lon="14.5491533"><ele>202.16666666666666</ele><time>2026-04-20T10:47:54.873Z</time></trkpt><trkpt lat="42.1316017" lon="14.5490367"><ele>202.33333333333331</ele><time>2026-04-20T10:47:55.874Z</time></trkpt><trkpt lat="42.1316267" lon="14.548925"><ele>202.5</ele><time>2026-04-20T10:47:56.874Z</time></trkpt><trkpt lat="42.1316483" lon="14.5488167"><ele>202.66666666666669</ele><time>2026-04-20T10:47:57.874Z</time></trkpt><trkpt lat="42.1316717" lon="14.54871"><ele>202.83333333333334</ele><time>2026-04-20T10:47:58.874Z</time></trkpt><trkpt lat="42.13169" lon="14.548605"><ele>203.0</ele><time>2026-04-20T10:47:59.873Z</time></trkpt><trkpt lat="42.1317033" lon="14.5485"><ele>203.00000000000003</ele><time>2026-04-20T10:48:00.873Z</time></trkpt><trkpt lat="42.1317167" lon="14.5484017"><ele>203.0</ele><time>2026-04-20T10:48:01.874Z</time></trkpt><trkpt lat="42.1317283" lon="14.5483067"><ele>203.0</ele><time>2026-04-20T10:48:02.873Z</time></trkpt><trkpt lat="42.131745" lon="14.5482117"><ele>203.0</ele><time>2026-04-20T10:48:03.874Z</time></trkpt><trkpt lat="42.1317667" lon="14.54812"><ele>203.00000000000003</ele><time>2026-04-20T10:48:04.873Z</time></trkpt><trkpt lat="42.131795" lon="14.5479617"><ele>203.0</ele><time>2026-04-20T10:48:06.873Z</time></trkpt><trkpt lat="42.13182" lon="14.5478"><ele>203.0</ele><time>2026-04-20T10:48:08.874Z</time></trkpt><trkpt lat="42.1318467" lon="14.5476517"><ele>203.0</ele><time>2026-04-20T10:48:10.874Z</time></trkpt><trkpt lat="42.13187" lon="14.5475083"><ele>203.0</ele><time>2026-04-20T10:48:12.874Z</time></trkpt><trkpt lat="42.1318917" lon="14.54736"><ele>203.0</ele><time>2026-04-20T10:48:14.873Z</time></trkpt><trkpt lat="42.1319183" lon="14.5472033"><ele>203.0</ele><time>2026-04-20T10:48:16.874Z</time></trkpt><trkpt lat="42.1319417" lon="14.5470483"><ele>203.0</ele><time>2026-04-20T10:48:18.873Z</time></trkpt><trkpt lat="42.13197" lon="14.5468883"><ele>203.0</ele><time>2026-04-20T10:48:20.873Z</time></trkpt><trkpt lat="42.1319867" lon="14.546805"><ele>203.0</ele><time>2026-04-20T10:48:21.874Z</time></trkpt><trkpt lat="42.1320167" lon="14.5466417"><ele>203.0</ele><time>2026-04-20T10:48:23.874Z</time></trkpt><trkpt lat="42.1320767" lon="14.5465"><ele>203.0</ele><time>2026-04-20T10:48:25.873Z</time></trkpt><trkpt lat="42.1321583" lon="14.5463817"><ele>203.0</ele><time>2026-04-20T10:48:27.874Z</time></trkpt><trkpt lat="42.1322633" lon="14.5462933"><ele>203.0</ele><time>2026-04-20T10:48:29.873Z</time></trkpt><trkpt lat="42.1323733" lon="14.546235"><ele>203.0</ele><time>2026-04-20T10:48:31.873Z</time></trkpt><trkpt lat="42.132435" lon="14.546215"><ele>203.0</ele><time>2026-04-20T10:48:32.874Z</time></trkpt><trkpt lat="42.1324967" lon="14.5461933"><ele>203.0</ele><time>2026-04-20T10:48:33.874Z</time></trkpt><trkpt lat="42.1326117" lon="14.5461783"><ele>203.0</ele><time>2026-04-20T10:48:35.874Z</time></trkpt><trkpt lat="42.13272" lon="14.5461717"><ele>203.0</ele><time>2026-04-20T10:48:37.874Z</time></trkpt><trkpt lat="42.1328267" lon="14.54618"><ele>203.0</ele><time>2026-04-20T10:48:39.873Z</time></trkpt><trkpt lat="42.1329367" lon="14.5462"><ele>203.0</ele><time>2026-04-20T10:48:41.873Z</time></trkpt><trkpt lat="42.133045" lon="14.54623"><ele>203.0</ele><time>2026-04-20T10:48:43.873Z</time></trkpt><trkpt lat="42.1331483" lon="14.5462767"><ele>203.0</ele><time>2026-04-20T10:48:45.873Z</time></trkpt><trkpt lat="42.1332467" lon="14.546345"><ele>203.0</ele><time>2026-04-20T10:48:47.873Z</time></trkpt><trkpt lat="42.1333383" lon="14.5464217"><ele>203.0</ele><time>2026-04-20T10:48:49.874Z</time></trkpt><trkpt lat="42.133425" lon="14.546495"><ele>203.0</ele><time>2026-04-20T10:48:51.874Z</time></trkpt><trkpt lat="42.1335183" lon="14.5465817"><ele>203.75</ele><time>2026-04-20T10:48:53.874Z</time></trkpt><trkpt lat="42.1336067" lon="14.5466733"><ele>204.5</ele><time>2026-04-20T10:48:55.874Z</time></trkpt><trkpt lat="42.133705" lon="14.546765"><ele>205.25</ele><time>2026-04-20T10:48:57.874Z</time></trkpt><trkpt lat="42.1338" lon="14.5468517"><ele>206.0</ele><time>2026-04-20T10:48:59.874Z</time></trkpt><trkpt lat="42.1338883" lon="14.5469383"><ele>206.0</ele><time>2026-04-20T10:49:01.873Z</time></trkpt><trkpt lat="42.133985" lon="14.54702"><ele>206.0</ele><time>2026-04-20T10:49:03.874Z</time></trkpt><trkpt lat="42.1340767" lon="14.5471067"><ele>206.0</ele><time>2026-04-20T10:49:05.873Z</time></trkpt><trkpt lat="42.1341717" lon="14.5471983"><ele>206.0</ele><time>2026-04-20T10:49:07.874Z</time></trkpt><trkpt lat="42.1342717" lon="14.5472717"><ele>205.4</ele><time>2026-04-20T10:49:09.874Z</time></trkpt><trkpt lat="42.1343633" lon="14.547345"><ele>204.8</ele><time>2026-04-20T10:49:11.874Z</time></trkpt><trkpt lat="42.1344533" lon="14.5474083"><ele>204.20000000000002</ele><time>2026-04-20T10:49:13.874Z</time></trkpt><trkpt lat="42.134555" lon="14.5474783"><ele>203.60000000000002</ele><time>2026-04-20T10:49:15.874Z</time></trkpt><trkpt lat="42.1346633" lon="14.5475367"><ele>203.0</ele><time>2026-04-20T10:49:17.874Z</time></trkpt><trkpt lat="42.1347733" lon="14.5475867"><ele>203.0</ele><time>2026-04-20T10:49:19.873Z</time></trkpt><trkpt lat="42.1348767" lon="14.5476217"><ele>203.0</ele><time>2026-04-20T10:49:21.873Z</time></trkpt><trkpt lat="42.134985" lon="14.5476617"><ele>203.0</ele><time>2026-04-20T10:49:23.873Z</time></trkpt><trkpt lat="42.1350983" lon="14.5476833"><ele>203.0</ele><time>2026-04-20T10:49:25.873Z</time></trkpt><trkpt lat="42.135215" lon="14.5477083"><ele>204.0</ele><time>2026-04-20T10:49:27.873Z</time></trkpt><trkpt lat="42.13533" lon="14.547735"><ele>205.0</ele><time>2026-04-20T10:49:29.873Z</time></trkpt><trkpt lat="42.1354317" lon="14.5477817"><ele>206.0</ele><time>2026-04-20T10:49:31.874Z</time></trkpt><trkpt lat="42.13553" lon="14.547845"><ele>207.0</ele><time>2026-04-20T10:49:33.874Z</time></trkpt><trkpt lat="42.1356283" lon="14.547915"><ele>208.0</ele><time>2026-04-20T10:49:35.873Z</time></trkpt><trkpt lat="42.1357283" lon="14.5479917"><ele>208.0</ele><time>2026-04-20T10:49:37.873Z</time></trkpt><trkpt lat="42.1358317" lon="14.548065"><ele>208.0</ele><time>2026-04-20T10:49:39.874Z</time></trkpt><trkpt lat="42.135925" lon="14.548135"><ele>208.0</ele><time>2026-04-20T10:49:41.874Z</time></trkpt><trkpt lat="42.136015" lon="14.548195"><ele>208.0</ele><time>2026-04-20T10:49:43.874Z</time></trkpt><trkpt lat="42.1361083" lon="14.5482667"><ele>208.0</ele><time>2026-04-20T10:49:45.873Z</time></trkpt><trkpt lat="42.13619" lon="14.54835"><ele>208.0</ele><time>2026-04-20T10:49:47.874Z</time></trkpt><trkpt lat="42.136275" lon="14.548435"><ele>208.0</ele><time>2026-04-20T10:49:49.874Z</time></trkpt><trkpt lat="42.1363667" lon="14.5485233"><ele>208.0</ele><time>2026-04-20T10:49:51.874Z</time></trkpt><trkpt lat="42.136455" lon="14.54862"><ele>208.0</ele><time>2026-04-20T10:49:53.874Z</time></trkpt><trkpt lat="42.13653" lon="14.548715"><ele>208.0</ele><time>2026-04-20T10:49:55.874Z</time></trkpt><trkpt lat="42.1366133" lon="14.548805"><ele>207.5</ele><time>2026-04-20T10:49:57.874Z</time></trkpt><trkpt lat="42.1367167" lon="14.5489033"><ele>207.0</ele><time>2026-04-20T10:49:59.874Z</time></trkpt><trkpt lat="42.13681" lon="14.5489617"><ele>206.5</ele><time>2026-04-20T10:50:01.874Z</time></trkpt><trkpt lat="42.13692" lon="14.5490117"><ele>206.0</ele><time>2026-04-20T10:50:03.874Z</time></trkpt><trkpt lat="42.13703" lon="14.54907"><ele>206.0</ele><time>2026-04-20T10:50:05.874Z</time></trkpt><trkpt lat="42.1371417" lon="14.5491283"><ele>206.0</ele><time>2026-04-20T10:50:07.873Z</time></trkpt><trkpt lat="42.1372483" lon="14.549175"><ele>206.0</ele><time>2026-04-20T10:50:09.873Z</time></trkpt><trkpt lat="42.1373533" lon="14.549215"><ele>206.0</ele><time>2026-04-20T10:50:11.874Z</time></trkpt><trkpt lat="42.1374567" lon="14.5492683"><ele>208.20000000000002</ele><time>2026-04-20T10:50:13.873Z</time></trkpt><trkpt lat="42.1375583" lon="14.5493233"><ele>210.4</ele><time>2026-04-20T10:50:15.873Z</time></trkpt><trkpt lat="42.1376617" lon="14.549365"><ele>212.6</ele><time>2026-04-20T10:50:17.873Z</time></trkpt><trkpt lat="42.1377683" lon="14.5493883"><ele>214.8</ele><time>2026-04-20T10:50:19.874Z</time></trkpt><trkpt lat="42.137885" lon="14.5494133"><ele>217.0</ele><time>2026-04-20T10:50:21.874Z</time></trkpt><trkpt lat="42.138005" lon="14.5494367"><ele>217.0</ele><time>2026-04-20T10:50:23.874Z</time></trkpt><trkpt lat="42.1381183" lon="14.5494467"><ele>217.0</ele><time>2026-04-20T10:50:25.873Z</time></trkpt><trkpt lat="42.1382283" lon="14.549465"><ele>217.0</ele><time>2026-04-20T10:50:27.874Z</time></trkpt><trkpt lat="42.1383383" lon="14.54951"><ele>217.0</ele><time>2026-04-20T10:50:29.874Z</time></trkpt><trkpt lat="42.13842" lon="14.5496033"><ele>217.0</ele><time>2026-04-20T10:50:31.874Z</time></trkpt><trkpt lat="42.1384667" lon="14.54973"><ele>215.39999999999998</ele><time>2026-04-20T10:50:33.874Z</time></trkpt><trkpt lat="42.13851" lon="14.5498633"><ele>213.79999999999998</ele><time>2026-04-20T10:50:35.874Z</time></trkpt><trkpt lat="42.1385633" lon="14.5499833"><ele>212.2</ele><time>2026-04-20T10:50:37.873Z</time></trkpt><trkpt lat="42.1386333" lon="14.5500833"><ele>210.6</ele><time>2026-04-20T10:50:39.874Z</time></trkpt><trkpt lat="42.13872" lon="14.5501517"><ele>209.0</ele><time>2026-04-20T10:50:41.873Z</time></trkpt><trkpt lat="42.1388267" lon="14.5501933"><ele>209.0</ele><time>2026-04-20T10:50:43.874Z</time></trkpt><trkpt lat="42.138935" lon="14.5501967"><ele>209.0</ele><time>2026-04-20T10:50:45.873Z</time></trkpt><trkpt lat="42.1390317" lon="14.5501583"><ele>209.0</ele><time>2026-04-20T10:50:47.873Z</time></trkpt><trkpt lat="42.1391167" lon="14.5500617"><ele>209.0</ele><time>2026-04-20T10:50:49.873Z</time></trkpt><trkpt lat="42.1391817" lon="14.549925"><ele>209.0</ele><time>2026-04-20T10:50:51.874Z</time></trkpt><trkpt lat="42.13923" lon="14.54978"><ele>209.75</ele><time>2026-04-20T10:50:53.873Z</time></trkpt><trkpt lat="42.139285" lon="14.5496417"><ele>210.5</ele><time>2026-04-20T10:50:55.873Z</time></trkpt><trkpt lat="42.1393533" lon="14.5495133"><ele>211.25</ele><time>2026-04-20T10:50:57.874Z</time></trkpt><trkpt lat="42.1394367" lon="14.5494033"><ele>212.0</ele><time>2026-04-20T10:50:59.873Z</time></trkpt><trkpt lat="42.1395183" lon="14.5492967"><ele>213.2</ele><time>2026-04-20T10:51:01.874Z</time></trkpt><trkpt lat="42.139605" lon="14.549185"><ele>214.39999999999998</ele><time>2026-04-20T10:51:03.874Z</time></trkpt><trkpt lat="42.1396483" lon="14.5491217"><ele>215.60000000000002</ele><time>2026-04-20T10:51:04.874Z</time></trkpt><trkpt lat="42.1397167" lon="14.5489883"><ele>216.8</ele><time>2026-04-20T10:51:06.873Z</time></trkpt><trkpt lat="42.1397583" lon="14.5488533"><ele>218.0</ele><time>2026-04-20T10:51:08.874Z</time></trkpt><trkpt lat="42.139775" lon="14.5487083"><ele>219.75</ele><time>2026-04-20T10:51:10.874Z</time></trkpt><trkpt lat="42.1397717" lon="14.5485517"><ele>221.5</ele><time>2026-04-20T10:51:12.874Z</time></trkpt><trkpt lat="42.13977" lon="14.5483833"><ele>223.25</ele><time>2026-04-20T10:51:14.874Z</time></trkpt><trkpt lat="42.1397733" lon="14.5482183"><ele>225.0</ele><time>2026-04-20T10:51:16.873Z</time></trkpt><trkpt lat="42.1397917" lon="14.5480683"><ele>225.0</ele><time>2026-04-20T10:51:18.873Z</time></trkpt><trkpt lat="42.139815" lon="14.5479383"><ele>225.0</ele><time>2026-04-20T10:51:20.873Z</time></trkpt><trkpt lat="42.13986" lon="14.5478033"><ele>225.0</ele><time>2026-04-20T10:51:22.874Z</time></trkpt><trkpt lat="42.139915" lon="14.547675"><ele>225.0</ele><time>2026-04-20T10:51:24.874Z</time></trkpt><trkpt lat="42.13998" lon="14.5475583"><ele>225.0</ele><time>2026-04-20T10:51:26.874Z</time></trkpt><trkpt lat="42.1400267" lon="14.5474567"><ele>225.2</ele><time>2026-04-20T10:51:28.873Z</time></trkpt><trkpt lat="42.1400933" lon="14.547345"><ele>225.4</ele><time>2026-04-20T10:51:30.874Z</time></trkpt><trkpt lat="42.1401567" lon="14.54723"><ele>225.60000000000002</ele><time>2026-04-20T10:51:32.874Z</time></trkpt><trkpt lat="42.1402233" lon="14.5471067"><ele>225.8</ele><time>2026-04-20T10:51:34.873Z</time></trkpt><trkpt lat="42.14028" lon="14.5470033"><ele>226.0</ele><time>2026-04-20T10:51:36.873Z</time></trkpt><trkpt lat="42.1403417" lon="14.5468817"><ele>226.0</ele><time>2026-04-20T10:51:38.873Z</time></trkpt><trkpt lat="42.1404017" lon="14.5467467"><ele>226.0</ele><time>2026-04-20T10:51:40.874Z</time></trkpt><trkpt lat="42.1404667" lon="14.5466067"><ele>226.0</ele><time>2026-04-20T10:51:42.873Z</time></trkpt><trkpt lat="42.1405367" lon="14.5464767"><ele>226.0</ele><time>2026-04-20T10:51:44.874Z</time></trkpt><trkpt lat="42.14062" lon="14.54637"><ele>226.0</ele><time>2026-04-20T10:51:46.874Z</time></trkpt><trkpt lat="42.1407067" lon="14.5462467"><ele>226.00000000000003</ele><time>2026-04-20T10:51:48.874Z</time></trkpt><trkpt lat="42.14075" lon="14.54618"><ele>226.00000000000003</ele><time>2026-04-20T10:51:49.873Z</time></trkpt><trkpt lat="42.1408083" lon="14.5461317"><ele>226.0</ele><time>2026-04-20T10:51:50.874Z</time></trkpt><trkpt lat="42.1409183" lon="14.5460683"><ele>226.0</ele><time>2026-04-20T10:51:52.874Z</time></trkpt><trkpt lat="42.1410267" lon="14.546015"><ele>225.20000000000002</ele><time>2026-04-20T10:51:54.874Z</time></trkpt><trkpt lat="42.141135" lon="14.545975"><ele>224.40000000000003</ele><time>2026-04-20T10:51:56.873Z</time></trkpt><trkpt lat="42.1411933" lon="14.5459317"><ele>223.6</ele><time>2026-04-20T10:51:57.874Z</time></trkpt><trkpt lat="42.14131" lon="14.5458717"><ele>222.8</ele><time>2026-04-20T10:51:59.874Z</time></trkpt><trkpt lat="42.1414183" lon="14.5458483"><ele>222.0</ele><time>2026-04-20T10:52:01.874Z</time></trkpt><trkpt lat="42.1415117" lon="14.5458533"><ele>220.6</ele><time>2026-04-20T10:52:03.874Z</time></trkpt><trkpt lat="42.1415833" lon="14.5458783"><ele>219.2</ele><time>2026-04-20T10:52:05.874Z</time></trkpt><trkpt lat="42.14165" lon="14.54595"><ele>217.8</ele><time>2026-04-20T10:52:07.874Z</time></trkpt><trkpt lat="42.14173" lon="14.5460383"><ele>216.4</ele><time>2026-04-20T10:52:09.874Z</time></trkpt><trkpt lat="42.1418167" lon="14.5461267"><ele>215.0</ele><time>2026-04-20T10:52:11.874Z</time></trkpt><trkpt lat="42.1418917" lon="14.5462217"><ele>214.6</ele><time>2026-04-20T10:52:13.874Z</time></trkpt><trkpt lat="42.14197" lon="14.546305"><ele>214.2</ele><time>2026-04-20T10:52:15.874Z</time></trkpt><trkpt lat="42.1420483" lon="14.54639"><ele>213.8</ele><time>2026-04-20T10:52:17.873Z</time></trkpt><trkpt lat="42.1421267" lon="14.5464817"><ele>213.4</ele><time>2026-04-20T10:52:19.873Z</time></trkpt><trkpt lat="42.1422" lon="14.546575"><ele>213.0</ele><time>2026-04-20T10:52:21.874Z</time></trkpt><trkpt lat="42.142275" lon="14.5466733"><ele>213.0</ele><time>2026-04-20T10:52:23.874Z</time></trkpt><trkpt lat="42.1423483" lon="14.5467817"><ele>213.0</ele><time>2026-04-20T10:52:25.874Z</time></trkpt><trkpt lat="42.1424117" lon="14.5468933"><ele>213.0</ele><time>2026-04-20T10:52:27.874Z</time></trkpt><trkpt lat="42.1424617" lon="14.54701"><ele>213.0</ele><time>2026-04-20T10:52:29.874Z</time></trkpt><trkpt lat="42.1425017" lon="14.547135"><ele>213.0</ele><time>2026-04-20T10:52:31.874Z</time></trkpt><trkpt lat="42.1425417" lon="14.5472583"><ele>214.0</ele><time>2026-04-20T10:52:33.874Z</time></trkpt><trkpt lat="42.1425767" lon="14.5473733"><ele>215.0</ele><time>2026-04-20T10:52:35.874Z</time></trkpt><trkpt lat="42.1426133" lon="14.54748"><ele>216.0</ele><time>2026-04-20T10:52:37.874Z</time></trkpt><trkpt lat="42.142665" lon="14.5476017"><ele>217.0</ele><time>2026-04-20T10:52:39.874Z</time></trkpt><trkpt lat="42.1427433" lon="14.547715"><ele>218.0</ele><time>2026-04-20T10:52:41.873Z</time></trkpt><trkpt lat="42.14283" lon="14.547805"><ele>218.0</ele><time>2026-04-20T10:52:43.874Z</time></trkpt><trkpt lat="42.1429317" lon="14.5478767"><ele>218.0</ele><time>2026-04-20T10:52:45.874Z</time></trkpt><trkpt lat="42.1430383" lon="14.5479117"><ele>218.0</ele><time>2026-04-20T10:52:47.873Z</time></trkpt><trkpt lat="42.1431533" lon="14.5479333"><ele>218.0</ele><time>2026-04-20T10:52:49.874Z</time></trkpt><trkpt lat="42.1432667" lon="14.54794"><ele>217.4</ele><time>2026-04-20T10:52:51.874Z</time></trkpt><trkpt lat="42.1433783" lon="14.5479367"><ele>216.8</ele><time>2026-04-20T10:52:53.874Z</time></trkpt><trkpt lat="42.1434833" lon="14.547925"><ele>216.2</ele><time>2026-04-20T10:52:55.873Z</time></trkpt><trkpt lat="42.143595" lon="14.54791"><ele>215.6</ele><time>2026-04-20T10:52:57.874Z</time></trkpt><trkpt lat="42.1436983" lon="14.54789"><ele>215.0</ele><time>2026-04-20T10:52:59.873Z</time></trkpt><trkpt lat="42.1438033" lon="14.5478767"><ele>218.0</ele><time>2026-04-20T10:53:01.873Z</time></trkpt><trkpt lat="42.14391" lon="14.5478717"><ele>221.0</ele><time>2026-04-20T10:53:03.873Z</time></trkpt><trkpt lat="42.1440133" lon="14.54785"><ele>224.0</ele><time>2026-04-20T10:53:05.873Z</time></trkpt><trkpt lat="42.144115" lon="14.5478167"><ele>227.0</ele><time>2026-04-20T10:53:07.874Z</time></trkpt><trkpt lat="42.144215" lon="14.54777"><ele>230.0</ele><time>2026-04-20T10:53:09.874Z</time></trkpt><trkpt lat="42.1443083" lon="14.54768"><ele>230.0</ele><time>2026-04-20T10:53:11.873Z</time></trkpt><trkpt lat="42.1444017" lon="14.547595"><ele>230.0</ele><time>2026-04-20T10:53:13.874Z</time></trkpt><trkpt lat="42.1444967" lon="14.547535"><ele>230.0</ele><time>2026-04-20T10:53:15.874Z</time></trkpt><trkpt lat="42.1446017" lon="14.5475217"><ele>230.0</ele><time>2026-04-20T10:53:17.873Z</time></trkpt><trkpt lat="42.1447083" lon="14.54756"><ele>230.0</ele><time>2026-04-20T10:53:19.874Z</time></trkpt><trkpt lat="42.144795" lon="14.5476267"><ele>230.0</ele><time>2026-04-20T10:53:21.874Z</time></trkpt><trkpt lat="42.1448617" lon="14.5477083"><ele>230.0</ele><time>2026-04-20T10:53:23.873Z</time></trkpt><trkpt lat="42.14493" lon="14.5477983"><ele>230.0</ele><time>2026-04-20T10:53:25.874Z</time></trkpt><trkpt lat="42.1450017" lon="14.547875"><ele>230.0</ele><time>2026-04-20T10:53:27.874Z</time></trkpt><trkpt lat="42.14508" lon="14.5479767"><ele>230.0</ele><time>2026-04-20T10:53:29.873Z</time></trkpt><trkpt lat="42.1451633" lon="14.548075"><ele>228.8</ele><time>2026-04-20T10:53:31.874Z</time></trkpt><trkpt lat="42.1452367" lon="14.548195"><ele>227.6</ele><time>2026-04-20T10:53:33.874Z</time></trkpt><trkpt lat="42.1452933" lon="14.5483067"><ele>226.39999999999998</ele><time>2026-04-20T10:53:35.874Z</time></trkpt><trkpt lat="42.1453567" lon="14.5484217"><ele>225.2</ele><time>2026-04-20T10:53:37.874Z</time></trkpt><trkpt lat="42.1454167" lon="14.54854"><ele>224.0</ele><time>2026-04-20T10:53:39.873Z</time></trkpt><trkpt lat="42.1454967" lon="14.5486533"><ele>224.25</ele><time>2026-04-20T10:53:41.873Z</time></trkpt><trkpt lat="42.1455967" lon="14.548745"><ele>224.5</ele><time>2026-04-20T10:53:43.873Z</time></trkpt><trkpt lat="42.1457033" lon="14.54881"><ele>224.75</ele><time>2026-04-20T10:53:45.872Z</time></trkpt><trkpt lat="42.1458083" lon="14.5488583"><ele>225.0</ele><time>2026-04-20T10:53:47.873Z</time></trkpt><trkpt lat="42.1459183" lon="14.5489117"><ele>225.0</ele><time>2026-04-20T10:53:49.873Z</time></trkpt><trkpt lat="42.1460283" lon="14.548975"><ele>225.0</ele><time>2026-04-20T10:53:51.873Z</time></trkpt><trkpt lat="42.14613" lon="14.5490517"><ele>225.0</ele><time>2026-04-20T10:53:53.873Z</time></trkpt><trkpt lat="42.1462317" lon="14.5491183"><ele>225.0</ele><time>2026-04-20T10:53:55.873Z</time></trkpt><trkpt lat="42.146335" lon="14.5491883"><ele>225.0</ele><time>2026-04-20T10:53:57.872Z</time></trkpt><trkpt lat="42.1464383" lon="14.5492667"><ele>225.0</ele><time>2026-04-20T10:53:59.873Z</time></trkpt><trkpt lat="42.1465367" lon="14.5493533"><ele>225.0</ele><time>2026-04-20T10:54:01.873Z</time></trkpt><trkpt lat="42.146635" lon="14.5494483"><ele>225.0</ele><time>2026-04-20T10:54:03.873Z</time></trkpt><trkpt lat="42.14672" lon="14.5495567"><ele>225.2</ele><time>2026-04-20T10:54:05.872Z</time></trkpt><trkpt lat="42.1467933" lon="14.5496633"><ele>225.4</ele><time>2026-04-20T10:54:07.873Z</time></trkpt><trkpt lat="42.1468567" lon="14.5497783"><ele>225.60000000000002</ele><time>2026-04-20T10:54:09.872Z</time></trkpt><trkpt lat="42.146915" lon="14.5499033"><ele>225.8</ele><time>2026-04-20T10:54:11.873Z</time></trkpt><trkpt lat="42.14696" lon="14.5500367"><ele>226.0</ele><time>2026-04-20T10:54:13.873Z</time></trkpt><trkpt lat="42.147" lon="14.5501733"><ele>226.0</ele><time>2026-04-20T10:54:15.873Z</time></trkpt><trkpt lat="42.1470233" lon="14.5503033"><ele>226.00000000000003</ele><time>2026-04-20T10:54:17.872Z</time></trkpt><trkpt lat="42.14701" lon="14.5504167"><ele>226.00000000000003</ele><time>2026-04-20T10:54:19.873Z</time></trkpt><trkpt lat="42.1469733" lon="14.5505333"><ele>226.0</ele><time>2026-04-20T10:54:21.872Z</time></trkpt><trkpt lat="42.1469433" lon="14.550655"><ele>226.0</ele><time>2026-04-20T10:54:23.872Z</time></trkpt><trkpt lat="42.1469067" lon="14.5507767"><ele>225.8</ele><time>2026-04-20T10:54:25.872Z</time></trkpt><trkpt lat="42.1468683" lon="14.5509067"><ele>225.60000000000002</ele><time>2026-04-20T10:54:27.873Z</time></trkpt><trkpt lat="42.1468267" lon="14.5510417"><ele>225.4</ele><time>2026-04-20T10:54:29.872Z</time></trkpt><trkpt lat="42.1467717" lon="14.5511733"><ele>225.2</ele><time>2026-04-20T10:54:31.873Z</time></trkpt><trkpt lat="42.1467033" lon="14.5512883"><ele>225.0</ele><time>2026-04-20T10:54:33.872Z</time></trkpt><trkpt lat="42.1466283" lon="14.55139"><ele>223.6</ele><time>2026-04-20T10:54:35.873Z</time></trkpt><trkpt lat="42.1465467" lon="14.5514833"><ele>222.2</ele><time>2026-04-20T10:54:37.873Z</time></trkpt><trkpt lat="42.1464633" lon="14.5515783"><ele>220.8</ele><time>2026-04-20T10:54:39.872Z</time></trkpt><trkpt lat="42.146375" lon="14.55168"><ele>219.4</ele><time>2026-04-20T10:54:41.872Z</time></trkpt><trkpt lat="42.1462967" lon="14.551785"><ele>218.0</ele><time>2026-04-20T10:54:43.873Z</time></trkpt><trkpt lat="42.14623" lon="14.5519067"><ele>219.2</ele><time>2026-04-20T10:54:45.872Z</time></trkpt><trkpt lat="42.1461917" lon="14.55205"><ele>220.4</ele><time>2026-04-20T10:54:47.873Z</time></trkpt><trkpt lat="42.14621" lon="14.5521933"><ele>221.59999999999997</ele><time>2026-04-20T10:54:49.873Z</time></trkpt><trkpt lat="42.146275" lon="14.5523383"><ele>222.79999999999998</ele><time>2026-04-20T10:54:51.872Z</time></trkpt><trkpt lat="42.1463233" lon="14.5524067"><ele>224.0</ele><time>2026-04-20T10:54:52.873Z</time></trkpt><trkpt lat="42.1463783" lon="14.552455"><ele>224.0</ele><time>2026-04-20T10:54:53.873Z</time></trkpt><trkpt lat="42.1464917" lon="14.5525117"><ele>223.99999999999997</ele><time>2026-04-20T10:54:55.872Z</time></trkpt><trkpt lat="42.1465983" lon="14.5525583"><ele>223.99999999999997</ele><time>2026-04-20T10:54:57.873Z</time></trkpt><trkpt lat="42.146705" lon="14.5525983"><ele>224.0</ele><time>2026-04-20T10:54:59.873Z</time></trkpt><trkpt lat="42.146805" lon="14.5526433"><ele>224.0</ele><time>2026-04-20T10:55:01.873Z</time></trkpt><trkpt lat="42.1468933" lon="14.5526867"><ele>222.25</ele><time>2026-04-20T10:55:03.872Z</time></trkpt><trkpt lat="42.1469917" lon="14.552735"><ele>220.5</ele><time>2026-04-20T10:55:05.872Z</time></trkpt><trkpt lat="42.1471" lon="14.5528033"><ele>218.75</ele><time>2026-04-20T10:55:07.873Z</time></trkpt><trkpt lat="42.1472133" lon="14.55287"><ele>217.0</ele><time>2026-04-20T10:55:09.872Z</time></trkpt><trkpt lat="42.1473083" lon="14.5529317"><ele>219.25</ele><time>2026-04-20T10:55:11.873Z</time></trkpt><trkpt lat="42.1474083" lon="14.552975"><ele>221.5</ele><time>2026-04-20T10:55:13.873Z</time></trkpt><trkpt lat="42.1475217" lon="14.5530267"><ele>223.75</ele><time>2026-04-20T10:55:15.873Z</time></trkpt><trkpt lat="42.147635" lon="14.553085"><ele>226.0</ele><time>2026-04-20T10:55:17.873Z</time></trkpt><trkpt lat="42.1477367" lon="14.5531433"><ele>226.0</ele><time>2026-04-20T10:55:19.873Z</time></trkpt><trkpt lat="42.1478317" lon="14.5532183"><ele>226.00000000000003</ele><time>2026-04-20T10:55:21.873Z</time></trkpt><trkpt lat="42.147935" lon="14.5532583"><ele>226.00000000000003</ele><time>2026-04-20T10:55:23.873Z</time></trkpt><trkpt lat="42.1479967" lon="14.553285"><ele>226.0</ele><time>2026-04-20T10:55:24.872Z</time></trkpt><trkpt lat="42.1481033" lon="14.5533283"><ele>226.0</ele><time>2026-04-20T10:55:26.873Z</time></trkpt><trkpt lat="42.1481967" lon="14.553385"><ele>227.20000000000002</ele><time>2026-04-20T10:55:28.872Z</time></trkpt><trkpt lat="42.1482667" lon="14.5534617"><ele>228.40000000000003</ele><time>2026-04-20T10:55:30.873Z</time></trkpt><trkpt lat="42.14832" lon="14.5535567"><ele>229.6</ele><time>2026-04-20T10:55:32.872Z</time></trkpt><trkpt lat="42.1483383" lon="14.55368"><ele>230.8</ele><time>2026-04-20T10:55:34.872Z</time></trkpt><trkpt lat="42.14832" lon="14.5538183"><ele>232.0</ele><time>2026-04-20T10:55:36.873Z</time></trkpt><trkpt lat="42.1482767" lon="14.55396"><ele>232.0</ele><time>2026-04-20T10:55:38.873Z</time></trkpt><trkpt lat="42.14822" lon="14.5540967"><ele>232.0</ele><time>2026-04-20T10:55:40.872Z</time></trkpt><trkpt lat="42.1481617" lon="14.5542333"><ele>232.0</ele><time>2026-04-20T10:55:42.872Z</time></trkpt><trkpt lat="42.1480983" lon="14.5543667"><ele>232.0</ele><time>2026-04-20T10:55:44.872Z</time></trkpt><trkpt lat="42.1480367" lon="14.5545083"><ele>228.0</ele><time>2026-04-20T10:55:46.872Z</time></trkpt><trkpt lat="42.147975" lon="14.554635"><ele>224.0</ele><time>2026-04-20T10:55:48.873Z</time></trkpt><trkpt lat="42.14792" lon="14.5547717"><ele>220.0</ele><time>2026-04-20T10:55:50.873Z</time></trkpt><trkpt lat="42.147885" lon="14.5549067"><ele>216.0</ele><time>2026-04-20T10:55:52.872Z</time></trkpt><trkpt lat="42.14788" lon="14.555045"><ele>212.0</ele><time>2026-04-20T10:55:54.873Z</time></trkpt><trkpt lat="42.1479" lon="14.5551983"><ele>212.0</ele><time>2026-04-20T10:55:56.873Z</time></trkpt><trkpt lat="42.1479417" lon="14.55535"><ele>212.0</ele><time>2026-04-20T10:55:58.873Z</time></trkpt><trkpt lat="42.1479867" lon="14.5554817"><ele>212.0</ele><time>2026-04-20T10:56:00.873Z</time></trkpt><trkpt lat="42.1480317" lon="14.5556317"><ele>212.0</ele><time>2026-04-20T10:56:02.872Z</time></trkpt><trkpt lat="42.1480717" lon="14.55577"><ele>213.0</ele><time>2026-04-20T10:56:04.872Z</time></trkpt><trkpt lat="42.1481133" lon="14.5558833"><ele>214.0</ele><time>2026-04-20T10:56:06.872Z</time></trkpt><trkpt lat="42.1481583" lon="14.556025"><ele>215.0</ele><time>2026-04-20T10:56:08.872Z</time></trkpt><trkpt lat="42.14822" lon="14.5561633"><ele>216.0</ele><time>2026-04-20T10:56:10.873Z</time></trkpt><trkpt lat="42.1482567" lon="14.556235"><ele>217.0</ele><time>2026-04-20T10:56:11.873Z</time></trkpt><trkpt lat="42.14833" lon="14.55632"><ele>218.57142857142856</ele><time>2026-04-20T10:56:13.873Z</time></trkpt><trkpt lat="42.148435" lon="14.5563783"><ele>220.14285714285714</ele><time>2026-04-20T10:56:15.873Z</time></trkpt><trkpt lat="42.1485" lon="14.5564"><ele>221.71428571428572</ele><time>2026-04-20T10:56:16.872Z</time></trkpt><trkpt lat="42.1485667" lon="14.5564117"><ele>223.28571428571428</ele><time>2026-04-20T10:56:17.873Z</time></trkpt><trkpt lat="42.1486317" lon="14.556425"><ele>224.85714285714283</ele><time>2026-04-20T10:56:18.872Z</time></trkpt><trkpt lat="42.1487" lon="14.5564367"><ele>226.42857142857142</ele><time>2026-04-20T10:56:19.872Z</time></trkpt><trkpt lat="42.148765" lon="14.5564517"><ele>228.0</ele><time>2026-04-20T10:56:20.873Z</time></trkpt><trkpt lat="42.14888" lon="14.55649"><ele>228.0</ele><time>2026-04-20T10:56:22.872Z</time></trkpt><trkpt lat="42.1489817" lon="14.55655"><ele>228.0</ele><time>2026-04-20T10:56:24.873Z</time></trkpt><trkpt lat="42.1490683" lon="14.5566017"><ele>228.0</ele><time>2026-04-20T10:56:26.872Z</time></trkpt><trkpt lat="42.1491833" lon="14.5566633"><ele>228.0</ele><time>2026-04-20T10:56:28.873Z</time></trkpt><trkpt lat="42.14929" lon="14.55673"><ele>228.0</ele><time>2026-04-20T10:56:30.873Z</time></trkpt><trkpt lat="42.1494017" lon="14.5567883"><ele>228.2</ele><time>2026-04-20T10:56:32.872Z</time></trkpt><trkpt lat="42.1495067" lon="14.5568483"><ele>228.4</ele><time>2026-04-20T10:56:34.873Z</time></trkpt><trkpt lat="42.1496117" lon="14.5568967"><ele>228.59999999999997</ele><time>2026-04-20T10:56:36.872Z</time></trkpt><trkpt lat="42.1497067" lon="14.5569617"><ele>228.79999999999998</ele><time>2026-04-20T10:56:38.873Z</time></trkpt><trkpt lat="42.1497883" lon="14.5570633"><ele>229.0</ele><time>2026-04-20T10:56:40.872Z</time></trkpt><trkpt lat="42.1498533" lon="14.557185"><ele>229.39999999999998</ele><time>2026-04-20T10:56:42.873Z</time></trkpt><trkpt lat="42.1498933" lon="14.5573317"><ele>229.79999999999998</ele><time>2026-04-20T10:56:44.872Z</time></trkpt><trkpt lat="42.1499233" lon="14.5574617"><ele>230.20000000000002</ele><time>2026-04-20T10:56:46.873Z</time></trkpt><trkpt lat="42.1499517" lon="14.5576033"><ele>230.60000000000002</ele><time>2026-04-20T10:56:48.873Z</time></trkpt><trkpt lat="42.1499767" lon="14.5577417"><ele>231.0</ele><time>2026-04-20T10:56:50.873Z</time></trkpt><trkpt lat="42.1500017" lon="14.5578733"><ele>231.0</ele><time>2026-04-20T10:56:52.872Z</time></trkpt><trkpt lat="42.150035" lon="14.558005"><ele>231.00000000000003</ele><time>2026-04-20T10:56:54.873Z</time></trkpt><trkpt lat="42.150065" lon="14.5581433"><ele>231.00000000000003</ele><time>2026-04-20T10:56:56.872Z</time></trkpt><trkpt lat="42.1501017" lon="14.5582967"><ele>231.0</ele><time>2026-04-20T10:56:58.873Z</time></trkpt><trkpt lat="42.1501367" lon="14.5584467"><ele>231.0</ele><time>2026-04-20T10:57:00.873Z</time></trkpt><trkpt lat="42.1501683" lon="14.5585933"><ele>230.0</ele><time>2026-04-20T10:57:02.873Z</time></trkpt><trkpt lat="42.1502117" lon="14.558755"><ele>229.00000000000003</ele><time>2026-04-20T10:57:04.873Z</time></trkpt><trkpt lat="42.1502283" lon="14.55884"><ele>228.00000000000003</ele><time>2026-04-20T10:57:05.873Z</time></trkpt><trkpt lat="42.15026" lon="14.5589883"><ele>227.0</ele><time>2026-04-20T10:57:07.873Z</time></trkpt><trkpt lat="42.1502817" lon="14.559145"><ele>226.0</ele><time>2026-04-20T10:57:09.872Z</time></trkpt><trkpt lat="42.1502917" lon="14.5593067"><ele>226.0</ele><time>2026-04-20T10:57:11.873Z</time></trkpt><trkpt lat="42.1502817" lon="14.5594617"><ele>226.0</ele><time>2026-04-20T10:57:13.872Z</time></trkpt><trkpt lat="42.15026" lon="14.5596067"><ele>226.0</ele><time>2026-04-20T10:57:15.873Z</time></trkpt><trkpt lat="42.1502333" lon="14.55975"><ele>226.0</ele><time>2026-04-20T10:57:17.873Z</time></trkpt><trkpt lat="42.1502" lon="14.5599033"><ele>225.75</ele><time>2026-04-20T10:57:19.873Z</time></trkpt><trkpt lat="42.150165" lon="14.5600567"><ele>225.5</ele><time>2026-04-20T10:57:21.873Z</time></trkpt><trkpt lat="42.1501333" lon="14.56021"><ele>225.25</ele><time>2026-04-20T10:57:23.872Z</time></trkpt><trkpt lat="42.1501" lon="14.5603583"><ele>225.0</ele><time>2026-04-20T10:57:25.872Z</time></trkpt><trkpt lat="42.1500583" lon="14.5605083"><ele>225.8</ele><time>2026-04-20T10:57:27.873Z</time></trkpt><trkpt lat="42.15002" lon="14.5606667"><ele>226.6</ele><time>2026-04-20T10:57:29.873Z</time></trkpt><trkpt lat="42.1500033" lon="14.56075"><ele>227.39999999999998</ele><time>2026-04-20T10:57:30.872Z</time></trkpt><trkpt lat="42.1499683" lon="14.5609"><ele>228.2</ele><time>2026-04-20T10:57:32.872Z</time></trkpt><trkpt lat="42.149935" lon="14.5610283"><ele>229.0</ele><time>2026-04-20T10:57:34.873Z</time></trkpt><trkpt lat="42.1499117" lon="14.5611467"><ele>228.79999999999998</ele><time>2026-04-20T10:57:36.873Z</time></trkpt><trkpt lat="42.1498983" lon="14.56127"><ele>228.59999999999997</ele><time>2026-04-20T10:57:38.873Z</time></trkpt><trkpt lat="42.1499367" lon="14.56142"><ele>228.4</ele><time>2026-04-20T10:57:40.873Z</time></trkpt><trkpt lat="42.1500117" lon="14.561535"><ele>228.2</ele><time>2026-04-20T10:57:42.873Z</time></trkpt><trkpt lat="42.1501117" lon="14.5616267"><ele>228.0</ele><time>2026-04-20T10:57:44.873Z</time></trkpt><trkpt lat="42.1502067" lon="14.5617133"><ele>228.0</ele><time>2026-04-20T10:57:46.873Z</time></trkpt><trkpt lat="42.15028" lon="14.561815"><ele>228.0</ele><time>2026-04-20T10:57:48.872Z</time></trkpt><trkpt lat="42.150345" lon="14.561935"><ele>228.0</ele><time>2026-04-20T10:57:50.872Z</time></trkpt><trkpt lat="42.1504083" lon="14.5620683"><ele>228.0</ele><time>2026-04-20T10:57:52.873Z</time></trkpt><trkpt lat="42.1504683" lon="14.5622017"><ele>228.0</ele><time>2026-04-20T10:57:54.873Z</time></trkpt><trkpt lat="42.1505217" lon="14.5623483"><ele>225.60000000000002</ele><time>2026-04-20T10:57:56.873Z</time></trkpt><trkpt lat="42.150545" lon="14.5624317"><ele>223.20000000000002</ele><time>2026-04-20T10:57:57.873Z</time></trkpt><trkpt lat="42.15058" lon="14.5625767"><ele>220.8</ele><time>2026-04-20T10:57:59.873Z</time></trkpt><trkpt lat="42.1506117" lon="14.5627133"><ele>218.4</ele><time>2026-04-20T10:58:01.872Z</time></trkpt><trkpt lat="42.1506333" lon="14.5628617"><ele>216.0</ele><time>2026-04-20T10:58:03.873Z</time></trkpt><trkpt lat="42.1506467" lon="14.563015"><ele>214.20000000000002</ele><time>2026-04-20T10:58:05.872Z</time></trkpt><trkpt lat="42.1506583" lon="14.5631"><ele>212.40000000000003</ele><time>2026-04-20T10:58:06.873Z</time></trkpt><trkpt lat="42.1506817" lon="14.5632567"><ele>210.6</ele><time>2026-04-20T10:58:08.873Z</time></trkpt><trkpt lat="42.1507033" lon="14.5634083"><ele>208.8</ele><time>2026-04-20T10:58:10.873Z</time></trkpt><trkpt lat="42.1507367" lon="14.5635583"><ele>207.0</ele><time>2026-04-20T10:58:12.873Z</time></trkpt><trkpt lat="42.1507583" lon="14.5637083"><ele>211.8</ele><time>2026-04-20T10:58:14.873Z</time></trkpt><trkpt lat="42.150775" lon="14.5637933"><ele>216.6</ele><time>2026-04-20T10:58:15.873Z</time></trkpt><trkpt lat="42.1507917" lon="14.5638833"><ele>221.40000000000003</ele><time>2026-04-20T10:58:16.872Z</time></trkpt><trkpt lat="42.1508117" lon="14.5640483"><ele>226.20000000000002</ele><time>2026-04-20T10:58:18.873Z</time></trkpt><trkpt lat="42.1508167" lon="14.5642033"><ele>231.0</ele><time>2026-04-20T10:58:20.873Z</time></trkpt><trkpt lat="42.1508017" lon="14.5643417"><ele>231.0</ele><time>2026-04-20T10:58:22.872Z</time></trkpt><trkpt lat="42.150785" lon="14.5644917"><ele>231.00000000000003</ele><time>2026-04-20T10:58:24.872Z</time></trkpt><trkpt lat="42.15076" lon="14.5646383"><ele>231.00000000000003</ele><time>2026-04-20T10:58:26.872Z</time></trkpt><trkpt lat="42.1507267" lon="14.5647867"><ele>231.0</ele><time>2026-04-20T10:58:28.873Z</time></trkpt><trkpt lat="42.1507183" lon="14.5648733"><ele>231.0</ele><time>2026-04-20T10:58:29.872Z</time></trkpt><trkpt lat="42.1507033" lon="14.564995"><ele>231.25</ele><time>2026-04-20T10:58:31.873Z</time></trkpt><trkpt lat="42.150725" lon="14.565155"><ele>231.5</ele><time>2026-04-20T10:58:33.873Z</time></trkpt><trkpt lat="42.1507667" lon="14.5652783"><ele>231.75</ele><time>2026-04-20T10:58:35.873Z</time></trkpt><trkpt lat="42.1508467" lon="14.5654033"><ele>232.0</ele><time>2026-04-20T10:58:37.873Z</time></trkpt><trkpt lat="42.15093" lon="14.5655117"><ele>230.2</ele><time>2026-04-20T10:58:39.873Z</time></trkpt><trkpt lat="42.1510067" lon="14.5656117"><ele>228.39999999999998</ele><time>2026-04-20T10:58:41.873Z</time></trkpt><trkpt lat="42.1510583" lon="14.56571"><ele>226.60000000000002</ele><time>2026-04-20T10:58:43.873Z</time></trkpt><trkpt lat="42.1510867" lon="14.5658267"><ele>224.8</ele><time>2026-04-20T10:58:45.873Z</time></trkpt><trkpt lat="42.1510933" lon="14.56598"><ele>223.0</ele><time>2026-04-20T10:58:47.873Z</time></trkpt><trkpt lat="42.151075" lon="14.5661417"><ele>221.4</ele><time>2026-04-20T10:58:49.872Z</time></trkpt><trkpt lat="42.1510617" lon="14.566305"><ele>219.8</ele><time>2026-04-20T10:58:51.872Z</time></trkpt><trkpt lat="42.1510617" lon="14.56639"><ele>218.2</ele><time>2026-04-20T10:58:52.872Z</time></trkpt><trkpt lat="42.151065" lon="14.5664833"><ele>216.6</ele><time>2026-04-20T10:58:53.872Z</time></trkpt><trkpt lat="42.1510833" lon="14.5666467"><ele>215.0</ele><time>2026-04-20T10:58:55.873Z</time></trkpt><trkpt lat="42.1511217" lon="14.566795"><ele>215.0</ele><time>2026-04-20T10:58:57.872Z</time></trkpt><trkpt lat="42.1511767" lon="14.566935"><ele>215.0</ele><time>2026-04-20T10:58:59.872Z</time></trkpt><trkpt lat="42.1512117" lon="14.5670067"><ele>215.0</ele><time>2026-04-20T10:59:00.873Z</time></trkpt><trkpt lat="42.1512833" lon="14.5671383"><ele>215.0</ele><time>2026-04-20T10:59:02.872Z</time></trkpt><trkpt lat="42.1513483" lon="14.5672617"><ele>215.0</ele><time>2026-04-20T10:59:04.873Z</time></trkpt><trkpt lat="42.15141" lon="14.5673883"><ele>215.4</ele><time>2026-04-20T10:59:06.873Z</time></trkpt><trkpt lat="42.1514683" lon="14.5675183"><ele>215.8</ele><time>2026-04-20T10:59:08.872Z</time></trkpt><trkpt lat="42.151495" lon="14.5676617"><ele>216.2</ele><time>2026-04-20T10:59:10.872Z</time></trkpt><trkpt lat="42.15149" lon="14.5678083"><ele>216.6</ele><time>2026-04-20T10:59:12.873Z</time></trkpt><trkpt lat="42.1514517" lon="14.56794"><ele>217.0</ele><time>2026-04-20T10:59:14.872Z</time></trkpt><trkpt lat="42.1513767" lon="14.5680333"><ele>220.0</ele><time>2026-04-20T10:59:16.873Z</time></trkpt><trkpt lat="42.1512733" lon="14.56806"><ele>223.0</ele><time>2026-04-20T10:59:18.873Z</time></trkpt><trkpt lat="42.1511633" lon="14.568035"><ele>226.0</ele><time>2026-04-20T10:59:20.873Z</time></trkpt><trkpt lat="42.1510533" lon="14.5679967"><ele>229.0</ele><time>2026-04-20T10:59:22.872Z</time></trkpt><trkpt lat="42.15095" lon="14.5679817"><ele>232.0</ele><time>2026-04-20T10:59:24.873Z</time></trkpt><trkpt lat="42.1508417" lon="14.5680117"><ele>232.0</ele><time>2026-04-20T10:59:26.872Z</time></trkpt><trkpt lat="42.15078" lon="14.568035"><ele>232.0</ele><time>2026-04-20T10:59:27.873Z</time></trkpt><trkpt lat="42.15072" lon="14.5680633"><ele>232.0</ele><time>2026-04-20T10:59:28.873Z</time></trkpt><trkpt lat="42.1506167" lon="14.56812"><ele>232.0</ele><time>2026-04-20T10:59:30.873Z</time></trkpt><trkpt lat="42.1505217" lon="14.5681917"><ele>232.0</ele><time>2026-04-20T10:59:32.873Z</time></trkpt><trkpt lat="42.1504283" lon="14.5682683"><ele>228.39999999999998</ele><time>2026-04-20T10:59:34.873Z</time></trkpt><trkpt lat="42.1503467" lon="14.56835"><ele>224.79999999999998</ele><time>2026-04-20T10:59:36.873Z</time></trkpt><trkpt lat="42.15026" lon="14.56843"><ele>221.2</ele><time>2026-04-20T10:59:38.873Z</time></trkpt><trkpt lat="42.1501783" lon="14.568505"><ele>217.6</ele><time>2026-04-20T10:59:40.873Z</time></trkpt><trkpt lat="42.1500867" lon="14.5685917"><ele>214.0</ele><time>2026-04-20T10:59:42.872Z</time></trkpt><trkpt lat="42.1499883" lon="14.5686783"><ele>213.25</ele><time>2026-04-20T10:59:44.873Z</time></trkpt><trkpt lat="42.14989" lon="14.5687633"><ele>212.5</ele><time>2026-04-20T10:59:46.873Z</time></trkpt><trkpt lat="42.1497917" lon="14.5688517"><ele>211.75</ele><time>2026-04-20T10:59:48.872Z</time></trkpt><trkpt lat="42.1496933" lon="14.56895"><ele>211.0</ele><time>2026-04-20T10:59:50.872Z</time></trkpt><trkpt lat="42.149605" lon="14.56906"><ele>211.0</ele><time>2026-04-20T10:59:52.873Z</time></trkpt><trkpt lat="42.1495217" lon="14.5691817"><ele>211.0</ele><time>2026-04-20T10:59:54.873Z</time></trkpt><trkpt lat="42.1494633" lon="14.5693267"><ele>211.0</ele><time>2026-04-20T10:59:56.872Z</time></trkpt><trkpt lat="42.1494417" lon="14.5694867"><ele>211.0</ele><time>2026-04-20T10:59:58.873Z</time></trkpt><trkpt lat="42.1494633" lon="14.5696217"><ele>210.60000000000002</ele><time>2026-04-20T11:00:00.873Z</time></trkpt><trkpt lat="42.1495083" lon="14.56976"><ele>210.2</ele><time>2026-04-20T11:00:02.872Z</time></trkpt><trkpt lat="42.1495617" lon="14.5698733"><ele>209.8</ele><time>2026-04-20T11:00:04.872Z</time></trkpt><trkpt lat="42.1496167" lon="14.5699867"><ele>209.39999999999998</ele><time>2026-04-20T11:00:06.872Z</time></trkpt><trkpt lat="42.14968" lon="14.5701267"><ele>209.0</ele><time>2026-04-20T11:00:08.873Z</time></trkpt><trkpt lat="42.149735" lon="14.5702683"><ele>207.5</ele><time>2026-04-20T11:00:10.873Z</time></trkpt><trkpt lat="42.1497767" lon="14.5704133"><ele>206.0</ele><time>2026-04-20T11:00:12.872Z</time></trkpt><trkpt lat="42.1498" lon="14.5705683"><ele>204.5</ele><time>2026-04-20T11:00:14.872Z</time></trkpt><trkpt lat="42.1498067" lon="14.570735"><ele>203.0</ele><time>2026-04-20T11:00:16.873Z</time></trkpt><trkpt lat="42.1498067" lon="14.5708833"><ele>203.0</ele><time>2026-04-20T11:00:18.873Z</time></trkpt><trkpt lat="42.1498033" lon="14.5709683"><ele>203.0</ele><time>2026-04-20T11:00:19.872Z</time></trkpt><trkpt lat="42.149795" lon="14.5711283"><ele>203.0</ele><time>2026-04-20T11:00:21.872Z</time></trkpt><trkpt lat="42.1497783" lon="14.5712833"><ele>203.0</ele><time>2026-04-20T11:00:23.873Z</time></trkpt><trkpt lat="42.1497433" lon="14.5714317"><ele>203.0</ele><time>2026-04-20T11:00:25.873Z</time></trkpt><trkpt lat="42.149715" lon="14.5715783"><ele>203.5</ele><time>2026-04-20T11:00:27.873Z</time></trkpt><trkpt lat="42.14968" lon="14.5717217"><ele>204.0</ele><time>2026-04-20T11:00:29.872Z</time></trkpt><trkpt lat="42.1496383" lon="14.5718617"><ele>204.5</ele><time>2026-04-20T11:00:31.873Z</time></trkpt><trkpt lat="42.14958" lon="14.5720017"><ele>205.0</ele><time>2026-04-20T11:00:33.873Z</time></trkpt><trkpt lat="42.1495083" lon="14.5721317"><ele>206.5</ele><time>2026-04-20T11:00:35.873Z</time></trkpt><trkpt lat="42.1494367" lon="14.5722617"><ele>208.0</ele><time>2026-04-20T11:00:37.873Z</time></trkpt><trkpt lat="42.1493733" lon="14.5723833"><ele>209.5</ele><time>2026-04-20T11:00:39.873Z</time></trkpt><trkpt lat="42.1493383" lon="14.5725267"><ele>211.0</ele><time>2026-04-20T11:00:41.872Z</time></trkpt><trkpt lat="42.1493367" lon="14.5726883"><ele>211.0</ele><time>2026-04-20T11:00:43.873Z</time></trkpt><trkpt lat="42.149355" lon="14.572845"><ele>211.0</ele><time>2026-04-20T11:00:45.872Z</time></trkpt><trkpt lat="42.1493633" lon="14.5729967"><ele>211.0</ele><time>2026-04-20T11:00:47.873Z</time></trkpt><trkpt lat="42.149345" lon="14.57314"><ele>211.0</ele><time>2026-04-20T11:00:49.873Z</time></trkpt><trkpt lat="42.1493017" lon="14.5732783"><ele>211.0</ele><time>2026-04-20T11:00:51.872Z</time></trkpt><trkpt lat="42.14925" lon="14.57342"><ele>212.0</ele><time>2026-04-20T11:00:53.873Z</time></trkpt><trkpt lat="42.1492267" lon="14.5735567"><ele>213.0</ele><time>2026-04-20T11:00:55.873Z</time></trkpt><trkpt lat="42.1492317" lon="14.5737133"><ele>214.00000000000003</ele><time>2026-04-20T11:00:57.873Z</time></trkpt><trkpt lat="42.1492567" lon="14.5738833"><ele>215.0</ele><time>2026-04-20T11:00:59.872Z</time></trkpt><trkpt lat="42.1492683" lon="14.5739683"><ele>216.0</ele><time>2026-04-20T11:01:00.873Z</time></trkpt><trkpt lat="42.1492733" lon="14.5740567"><ele>216.4</ele><time>2026-04-20T11:01:01.873Z</time></trkpt><trkpt lat="42.1492733" lon="14.5741433"><ele>216.8</ele><time>2026-04-20T11:01:02.873Z</time></trkpt><trkpt lat="42.1492517" lon="14.5743033"><ele>217.20000000000002</ele><time>2026-04-20T11:01:04.873Z</time></trkpt><trkpt lat="42.1492333" lon="14.5743883"><ele>217.60000000000002</ele><time>2026-04-20T11:01:05.872Z</time></trkpt><trkpt lat="42.1491917" lon="14.5745467"><ele>218.0</ele><time>2026-04-20T11:01:07.873Z</time></trkpt><trkpt lat="42.149155" lon="14.574695"><ele>219.0</ele><time>2026-04-20T11:01:09.873Z</time></trkpt><trkpt lat="42.1491417" lon="14.5748333"><ele>220.0</ele><time>2026-04-20T11:01:11.873Z</time></trkpt><trkpt lat="42.14915" lon="14.5749817"><ele>221.0</ele><time>2026-04-20T11:01:13.872Z</time></trkpt><trkpt lat="42.149165" lon="14.5751333"><ele>222.0</ele><time>2026-04-20T11:01:15.873Z</time></trkpt><trkpt lat="42.1491817" lon="14.5753"><ele>221.6</ele><time>2026-04-20T11:01:17.873Z</time></trkpt><trkpt lat="42.149185" lon="14.5753917"><ele>221.2</ele><time>2026-04-20T11:01:18.872Z</time></trkpt><trkpt lat="42.14918" lon="14.57548"><ele>220.8</ele><time>2026-04-20T11:01:19.872Z</time></trkpt><trkpt lat="42.149175" lon="14.5756383"><ele>220.4</ele><time>2026-04-20T11:01:21.873Z</time></trkpt><trkpt lat="42.1491917" lon="14.5757867"><ele>220.0</ele><time>2026-04-20T11:01:23.873Z</time></trkpt><trkpt lat="42.1491817" lon="14.5759217"><ele>220.0</ele><time>2026-04-20T11:01:25.872Z</time></trkpt><trkpt lat="42.1491617" lon="14.5760383"><ele>220.0</ele><time>2026-04-20T11:01:27.873Z</time></trkpt><trkpt lat="42.1491233" lon="14.57616"><ele>220.0</ele><time>2026-04-20T11:01:29.873Z</time></trkpt><trkpt lat="42.1490817" lon="14.57629"><ele>220.0</ele><time>2026-04-20T11:01:31.872Z</time></trkpt><trkpt lat="42.1490367" lon="14.576435"><ele>220.0</ele><time>2026-04-20T11:01:33.873Z</time></trkpt><trkpt lat="42.1489833" lon="14.5765733"><ele>215.6</ele><time>2026-04-20T11:01:35.873Z</time></trkpt><trkpt lat="42.1489183" lon="14.5767133"><ele>211.2</ele><time>2026-04-20T11:01:37.873Z</time></trkpt><trkpt lat="42.14888" lon="14.576785"><ele>206.8</ele><time>2026-04-20T11:01:38.873Z</time></trkpt><trkpt lat="42.1488167" lon="14.57691"><ele>202.4</ele><time>2026-04-20T11:01:40.872Z</time></trkpt><trkpt lat="42.14878" lon="14.5770567"><ele>198.0</ele><time>2026-04-20T11:01:42.873Z</time></trkpt><trkpt lat="42.1487833" lon="14.577225"><ele>198.0</ele><time>2026-04-20T11:01:44.872Z</time></trkpt><trkpt lat="42.1488017" lon="14.5773833"><ele>198.0</ele><time>2026-04-20T11:01:46.873Z</time></trkpt><trkpt lat="42.1488117" lon="14.5775467"><ele>198.0</ele><time>2026-04-20T11:01:48.872Z</time></trkpt><trkpt lat="42.1487917" lon="14.5776833"><ele>198.0</ele><time>2026-04-20T11:01:50.873Z</time></trkpt><trkpt lat="42.1487433" lon="14.5778167"><ele>199.8</ele><time>2026-04-20T11:01:52.873Z</time></trkpt><trkpt lat="42.1487033" lon="14.5779617"><ele>201.60000000000002</ele><time>2026-04-20T11:01:54.872Z</time></trkpt><trkpt lat="42.1486633" lon="14.57809"><ele>203.39999999999998</ele><time>2026-04-20T11:01:56.872Z</time></trkpt><trkpt lat="42.1486433" lon="14.5782417"><ele>205.2</ele><time>2026-04-20T11:01:58.873Z</time></trkpt><trkpt lat="42.1486567" lon="14.5783883"><ele>207.0</ele><time>2026-04-20T11:02:00.873Z</time></trkpt><trkpt lat="42.14867" lon="14.5785083"><ele>207.0</ele><time>2026-04-20T11:02:02.873Z</time></trkpt><trkpt lat="42.14868" lon="14.578645"><ele>207.0</ele><time>2026-04-20T11:02:04.873Z</time></trkpt><trkpt lat="42.1486833" lon="14.5787817"><ele>207.0</ele><time>2026-04-20T11:02:06.873Z</time></trkpt><trkpt lat="42.1486933" lon="14.5789433"><ele>207.0</ele><time>2026-04-20T11:02:08.873Z</time></trkpt><trkpt lat="42.1487067" lon="14.5790983"><ele>207.0</ele><time>2026-04-20T11:02:10.873Z</time></trkpt><trkpt lat="42.148725" lon="14.579265"><ele>207.71428571428572</ele><time>2026-04-20T11:02:12.873Z</time></trkpt><trkpt lat="42.1487317" lon="14.5793583"><ele>208.42857142857144</ele><time>2026-04-20T11:02:13.873Z</time></trkpt><trkpt lat="42.14873" lon="14.5794533"><ele>209.14285714285717</ele><time>2026-04-20T11:02:14.873Z</time></trkpt><trkpt lat="42.1487267" lon="14.5795517"><ele>209.85714285714286</ele><time>2026-04-20T11:02:15.873Z</time></trkpt><trkpt lat="42.14873" lon="14.5796517"><ele>210.57142857142856</ele><time>2026-04-20T11:02:16.873Z</time></trkpt><trkpt lat="42.148735" lon="14.5797433"><ele>211.2857142857143</ele><time>2026-04-20T11:02:17.872Z</time></trkpt><trkpt lat="42.1487367" lon="14.5798417"><ele>212.0</ele><time>2026-04-20T11:02:18.873Z</time></trkpt><trkpt lat="42.1487433" lon="14.579935"><ele>212.00000000000003</ele><time>2026-04-20T11:02:19.873Z</time></trkpt><trkpt lat="42.1487433" lon="14.5800283"><ele>212.0</ele><time>2026-04-20T11:02:20.872Z</time></trkpt><trkpt lat="42.1487467" lon="14.5801333"><ele>212.0</ele><time>2026-04-20T11:02:21.873Z</time></trkpt><trkpt lat="42.14875" lon="14.58024"><ele>212.0</ele><time>2026-04-20T11:02:22.873Z</time></trkpt><trkpt lat="42.1487533" lon="14.58034"><ele>212.00000000000003</ele><time>2026-04-20T11:02:23.873Z</time></trkpt><trkpt lat="42.1487583" lon="14.5804417"><ele>212.0</ele><time>2026-04-20T11:02:24.873Z</time></trkpt><trkpt lat="42.1487717" lon="14.58054"><ele>210.83333333333334</ele><time>2026-04-20T11:02:25.873Z</time></trkpt><trkpt lat="42.1487783" lon="14.58065"><ele>209.66666666666669</ele><time>2026-04-20T11:02:26.873Z</time></trkpt><trkpt lat="42.14878" lon="14.5807567"><ele>208.5</ele><time>2026-04-20T11:02:27.873Z</time></trkpt><trkpt lat="42.14878" lon="14.58086"><ele>207.33333333333331</ele><time>2026-04-20T11:02:28.872Z</time></trkpt><trkpt lat="42.1487883" lon="14.5809733"><ele>206.16666666666666</ele><time>2026-04-20T11:02:29.872Z</time></trkpt><trkpt lat="42.14879" lon="14.5810867"><ele>205.0</ele><time>2026-04-20T11:02:30.873Z</time></trkpt><trkpt lat="42.1487883" lon="14.581205"><ele>202.49999999999997</ele><time>2026-04-20T11:02:31.873Z</time></trkpt><trkpt lat="42.1488033" lon="14.5813117"><ele>200.0</ele><time>2026-04-20T11:02:32.872Z</time></trkpt><trkpt lat="42.1488217" lon="14.5814317"><ele>197.5</ele><time>2026-04-20T11:02:33.872Z</time></trkpt><trkpt lat="42.14885" lon="14.581535"><ele>195.0</ele><time>2026-04-20T11:02:34.872Z</time></trkpt><trkpt lat="42.14889" lon="14.581635"><ele>192.5</ele><time>2026-04-20T11:02:35.873Z</time></trkpt><trkpt lat="42.1489383" lon="14.5817283"><ele>190.0</ele><time>2026-04-20T11:02:36.872Z</time></trkpt><trkpt lat="42.14899" lon="14.5818183"><ele>191.83333333333334</ele><time>2026-04-20T11:02:37.873Z</time></trkpt><trkpt lat="42.1490483" lon="14.5819083"><ele>193.66666666666669</ele><time>2026-04-20T11:02:38.872Z</time></trkpt><trkpt lat="42.1491033" lon="14.581995"><ele>195.5</ele><time>2026-04-20T11:02:39.872Z</time></trkpt><trkpt lat="42.14916" lon="14.58208"><ele>197.33333333333334</ele><time>2026-04-20T11:02:40.873Z</time></trkpt><trkpt lat="42.1492167" lon="14.5821667"><ele>199.16666666666666</ele><time>2026-04-20T11:02:41.873Z</time></trkpt><trkpt lat="42.14927" lon="14.5822533"><ele>201.0</ele><time>2026-04-20T11:02:42.873Z</time></trkpt><trkpt lat="42.14932" lon="14.5823333"><ele>201.0</ele><time>2026-04-20T11:02:43.873Z</time></trkpt><trkpt lat="42.1493717" lon="14.5824067"><ele>201.0</ele><time>2026-04-20T11:02:44.872Z</time></trkpt><trkpt lat="42.1494117" lon="14.5824867"><ele>201.0</ele><time>2026-04-20T11:02:45.873Z</time></trkpt><trkpt lat="42.1494367" lon="14.5825817"><ele>201.0</ele><time>2026-04-20T11:02:46.872Z</time></trkpt><trkpt lat="42.1494433" lon="14.582685"><ele>201.0</ele><time>2026-04-20T11:02:47.873Z</time></trkpt><trkpt lat="42.1494333" lon="14.582785"><ele>201.0</ele><time>2026-04-20T11:02:48.873Z</time></trkpt><trkpt lat="42.1494133" lon="14.5828883"><ele>199.83333333333334</ele><time>2026-04-20T11:02:49.873Z</time></trkpt><trkpt lat="42.1493967" lon="14.5829983"><ele>198.66666666666669</ele><time>2026-04-20T11:02:50.872Z</time></trkpt><trkpt lat="42.1493733" lon="14.5831083"><ele>197.5</ele><time>2026-04-20T11:02:51.872Z</time></trkpt><trkpt lat="42.1493483" lon="14.5832183"><ele>196.33333333333334</ele><time>2026-04-20T11:02:52.873Z</time></trkpt><trkpt lat="42.1493283" lon="14.58333"><ele>195.16666666666669</ele><time>2026-04-20T11:02:53.873Z</time></trkpt><trkpt lat="42.1493067" lon="14.58345"><ele>194.0</ele><time>2026-04-20T11:02:54.873Z</time></trkpt><trkpt lat="42.1493" lon="14.5835633"><ele>194.0</ele><time>2026-04-20T11:02:55.873Z</time></trkpt><trkpt lat="42.149295" lon="14.5836817"><ele>194.0</ele><time>2026-04-20T11:02:56.873Z</time></trkpt><trkpt lat="42.14929" lon="14.5838133"><ele>194.0</ele><time>2026-04-20T11:02:57.873Z</time></trkpt><trkpt lat="42.14928" lon="14.5839483"><ele>194.0</ele><time>2026-04-20T11:02:58.873Z</time></trkpt><trkpt lat="42.1492667" lon="14.5840733"><ele>194.0</ele><time>2026-04-20T11:02:59.873Z</time></trkpt><trkpt lat="42.1492483" lon="14.5841883"><ele>194.00000000000003</ele><time>2026-04-20T11:03:00.872Z</time></trkpt><trkpt lat="42.1492367" lon="14.5843"><ele>194.0</ele><time>2026-04-20T11:03:01.873Z</time></trkpt><trkpt lat="42.1492117" lon="14.5844017"><ele>194.0</ele><time>2026-04-20T11:03:02.873Z</time></trkpt><trkpt lat="42.1491917" lon="14.5844983"><ele>194.0</ele><time>2026-04-20T11:03:03.872Z</time></trkpt><trkpt lat="42.14917" lon="14.5845833"><ele>194.00000000000003</ele><time>2026-04-20T11:03:04.873Z</time></trkpt><trkpt lat="42.1491367" lon="14.58473"><ele>194.0</ele><time>2026-04-20T11:03:06.873Z</time></trkpt><trkpt lat="42.1491367" lon="14.5848617"><ele>194.42857142857142</ele><time>2026-04-20T11:03:08.873Z</time></trkpt><trkpt lat="42.1491833" lon="14.5849417"><ele>194.85714285714286</ele><time>2026-04-20T11:03:10.873Z</time></trkpt><trkpt lat="42.1492383" lon="14.5850017"><ele>195.28571428571428</ele><time>2026-04-20T11:03:12.873Z</time></trkpt><trkpt lat="42.1493117" lon="14.5850417"><ele>195.71428571428572</ele><time>2026-04-20T11:03:14.873Z</time></trkpt><trkpt lat="42.1493767" lon="14.5850867"><ele>196.14285714285717</ele><time>2026-04-20T11:03:16.873Z</time></trkpt><trkpt lat="42.1494383" lon="14.58513"><ele>196.57142857142858</ele><time>2026-04-20T11:03:18.872Z</time></trkpt><trkpt lat="42.149505" lon="14.5851683"><ele>197.0</ele><time>2026-04-20T11:03:20.873Z</time></trkpt><trkpt lat="42.1495867" lon="14.5852083"><ele>197.00000000000003</ele><time>2026-04-20T11:03:23.873Z</time></trkpt><trkpt lat="42.1496517" lon="14.5852167"><ele>197.0</ele><time>2026-04-20T11:03:25.872Z</time></trkpt><trkpt lat="42.1497317" lon="14.5852183"><ele>197.0</ele><time>2026-04-20T11:03:28.872Z</time></trkpt><trkpt lat="42.14981" lon="14.5852217"><ele>197.0</ele><time>2026-04-20T11:03:31.872Z</time></trkpt><trkpt lat="42.1498767" lon="14.58523"><ele>197.00000000000003</ele><time>2026-04-20T11:03:34.873Z</time></trkpt><trkpt lat="42.14994" lon="14.5852367"><ele>197.0</ele><time>2026-04-20T11:03:38.872Z</time></trkpt><trkpt lat="42.1498667" lon="14.5850367"><ele>197.0</ele><time>2026-04-20T11:04:43.374Z</time></trkpt><trkpt lat="42.1498933" lon="14.58514"><ele>205.0</ele><time>2026-04-20T11:04:46.875Z</time></trkpt><trkpt lat="42.1499483" lon="14.58523"><ele>205.0</ele><time>2026-04-20T11:04:52.875Z</time></trkpt></trkseg></trk></gpx>